<?xml version='1.0' encoding='UTF-8'?><gpx version="1.1" creator="JPX - https://github.com/jenetics/jpx" xmlns="http://www.topografix.com/GPX/1/1"><trk><trkseg><trkpt lat="43.7331717" lon="11.299111"><ele>88.0</ele><time>2026-05-03T14:36:08.606Z</time></trkpt><trkpt lat="43.7331633" lon="11.2991994"><ele>88.0</ele><time>2026-05-03T14:36:09.606Z</time></trkpt><trkpt lat="43.7331522" lon="11.2992971"><ele>88.0</ele><time>2026-05-03T14:36:10.606Z</time></trkpt><trkpt lat="43.7331369" lon="11.2994118"><ele>88.0</ele><time>2026-05-03T14:36:11.606Z</time></trkpt><trkpt lat="43.733123" lon="11.2995423"><ele>88.0</ele><time>2026-05-03T14:36:12.606Z</time></trkpt><trkpt lat="43.7331095" lon="11.2996875"><ele>88.0</ele><time>2026-05-03T14:36:13.605Z</time></trkpt><trkpt lat="43.7330933" lon="11.2998467"><ele>87.75</ele><time>2026-05-03T14:36:14.606Z</time></trkpt><trkpt lat="43.7330774" lon="11.3000151"><ele>87.5</ele><time>2026-05-03T14:36:15.606Z</time></trkpt><trkpt lat="43.7330561" lon="11.300192"><ele>87.25</ele><time>2026-05-03T14:36:16.606Z</time></trkpt><trkpt lat="43.7330421" lon="11.300377"><ele>87.0</ele><time>2026-05-03T14:36:17.606Z</time></trkpt><trkpt lat="43.7330267" lon="11.3005683"><ele>88.5</ele><time>2026-05-03T14:36:18.606Z</time></trkpt><trkpt lat="43.7330103" lon="11.3007646"><ele>90.0</ele><time>2026-05-03T14:36:19.606Z</time></trkpt><trkpt lat="43.7329954" lon="11.3009673"><ele>91.5</ele><time>2026-05-03T14:36:20.606Z</time></trkpt><trkpt lat="43.7329807" lon="11.301171"><ele>93.0</ele><time>2026-05-03T14:36:21.606Z</time></trkpt><trkpt lat="43.7329667" lon="11.3013787"><ele>93.33333333333333</ele><time>2026-05-03T14:36:22.606Z</time></trkpt><trkpt lat="43.7329487" lon="11.3015897"><ele>93.66666666666666</ele><time>2026-05-03T14:36:23.606Z</time></trkpt><trkpt lat="43.7329314" lon="11.3018029"><ele>94.0</ele><time>2026-05-03T14:36:24.606Z</time></trkpt><trkpt lat="43.7329136" lon="11.3020117"><ele>94.0</ele><time>2026-05-03T14:36:25.606Z</time></trkpt><trkpt lat="43.7328911" lon="11.3022179"><ele>94.0</ele><time>2026-05-03T14:36:26.605Z</time></trkpt><trkpt lat="43.7328642" lon="11.3024136"><ele>94.0</ele><time>2026-05-03T14:36:27.606Z</time></trkpt><trkpt lat="43.7328351" lon="11.3025983"><ele>94.0</ele><time>2026-05-03T14:36:28.605Z</time></trkpt><trkpt lat="43.7327994" lon="11.302758"><ele>93.83333333333333</ele><time>2026-05-03T14:36:29.606Z</time></trkpt><trkpt lat="43.7327587" lon="11.3028858"><ele>93.66666666666666</ele><time>2026-05-03T14:36:30.606Z</time></trkpt><trkpt lat="43.7327023" lon="11.3029851"><ele>93.5</ele><time>2026-05-03T14:36:31.606Z</time></trkpt><trkpt lat="43.7326436" lon="11.3030606"><ele>93.33333333333333</ele><time>2026-05-03T14:36:32.606Z</time></trkpt><trkpt lat="43.7325976" lon="11.3031543"><ele>93.16666666666667</ele><time>2026-05-03T14:36:33.606Z</time></trkpt><trkpt lat="43.732581" lon="11.3032397"><ele>93.0</ele><time>2026-05-03T14:36:34.606Z</time></trkpt><trkpt lat="43.7326023" lon="11.3033273"><ele>93.4</ele><time>2026-05-03T14:36:35.605Z</time></trkpt><trkpt lat="43.7326535" lon="11.3033993"><ele>93.80000000000001</ele><time>2026-05-03T14:36:36.606Z</time></trkpt><trkpt lat="43.7327264" lon="11.3034719"><ele>94.2</ele><time>2026-05-03T14:36:37.606Z</time></trkpt><trkpt lat="43.7327845" lon="11.3035775"><ele>94.6</ele><time>2026-05-03T14:36:38.605Z</time></trkpt><trkpt lat="43.7328282" lon="11.3037172"><ele>95.0</ele><time>2026-05-03T14:36:39.605Z</time></trkpt><trkpt lat="43.7328524" lon="11.3038784"><ele>95.0</ele><time>2026-05-03T14:36:40.606Z</time></trkpt><trkpt lat="43.7328622" lon="11.3040549"><ele>95.0</ele><time>2026-05-03T14:36:41.606Z</time></trkpt><trkpt lat="43.7328655" lon="11.3042505"><ele>95.0</ele><time>2026-05-03T14:36:42.606Z</time></trkpt><trkpt lat="43.7328726" lon="11.3044498"><ele>95.0</ele><time>2026-05-03T14:36:43.606Z</time></trkpt><trkpt lat="43.7328721" lon="11.3046495"><ele>95.0</ele><time>2026-05-03T14:36:44.606Z</time></trkpt><trkpt lat="43.7328737" lon="11.3048527"><ele>95.0</ele><time>2026-05-03T14:36:45.606Z</time></trkpt><trkpt lat="43.7328715" lon="11.3050666"><ele>95.0</ele><time>2026-05-03T14:36:46.605Z</time></trkpt><trkpt lat="43.7328672" lon="11.3052799"><ele>95.0</ele><time>2026-05-03T14:36:47.606Z</time></trkpt><trkpt lat="43.7328608" lon="11.3054952"><ele>95.0</ele><time>2026-05-03T14:36:48.606Z</time></trkpt><trkpt lat="43.7328515" lon="11.3057124"><ele>95.0</ele><time>2026-05-03T14:36:49.605Z</time></trkpt><trkpt lat="43.732834" lon="11.3059309"><ele>95.33333333333334</ele><time>2026-05-03T14:36:50.606Z</time></trkpt><trkpt lat="43.7328131" lon="11.3061475"><ele>95.66666666666667</ele><time>2026-05-03T14:36:51.606Z</time></trkpt><trkpt lat="43.7327913" lon="11.3063675"><ele>96.0</ele><time>2026-05-03T14:36:52.606Z</time></trkpt><trkpt lat="43.7327637" lon="11.3065852"><ele>96.33333333333334</ele><time>2026-05-03T14:36:53.605Z</time></trkpt><trkpt lat="43.732737" lon="11.3067985"><ele>96.66666666666667</ele><time>2026-05-03T14:36:54.606Z</time></trkpt><trkpt lat="43.7327096" lon="11.3070145"><ele>97.0</ele><time>2026-05-03T14:36:55.606Z</time></trkpt><trkpt lat="43.7326829" lon="11.3072307"><ele>96.33333333333334</ele><time>2026-05-03T14:36:56.606Z</time></trkpt><trkpt lat="43.7326572" lon="11.3074442"><ele>95.66666666666667</ele><time>2026-05-03T14:36:57.606Z</time></trkpt><trkpt lat="43.7326303" lon="11.3076546"><ele>95.0</ele><time>2026-05-03T14:36:58.606Z</time></trkpt><trkpt lat="43.7326051" lon="11.3078637"><ele>95.0</ele><time>2026-05-03T14:36:59.606Z</time></trkpt><trkpt lat="43.7325769" lon="11.3080702"><ele>95.0</ele><time>2026-05-03T14:37:00.606Z</time></trkpt><trkpt lat="43.7325519" lon="11.3082745"><ele>95.0</ele><time>2026-05-03T14:37:01.606Z</time></trkpt><trkpt lat="43.7325193" lon="11.3084599"><ele>95.0</ele><time>2026-05-03T14:37:02.606Z</time></trkpt><trkpt lat="43.7324727" lon="11.3086224"><ele>95.0</ele><time>2026-05-03T14:37:03.606Z</time></trkpt><trkpt lat="43.7324154" lon="11.3087475"><ele>95.0</ele><time>2026-05-03T14:37:04.606Z</time></trkpt><trkpt lat="43.7323397" lon="11.3088574"><ele>95.0</ele><time>2026-05-03T14:37:05.606Z</time></trkpt><trkpt lat="43.7322723" lon="11.3089119"><ele>95.0</ele><time>2026-05-03T14:37:06.606Z</time></trkpt><trkpt lat="43.7321914" lon="11.3089395"><ele>95.0</ele><time>2026-05-03T14:37:07.606Z</time></trkpt><trkpt lat="43.7321088" lon="11.3089486"><ele>94.83333333333334</ele><time>2026-05-03T14:37:08.606Z</time></trkpt><trkpt lat="43.7320316" lon="11.3089798"><ele>94.66666666666667</ele><time>2026-05-03T14:37:09.606Z</time></trkpt><trkpt lat="43.7319673" lon="11.3090442"><ele>94.5</ele><time>2026-05-03T14:37:10.606Z</time></trkpt><trkpt lat="43.7319313" lon="11.3091536"><ele>94.33333333333333</ele><time>2026-05-03T14:37:11.606Z</time></trkpt><trkpt lat="43.7319174" lon="11.3092808"><ele>94.16666666666666</ele><time>2026-05-03T14:37:12.605Z</time></trkpt><trkpt lat="43.7318855" lon="11.3094171"><ele>94.0</ele><time>2026-05-03T14:37:13.606Z</time></trkpt><trkpt lat="43.7318409" lon="11.3095619"><ele>94.0</ele><time>2026-05-03T14:37:14.606Z</time></trkpt><trkpt lat="43.7317831" lon="11.3097093"><ele>94.0</ele><time>2026-05-03T14:37:15.606Z</time></trkpt><trkpt lat="43.731725" lon="11.3098595"><ele>94.0</ele><time>2026-05-03T14:37:16.605Z</time></trkpt><trkpt lat="43.731663" lon="11.310018"><ele>94.0</ele><time>2026-05-03T14:37:17.606Z</time></trkpt><trkpt lat="43.7315965" lon="11.3101821"><ele>94.25</ele><time>2026-05-03T14:37:18.606Z</time></trkpt><trkpt lat="43.7315281" lon="11.3103669"><ele>94.5</ele><time>2026-05-03T14:37:19.606Z</time></trkpt><trkpt lat="43.7314616" lon="11.3105439"><ele>94.75</ele><time>2026-05-03T14:37:20.606Z</time></trkpt><trkpt lat="43.7313983" lon="11.3107247"><ele>95.0</ele><time>2026-05-03T14:37:21.605Z</time></trkpt><trkpt lat="43.7313278" lon="11.3109024"><ele>96.0</ele><time>2026-05-03T14:37:22.606Z</time></trkpt><trkpt lat="43.7312583" lon="11.3110833"><ele>97.0</ele><time>2026-05-03T14:37:23.606Z</time></trkpt><trkpt lat="43.7311895" lon="11.3112633"><ele>98.0</ele><time>2026-05-03T14:37:24.606Z</time></trkpt><trkpt lat="43.7311213" lon="11.3114467"><ele>99.0</ele><time>2026-05-03T14:37:25.606Z</time></trkpt><trkpt lat="43.7310494" lon="11.3116231"><ele>99.25</ele><time>2026-05-03T14:37:26.606Z</time></trkpt><trkpt lat="43.7309809" lon="11.3117986"><ele>99.5</ele><time>2026-05-03T14:37:27.606Z</time></trkpt><trkpt lat="43.7309142" lon="11.3119779"><ele>99.75</ele><time>2026-05-03T14:37:28.606Z</time></trkpt><trkpt lat="43.7308494" lon="11.3121544"><ele>100.0</ele><time>2026-05-03T14:37:29.606Z</time></trkpt><trkpt lat="43.7307976" lon="11.3123286"><ele>100.0</ele><time>2026-05-03T14:37:30.606Z</time></trkpt><trkpt lat="43.7307621" lon="11.3125043"><ele>100.0</ele><time>2026-05-03T14:37:31.606Z</time></trkpt><trkpt lat="43.7307367" lon="11.3126845"><ele>100.0</ele><time>2026-05-03T14:37:32.606Z</time></trkpt><trkpt lat="43.7307192" lon="11.3128625"><ele>100.0</ele><time>2026-05-03T14:37:33.605Z</time></trkpt><trkpt lat="43.7307021" lon="11.3130364"><ele>100.0</ele><time>2026-05-03T14:37:34.606Z</time></trkpt><trkpt lat="43.7306902" lon="11.313214"><ele>100.0</ele><time>2026-05-03T14:37:35.606Z</time></trkpt><trkpt lat="43.7306763" lon="11.3133912"><ele>100.0</ele><time>2026-05-03T14:37:36.606Z</time></trkpt><trkpt lat="43.7306565" lon="11.3135696"><ele>100.0</ele><time>2026-05-03T14:37:37.606Z</time></trkpt><trkpt lat="43.7306286" lon="11.3137449"><ele>100.25</ele><time>2026-05-03T14:37:38.606Z</time></trkpt><trkpt lat="43.7305963" lon="11.3139134"><ele>100.5</ele><time>2026-05-03T14:37:39.606Z</time></trkpt><trkpt lat="43.7305583" lon="11.3140804"><ele>100.75</ele><time>2026-05-03T14:37:40.606Z</time></trkpt><trkpt lat="43.7305107" lon="11.3142442"><ele>101.0</ele><time>2026-05-03T14:37:41.606Z</time></trkpt><trkpt lat="43.7304587" lon="11.3144036"><ele>101.0</ele><time>2026-05-03T14:37:42.605Z</time></trkpt><trkpt lat="43.7304076" lon="11.3145607"><ele>101.0</ele><time>2026-05-03T14:37:43.606Z</time></trkpt><trkpt lat="43.7303537" lon="11.3147082"><ele>101.0</ele><time>2026-05-03T14:37:44.606Z</time></trkpt><trkpt lat="43.7303017" lon="11.314849"><ele>101.0</ele><time>2026-05-03T14:37:45.606Z</time></trkpt><trkpt lat="43.7302547" lon="11.3149802"><ele>101.19999999999999</ele><time>2026-05-03T14:37:46.605Z</time></trkpt><trkpt lat="43.7302106" lon="11.3151147"><ele>101.39999999999999</ele><time>2026-05-03T14:37:47.605Z</time></trkpt><trkpt lat="43.7301672" lon="11.3152316"><ele>101.6</ele><time>2026-05-03T14:37:48.606Z</time></trkpt><trkpt lat="43.7301236" lon="11.315348"><ele>101.8</ele><time>2026-05-03T14:37:49.605Z</time></trkpt><trkpt lat="43.7300855" lon="11.3154625"><ele>102.0</ele><time>2026-05-03T14:37:50.606Z</time></trkpt><trkpt lat="43.7300493" lon="11.3155685"><ele>102.0</ele><time>2026-05-03T14:37:51.606Z</time></trkpt><trkpt lat="43.7300087" lon="11.3156777"><ele>102.0</ele><time>2026-05-03T14:37:52.606Z</time></trkpt><trkpt lat="43.7299741" lon="11.315783"><ele>102.0</ele><time>2026-05-03T14:37:53.606Z</time></trkpt><trkpt lat="43.7299378" lon="11.3158784"><ele>102.0</ele><time>2026-05-03T14:37:54.605Z</time></trkpt><trkpt lat="43.7299048" lon="11.3159535"><ele>102.0</ele><time>2026-05-03T14:37:55.606Z</time></trkpt><trkpt lat="43.7298267" lon="11.3160784"><ele>102.0</ele><time>2026-05-03T14:37:57.606Z</time></trkpt><trkpt lat="43.7297328" lon="11.316123"><ele>102.0</ele><time>2026-05-03T14:37:59.606Z</time></trkpt><trkpt lat="43.7296268" lon="11.316128"><ele>102.0</ele><time>2026-05-03T14:38:01.606Z</time></trkpt><trkpt lat="43.7295212" lon="11.3161226"><ele>102.0</ele><time>2026-05-03T14:38:03.606Z</time></trkpt><trkpt lat="43.7294291" lon="11.3161775"><ele>102.0</ele><time>2026-05-03T14:38:05.606Z</time></trkpt><trkpt lat="43.7293704" lon="11.3163132"><ele>102.0</ele><time>2026-05-03T14:38:07.606Z</time></trkpt><trkpt lat="43.7293582" lon="11.3164087"><ele>102.66666666666667</ele><time>2026-05-03T14:38:08.606Z</time></trkpt><trkpt lat="43.7293419" lon="11.3165128"><ele>103.33333333333334</ele><time>2026-05-03T14:38:09.606Z</time></trkpt><trkpt lat="43.7293303" lon="11.3166183"><ele>104.0</ele><time>2026-05-03T14:38:10.605Z</time></trkpt><trkpt lat="43.7293164" lon="11.3167411"><ele>104.66666666666667</ele><time>2026-05-03T14:38:11.606Z</time></trkpt><trkpt lat="43.7292954" lon="11.3168616"><ele>105.33333333333334</ele><time>2026-05-03T14:38:12.606Z</time></trkpt><trkpt lat="43.7292698" lon="11.3169862"><ele>106.0</ele><time>2026-05-03T14:38:13.606Z</time></trkpt><trkpt lat="43.7292364" lon="11.3171119"><ele>106.0</ele><time>2026-05-03T14:38:14.606Z</time></trkpt><trkpt lat="43.7291864" lon="11.3172289"><ele>106.0</ele><time>2026-05-03T14:38:15.606Z</time></trkpt><trkpt lat="43.7291362" lon="11.317339"><ele>106.0</ele><time>2026-05-03T14:38:16.606Z</time></trkpt><trkpt lat="43.7290816" lon="11.3174415"><ele>106.0</ele><time>2026-05-03T14:38:17.605Z</time></trkpt><trkpt lat="43.7290255" lon="11.3175464"><ele>106.0</ele><time>2026-05-03T14:38:18.606Z</time></trkpt><trkpt lat="43.72897" lon="11.3176525"><ele>106.0</ele><time>2026-05-03T14:38:19.606Z</time></trkpt><trkpt lat="43.728907" lon="11.3177637"><ele>106.0</ele><time>2026-05-03T14:38:20.605Z</time></trkpt><trkpt lat="43.7288547" lon="11.3178659"><ele>106.0</ele><time>2026-05-03T14:38:21.606Z</time></trkpt><trkpt lat="43.7288021" lon="11.3179667"><ele>106.0</ele><time>2026-05-03T14:38:22.606Z</time></trkpt><trkpt lat="43.7287521" lon="11.3180665"><ele>106.0</ele><time>2026-05-03T14:38:23.606Z</time></trkpt><trkpt lat="43.7287024" lon="11.3181645"><ele>106.33333333333334</ele><time>2026-05-03T14:38:24.606Z</time></trkpt><trkpt lat="43.7286553" lon="11.3182616"><ele>106.66666666666667</ele><time>2026-05-03T14:38:25.605Z</time></trkpt><trkpt lat="43.7286054" lon="11.3183617"><ele>107.0</ele><time>2026-05-03T14:38:26.605Z</time></trkpt><trkpt lat="43.728559" lon="11.318468"><ele>107.33333333333334</ele><time>2026-05-03T14:38:27.606Z</time></trkpt><trkpt lat="43.7285207" lon="11.3185693"><ele>107.66666666666667</ele><time>2026-05-03T14:38:28.606Z</time></trkpt><trkpt lat="43.7284763" lon="11.3186705"><ele>108.0</ele><time>2026-05-03T14:38:29.605Z</time></trkpt><trkpt lat="43.7284341" lon="11.3187686"><ele>108.33333333333333</ele><time>2026-05-03T14:38:30.605Z</time></trkpt><trkpt lat="43.7283883" lon="11.3188703"><ele>108.66666666666666</ele><time>2026-05-03T14:38:31.605Z</time></trkpt><trkpt lat="43.7283431" lon="11.3189724"><ele>109.0</ele><time>2026-05-03T14:38:32.605Z</time></trkpt><trkpt lat="43.7282985" lon="11.3190742"><ele>109.33333333333333</ele><time>2026-05-03T14:38:33.606Z</time></trkpt><trkpt lat="43.7282511" lon="11.3191775"><ele>109.66666666666666</ele><time>2026-05-03T14:38:34.605Z</time></trkpt><trkpt lat="43.7282034" lon="11.319284"><ele>110.0</ele><time>2026-05-03T14:38:35.606Z</time></trkpt><trkpt lat="43.7281561" lon="11.3193819"><ele>109.99999999999999</ele><time>2026-05-03T14:38:36.606Z</time></trkpt><trkpt lat="43.7281061" lon="11.3194766"><ele>110.0</ele><time>2026-05-03T14:38:37.606Z</time></trkpt><trkpt lat="43.7280535" lon="11.3195696"><ele>110.0</ele><time>2026-05-03T14:38:38.606Z</time></trkpt><trkpt lat="43.7279966" lon="11.3196566"><ele>110.0</ele><time>2026-05-03T14:38:39.606Z</time></trkpt><trkpt lat="43.7279346" lon="11.3197339"><ele>109.99999999999999</ele><time>2026-05-03T14:38:40.606Z</time></trkpt><trkpt lat="43.7278676" lon="11.3198214"><ele>110.0</ele><time>2026-05-03T14:38:41.606Z</time></trkpt><trkpt lat="43.7278071" lon="11.3198929"><ele>110.33333333333333</ele><time>2026-05-03T14:38:42.605Z</time></trkpt><trkpt lat="43.7277347" lon="11.3199648"><ele>110.66666666666666</ele><time>2026-05-03T14:38:43.606Z</time></trkpt><trkpt lat="43.7276615" lon="11.3200289"><ele>111.0</ele><time>2026-05-03T14:38:44.605Z</time></trkpt><trkpt lat="43.7275895" lon="11.3200927"><ele>111.33333333333334</ele><time>2026-05-03T14:38:45.605Z</time></trkpt><trkpt lat="43.7275191" lon="11.3201569"><ele>111.66666666666667</ele><time>2026-05-03T14:38:46.606Z</time></trkpt><trkpt lat="43.7274481" lon="11.3202173"><ele>112.0</ele><time>2026-05-03T14:38:47.605Z</time></trkpt><trkpt lat="43.7273786" lon="11.3202688"><ele>112.14285714285714</ele><time>2026-05-03T14:38:48.606Z</time></trkpt><trkpt lat="43.7273123" lon="11.3203269"><ele>112.28571428571428</ele><time>2026-05-03T14:38:49.606Z</time></trkpt><trkpt lat="43.7272504" lon="11.3203787"><ele>112.42857142857143</ele><time>2026-05-03T14:38:50.605Z</time></trkpt><trkpt lat="43.7271849" lon="11.3204263"><ele>112.57142857142857</ele><time>2026-05-03T14:38:51.605Z</time></trkpt><trkpt lat="43.727126" lon="11.3204765"><ele>112.71428571428571</ele><time>2026-05-03T14:38:52.606Z</time></trkpt><trkpt lat="43.7270653" lon="11.3205232"><ele>112.85714285714286</ele><time>2026-05-03T14:38:53.606Z</time></trkpt><trkpt lat="43.7270039" lon="11.3205732"><ele>113.0</ele><time>2026-05-03T14:38:54.606Z</time></trkpt><trkpt lat="43.7269436" lon="11.3206264"><ele>112.66666666666666</ele><time>2026-05-03T14:38:55.606Z</time></trkpt><trkpt lat="43.7268745" lon="11.32068"><ele>112.33333333333333</ele><time>2026-05-03T14:38:56.606Z</time></trkpt><trkpt lat="43.7268107" lon="11.3207317"><ele>112.0</ele><time>2026-05-03T14:38:57.606Z</time></trkpt><trkpt lat="43.726748" lon="11.320777"><ele>111.66666666666666</ele><time>2026-05-03T14:38:58.606Z</time></trkpt><trkpt lat="43.7266515" lon="11.3208349"><ele>111.33333333333333</ele><time>2026-05-03T14:39:00.606Z</time></trkpt><trkpt lat="43.7265815" lon="11.3209117"><ele>111.0</ele><time>2026-05-03T14:39:02.605Z</time></trkpt><trkpt lat="43.7265605" lon="11.3210184"><ele>111.0</ele><time>2026-05-03T14:39:04.606Z</time></trkpt><trkpt lat="43.7266012" lon="11.3211344"><ele>111.0</ele><time>2026-05-03T14:39:06.605Z</time></trkpt><trkpt lat="43.7266198" lon="11.3212577"><ele>111.0</ele><time>2026-05-03T14:39:08.606Z</time></trkpt><trkpt lat="43.7265909" lon="11.3213843"><ele>111.0</ele><time>2026-05-03T14:39:10.605Z</time></trkpt><trkpt lat="43.7265396" lon="11.321513"><ele>111.0</ele><time>2026-05-03T14:39:12.606Z</time></trkpt><trkpt lat="43.7265039" lon="11.3216586"><ele>111.33333333333333</ele><time>2026-05-03T14:39:14.606Z</time></trkpt><trkpt lat="43.7264811" lon="11.3217708"><ele>111.66666666666666</ele><time>2026-05-03T14:39:16.605Z</time></trkpt><trkpt lat="43.7264621" lon="11.3218786"><ele>112.0</ele><time>2026-05-03T14:39:18.606Z</time></trkpt><trkpt lat="43.7264509" lon="11.3219703"><ele>112.33333333333333</ele><time>2026-05-03T14:39:20.606Z</time></trkpt><trkpt lat="43.7264768" lon="11.3220711"><ele>112.66666666666666</ele><time>2026-05-03T14:39:22.606Z</time></trkpt><trkpt lat="43.7265378" lon="11.3221354"><ele>113.0</ele><time>2026-05-03T14:39:24.606Z</time></trkpt><trkpt lat="43.7266167" lon="11.3221837"><ele>113.2</ele><time>2026-05-03T14:39:26.606Z</time></trkpt><trkpt lat="43.7267037" lon="11.3222446"><ele>113.4</ele><time>2026-05-03T14:39:28.606Z</time></trkpt><trkpt lat="43.7267966" lon="11.3222986"><ele>113.60000000000001</ele><time>2026-05-03T14:39:30.605Z</time></trkpt><trkpt lat="43.7268876" lon="11.3223652"><ele>113.80000000000001</ele><time>2026-05-03T14:39:32.605Z</time></trkpt><trkpt lat="43.7269562" lon="11.3224174"><ele>114.0</ele><time>2026-05-03T14:39:34.605Z</time></trkpt><trkpt lat="43.7270261" lon="11.3224875"><ele>115.4</ele><time>2026-05-03T14:39:37.606Z</time></trkpt><trkpt lat="43.7270591" lon="11.3225641"><ele>116.80000000000001</ele><time>2026-05-03T14:39:39.606Z</time></trkpt><trkpt lat="43.7270697" lon="11.3226986"><ele>118.19999999999999</ele><time>2026-05-03T14:39:41.606Z</time></trkpt><trkpt lat="43.7270536" lon="11.3228396"><ele>119.6</ele><time>2026-05-03T14:39:43.605Z</time></trkpt><trkpt lat="43.7270125" lon="11.322991"><ele>121.0</ele><time>2026-05-03T14:39:45.606Z</time></trkpt><trkpt lat="43.7269902" lon="11.323144"><ele>121.16666666666667</ele><time>2026-05-03T14:39:47.606Z</time></trkpt><trkpt lat="43.7270134" lon="11.3232681"><ele>121.33333333333334</ele><time>2026-05-03T14:39:49.606Z</time></trkpt><trkpt lat="43.7270662" lon="11.3233706"><ele>121.5</ele><time>2026-05-03T14:39:51.606Z</time></trkpt><trkpt lat="43.727129" lon="11.323468"><ele>121.66666666666666</ele><time>2026-05-03T14:39:53.606Z</time></trkpt><trkpt lat="43.7271783" lon="11.3235377"><ele>121.83333333333333</ele><time>2026-05-03T14:39:55.605Z</time></trkpt><trkpt lat="43.7272263" lon="11.3236182"><ele>122.0</ele><time>2026-05-03T14:39:57.606Z</time></trkpt><trkpt lat="43.7272821" lon="11.3236987"><ele>122.0</ele><time>2026-05-03T14:39:59.606Z</time></trkpt><trkpt lat="43.7273571" lon="11.3238119"><ele>121.99999999999999</ele><time>2026-05-03T14:40:01.606Z</time></trkpt><trkpt lat="43.727404" lon="11.3238981"><ele>121.99999999999999</ele><time>2026-05-03T14:40:02.606Z</time></trkpt><trkpt lat="43.7274642" lon="11.3239939"><ele>122.0</ele><time>2026-05-03T14:40:03.606Z</time></trkpt><trkpt lat="43.7275269" lon="11.3240968"><ele>122.0</ele><time>2026-05-03T14:40:04.606Z</time></trkpt><trkpt lat="43.7276003" lon="11.3242026"><ele>122.6</ele><time>2026-05-03T14:40:05.606Z</time></trkpt><trkpt lat="43.7276767" lon="11.3243003"><ele>123.19999999999999</ele><time>2026-05-03T14:40:06.605Z</time></trkpt><trkpt lat="43.7277474" lon="11.3244062"><ele>123.8</ele><time>2026-05-03T14:40:07.605Z</time></trkpt><trkpt lat="43.7278183" lon="11.3245252"><ele>124.4</ele><time>2026-05-03T14:40:08.606Z</time></trkpt><trkpt lat="43.7278832" lon="11.3246288"><ele>125.0</ele><time>2026-05-03T14:40:09.606Z</time></trkpt><trkpt lat="43.7279434" lon="11.3247373"><ele>126.0</ele><time>2026-05-03T14:40:10.606Z</time></trkpt><trkpt lat="43.7280088" lon="11.3248375"><ele>127.0</ele><time>2026-05-03T14:40:11.606Z</time></trkpt><trkpt lat="43.7280676" lon="11.3249451"><ele>128.0</ele><time>2026-05-03T14:40:12.606Z</time></trkpt><trkpt lat="43.7281321" lon="11.325071"><ele>129.0</ele><time>2026-05-03T14:40:13.605Z</time></trkpt><trkpt lat="43.7281992" lon="11.3252017"><ele>130.0</ele><time>2026-05-03T14:40:14.605Z</time></trkpt><trkpt lat="43.7282675" lon="11.3253269"><ele>130.0</ele><time>2026-05-03T14:40:15.606Z</time></trkpt><trkpt lat="43.7283336" lon="11.3254619"><ele>130.0</ele><time>2026-05-03T14:40:16.606Z</time></trkpt><trkpt lat="43.7284032" lon="11.3255901"><ele>130.0</ele><time>2026-05-03T14:40:17.606Z</time></trkpt><trkpt lat="43.7284738" lon="11.3257122"><ele>130.0</ele><time>2026-05-03T14:40:18.605Z</time></trkpt><trkpt lat="43.7285379" lon="11.3258452"><ele>131.25</ele><time>2026-05-03T14:40:19.606Z</time></trkpt><trkpt lat="43.7286047" lon="11.3259974"><ele>132.5</ele><time>2026-05-03T14:40:20.606Z</time></trkpt><trkpt lat="43.7286648" lon="11.3261175"><ele>133.75</ele><time>2026-05-03T14:40:21.606Z</time></trkpt><trkpt lat="43.728715" lon="11.3262504"><ele>135.0</ele><time>2026-05-03T14:40:22.606Z</time></trkpt><trkpt lat="43.7287662" lon="11.3263879"><ele>136.75</ele><time>2026-05-03T14:40:23.606Z</time></trkpt><trkpt lat="43.728803" lon="11.3265337"><ele>138.5</ele><time>2026-05-03T14:40:24.606Z</time></trkpt><trkpt lat="43.7288386" lon="11.3266806"><ele>140.25</ele><time>2026-05-03T14:40:25.606Z</time></trkpt><trkpt lat="43.7288644" lon="11.3268341"><ele>142.0</ele><time>2026-05-03T14:40:26.606Z</time></trkpt><trkpt lat="43.7288894" lon="11.326986"><ele>142.0</ele><time>2026-05-03T14:40:27.606Z</time></trkpt><trkpt lat="43.7289078" lon="11.3271334"><ele>142.0</ele><time>2026-05-03T14:40:28.606Z</time></trkpt><trkpt lat="43.7289261" lon="11.3272814"><ele>142.0</ele><time>2026-05-03T14:40:29.606Z</time></trkpt><trkpt lat="43.7289369" lon="11.3274293"><ele>142.0</ele><time>2026-05-03T14:40:30.605Z</time></trkpt><trkpt lat="43.7289428" lon="11.3275716"><ele>142.0</ele><time>2026-05-03T14:40:31.606Z</time></trkpt><trkpt lat="43.7289426" lon="11.3277196"><ele>143.2</ele><time>2026-05-03T14:40:32.605Z</time></trkpt><trkpt lat="43.7289408" lon="11.3278598"><ele>144.39999999999998</ele><time>2026-05-03T14:40:33.606Z</time></trkpt><trkpt lat="43.7289308" lon="11.3280068"><ele>145.60000000000002</ele><time>2026-05-03T14:40:34.606Z</time></trkpt><trkpt lat="43.7289214" lon="11.3281259"><ele>146.8</ele><time>2026-05-03T14:40:35.605Z</time></trkpt><trkpt lat="43.7289088" lon="11.3282762"><ele>148.0</ele><time>2026-05-03T14:40:36.606Z</time></trkpt><trkpt lat="43.7288824" lon="11.3284347"><ele>149.0</ele><time>2026-05-03T14:40:37.606Z</time></trkpt><trkpt lat="43.7288615" lon="11.3285822"><ele>150.0</ele><time>2026-05-03T14:40:38.606Z</time></trkpt><trkpt lat="43.7288381" lon="11.3287379"><ele>151.0</ele><time>2026-05-03T14:40:39.605Z</time></trkpt><trkpt lat="43.7288157" lon="11.3288881"><ele>152.0</ele><time>2026-05-03T14:40:40.606Z</time></trkpt><trkpt lat="43.7287947" lon="11.3290413"><ele>153.0</ele><time>2026-05-03T14:40:41.605Z</time></trkpt><trkpt lat="43.7287707" lon="11.3291849"><ele>153.5</ele><time>2026-05-03T14:40:42.606Z</time></trkpt><trkpt lat="43.7287487" lon="11.3293362"><ele>154.0</ele><time>2026-05-03T14:40:43.606Z</time></trkpt><trkpt lat="43.7287244" lon="11.3294986"><ele>154.5</ele><time>2026-05-03T14:40:44.605Z</time></trkpt><trkpt lat="43.7286989" lon="11.3296701"><ele>155.0</ele><time>2026-05-03T14:40:45.606Z</time></trkpt><trkpt lat="43.728676" lon="11.3298376"><ele>155.25</ele><time>2026-05-03T14:40:46.605Z</time></trkpt><trkpt lat="43.7286507" lon="11.3300142"><ele>155.5</ele><time>2026-05-03T14:40:47.605Z</time></trkpt><trkpt lat="43.728628" lon="11.330197"><ele>155.75</ele><time>2026-05-03T14:40:48.606Z</time></trkpt><trkpt lat="43.7286118" lon="11.3303831"><ele>156.0</ele><time>2026-05-03T14:40:49.606Z</time></trkpt><trkpt lat="43.7286049" lon="11.3305728"><ele>156.33333333333334</ele><time>2026-05-03T14:40:50.605Z</time></trkpt><trkpt lat="43.7285779" lon="11.3308011"><ele>156.66666666666669</ele><time>2026-05-03T14:40:51.606Z</time></trkpt><trkpt lat="43.7285801" lon="11.3310017"><ele>157.0</ele><time>2026-05-03T14:40:52.606Z</time></trkpt><trkpt lat="43.7285914" lon="11.3312051"><ele>158.25</ele><time>2026-05-03T14:40:53.605Z</time></trkpt><trkpt lat="43.7286162" lon="11.3314143"><ele>159.5</ele><time>2026-05-03T14:40:54.606Z</time></trkpt><trkpt lat="43.7286529" lon="11.3315983"><ele>160.75</ele><time>2026-05-03T14:40:55.605Z</time></trkpt><trkpt lat="43.7286862" lon="11.3317904"><ele>162.0</ele><time>2026-05-03T14:40:56.606Z</time></trkpt><trkpt lat="43.7287176" lon="11.3319928"><ele>162.0</ele><time>2026-05-03T14:40:57.606Z</time></trkpt><trkpt lat="43.7287404" lon="11.3321996"><ele>162.0</ele><time>2026-05-03T14:40:58.606Z</time></trkpt><trkpt lat="43.7287539" lon="11.3324085"><ele>162.0</ele><time>2026-05-03T14:40:59.605Z</time></trkpt><trkpt lat="43.7287522" lon="11.3326167"><ele>162.75</ele><time>2026-05-03T14:41:00.606Z</time></trkpt><trkpt lat="43.7287414" lon="11.3328069"><ele>163.5</ele><time>2026-05-03T14:41:01.606Z</time></trkpt><trkpt lat="43.7287232" lon="11.3329897"><ele>164.25</ele><time>2026-05-03T14:41:02.606Z</time></trkpt><trkpt lat="43.7287316" lon="11.3331749"><ele>165.0</ele><time>2026-05-03T14:41:03.606Z</time></trkpt><trkpt lat="43.7287389" lon="11.3333676"><ele>166.0</ele><time>2026-05-03T14:41:04.606Z</time></trkpt><trkpt lat="43.7287586" lon="11.3335514"><ele>167.0</ele><time>2026-05-03T14:41:05.605Z</time></trkpt><trkpt lat="43.7287746" lon="11.3337323"><ele>168.0</ele><time>2026-05-03T14:41:06.605Z</time></trkpt><trkpt lat="43.7287919" lon="11.3339168"><ele>169.0</ele><time>2026-05-03T14:41:07.606Z</time></trkpt><trkpt lat="43.7288081" lon="11.3340938"><ele>169.5</ele><time>2026-05-03T14:41:08.606Z</time></trkpt><trkpt lat="43.7288266" lon="11.3342799"><ele>170.0</ele><time>2026-05-03T14:41:09.606Z</time></trkpt><trkpt lat="43.7288433" lon="11.3344605"><ele>170.5</ele><time>2026-05-03T14:41:10.605Z</time></trkpt><trkpt lat="43.7288609" lon="11.3346426"><ele>171.0</ele><time>2026-05-03T14:41:11.606Z</time></trkpt><trkpt lat="43.7288772" lon="11.334827"><ele>172.5</ele><time>2026-05-03T14:41:12.606Z</time></trkpt><trkpt lat="43.7288947" lon="11.3350105"><ele>174.0</ele><time>2026-05-03T14:41:13.606Z</time></trkpt><trkpt lat="43.728912" lon="11.3351959"><ele>175.5</ele><time>2026-05-03T14:41:14.606Z</time></trkpt><trkpt lat="43.7289256" lon="11.3353932"><ele>177.0</ele><time>2026-05-03T14:41:15.606Z</time></trkpt><trkpt lat="43.7289231" lon="11.3355825"><ele>177.25</ele><time>2026-05-03T14:41:16.605Z</time></trkpt><trkpt lat="43.728898" lon="11.3357749"><ele>177.5</ele><time>2026-05-03T14:41:17.606Z</time></trkpt><trkpt lat="43.7288591" lon="11.3359644"><ele>177.75</ele><time>2026-05-03T14:41:18.606Z</time></trkpt><trkpt lat="43.728811" lon="11.3361581"><ele>178.0</ele><time>2026-05-03T14:41:19.606Z</time></trkpt><trkpt lat="43.7287597" lon="11.3363533"><ele>177.33333333333334</ele><time>2026-05-03T14:41:20.605Z</time></trkpt><trkpt lat="43.728702" lon="11.336545"><ele>176.66666666666666</ele><time>2026-05-03T14:41:21.605Z</time></trkpt><trkpt lat="43.7286448" lon="11.3367445"><ele>176.0</ele><time>2026-05-03T14:41:22.606Z</time></trkpt><trkpt lat="43.728593" lon="11.3369436"><ele>179.0</ele><time>2026-05-03T14:41:23.605Z</time></trkpt><trkpt lat="43.7285354" lon="11.3371477"><ele>182.0</ele><time>2026-05-03T14:41:24.606Z</time></trkpt><trkpt lat="43.7284849" lon="11.3373428"><ele>185.0</ele><time>2026-05-03T14:41:25.606Z</time></trkpt><trkpt lat="43.728431" lon="11.3375341"><ele>185.0</ele><time>2026-05-03T14:41:26.606Z</time></trkpt><trkpt lat="43.7283798" lon="11.3377218"><ele>185.0</ele><time>2026-05-03T14:41:27.606Z</time></trkpt><trkpt lat="43.7283245" lon="11.3379229"><ele>185.0</ele><time>2026-05-03T14:41:28.606Z</time></trkpt><trkpt lat="43.7282688" lon="11.3381126"><ele>185.0</ele><time>2026-05-03T14:41:29.605Z</time></trkpt><trkpt lat="43.7282167" lon="11.3383066"><ele>184.66666666666666</ele><time>2026-05-03T14:41:30.606Z</time></trkpt><trkpt lat="43.7281687" lon="11.3385062"><ele>184.33333333333334</ele><time>2026-05-03T14:41:31.606Z</time></trkpt><trkpt lat="43.7281235" lon="11.338706"><ele>184.0</ele><time>2026-05-03T14:41:32.605Z</time></trkpt><trkpt lat="43.7280799" lon="11.3389137"><ele>184.75</ele><time>2026-05-03T14:41:33.606Z</time></trkpt><trkpt lat="43.7280436" lon="11.3391104"><ele>185.5</ele><time>2026-05-03T14:41:34.606Z</time></trkpt><trkpt lat="43.7280083" lon="11.3393092"><ele>186.25</ele><time>2026-05-03T14:41:35.606Z</time></trkpt><trkpt lat="43.727973" lon="11.3395132"><ele>187.0</ele><time>2026-05-03T14:41:36.606Z</time></trkpt><trkpt lat="43.7279397" lon="11.3397146"><ele>188.0</ele><time>2026-05-03T14:41:37.606Z</time></trkpt><trkpt lat="43.7279063" lon="11.3399132"><ele>189.0</ele><time>2026-05-03T14:41:38.606Z</time></trkpt><trkpt lat="43.7278732" lon="11.3401033"><ele>190.0</ele><time>2026-05-03T14:41:39.606Z</time></trkpt><trkpt lat="43.7278376" lon="11.3402877"><ele>191.0</ele><time>2026-05-03T14:41:40.606Z</time></trkpt><trkpt lat="43.7278053" lon="11.3404678"><ele>191.8</ele><time>2026-05-03T14:41:41.606Z</time></trkpt><trkpt lat="43.7277758" lon="11.3406387"><ele>192.60000000000002</ele><time>2026-05-03T14:41:42.606Z</time></trkpt><trkpt lat="43.7277463" lon="11.3407873"><ele>193.4</ele><time>2026-05-03T14:41:43.605Z</time></trkpt><trkpt lat="43.7277265" lon="11.3409223"><ele>194.2</ele><time>2026-05-03T14:41:44.606Z</time></trkpt><trkpt lat="43.7277163" lon="11.3410443"><ele>195.0</ele><time>2026-05-03T14:41:45.606Z</time></trkpt><trkpt lat="43.7277381" lon="11.3411606"><ele>195.0</ele><time>2026-05-03T14:41:46.606Z</time></trkpt><trkpt lat="43.7277957" lon="11.34126"><ele>195.0</ele><time>2026-05-03T14:41:47.606Z</time></trkpt><trkpt lat="43.7278832" lon="11.3413284"><ele>195.0</ele><time>2026-05-03T14:41:48.606Z</time></trkpt><trkpt lat="43.7279827" lon="11.3413915"><ele>195.0</ele><time>2026-05-03T14:41:49.606Z</time></trkpt><trkpt lat="43.7280912" lon="11.341458"><ele>195.0</ele><time>2026-05-03T14:41:50.606Z</time></trkpt><trkpt lat="43.7282046" lon="11.341506"><ele>195.0</ele><time>2026-05-03T14:41:51.606Z</time></trkpt><trkpt lat="43.7283242" lon="11.3415539"><ele>195.0</ele><time>2026-05-03T14:41:52.606Z</time></trkpt><trkpt lat="43.7284398" lon="11.3416031"><ele>195.0</ele><time>2026-05-03T14:41:53.606Z</time></trkpt><trkpt lat="43.7285383" lon="11.3416671"><ele>195.0</ele><time>2026-05-03T14:41:54.606Z</time></trkpt><trkpt lat="43.7286171" lon="11.3417531"><ele>195.0</ele><time>2026-05-03T14:41:55.606Z</time></trkpt><trkpt lat="43.7286641" lon="11.3418606"><ele>195.0</ele><time>2026-05-03T14:41:56.606Z</time></trkpt><trkpt lat="43.7286689" lon="11.3419885"><ele>195.0</ele><time>2026-05-03T14:41:57.606Z</time></trkpt><trkpt lat="43.7286457" lon="11.3421235"><ele>195.0</ele><time>2026-05-03T14:41:58.606Z</time></trkpt><trkpt lat="43.7286219" lon="11.3422733"><ele>195.0</ele><time>2026-05-03T14:41:59.605Z</time></trkpt><trkpt lat="43.728592" lon="11.3424352"><ele>196.25</ele><time>2026-05-03T14:42:00.606Z</time></trkpt><trkpt lat="43.7285602" lon="11.3426058"><ele>197.5</ele><time>2026-05-03T14:42:01.606Z</time></trkpt><trkpt lat="43.7285256" lon="11.3427748"><ele>198.75</ele><time>2026-05-03T14:42:02.606Z</time></trkpt><trkpt lat="43.72849" lon="11.3429446"><ele>200.0</ele><time>2026-05-03T14:42:03.605Z</time></trkpt><trkpt lat="43.7284491" lon="11.3431154"><ele>200.25</ele><time>2026-05-03T14:42:04.606Z</time></trkpt><trkpt lat="43.7284048" lon="11.343286"><ele>200.5</ele><time>2026-05-03T14:42:05.605Z</time></trkpt><trkpt lat="43.7283748" lon="11.3434571"><ele>200.75</ele><time>2026-05-03T14:42:06.606Z</time></trkpt><trkpt lat="43.7283579" lon="11.3436324"><ele>201.0</ele><time>2026-05-03T14:42:07.606Z</time></trkpt><trkpt lat="43.7283571" lon="11.3438116"><ele>201.75</ele><time>2026-05-03T14:42:08.606Z</time></trkpt><trkpt lat="43.7283661" lon="11.3439962"><ele>202.5</ele><time>2026-05-03T14:42:09.606Z</time></trkpt><trkpt lat="43.7283656" lon="11.3441751"><ele>203.25</ele><time>2026-05-03T14:42:10.606Z</time></trkpt><trkpt lat="43.7283538" lon="11.3443563"><ele>204.0</ele><time>2026-05-03T14:42:11.606Z</time></trkpt><trkpt lat="43.7283458" lon="11.3445356"><ele>204.0</ele><time>2026-05-03T14:42:12.605Z</time></trkpt><trkpt lat="43.7283577" lon="11.3447127"><ele>204.0</ele><time>2026-05-03T14:42:13.606Z</time></trkpt><trkpt lat="43.7283906" lon="11.344883"><ele>204.0</ele><time>2026-05-03T14:42:14.606Z</time></trkpt><trkpt lat="43.7284441" lon="11.3450467"><ele>204.0</ele><time>2026-05-03T14:42:15.606Z</time></trkpt><trkpt lat="43.7285213" lon="11.3451881"><ele>207.0</ele><time>2026-05-03T14:42:16.606Z</time></trkpt><trkpt lat="43.7286063" lon="11.3453189"><ele>210.0</ele><time>2026-05-03T14:42:17.606Z</time></trkpt><trkpt lat="43.7286905" lon="11.3454476"><ele>213.0</ele><time>2026-05-03T14:42:18.606Z</time></trkpt><trkpt lat="43.7287746" lon="11.3455741"><ele>216.0</ele><time>2026-05-03T14:42:19.605Z</time></trkpt><trkpt lat="43.7288551" lon="11.3457025"><ele>216.75</ele><time>2026-05-03T14:42:20.606Z</time></trkpt><trkpt lat="43.7289343" lon="11.3458327"><ele>217.5</ele><time>2026-05-03T14:42:21.606Z</time></trkpt><trkpt lat="43.7290113" lon="11.3459597"><ele>218.25</ele><time>2026-05-03T14:42:22.606Z</time></trkpt><trkpt lat="43.7290813" lon="11.3460821"><ele>219.0</ele><time>2026-05-03T14:42:23.605Z</time></trkpt><trkpt lat="43.7291393" lon="11.3461963"><ele>219.0</ele><time>2026-05-03T14:42:24.606Z</time></trkpt><trkpt lat="43.7291899" lon="11.3462938"><ele>219.0</ele><time>2026-05-03T14:42:25.606Z</time></trkpt><trkpt lat="43.7292291" lon="11.3463738"><ele>219.0</ele><time>2026-05-03T14:42:26.606Z</time></trkpt><trkpt lat="43.7292858" lon="11.3464878"><ele>219.0</ele><time>2026-05-03T14:42:28.605Z</time></trkpt><trkpt lat="43.7293583" lon="11.3465244"><ele>219.0</ele><time>2026-05-03T14:42:31.606Z</time></trkpt><trkpt lat="43.7294455" lon="11.3464378"><ele>219.0</ele><time>2026-05-03T14:42:33.605Z</time></trkpt><trkpt lat="43.7295025" lon="11.346369"><ele>220.2</ele><time>2026-05-03T14:42:34.606Z</time></trkpt><trkpt lat="43.7295638" lon="11.3462916"><ele>221.39999999999998</ele><time>2026-05-03T14:42:35.606Z</time></trkpt><trkpt lat="43.7296377" lon="11.3462211"><ele>222.6</ele><time>2026-05-03T14:42:36.606Z</time></trkpt><trkpt lat="43.7297304" lon="11.3461431"><ele>223.8</ele><time>2026-05-03T14:42:37.606Z</time></trkpt><trkpt lat="43.7298339" lon="11.346081"><ele>225.0</ele><time>2026-05-03T14:42:38.606Z</time></trkpt><trkpt lat="43.7299362" lon="11.3459974"><ele>225.0</ele><time>2026-05-03T14:42:39.606Z</time></trkpt><trkpt lat="43.7300389" lon="11.3459146"><ele>225.0</ele><time>2026-05-03T14:42:40.606Z</time></trkpt><trkpt lat="43.7301302" lon="11.3458136"><ele>225.0</ele><time>2026-05-03T14:42:41.606Z</time></trkpt><trkpt lat="43.7302223" lon="11.3457159"><ele>225.0</ele><time>2026-05-03T14:42:42.606Z</time></trkpt><trkpt lat="43.730299" lon="11.3456056"><ele>225.4</ele><time>2026-05-03T14:42:43.606Z</time></trkpt><trkpt lat="43.730365" lon="11.3454832"><ele>225.8</ele><time>2026-05-03T14:42:44.606Z</time></trkpt><trkpt lat="43.7304175" lon="11.3453471"><ele>226.2</ele><time>2026-05-03T14:42:45.606Z</time></trkpt><trkpt lat="43.7304808" lon="11.3452247"><ele>226.6</ele><time>2026-05-03T14:42:46.606Z</time></trkpt><trkpt lat="43.7305456" lon="11.3451098"><ele>227.0</ele><time>2026-05-03T14:42:47.605Z</time></trkpt><trkpt lat="43.7306168" lon="11.3449966"><ele>227.0</ele><time>2026-05-03T14:42:48.606Z</time></trkpt><trkpt lat="43.7306916" lon="11.3448819"><ele>227.0</ele><time>2026-05-03T14:42:49.606Z</time></trkpt><trkpt lat="43.7307745" lon="11.3447756"><ele>227.0</ele><time>2026-05-03T14:42:50.605Z</time></trkpt><trkpt lat="43.730861" lon="11.3446722"><ele>227.0</ele><time>2026-05-03T14:42:51.606Z</time></trkpt><trkpt lat="43.7309441" lon="11.3445726"><ele>227.0</ele><time>2026-05-03T14:42:52.606Z</time></trkpt><trkpt lat="43.7310344" lon="11.3444718"><ele>224.5</ele><time>2026-05-03T14:42:53.606Z</time></trkpt><trkpt lat="43.7311319" lon="11.3443795"><ele>222.0</ele><time>2026-05-03T14:42:54.606Z</time></trkpt><trkpt lat="43.7312459" lon="11.3442958"><ele>219.5</ele><time>2026-05-03T14:42:55.606Z</time></trkpt><trkpt lat="43.7313407" lon="11.3442078"><ele>217.0</ele><time>2026-05-03T14:42:56.606Z</time></trkpt><trkpt lat="43.731426" lon="11.3441193"><ele>217.0</ele><time>2026-05-03T14:42:57.606Z</time></trkpt><trkpt lat="43.7315135" lon="11.3440115"><ele>217.0</ele><time>2026-05-03T14:42:58.606Z</time></trkpt><trkpt lat="43.7316023" lon="11.3439035"><ele>217.0</ele><time>2026-05-03T14:42:59.606Z</time></trkpt><trkpt lat="43.7316774" lon="11.3437883"><ele>217.0</ele><time>2026-05-03T14:43:00.606Z</time></trkpt><trkpt lat="43.7317431" lon="11.3436669"><ele>216.8</ele><time>2026-05-03T14:43:01.606Z</time></trkpt><trkpt lat="43.7318028" lon="11.3435434"><ele>216.6</ele><time>2026-05-03T14:43:02.605Z</time></trkpt><trkpt lat="43.7318629" lon="11.3434245"><ele>216.40000000000003</ele><time>2026-05-03T14:43:03.605Z</time></trkpt><trkpt lat="43.731933" lon="11.3433306"><ele>216.20000000000002</ele><time>2026-05-03T14:43:04.606Z</time></trkpt><trkpt lat="43.7320176" lon="11.3432629"><ele>216.0</ele><time>2026-05-03T14:43:05.606Z</time></trkpt><trkpt lat="43.7320883" lon="11.3431943"><ele>216.75</ele><time>2026-05-03T14:43:06.606Z</time></trkpt><trkpt lat="43.7322035" lon="11.3431228"><ele>217.5</ele><time>2026-05-03T14:43:07.605Z</time></trkpt><trkpt lat="43.7322725" lon="11.3430624"><ele>218.25</ele><time>2026-05-03T14:43:08.756Z</time></trkpt><trkpt lat="43.7324019" lon="11.3429402"><ele>219.0</ele><time>2026-05-03T14:43:09.918Z</time></trkpt><trkpt lat="43.7326538" lon="11.3426734"><ele>216.33333333333331</ele><time>2026-05-03T14:43:11.607Z</time></trkpt><trkpt lat="43.7327711" lon="11.3425425"><ele>213.66666666666666</ele><time>2026-05-03T14:43:12.612Z</time></trkpt><trkpt lat="43.7328892" lon="11.3423967"><ele>211.0</ele><time>2026-05-03T14:43:13.615Z</time></trkpt><trkpt lat="43.7330062" lon="11.3422523"><ele>208.75</ele><time>2026-05-03T14:43:14.61Z</time></trkpt><trkpt lat="43.7330838" lon="11.3421085"><ele>206.5</ele><time>2026-05-03T14:43:15.615Z</time></trkpt><trkpt lat="43.7331794" lon="11.3419819"><ele>204.25</ele><time>2026-05-03T14:43:16.616Z</time></trkpt><trkpt lat="43.7332548" lon="11.3418587"><ele>202.0</ele><time>2026-05-03T14:43:17.616Z</time></trkpt><trkpt lat="43.7333275" lon="11.341764"><ele>202.0</ele><time>2026-05-03T14:43:18.616Z</time></trkpt><trkpt lat="43.7334202" lon="11.3416888"><ele>202.0</ele><time>2026-05-03T14:43:19.616Z</time></trkpt><trkpt lat="43.7335204" lon="11.341642"><ele>202.0</ele><time>2026-05-03T14:43:20.616Z</time></trkpt><trkpt lat="43.733629" lon="11.3415908"><ele>202.0</ele><time>2026-05-03T14:43:21.616Z</time></trkpt><trkpt lat="43.7337491" lon="11.3415474"><ele>202.5</ele><time>2026-05-03T14:43:22.616Z</time></trkpt><trkpt lat="43.7338763" lon="11.341504"><ele>203.0</ele><time>2026-05-03T14:43:23.615Z</time></trkpt><trkpt lat="43.7340038" lon="11.3414607"><ele>203.5</ele><time>2026-05-03T14:43:24.615Z</time></trkpt><trkpt lat="43.7341402" lon="11.3414125"><ele>204.0</ele><time>2026-05-03T14:43:25.615Z</time></trkpt><trkpt lat="43.7342734" lon="11.3413625"><ele>201.0</ele><time>2026-05-03T14:43:26.615Z</time></trkpt><trkpt lat="43.734412" lon="11.3413076"><ele>198.0</ele><time>2026-05-03T14:43:27.616Z</time></trkpt><trkpt lat="43.7345492" lon="11.341253"><ele>195.0</ele><time>2026-05-03T14:43:28.616Z</time></trkpt><trkpt lat="43.7346871" lon="11.3411974"><ele>192.0</ele><time>2026-05-03T14:43:29.616Z</time></trkpt><trkpt lat="43.7348272" lon="11.341148"><ele>192.0</ele><time>2026-05-03T14:43:30.616Z</time></trkpt><trkpt lat="43.7349664" lon="11.3410869"><ele>192.0</ele><time>2026-05-03T14:43:31.616Z</time></trkpt><trkpt lat="43.7351057" lon="11.3410224"><ele>192.0</ele><time>2026-05-03T14:43:32.616Z</time></trkpt><trkpt lat="43.7352411" lon="11.3409488"><ele>192.0</ele><time>2026-05-03T14:43:33.616Z</time></trkpt><trkpt lat="43.7353725" lon="11.3408696"><ele>193.75</ele><time>2026-05-03T14:43:34.616Z</time></trkpt><trkpt lat="43.7354941" lon="11.3407955"><ele>195.5</ele><time>2026-05-03T14:43:35.616Z</time></trkpt><trkpt lat="43.7356185" lon="11.3407202"><ele>197.25</ele><time>2026-05-03T14:43:36.616Z</time></trkpt><trkpt lat="43.7357373" lon="11.3406561"><ele>199.0</ele><time>2026-05-03T14:43:37.616Z</time></trkpt><trkpt lat="43.7358607" lon="11.3406157"><ele>199.0</ele><time>2026-05-03T14:43:38.615Z</time></trkpt><trkpt lat="43.7359961" lon="11.3406069"><ele>199.0</ele><time>2026-05-03T14:43:39.615Z</time></trkpt><trkpt lat="43.7361394" lon="11.3406121"><ele>199.0</ele><time>2026-05-03T14:43:40.616Z</time></trkpt><trkpt lat="43.7362766" lon="11.3406331"><ele>199.0</ele><time>2026-05-03T14:43:41.616Z</time></trkpt><trkpt lat="43.7364199" lon="11.3406529"><ele>199.25</ele><time>2026-05-03T14:43:42.616Z</time></trkpt><trkpt lat="43.7365635" lon="11.3406714"><ele>199.5</ele><time>2026-05-03T14:43:43.616Z</time></trkpt><trkpt lat="43.736713" lon="11.3406902"><ele>199.75</ele><time>2026-05-03T14:43:44.616Z</time></trkpt><trkpt lat="43.7368606" lon="11.3407143"><ele>200.0</ele><time>2026-05-03T14:43:45.616Z</time></trkpt><trkpt lat="43.7370054" lon="11.3407323"><ele>198.75</ele><time>2026-05-03T14:43:46.616Z</time></trkpt><trkpt lat="43.7371508" lon="11.3407469"><ele>197.5</ele><time>2026-05-03T14:43:47.616Z</time></trkpt><trkpt lat="43.7372906" lon="11.3407615"><ele>196.25</ele><time>2026-05-03T14:43:48.615Z</time></trkpt><trkpt lat="43.7374259" lon="11.3407853"><ele>195.0</ele><time>2026-05-03T14:43:49.616Z</time></trkpt><trkpt lat="43.7375561" lon="11.3408207"><ele>195.0</ele><time>2026-05-03T14:43:50.616Z</time></trkpt><trkpt lat="43.7376857" lon="11.3408721"><ele>195.0</ele><time>2026-05-03T14:43:51.616Z</time></trkpt><trkpt lat="43.737808" lon="11.3409444"><ele>195.0</ele><time>2026-05-03T14:43:52.616Z</time></trkpt><trkpt lat="43.737923" lon="11.3410255"><ele>195.0</ele><time>2026-05-03T14:43:53.616Z</time></trkpt><trkpt lat="43.73803" lon="11.3411068"><ele>194.2</ele><time>2026-05-03T14:43:54.615Z</time></trkpt><trkpt lat="43.7381314" lon="11.3411829"><ele>193.4</ele><time>2026-05-03T14:43:55.615Z</time></trkpt><trkpt lat="43.7382227" lon="11.3412488"><ele>192.60000000000002</ele><time>2026-05-03T14:43:56.616Z</time></trkpt><trkpt lat="43.7382937" lon="11.3412934"><ele>191.8</ele><time>2026-05-03T14:43:57.616Z</time></trkpt><trkpt lat="43.7383859" lon="11.3413355"><ele>191.0</ele><time>2026-05-03T14:43:58.616Z</time></trkpt><trkpt lat="43.7385065" lon="11.3413121"><ele>190.75</ele><time>2026-05-03T14:43:59.616Z</time></trkpt><trkpt lat="43.7386233" lon="11.3412808"><ele>190.5</ele><time>2026-05-03T14:44:00.615Z</time></trkpt><trkpt lat="43.738741" lon="11.3412201"><ele>190.25</ele><time>2026-05-03T14:44:01.616Z</time></trkpt><trkpt lat="43.7388665" lon="11.3411692"><ele>190.0</ele><time>2026-05-03T14:44:02.615Z</time></trkpt><trkpt lat="43.738995" lon="11.3411058"><ele>190.0</ele><time>2026-05-03T14:44:03.616Z</time></trkpt><trkpt lat="43.7391226" lon="11.34104"><ele>190.0</ele><time>2026-05-03T14:44:04.616Z</time></trkpt><trkpt lat="43.7392415" lon="11.340953"><ele>190.0</ele><time>2026-05-03T14:44:05.616Z</time></trkpt><trkpt lat="43.7393516" lon="11.3408435"><ele>190.0</ele><time>2026-05-03T14:44:06.616Z</time></trkpt><trkpt lat="43.7394567" lon="11.3407397"><ele>190.75</ele><time>2026-05-03T14:44:07.616Z</time></trkpt><trkpt lat="43.7395622" lon="11.3406452"><ele>191.5</ele><time>2026-05-03T14:44:08.616Z</time></trkpt><trkpt lat="43.7396699" lon="11.3405726"><ele>192.25</ele><time>2026-05-03T14:44:09.615Z</time></trkpt><trkpt lat="43.7397806" lon="11.3405143"><ele>193.0</ele><time>2026-05-03T14:44:10.616Z</time></trkpt><trkpt lat="43.7398914" lon="11.3404718"><ele>191.75</ele><time>2026-05-03T14:44:11.615Z</time></trkpt><trkpt lat="43.7400114" lon="11.3404544"><ele>190.5</ele><time>2026-05-03T14:44:12.616Z</time></trkpt><trkpt lat="43.7401343" lon="11.3404492"><ele>189.25</ele><time>2026-05-03T14:44:13.615Z</time></trkpt><trkpt lat="43.7402597" lon="11.3404666"><ele>188.0</ele><time>2026-05-03T14:44:14.616Z</time></trkpt><trkpt lat="43.7403829" lon="11.3404822"><ele>188.0</ele><time>2026-05-03T14:44:15.616Z</time></trkpt><trkpt lat="43.7405097" lon="11.3404831"><ele>188.0</ele><time>2026-05-03T14:44:16.616Z</time></trkpt><trkpt lat="43.7406355" lon="11.3404563"><ele>188.0</ele><time>2026-05-03T14:44:17.616Z</time></trkpt><trkpt lat="43.7407668" lon="11.3404379"><ele>188.0</ele><time>2026-05-03T14:44:18.616Z</time></trkpt><trkpt lat="43.7408882" lon="11.3404284"><ele>188.0</ele><time>2026-05-03T14:44:19.616Z</time></trkpt><trkpt lat="43.7410066" lon="11.3404435"><ele>188.0</ele><time>2026-05-03T14:44:20.616Z</time></trkpt><trkpt lat="43.7411226" lon="11.3404881"><ele>188.0</ele><time>2026-05-03T14:44:21.616Z</time></trkpt><trkpt lat="43.7412409" lon="11.3405399"><ele>188.0</ele><time>2026-05-03T14:44:22.615Z</time></trkpt><trkpt lat="43.7413648" lon="11.3406028"><ele>188.0</ele><time>2026-05-03T14:44:23.615Z</time></trkpt><trkpt lat="43.7414827" lon="11.3406752"><ele>188.0</ele><time>2026-05-03T14:44:24.616Z</time></trkpt><trkpt lat="43.7416055" lon="11.3407523"><ele>188.0</ele><time>2026-05-03T14:44:25.616Z</time></trkpt><trkpt lat="43.7417338" lon="11.340826"><ele>188.0</ele><time>2026-05-03T14:44:26.615Z</time></trkpt><trkpt lat="43.7418648" lon="11.3409017"><ele>186.5</ele><time>2026-05-03T14:44:27.616Z</time></trkpt><trkpt lat="43.7420013" lon="11.3409721"><ele>185.0</ele><time>2026-05-03T14:44:28.616Z</time></trkpt><trkpt lat="43.7421324" lon="11.3410335"><ele>183.5</ele><time>2026-05-03T14:44:29.616Z</time></trkpt><trkpt lat="43.7422639" lon="11.3410972"><ele>182.0</ele><time>2026-05-03T14:44:30.616Z</time></trkpt><trkpt lat="43.7423919" lon="11.3411636"><ele>182.0</ele><time>2026-05-03T14:44:31.615Z</time></trkpt><trkpt lat="43.7425174" lon="11.3412217"><ele>182.0</ele><time>2026-05-03T14:44:32.616Z</time></trkpt><trkpt lat="43.7426412" lon="11.3412832"><ele>182.0</ele><time>2026-05-03T14:44:33.615Z</time></trkpt><trkpt lat="43.7427616" lon="11.3413448"><ele>182.0</ele><time>2026-05-03T14:44:34.616Z</time></trkpt><trkpt lat="43.7428731" lon="11.3414036"><ele>182.39999999999998</ele><time>2026-05-03T14:44:35.616Z</time></trkpt><trkpt lat="43.74298" lon="11.3414537"><ele>182.79999999999998</ele><time>2026-05-03T14:44:36.615Z</time></trkpt><trkpt lat="43.7430788" lon="11.3414995"><ele>183.2</ele><time>2026-05-03T14:44:37.616Z</time></trkpt><trkpt lat="43.7431778" lon="11.3415486"><ele>183.6</ele><time>2026-05-03T14:44:38.616Z</time></trkpt><trkpt lat="43.7432586" lon="11.3415942"><ele>184.0</ele><time>2026-05-03T14:44:39.616Z</time></trkpt><trkpt lat="43.7433299" lon="11.3416342"><ele>184.0</ele><time>2026-05-03T14:44:40.616Z</time></trkpt><trkpt lat="43.7434095" lon="11.3417007"><ele>184.0</ele><time>2026-05-03T14:44:42.616Z</time></trkpt><trkpt lat="43.7433952" lon="11.3418172"><ele>184.0</ele><time>2026-05-03T14:44:45.616Z</time></trkpt><trkpt lat="43.7433391" lon="11.3418622"><ele>184.0</ele><time>2026-05-03T14:44:46.616Z</time></trkpt><trkpt lat="43.7432707" lon="11.3419107"><ele>184.0</ele><time>2026-05-03T14:44:47.616Z</time></trkpt><trkpt lat="43.7431915" lon="11.3419806"><ele>184.0</ele><time>2026-05-03T14:44:48.616Z</time></trkpt><trkpt lat="43.7431258" lon="11.3420467"><ele>184.0</ele><time>2026-05-03T14:44:49.616Z</time></trkpt><trkpt lat="43.7430447" lon="11.3421245"><ele>184.0</ele><time>2026-05-03T14:44:50.616Z</time></trkpt><trkpt lat="43.7429617" lon="11.3422085"><ele>184.0</ele><time>2026-05-03T14:44:51.616Z</time></trkpt><trkpt lat="43.7428682" lon="11.342298"><ele>184.0</ele><time>2026-05-03T14:44:52.616Z</time></trkpt><trkpt lat="43.7427727" lon="11.3423884"><ele>184.0</ele><time>2026-05-03T14:44:53.616Z</time></trkpt><trkpt lat="43.7426744" lon="11.3424815"><ele>186.75</ele><time>2026-05-03T14:44:54.616Z</time></trkpt><trkpt lat="43.7425801" lon="11.3425683"><ele>189.5</ele><time>2026-05-03T14:44:55.616Z</time></trkpt><trkpt lat="43.7424865" lon="11.3426594"><ele>192.25</ele><time>2026-05-03T14:44:56.616Z</time></trkpt><trkpt lat="43.7423864" lon="11.3427484"><ele>195.0</ele><time>2026-05-03T14:44:57.615Z</time></trkpt><trkpt lat="43.7422909" lon="11.342839"><ele>195.0</ele><time>2026-05-03T14:44:58.616Z</time></trkpt><trkpt lat="43.7421932" lon="11.3429332"><ele>195.0</ele><time>2026-05-03T14:44:59.616Z</time></trkpt><trkpt lat="43.7421102" lon="11.3430506"><ele>195.0</ele><time>2026-05-03T14:45:00.616Z</time></trkpt><trkpt lat="43.7420178" lon="11.3431679"><ele>195.0</ele><time>2026-05-03T14:45:01.616Z</time></trkpt><trkpt lat="43.741925" lon="11.3432924"><ele>197.25</ele><time>2026-05-03T14:45:02.616Z</time></trkpt><trkpt lat="43.7418333" lon="11.3434289"><ele>199.5</ele><time>2026-05-03T14:45:03.616Z</time></trkpt><trkpt lat="43.7417372" lon="11.343565"><ele>201.75</ele><time>2026-05-03T14:45:04.616Z</time></trkpt><trkpt lat="43.7416459" lon="11.3436942"><ele>204.0</ele><time>2026-05-03T14:45:05.615Z</time></trkpt><trkpt lat="43.7415471" lon="11.3438238"><ele>205.5</ele><time>2026-05-03T14:45:06.616Z</time></trkpt><trkpt lat="43.7414578" lon="11.343968"><ele>207.0</ele><time>2026-05-03T14:45:07.615Z</time></trkpt><trkpt lat="43.7413739" lon="11.3441165"><ele>208.5</ele><time>2026-05-03T14:45:08.616Z</time></trkpt><trkpt lat="43.7413011" lon="11.3442747"><ele>210.0</ele><time>2026-05-03T14:45:09.615Z</time></trkpt><trkpt lat="43.7412381" lon="11.344434"><ele>210.0</ele><time>2026-05-03T14:45:10.616Z</time></trkpt><trkpt lat="43.7411767" lon="11.3445976"><ele>210.0</ele><time>2026-05-03T14:45:11.616Z</time></trkpt><trkpt lat="43.7411229" lon="11.3447548"><ele>210.0</ele><time>2026-05-03T14:45:12.616Z</time></trkpt><trkpt lat="43.7410671" lon="11.3449361"><ele>210.0</ele><time>2026-05-03T14:45:13.616Z</time></trkpt><trkpt lat="43.7410087" lon="11.3451006"><ele>214.25</ele><time>2026-05-03T14:45:14.616Z</time></trkpt><trkpt lat="43.7409585" lon="11.3452638"><ele>218.5</ele><time>2026-05-03T14:45:15.616Z</time></trkpt><trkpt lat="43.7409018" lon="11.3454191"><ele>222.75</ele><time>2026-05-03T14:45:16.616Z</time></trkpt><trkpt lat="43.7408512" lon="11.345573"><ele>227.0</ele><time>2026-05-03T14:45:17.615Z</time></trkpt><trkpt lat="43.7407916" lon="11.3457238"><ele>228.39999999999998</ele><time>2026-05-03T14:45:18.616Z</time></trkpt><trkpt lat="43.7407387" lon="11.3458586"><ele>229.79999999999998</ele><time>2026-05-03T14:45:19.615Z</time></trkpt><trkpt lat="43.7406923" lon="11.3459903"><ele>231.2</ele><time>2026-05-03T14:45:20.616Z</time></trkpt><trkpt lat="43.7406546" lon="11.3461175"><ele>232.6</ele><time>2026-05-03T14:45:21.616Z</time></trkpt><trkpt lat="43.7406218" lon="11.3462561"><ele>234.0</ele><time>2026-05-03T14:45:22.615Z</time></trkpt><trkpt lat="43.7405937" lon="11.3464048"><ele>236.0</ele><time>2026-05-03T14:45:23.616Z</time></trkpt><trkpt lat="43.7405696" lon="11.3465663"><ele>238.0</ele><time>2026-05-03T14:45:24.616Z</time></trkpt><trkpt lat="43.7405449" lon="11.3467269"><ele>240.0</ele><time>2026-05-03T14:45:25.616Z</time></trkpt><trkpt lat="43.7405166" lon="11.3469055"><ele>242.0</ele><time>2026-05-03T14:45:26.616Z</time></trkpt><trkpt lat="43.740489" lon="11.3470802"><ele>244.5</ele><time>2026-05-03T14:45:27.616Z</time></trkpt><trkpt lat="43.7404574" lon="11.3472557"><ele>247.0</ele><time>2026-05-03T14:45:28.616Z</time></trkpt><trkpt lat="43.7404192" lon="11.3474297"><ele>249.5</ele><time>2026-05-03T14:45:29.616Z</time></trkpt><trkpt lat="43.7403793" lon="11.3476083"><ele>252.0</ele><time>2026-05-03T14:45:30.616Z</time></trkpt><trkpt lat="43.7403312" lon="11.3477816"><ele>252.0</ele><time>2026-05-03T14:45:31.616Z</time></trkpt><trkpt lat="43.7402764" lon="11.3479508"><ele>252.0</ele><time>2026-05-03T14:45:32.616Z</time></trkpt><trkpt lat="43.7402214" lon="11.3481233"><ele>252.0</ele><time>2026-05-03T14:45:33.616Z</time></trkpt><trkpt lat="43.7401667" lon="11.3482891"><ele>252.0</ele><time>2026-05-03T14:45:34.616Z</time></trkpt><trkpt lat="43.7401053" lon="11.3484442"><ele>252.75</ele><time>2026-05-03T14:45:35.616Z</time></trkpt><trkpt lat="43.7400394" lon="11.3485919"><ele>253.5</ele><time>2026-05-03T14:45:36.615Z</time></trkpt><trkpt lat="43.7399737" lon="11.3487336"><ele>254.25</ele><time>2026-05-03T14:45:37.616Z</time></trkpt><trkpt lat="43.7399105" lon="11.3488743"><ele>255.0</ele><time>2026-05-03T14:45:38.616Z</time></trkpt><trkpt lat="43.7398518" lon="11.3490154"><ele>255.0</ele><time>2026-05-03T14:45:39.616Z</time></trkpt><trkpt lat="43.7397914" lon="11.3491478"><ele>255.0</ele><time>2026-05-03T14:45:40.616Z</time></trkpt><trkpt lat="43.7397408" lon="11.3492662"><ele>255.0</ele><time>2026-05-03T14:45:41.615Z</time></trkpt><trkpt lat="43.7396757" lon="11.3493663"><ele>255.0</ele><time>2026-05-03T14:45:42.616Z</time></trkpt><trkpt lat="43.7395968" lon="11.3494422"><ele>255.0</ele><time>2026-05-03T14:45:43.615Z</time></trkpt><trkpt lat="43.7395101" lon="11.3495049"><ele>255.0</ele><time>2026-05-03T14:45:44.616Z</time></trkpt><trkpt lat="43.7394196" lon="11.3495431"><ele>255.0</ele><time>2026-05-03T14:45:45.616Z</time></trkpt><trkpt lat="43.7393174" lon="11.3495916"><ele>255.0</ele><time>2026-05-03T14:45:46.616Z</time></trkpt><trkpt lat="43.7392202" lon="11.3496365"><ele>255.0</ele><time>2026-05-03T14:45:47.615Z</time></trkpt><trkpt lat="43.739126" lon="11.3496736"><ele>255.0</ele><time>2026-05-03T14:45:48.615Z</time></trkpt><trkpt lat="43.7390233" lon="11.3497153"><ele>257.8</ele><time>2026-05-03T14:45:49.616Z</time></trkpt><trkpt lat="43.7389215" lon="11.3497651"><ele>260.6</ele><time>2026-05-03T14:45:50.616Z</time></trkpt><trkpt lat="43.7388215" lon="11.3498069"><ele>263.4</ele><time>2026-05-03T14:45:51.616Z</time></trkpt><trkpt lat="43.7387209" lon="11.3498553"><ele>266.2</ele><time>2026-05-03T14:45:52.616Z</time></trkpt><trkpt lat="43.7386164" lon="11.3498901"><ele>269.0</ele><time>2026-05-03T14:45:53.616Z</time></trkpt><trkpt lat="43.7385145" lon="11.3499297"><ele>271.2</ele><time>2026-05-03T14:45:54.616Z</time></trkpt><trkpt lat="43.7384168" lon="11.3499734"><ele>273.4</ele><time>2026-05-03T14:45:55.616Z</time></trkpt><trkpt lat="43.7383226" lon="11.350032"><ele>275.6</ele><time>2026-05-03T14:45:56.616Z</time></trkpt><trkpt lat="43.7382277" lon="11.350083"><ele>277.8</ele><time>2026-05-03T14:45:57.615Z</time></trkpt><trkpt lat="43.7381349" lon="11.3501336"><ele>280.0</ele><time>2026-05-03T14:45:58.616Z</time></trkpt><trkpt lat="43.7380357" lon="11.3501887"><ele>280.0</ele><time>2026-05-03T14:45:59.616Z</time></trkpt><trkpt lat="43.7379426" lon="11.3502432"><ele>280.0</ele><time>2026-05-03T14:46:00.616Z</time></trkpt><trkpt lat="43.7378464" lon="11.3502948"><ele>280.0</ele><time>2026-05-03T14:46:01.616Z</time></trkpt><trkpt lat="43.7377548" lon="11.3503517"><ele>280.0</ele><time>2026-05-03T14:46:02.616Z</time></trkpt><trkpt lat="43.737663" lon="11.3504047"><ele>280.0</ele><time>2026-05-03T14:46:03.616Z</time></trkpt><trkpt lat="43.7375743" lon="11.350458"><ele>281.4</ele><time>2026-05-03T14:46:04.616Z</time></trkpt><trkpt lat="43.7374807" lon="11.350523"><ele>282.8</ele><time>2026-05-03T14:46:05.616Z</time></trkpt><trkpt lat="43.7374173" lon="11.3506279"><ele>284.2</ele><time>2026-05-03T14:46:06.616Z</time></trkpt><trkpt lat="43.7373533" lon="11.3507403"><ele>285.6</ele><time>2026-05-03T14:46:07.616Z</time></trkpt><trkpt lat="43.7372883" lon="11.3508533"><ele>287.0</ele><time>2026-05-03T14:46:08.616Z</time></trkpt><trkpt lat="43.7372212" lon="11.3509642"><ele>289.4</ele><time>2026-05-03T14:46:09.616Z</time></trkpt><trkpt lat="43.7371512" lon="11.3510729"><ele>291.79999999999995</ele><time>2026-05-03T14:46:10.615Z</time></trkpt><trkpt lat="43.7370734" lon="11.351175"><ele>294.2</ele><time>2026-05-03T14:46:11.615Z</time></trkpt><trkpt lat="43.7369953" lon="11.3512789"><ele>296.59999999999997</ele><time>2026-05-03T14:46:12.616Z</time></trkpt><trkpt lat="43.7369183" lon="11.3513881"><ele>299.0</ele><time>2026-05-03T14:46:13.616Z</time></trkpt><trkpt lat="43.7368417" lon="11.3514967"><ele>301.5</ele><time>2026-05-03T14:46:14.616Z</time></trkpt><trkpt lat="43.7367592" lon="11.3516022"><ele>304.0</ele><time>2026-05-03T14:46:15.615Z</time></trkpt><trkpt lat="43.7366736" lon="11.3517095"><ele>306.5</ele><time>2026-05-03T14:46:16.616Z</time></trkpt><trkpt lat="43.736579" lon="11.35182"><ele>309.0</ele><time>2026-05-03T14:46:17.616Z</time></trkpt><trkpt lat="43.7364781" lon="11.3519269"><ele>309.0</ele><time>2026-05-03T14:46:18.616Z</time></trkpt><trkpt lat="43.7363633" lon="11.3520225"><ele>309.0</ele><time>2026-05-03T14:46:19.616Z</time></trkpt><trkpt lat="43.7362387" lon="11.3521211"><ele>309.0</ele><time>2026-05-03T14:46:20.616Z</time></trkpt><trkpt lat="43.736117" lon="11.3522208"><ele>309.0</ele><time>2026-05-03T14:46:21.616Z</time></trkpt><trkpt lat="43.735987" lon="11.3523219"><ele>311.0</ele><time>2026-05-03T14:46:22.616Z</time></trkpt><trkpt lat="43.7358585" lon="11.3524248"><ele>313.0</ele><time>2026-05-03T14:46:23.616Z</time></trkpt><trkpt lat="43.7357277" lon="11.3525231"><ele>315.0</ele><time>2026-05-03T14:46:24.616Z</time></trkpt><trkpt lat="43.7355975" lon="11.3526208"><ele>317.0</ele><time>2026-05-03T14:46:25.616Z</time></trkpt><trkpt lat="43.735472" lon="11.3527088"><ele>317.0</ele><time>2026-05-03T14:46:26.615Z</time></trkpt><trkpt lat="43.7353465" lon="11.3528003"><ele>317.0</ele><time>2026-05-03T14:46:27.615Z</time></trkpt><trkpt lat="43.7352198" lon="11.3528886"><ele>317.0</ele><time>2026-05-03T14:46:28.616Z</time></trkpt><trkpt lat="43.7351032" lon="11.3529764"><ele>317.0</ele><time>2026-05-03T14:46:29.616Z</time></trkpt><trkpt lat="43.734992" lon="11.3530694"><ele>320.75</ele><time>2026-05-03T14:46:30.615Z</time></trkpt><trkpt lat="43.7348843" lon="11.3531746"><ele>324.5</ele><time>2026-05-03T14:46:31.616Z</time></trkpt><trkpt lat="43.7347928" lon="11.3532898"><ele>328.25</ele><time>2026-05-03T14:46:32.616Z</time></trkpt><trkpt lat="43.7347076" lon="11.3534082"><ele>332.0</ele><time>2026-05-03T14:46:33.616Z</time></trkpt><trkpt lat="43.7346269" lon="11.3535293"><ele>332.0</ele><time>2026-05-03T14:46:34.616Z</time></trkpt><trkpt lat="43.7345481" lon="11.3536492"><ele>332.0</ele><time>2026-05-03T14:46:35.616Z</time></trkpt><trkpt lat="43.7344754" lon="11.3537751"><ele>332.0</ele><time>2026-05-03T14:46:36.615Z</time></trkpt><trkpt lat="43.7344066" lon="11.3539054"><ele>332.0</ele><time>2026-05-03T14:46:37.616Z</time></trkpt><trkpt lat="43.7343439" lon="11.3540402"><ele>334.0</ele><time>2026-05-03T14:46:38.616Z</time></trkpt><trkpt lat="43.734278" lon="11.3541761"><ele>336.0</ele><time>2026-05-03T14:46:39.615Z</time></trkpt><trkpt lat="43.7342217" lon="11.3543081"><ele>338.0</ele><time>2026-05-03T14:46:40.616Z</time></trkpt><trkpt lat="43.7341719" lon="11.3544423"><ele>340.0</ele><time>2026-05-03T14:46:41.616Z</time></trkpt><trkpt lat="43.7341244" lon="11.3545774"><ele>342.0</ele><time>2026-05-03T14:46:42.616Z</time></trkpt><trkpt lat="43.7340813" lon="11.3547169"><ele>344.0</ele><time>2026-05-03T14:46:43.616Z</time></trkpt><trkpt lat="43.7340413" lon="11.3548525"><ele>346.0</ele><time>2026-05-03T14:46:44.616Z</time></trkpt><trkpt lat="43.7340037" lon="11.3549856"><ele>348.0</ele><time>2026-05-03T14:46:45.616Z</time></trkpt><trkpt lat="43.7339674" lon="11.3551159"><ele>350.0</ele><time>2026-05-03T14:46:46.615Z</time></trkpt><trkpt lat="43.7339293" lon="11.3552282"><ele>352.0</ele><time>2026-05-03T14:46:47.616Z</time></trkpt><trkpt lat="43.7338981" lon="11.3553401"><ele>352.0</ele><time>2026-05-03T14:46:48.616Z</time></trkpt><trkpt lat="43.7338791" lon="11.3554441"><ele>352.0</ele><time>2026-05-03T14:46:49.616Z</time></trkpt><trkpt lat="43.7338812" lon="11.3555449"><ele>352.0</ele><time>2026-05-03T14:46:50.615Z</time></trkpt><trkpt lat="43.7338886" lon="11.3556433"><ele>352.0</ele><time>2026-05-03T14:46:51.615Z</time></trkpt><trkpt lat="43.7338922" lon="11.355742"><ele>352.0</ele><time>2026-05-03T14:46:52.616Z</time></trkpt><trkpt lat="43.7339065" lon="11.3558873"><ele>352.0</ele><time>2026-05-03T14:46:54.615Z</time></trkpt><trkpt lat="43.7339486" lon="11.3559597"><ele>352.8333333333333</ele><time>2026-05-03T14:46:56.615Z</time></trkpt><trkpt lat="43.7340586" lon="11.3559962"><ele>353.66666666666663</ele><time>2026-05-03T14:46:58.616Z</time></trkpt><trkpt lat="43.7341171" lon="11.3560347"><ele>354.5</ele><time>2026-05-03T14:46:59.616Z</time></trkpt><trkpt lat="43.7341773" lon="11.3560863"><ele>355.3333333333333</ele><time>2026-05-03T14:47:00.615Z</time></trkpt><trkpt lat="43.7342305" lon="11.3561468"><ele>356.1666666666667</ele><time>2026-05-03T14:47:01.615Z</time></trkpt><trkpt lat="43.7342731" lon="11.3562256"><ele>357.0</ele><time>2026-05-03T14:47:02.616Z</time></trkpt><trkpt lat="43.7343151" lon="11.3563079"><ele>356.6666666666667</ele><time>2026-05-03T14:47:03.615Z</time></trkpt><trkpt lat="43.7343523" lon="11.3564041"><ele>356.3333333333333</ele><time>2026-05-03T14:47:04.616Z</time></trkpt><trkpt lat="43.7343913" lon="11.3564973"><ele>356.0</ele><time>2026-05-03T14:47:05.616Z</time></trkpt><trkpt lat="43.7344282" lon="11.356586"><ele>355.66666666666663</ele><time>2026-05-03T14:47:06.616Z</time></trkpt><trkpt lat="43.7344719" lon="11.3566658"><ele>355.3333333333333</ele><time>2026-05-03T14:47:07.616Z</time></trkpt><trkpt lat="43.734524" lon="11.3567423"><ele>355.0</ele><time>2026-05-03T14:47:08.616Z</time></trkpt><trkpt lat="43.7345801" lon="11.3568134"><ele>360.2</ele><time>2026-05-03T14:47:09.615Z</time></trkpt><trkpt lat="43.7346361" lon="11.3568766"><ele>365.4</ele><time>2026-05-03T14:47:10.616Z</time></trkpt><trkpt lat="43.7346906" lon="11.3569227"><ele>370.6</ele><time>2026-05-03T14:47:11.615Z</time></trkpt><trkpt lat="43.7347838" lon="11.3569403"><ele>375.8</ele><time>2026-05-03T14:47:13.616Z</time></trkpt><trkpt lat="43.7348275" lon="11.3568239"><ele>381.0</ele><time>2026-05-03T14:47:15.616Z</time></trkpt><trkpt lat="43.7347997" lon="11.3566483"><ele>381.0</ele><time>2026-05-03T14:47:17.616Z</time></trkpt><trkpt lat="43.734791" lon="11.3564969"><ele>381.0</ele><time>2026-05-03T14:47:19.616Z</time></trkpt><trkpt lat="43.7348024" lon="11.3563928"><ele>381.0</ele><time>2026-05-03T14:47:20.616Z</time></trkpt><trkpt lat="43.7348133" lon="11.3562868"><ele>381.0</ele><time>2026-05-03T14:47:21.615Z</time></trkpt><trkpt lat="43.7348308" lon="11.3561935"><ele>381.0</ele><time>2026-05-03T14:47:22.616Z</time></trkpt><trkpt lat="43.7348625" lon="11.3561104"><ele>381.0</ele><time>2026-05-03T14:47:23.616Z</time></trkpt><trkpt lat="43.7349121" lon="11.3560564"><ele>381.0</ele><time>2026-05-03T14:47:24.616Z</time></trkpt><trkpt lat="43.7349635" lon="11.3559985"><ele>381.0</ele><time>2026-05-03T14:47:25.616Z</time></trkpt><trkpt lat="43.7350457" lon="11.3559731"><ele>381.0</ele><time>2026-05-03T14:47:27.616Z</time></trkpt><trkpt lat="43.7350761" lon="11.3561356"><ele>381.0</ele><time>2026-05-03T14:47:29.615Z</time></trkpt><trkpt lat="43.735092" lon="11.3563141"><ele>381.0</ele><time>2026-05-03T14:47:31.616Z</time></trkpt><trkpt lat="43.7351104" lon="11.3564168"><ele>381.0</ele><time>2026-05-03T14:47:32.615Z</time></trkpt><trkpt lat="43.7351309" lon="11.3565125"><ele>381.0</ele><time>2026-05-03T14:47:33.616Z</time></trkpt><trkpt lat="43.7351616" lon="11.3566106"><ele>381.0</ele><time>2026-05-03T14:47:34.616Z</time></trkpt><trkpt lat="43.7351917" lon="11.3567048"><ele>381.0</ele><time>2026-05-03T14:47:35.616Z</time></trkpt><trkpt lat="43.7352344" lon="11.3567877"><ele>381.0</ele><time>2026-05-03T14:47:36.615Z</time></trkpt><trkpt lat="43.7352856" lon="11.3568652"><ele>381.0</ele><time>2026-05-03T14:47:37.616Z</time></trkpt><trkpt lat="43.7353465" lon="11.3569351"><ele>384.20000000000005</ele><time>2026-05-03T14:47:38.616Z</time></trkpt><trkpt lat="43.7354067" lon="11.3569983"><ele>387.40000000000003</ele><time>2026-05-03T14:47:39.616Z</time></trkpt><trkpt lat="43.7354672" lon="11.3570581"><ele>390.6</ele><time>2026-05-03T14:47:40.616Z</time></trkpt><trkpt lat="43.7355253" lon="11.35712"><ele>393.8</ele><time>2026-05-03T14:47:41.616Z</time></trkpt><trkpt lat="43.7356451" lon="11.3572146"><ele>397.0</ele><time>2026-05-03T14:47:43.616Z</time></trkpt><trkpt lat="43.7357689" lon="11.3572394"><ele>397.0</ele><time>2026-05-03T14:47:45.615Z</time></trkpt><trkpt lat="43.7358571" lon="11.3571344"><ele>397.0</ele><time>2026-05-03T14:47:47.616Z</time></trkpt><trkpt lat="43.7359441" lon="11.3570392"><ele>397.0</ele><time>2026-05-03T14:47:49.615Z</time></trkpt><trkpt lat="43.7360319" lon="11.3570712"><ele>397.0</ele><time>2026-05-03T14:47:51.616Z</time></trkpt><trkpt lat="43.7361118" lon="11.3571859"><ele>397.0</ele><time>2026-05-03T14:47:53.615Z</time></trkpt><trkpt lat="43.7361609" lon="11.3572606"><ele>398.6666666666667</ele><time>2026-05-03T14:47:54.616Z</time></trkpt><trkpt lat="43.7362111" lon="11.3573387"><ele>400.33333333333337</ele><time>2026-05-03T14:47:55.615Z</time></trkpt><trkpt lat="43.7362561" lon="11.3574119"><ele>402.0</ele><time>2026-05-03T14:47:56.616Z</time></trkpt><trkpt lat="43.7363168" lon="11.3574904"><ele>403.66666666666663</ele><time>2026-05-03T14:47:57.616Z</time></trkpt><trkpt lat="43.7363714" lon="11.3575715"><ele>405.3333333333333</ele><time>2026-05-03T14:47:58.616Z</time></trkpt><trkpt lat="43.7364238" lon="11.3576503"><ele>407.0</ele><time>2026-05-03T14:47:59.616Z</time></trkpt><trkpt lat="43.7364828" lon="11.3577344"><ele>407.00000000000006</ele><time>2026-05-03T14:48:00.616Z</time></trkpt><trkpt lat="43.7365342" lon="11.3578125"><ele>407.0</ele><time>2026-05-03T14:48:01.616Z</time></trkpt><trkpt lat="43.7365771" lon="11.3578859"><ele>407.0</ele><time>2026-05-03T14:48:02.616Z</time></trkpt><trkpt lat="43.7366213" lon="11.357957"><ele>407.0</ele><time>2026-05-03T14:48:03.616Z</time></trkpt><trkpt lat="43.7366687" lon="11.3580318"><ele>407.0</ele><time>2026-05-03T14:48:04.616Z</time></trkpt><trkpt lat="43.7367013" lon="11.3581149"><ele>407.00000000000006</ele><time>2026-05-03T14:48:05.616Z</time></trkpt><trkpt lat="43.7367418" lon="11.3582073"><ele>407.0</ele><time>2026-05-03T14:48:06.615Z</time></trkpt><trkpt lat="43.7367839" lon="11.358289"><ele>407.14285714285717</ele><time>2026-05-03T14:48:07.616Z</time></trkpt><trkpt lat="43.7368302" lon="11.3583655"><ele>407.2857142857143</ele><time>2026-05-03T14:48:08.615Z</time></trkpt><trkpt lat="43.736878" lon="11.358428"><ele>407.42857142857144</ele><time>2026-05-03T14:48:09.616Z</time></trkpt><trkpt lat="43.7369162" lon="11.3584983"><ele>407.57142857142856</ele><time>2026-05-03T14:48:10.616Z</time></trkpt><trkpt lat="43.7369662" lon="11.3585715"><ele>407.7142857142857</ele><time>2026-05-03T14:48:11.615Z</time></trkpt><trkpt lat="43.7370172" lon="11.3586471"><ele>407.8571428571429</ele><time>2026-05-03T14:48:12.616Z</time></trkpt><trkpt lat="43.7370647" lon="11.3587165"><ele>408.0</ele><time>2026-05-03T14:48:13.616Z</time></trkpt><trkpt lat="43.7371105" lon="11.3587775"><ele>412.2</ele><time>2026-05-03T14:48:14.616Z</time></trkpt><trkpt lat="43.7371933" lon="11.3589062"><ele>416.4</ele><time>2026-05-03T14:48:16.616Z</time></trkpt><trkpt lat="43.7372352" lon="11.358978"><ele>420.59999999999997</ele><time>2026-05-03T14:48:17.615Z</time></trkpt><trkpt lat="43.7373239" lon="11.3590961"><ele>424.79999999999995</ele><time>2026-05-03T14:48:19.615Z</time></trkpt><trkpt lat="43.7374319" lon="11.3591908"><ele>429.0</ele><time>2026-05-03T14:48:21.616Z</time></trkpt><trkpt lat="43.7374899" lon="11.3592326"><ele>429.0</ele><time>2026-05-03T14:48:22.616Z</time></trkpt><trkpt lat="43.7375537" lon="11.359277"><ele>429.0</ele><time>2026-05-03T14:48:23.616Z</time></trkpt><trkpt lat="43.737616" lon="11.3593207"><ele>429.0</ele><time>2026-05-03T14:48:24.615Z</time></trkpt><trkpt lat="43.737698" lon="11.3593657"><ele>429.0</ele><time>2026-05-03T14:48:25.616Z</time></trkpt><trkpt lat="43.7377751" lon="11.3594142"><ele>429.0</ele><time>2026-05-03T14:48:26.616Z</time></trkpt><trkpt lat="43.7378566" lon="11.3594634"><ele>429.0</ele><time>2026-05-03T14:48:27.616Z</time></trkpt><trkpt lat="43.7379443" lon="11.3595073"><ele>429.3333333333333</ele><time>2026-05-03T14:48:28.615Z</time></trkpt><trkpt lat="43.7380279" lon="11.3595435"><ele>429.66666666666663</ele><time>2026-05-03T14:48:29.616Z</time></trkpt><trkpt lat="43.7381113" lon="11.3595851"><ele>430.0</ele><time>2026-05-03T14:48:30.616Z</time></trkpt><trkpt lat="43.7381934" lon="11.3596247"><ele>430.3333333333333</ele><time>2026-05-03T14:48:31.616Z</time></trkpt><trkpt lat="43.7382762" lon="11.3596518"><ele>430.66666666666663</ele><time>2026-05-03T14:48:32.616Z</time></trkpt><trkpt lat="43.7383452" lon="11.3596735"><ele>431.0</ele><time>2026-05-03T14:48:33.615Z</time></trkpt><trkpt lat="43.7384415" lon="11.3596602"><ele>430.99999999999994</ele><time>2026-05-03T14:48:35.616Z</time></trkpt><trkpt lat="43.7385202" lon="11.3596347"><ele>431.0</ele><time>2026-05-03T14:48:37.615Z</time></trkpt><trkpt lat="43.7386114" lon="11.3596436"><ele>431.0</ele><time>2026-05-03T14:48:40.616Z</time></trkpt><trkpt lat="43.7386896" lon="11.3596444"><ele>431.0</ele><time>2026-05-03T14:48:42.616Z</time></trkpt><trkpt lat="43.7387841" lon="11.3596603"><ele>430.99999999999994</ele><time>2026-05-03T14:48:45.615Z</time></trkpt><trkpt lat="43.7388527" lon="11.3596753"><ele>431.0</ele><time>2026-05-03T14:48:47.616Z</time></trkpt><trkpt lat="43.7389282" lon="11.3596855"><ele>432.14285714285717</ele><time>2026-05-03T14:48:49.616Z</time></trkpt><trkpt lat="43.7390024" lon="11.359686"><ele>433.2857142857143</ele><time>2026-05-03T14:48:51.615Z</time></trkpt><trkpt lat="43.7390718" lon="11.3596984"><ele>434.42857142857144</ele><time>2026-05-03T14:48:53.616Z</time></trkpt><trkpt lat="43.7391374" lon="11.3597119"><ele>435.57142857142856</ele><time>2026-05-03T14:48:55.616Z</time></trkpt><trkpt lat="43.7392008" lon="11.359725"><ele>436.71428571428567</ele><time>2026-05-03T14:48:57.616Z</time></trkpt><trkpt lat="43.7392886" lon="11.3597405"><ele>437.85714285714283</ele><time>2026-05-03T14:49:00.616Z</time></trkpt><trkpt lat="43.7393617" lon="11.3597405"><ele>439.0</ele><time>2026-05-03T14:49:03.616Z</time></trkpt><trkpt lat="43.7394382" lon="11.3597065"><ele>438.42857142857144</ele><time>2026-05-03T14:49:07.616Z</time></trkpt><trkpt lat="43.73949" lon="11.3596473"><ele>437.85714285714283</ele><time>2026-05-03T14:49:19.616Z</time></trkpt><trkpt lat="43.7395341" lon="11.3595456"><ele>437.28571428571433</ele><time>2026-05-03T14:49:23.615Z</time></trkpt><trkpt lat="43.7395685" lon="11.3594566"><ele>436.7142857142857</ele><time>2026-05-03T14:49:27.616Z</time></trkpt><trkpt lat="43.739602" lon="11.3593826"><ele>436.14285714285717</ele><time>2026-05-03T14:49:30.615Z</time></trkpt><trkpt lat="43.7396667" lon="11.3593154"><ele>435.5714285714286</ele><time>2026-05-03T14:49:34.616Z</time></trkpt><trkpt lat="43.7397183" lon="11.3592438"><ele>435.0</ele><time>2026-05-03T14:49:37.616Z</time></trkpt><trkpt lat="43.7397663" lon="11.3591736"><ele>435.0</ele><time>2026-05-03T14:49:40.615Z</time></trkpt><trkpt lat="43.7398202" lon="11.359088"><ele>435.0</ele><time>2026-05-03T14:49:44.616Z</time></trkpt><trkpt lat="43.7398692" lon="11.3589912"><ele>435.0</ele><time>2026-05-03T14:49:48.615Z</time></trkpt><trkpt lat="43.7399227" lon="11.3589"><ele>435.0</ele><time>2026-05-03T14:49:51.616Z</time></trkpt><trkpt lat="43.7399863" lon="11.3588377"><ele>435.0</ele><time>2026-05-03T14:49:54.616Z</time></trkpt><trkpt lat="43.7400609" lon="11.358806"><ele>435.0</ele><time>2026-05-03T14:49:56.616Z</time></trkpt><trkpt lat="43.7401336" lon="11.3587867"><ele>432.7142857142857</ele><time>2026-05-03T14:49:59.616Z</time></trkpt><trkpt lat="43.7401969" lon="11.3587991"><ele>430.42857142857144</ele><time>2026-05-03T14:50:02.616Z</time></trkpt><trkpt lat="43.7402754" lon="11.3588078"><ele>428.1428571428571</ele><time>2026-05-03T14:50:06.616Z</time></trkpt><trkpt lat="43.7403378" lon="11.3587903"><ele>425.8571428571429</ele><time>2026-05-03T14:50:09.616Z</time></trkpt><trkpt lat="43.7404065" lon="11.3587764"><ele>423.57142857142856</ele><time>2026-05-03T14:50:13.616Z</time></trkpt><trkpt lat="43.7404698" lon="11.3587669"><ele>421.2857142857143</ele><time>2026-05-03T14:50:16.615Z</time></trkpt><trkpt lat="43.740542" lon="11.3587578"><ele>419.0</ele><time>2026-05-03T14:50:20.615Z</time></trkpt><trkpt lat="43.7406239" lon="11.3587696"><ele>417.4285714285714</ele><time>2026-05-03T14:50:24.615Z</time></trkpt><trkpt lat="43.7406913" lon="11.3587708"><ele>415.85714285714283</ele><time>2026-05-03T14:50:29.616Z</time></trkpt><trkpt lat="43.7407721" lon="11.3587619"><ele>414.2857142857143</ele><time>2026-05-03T14:50:33.616Z</time></trkpt><trkpt lat="43.7408392" lon="11.3587287"><ele>412.71428571428567</ele><time>2026-05-03T14:50:37.615Z</time></trkpt><trkpt lat="43.7408382" lon="11.3586198"><ele>411.14285714285717</ele><time>2026-05-03T14:50:49.616Z</time></trkpt><trkpt lat="43.7408716" lon="11.358545"><ele>409.57142857142856</ele><time>2026-05-03T14:50:54.616Z</time></trkpt><trkpt lat="43.7409317" lon="11.3584922"><ele>408.0</ele><time>2026-05-03T14:50:59.615Z</time></trkpt><trkpt lat="43.7409714" lon="11.3584209"><ele>408.0</ele><time>2026-05-03T14:51:08.616Z</time></trkpt><trkpt lat="43.7410325" lon="11.3583788"><ele>408.0</ele><time>2026-05-03T14:51:15.615Z</time></trkpt><trkpt lat="43.7410751" lon="11.3583127"><ele>408.0</ele><time>2026-05-03T14:51:28.615Z</time></trkpt><trkpt lat="43.7411329" lon="11.3582704"><ele>408.0</ele><time>2026-05-03T14:51:36.616Z</time></trkpt><trkpt lat="43.7411824" lon="11.3582002"><ele>408.0</ele><time>2026-05-03T14:51:44.616Z</time></trkpt><trkpt lat="43.7412361" lon="11.3581464"><ele>408.0</ele><time>2026-05-03T14:51:49.616Z</time></trkpt><trkpt lat="43.7412881" lon="11.3580836"><ele>408.0</ele><time>2026-05-03T14:51:53.615Z</time></trkpt><trkpt lat="43.741336" lon="11.3580224"><ele>404.57142857142856</ele><time>2026-05-03T14:52:06.616Z</time></trkpt><trkpt lat="43.741375" lon="11.3579505"><ele>401.14285714285717</ele><time>2026-05-03T14:52:11.615Z</time></trkpt><trkpt lat="43.7414089" lon="11.3578728"><ele>397.71428571428567</ele><time>2026-05-03T14:52:16.616Z</time></trkpt><trkpt lat="43.7414591" lon="11.357804"><ele>394.2857142857143</ele><time>2026-05-03T14:52:20.616Z</time></trkpt><trkpt lat="43.7414996" lon="11.3577287"><ele>390.85714285714283</ele><time>2026-05-03T14:52:24.616Z</time></trkpt><trkpt lat="43.7415536" lon="11.3576595"><ele>387.4285714285714</ele><time>2026-05-03T14:52:28.616Z</time></trkpt><trkpt lat="43.7416095" lon="11.3575861"><ele>384.0</ele><time>2026-05-03T14:52:32.615Z</time></trkpt><trkpt lat="43.7416301" lon="11.3574954"><ele>383.99999999999994</ele><time>2026-05-03T14:52:36.616Z</time></trkpt><trkpt lat="43.7416153" lon="11.3574046"><ele>384.0</ele><time>2026-05-03T14:52:41.616Z</time></trkpt><trkpt lat="43.7415914" lon="11.3573137"><ele>384.0</ele><time>2026-05-03T14:52:45.616Z</time></trkpt><trkpt lat="43.7415668" lon="11.3572277"><ele>384.0</ele><time>2026-05-03T14:52:48.616Z</time></trkpt><trkpt lat="43.7415335" lon="11.3571403"><ele>384.0</ele><time>2026-05-03T14:52:54.615Z</time></trkpt><trkpt lat="43.7415135" lon="11.3570424"><ele>383.99999999999994</ele><time>2026-05-03T14:52:59.616Z</time></trkpt><trkpt lat="43.7415116" lon="11.3569305"><ele>384.0</ele><time>2026-05-03T14:53:04.616Z</time></trkpt><trkpt lat="43.7415041" lon="11.356819"><ele>382.5</ele><time>2026-05-03T14:53:08.615Z</time></trkpt><trkpt lat="43.7414854" lon="11.356708"><ele>381.0</ele><time>2026-05-03T14:53:13.616Z</time></trkpt><trkpt lat="43.7414605" lon="11.3566115"><ele>379.5</ele><time>2026-05-03T14:53:17.616Z</time></trkpt><trkpt lat="43.7414416" lon="11.3565066"><ele>378.0</ele><time>2026-05-03T14:53:24.615Z</time></trkpt><trkpt lat="43.7414093" lon="11.3564299"><ele>376.5</ele><time>2026-05-03T14:53:31.616Z</time></trkpt><trkpt lat="43.7413642" lon="11.3563302"><ele>375.0</ele><time>2026-05-03T14:53:38.616Z</time></trkpt><trkpt lat="43.7413244" lon="11.3562372"><ele>373.8333333333333</ele><time>2026-05-03T14:53:42.616Z</time></trkpt><trkpt lat="43.7412831" lon="11.3561469"><ele>372.6666666666667</ele><time>2026-05-03T14:53:47.615Z</time></trkpt><trkpt lat="43.7412285" lon="11.3560778"><ele>371.5</ele><time>2026-05-03T14:53:53.615Z</time></trkpt><trkpt lat="43.7411798" lon="11.3559909"><ele>370.33333333333337</ele><time>2026-05-03T14:53:57.615Z</time></trkpt><trkpt lat="43.7411097" lon="11.3559413"><ele>369.1666666666667</ele><time>2026-05-03T14:54:00.616Z</time></trkpt><trkpt lat="43.7410478" lon="11.3558921"><ele>368.0</ele><time>2026-05-03T14:54:06.616Z</time></trkpt><trkpt lat="43.7410239" lon="11.3557968"><ele>368.0</ele><time>2026-05-03T14:54:12.616Z</time></trkpt><trkpt lat="43.741018" lon="11.3556934"><ele>368.0</ele><time>2026-05-03T14:54:16.615Z</time></trkpt><trkpt lat="43.7410013" lon="11.3555939"><ele>368.0</ele><time>2026-05-03T14:54:21.616Z</time></trkpt><trkpt lat="43.7410167" lon="11.3555049"><ele>368.0</ele><time>2026-05-03T14:54:26.616Z</time></trkpt><trkpt lat="43.741018" lon="11.355411"><ele>368.0</ele><time>2026-05-03T14:54:32.616Z</time></trkpt><trkpt lat="43.7410032" lon="11.3553131"><ele>368.0</ele><time>2026-05-03T14:54:37.616Z</time></trkpt><trkpt lat="43.740991" lon="11.355227"><ele>368.0</ele><time>2026-05-03T14:54:43.616Z</time></trkpt><trkpt lat="43.7410076" lon="11.3551374"><ele>365.0</ele><time>2026-05-03T14:54:47.616Z</time></trkpt><trkpt lat="43.7410127" lon="11.3550461"><ele>362.0</ele><time>2026-05-03T14:54:50.616Z</time></trkpt><trkpt lat="43.7409938" lon="11.354928"><ele>359.0</ele><time>2026-05-03T14:54:53.616Z</time></trkpt><trkpt lat="43.7409852" lon="11.354839"><ele>356.0</ele><time>2026-05-03T14:54:55.616Z</time></trkpt><trkpt lat="43.7409694" lon="11.3547207"><ele>353.0</ele><time>2026-05-03T14:54:59.616Z</time></trkpt><trkpt lat="43.7409607" lon="11.3546087"><ele>350.0</ele><time>2026-05-03T14:55:01.616Z</time></trkpt><trkpt lat="43.7409567" lon="11.3544755"><ele>348.5</ele><time>2026-05-03T14:55:03.615Z</time></trkpt><trkpt lat="43.7409511" lon="11.3543529"><ele>347.0</ele><time>2026-05-03T14:55:05.616Z</time></trkpt><trkpt lat="43.7409502" lon="11.3542614"><ele>345.5</ele><time>2026-05-03T14:55:07.616Z</time></trkpt><trkpt lat="43.7409462" lon="11.3541615"><ele>344.0</ele><time>2026-05-03T14:55:09.616Z</time></trkpt><trkpt lat="43.7409801" lon="11.3540308"><ele>342.5</ele><time>2026-05-03T14:55:12.616Z</time></trkpt><trkpt lat="43.7410179" lon="11.3539257"><ele>341.0</ele><time>2026-05-03T14:55:14.616Z</time></trkpt><trkpt lat="43.7410376" lon="11.3538346"><ele>338.83333333333337</ele><time>2026-05-03T14:55:16.616Z</time></trkpt><trkpt lat="43.7410819" lon="11.3537459"><ele>336.6666666666667</ele><time>2026-05-03T14:55:21.616Z</time></trkpt><trkpt lat="43.7411601" lon="11.3537648"><ele>334.5</ele><time>2026-05-03T14:55:25.615Z</time></trkpt><trkpt lat="43.7412325" lon="11.3538359"><ele>332.3333333333333</ele><time>2026-05-03T14:55:28.616Z</time></trkpt><trkpt lat="43.741296" lon="11.3539315"><ele>330.16666666666663</ele><time>2026-05-03T14:55:31.615Z</time></trkpt><trkpt lat="43.7413341" lon="11.3540435"><ele>328.0</ele><time>2026-05-03T14:55:34.616Z</time></trkpt><trkpt lat="43.741389" lon="11.3540933"><ele>327.99999999999994</ele><time>2026-05-03T14:55:37.616Z</time></trkpt><trkpt lat="43.7414323" lon="11.3540263"><ele>328.0</ele><time>2026-05-03T14:55:39.615Z</time></trkpt><trkpt lat="43.7414471" lon="11.3539278"><ele>328.0</ele><time>2026-05-03T14:55:41.616Z</time></trkpt><trkpt lat="43.7414564" lon="11.3538146"><ele>328.0</ele><time>2026-05-03T14:55:44.616Z</time></trkpt><trkpt lat="43.7414604" lon="11.3537076"><ele>328.0</ele><time>2026-05-03T14:55:47.616Z</time></trkpt><trkpt lat="43.7414579" lon="11.3536051"><ele>327.99999999999994</ele><time>2026-05-03T14:55:50.616Z</time></trkpt><trkpt lat="43.7414458" lon="11.3535039"><ele>328.0</ele><time>2026-05-03T14:55:54.616Z</time></trkpt><trkpt lat="43.7414316" lon="11.3533972"><ele>327.1428571428571</ele><time>2026-05-03T14:55:57.616Z</time></trkpt><trkpt lat="43.7414228" lon="11.3533089"><ele>326.2857142857143</ele><time>2026-05-03T14:56:00.616Z</time></trkpt><trkpt lat="43.7414156" lon="11.3532217"><ele>325.42857142857144</ele><time>2026-05-03T14:56:03.616Z</time></trkpt><trkpt lat="43.7414131" lon="11.3531301"><ele>324.57142857142856</ele><time>2026-05-03T14:56:06.615Z</time></trkpt><trkpt lat="43.7414056" lon="11.3530333"><ele>323.7142857142857</ele><time>2026-05-03T14:56:09.616Z</time></trkpt><trkpt lat="43.7414017" lon="11.352943"><ele>322.85714285714283</ele><time>2026-05-03T14:56:11.616Z</time></trkpt><trkpt lat="43.7414032" lon="11.3528181"><ele>322.0</ele><time>2026-05-03T14:56:14.615Z</time></trkpt><trkpt lat="43.7414079" lon="11.3527202"><ele>320.66666666666663</ele><time>2026-05-03T14:56:17.616Z</time></trkpt><trkpt lat="43.7414405" lon="11.352603"><ele>319.3333333333333</ele><time>2026-05-03T14:56:20.616Z</time></trkpt><trkpt lat="43.7415048" lon="11.3525144"><ele>318.0</ele><time>2026-05-03T14:56:23.615Z</time></trkpt><trkpt lat="43.7415614" lon="11.3524256"><ele>316.6666666666667</ele><time>2026-05-03T14:56:26.616Z</time></trkpt><trkpt lat="43.741568" lon="11.3523383"><ele>315.33333333333337</ele><time>2026-05-03T14:56:28.616Z</time></trkpt><trkpt lat="43.7415564" lon="11.3522505"><ele>314.0</ele><time>2026-05-03T14:56:30.616Z</time></trkpt><trkpt lat="43.7415404" lon="11.3521431"><ele>312.6666666666667</ele><time>2026-05-03T14:56:33.615Z</time></trkpt><trkpt lat="43.7415179" lon="11.3520479"><ele>311.33333333333337</ele><time>2026-05-03T14:56:35.616Z</time></trkpt><trkpt lat="43.7414993" lon="11.3519523"><ele>310.0</ele><time>2026-05-03T14:56:37.616Z</time></trkpt><trkpt lat="43.7414738" lon="11.351867"><ele>308.6666666666667</ele><time>2026-05-03T14:56:39.616Z</time></trkpt><trkpt lat="43.7414479" lon="11.3517694"><ele>307.3333333333333</ele><time>2026-05-03T14:56:42.616Z</time></trkpt><trkpt lat="43.7414454" lon="11.3516595"><ele>306.0</ele><time>2026-05-03T14:56:44.616Z</time></trkpt><trkpt lat="43.7414352" lon="11.351522"><ele>306.0</ele><time>2026-05-03T14:56:46.616Z</time></trkpt><trkpt lat="43.7414416" lon="11.3513846"><ele>306.0</ele><time>2026-05-03T14:56:48.616Z</time></trkpt><trkpt lat="43.7414387" lon="11.3512686"><ele>306.0</ele><time>2026-05-03T14:56:50.616Z</time></trkpt><trkpt lat="43.7414483" lon="11.3511598"><ele>306.0</ele><time>2026-05-03T14:56:52.616Z</time></trkpt><trkpt lat="43.7414603" lon="11.3510332"><ele>306.0</ele><time>2026-05-03T14:56:54.616Z</time></trkpt><trkpt lat="43.7414676" lon="11.3509032"><ele>306.0</ele><time>2026-05-03T14:56:56.616Z</time></trkpt><trkpt lat="43.7414665" lon="11.3508014"><ele>304.1428571428571</ele><time>2026-05-03T14:56:58.616Z</time></trkpt><trkpt lat="43.7414999" lon="11.350717"><ele>302.2857142857143</ele><time>2026-05-03T14:57:10.616Z</time></trkpt><trkpt lat="43.7415701" lon="11.3507458"><ele>300.42857142857144</ele><time>2026-05-03T14:57:13.616Z</time></trkpt><trkpt lat="43.7416158" lon="11.3508107"><ele>298.57142857142856</ele><time>2026-05-03T14:57:15.616Z</time></trkpt><trkpt lat="43.7416648" lon="11.3508814"><ele>296.7142857142857</ele><time>2026-05-03T14:57:17.616Z</time></trkpt><trkpt lat="43.7417188" lon="11.3509513"><ele>294.85714285714283</ele><time>2026-05-03T14:57:19.616Z</time></trkpt><trkpt lat="43.741773" lon="11.3510145"><ele>293.0</ele><time>2026-05-03T14:57:21.616Z</time></trkpt><trkpt lat="43.7418286" lon="11.3510723"><ele>289.5</ele><time>2026-05-03T14:57:23.615Z</time></trkpt><trkpt lat="43.7418906" lon="11.3511252"><ele>286.0</ele><time>2026-05-03T14:57:25.616Z</time></trkpt><trkpt lat="43.7419628" lon="11.3511767"><ele>282.5</ele><time>2026-05-03T14:57:27.616Z</time></trkpt><trkpt lat="43.7420439" lon="11.3512231"><ele>279.0</ele><time>2026-05-03T14:57:29.616Z</time></trkpt><trkpt lat="43.7421327" lon="11.3512607"><ele>275.5</ele><time>2026-05-03T14:57:31.615Z</time></trkpt><trkpt lat="43.7422169" lon="11.3513122"><ele>272.0</ele><time>2026-05-03T14:57:33.616Z</time></trkpt><trkpt lat="43.742296" lon="11.3513646"><ele>273.5</ele><time>2026-05-03T14:57:35.616Z</time></trkpt><trkpt lat="43.7423659" lon="11.3514223"><ele>275.0</ele><time>2026-05-03T14:57:37.616Z</time></trkpt><trkpt lat="43.7424261" lon="11.3514947"><ele>276.5</ele><time>2026-05-03T14:57:39.615Z</time></trkpt><trkpt lat="43.7424698" lon="11.3515761"><ele>278.0</ele><time>2026-05-03T14:57:41.616Z</time></trkpt><trkpt lat="43.7424933" lon="11.3516635"><ele>279.5</ele><time>2026-05-03T14:57:43.616Z</time></trkpt><trkpt lat="43.7425153" lon="11.3517617"><ele>281.0</ele><time>2026-05-03T14:57:45.616Z</time></trkpt><trkpt lat="43.7425359" lon="11.3518756"><ele>281.0</ele><time>2026-05-03T14:57:47.616Z</time></trkpt><trkpt lat="43.7425365" lon="11.3519939"><ele>281.0</ele><time>2026-05-03T14:57:49.616Z</time></trkpt><trkpt lat="43.7425298" lon="11.3521109"><ele>281.0</ele><time>2026-05-03T14:57:51.615Z</time></trkpt><trkpt lat="43.7425267" lon="11.3522228"><ele>281.0</ele><time>2026-05-03T14:57:53.616Z</time></trkpt><trkpt lat="43.7425175" lon="11.352328"><ele>281.0</ele><time>2026-05-03T14:57:55.616Z</time></trkpt><trkpt lat="43.7425078" lon="11.352427"><ele>281.0</ele><time>2026-05-03T14:57:57.616Z</time></trkpt><trkpt lat="43.7424985" lon="11.3525219"><ele>281.5714285714286</ele><time>2026-05-03T14:57:59.616Z</time></trkpt><trkpt lat="43.7424954" lon="11.3526188"><ele>282.14285714285717</ele><time>2026-05-03T14:58:01.615Z</time></trkpt><trkpt lat="43.7425025" lon="11.3527104"><ele>282.7142857142857</ele><time>2026-05-03T14:58:03.616Z</time></trkpt><trkpt lat="43.7425121" lon="11.352803"><ele>283.28571428571433</ele><time>2026-05-03T14:58:05.616Z</time></trkpt><trkpt lat="43.742527" lon="11.3529164"><ele>283.8571428571429</ele><time>2026-05-03T14:58:07.616Z</time></trkpt><trkpt lat="43.7425401" lon="11.3530311"><ele>284.42857142857144</ele><time>2026-05-03T14:58:09.615Z</time></trkpt><trkpt lat="43.7425619" lon="11.3531337"><ele>285.0</ele><time>2026-05-03T14:58:11.616Z</time></trkpt><trkpt lat="43.7426215" lon="11.3531988"><ele>286.1666666666667</ele><time>2026-05-03T14:58:13.616Z</time></trkpt><trkpt lat="43.7427053" lon="11.3532061"><ele>287.3333333333333</ele><time>2026-05-03T14:58:15.616Z</time></trkpt><trkpt lat="43.7427904" lon="11.353204"><ele>288.5</ele><time>2026-05-03T14:58:17.616Z</time></trkpt><trkpt lat="43.7428662" lon="11.353228"><ele>289.66666666666663</ele><time>2026-05-03T14:58:19.616Z</time></trkpt><trkpt lat="43.7429373" lon="11.3532865"><ele>290.8333333333333</ele><time>2026-05-03T14:58:21.616Z</time></trkpt><trkpt lat="43.7429995" lon="11.3533615"><ele>292.0</ele><time>2026-05-03T14:58:23.615Z</time></trkpt><trkpt lat="43.7430519" lon="11.3534462"><ele>290.6</ele><time>2026-05-03T14:58:26.615Z</time></trkpt><trkpt lat="43.7430754" lon="11.3535779"><ele>289.2</ele><time>2026-05-03T14:58:29.615Z</time></trkpt><trkpt lat="43.7431021" lon="11.3537175"><ele>287.8</ele><time>2026-05-03T14:58:31.616Z</time></trkpt><trkpt lat="43.7431352" lon="11.3538613"><ele>286.4</ele><time>2026-05-03T14:58:33.616Z</time></trkpt><trkpt lat="43.7431781" lon="11.3539944"><ele>285.0</ele><time>2026-05-03T14:58:35.615Z</time></trkpt><trkpt lat="43.7432322" lon="11.3541189"><ele>285.0</ele><time>2026-05-03T14:58:37.616Z</time></trkpt><trkpt lat="43.7432921" lon="11.3542534"><ele>285.0</ele><time>2026-05-03T14:58:39.616Z</time></trkpt><trkpt lat="43.7433551" lon="11.3543845"><ele>285.0</ele><time>2026-05-03T14:58:41.616Z</time></trkpt><trkpt lat="43.7434187" lon="11.3545201"><ele>285.0</ele><time>2026-05-03T14:58:43.616Z</time></trkpt><trkpt lat="43.7434807" lon="11.3546506"><ele>283.3333333333333</ele><time>2026-05-03T14:58:45.616Z</time></trkpt><trkpt lat="43.7435398" lon="11.354787"><ele>281.6666666666667</ele><time>2026-05-03T14:58:47.615Z</time></trkpt><trkpt lat="43.7435967" lon="11.3549413"><ele>280.0</ele><time>2026-05-03T14:58:49.615Z</time></trkpt><trkpt lat="43.7436226" lon="11.3550217"><ele>278.33333333333337</ele><time>2026-05-03T14:58:50.616Z</time></trkpt><trkpt lat="43.7436485" lon="11.355106"><ele>276.6666666666667</ele><time>2026-05-03T14:58:51.615Z</time></trkpt><trkpt lat="43.7436722" lon="11.3551883"><ele>275.0</ele><time>2026-05-03T14:58:52.616Z</time></trkpt><trkpt lat="43.7436931" lon="11.3552737"><ele>275.0</ele><time>2026-05-03T14:58:53.616Z</time></trkpt><trkpt lat="43.7437296" lon="11.3554369"><ele>275.0</ele><time>2026-05-03T14:58:55.616Z</time></trkpt><trkpt lat="43.7437573" lon="11.3556014"><ele>275.0</ele><time>2026-05-03T14:58:57.616Z</time></trkpt><trkpt lat="43.7437713" lon="11.3556875"><ele>275.0</ele><time>2026-05-03T14:58:58.615Z</time></trkpt><trkpt lat="43.7437798" lon="11.3557753"><ele>275.0</ele><time>2026-05-03T14:58:59.616Z</time></trkpt><trkpt lat="43.7438004" lon="11.3559368"><ele>276.6</ele><time>2026-05-03T14:59:01.616Z</time></trkpt><trkpt lat="43.7438173" lon="11.3561049"><ele>278.2</ele><time>2026-05-03T14:59:03.615Z</time></trkpt><trkpt lat="43.7438222" lon="11.3562708"><ele>279.8</ele><time>2026-05-03T14:59:05.616Z</time></trkpt><trkpt lat="43.743833" lon="11.3564357"><ele>281.4</ele><time>2026-05-03T14:59:07.616Z</time></trkpt><trkpt lat="43.7438659" lon="11.3565174"><ele>283.0</ele><time>2026-05-03T14:59:08.616Z</time></trkpt><trkpt lat="43.7439161" lon="11.3566687"><ele>285.8333333333333</ele><time>2026-05-03T14:59:10.616Z</time></trkpt><trkpt lat="43.7439743" lon="11.3568053"><ele>288.66666666666663</ele><time>2026-05-03T14:59:12.616Z</time></trkpt><trkpt lat="43.7440035" lon="11.3568834"><ele>291.5</ele><time>2026-05-03T14:59:13.616Z</time></trkpt><trkpt lat="43.7440507" lon="11.3570326"><ele>294.3333333333333</ele><time>2026-05-03T14:59:15.616Z</time></trkpt><trkpt lat="43.7440704" lon="11.3571207"><ele>297.1666666666667</ele><time>2026-05-03T14:59:16.616Z</time></trkpt><trkpt lat="43.744084" lon="11.3572062"><ele>300.0</ele><time>2026-05-03T14:59:17.616Z</time></trkpt><trkpt lat="43.7440961" lon="11.3572985"><ele>301.4285714285714</ele><time>2026-05-03T14:59:18.616Z</time></trkpt><trkpt lat="43.7441079" lon="11.3573914"><ele>302.85714285714283</ele><time>2026-05-03T14:59:19.616Z</time></trkpt><trkpt lat="43.7441188" lon="11.3574856"><ele>304.2857142857143</ele><time>2026-05-03T14:59:20.615Z</time></trkpt><trkpt lat="43.7441321" lon="11.3575833"><ele>305.71428571428567</ele><time>2026-05-03T14:59:21.616Z</time></trkpt><trkpt lat="43.7441448" lon="11.3576775"><ele>307.1428571428571</ele><time>2026-05-03T14:59:22.616Z</time></trkpt><trkpt lat="43.7441632" lon="11.3577658"><ele>308.57142857142856</ele><time>2026-05-03T14:59:23.616Z</time></trkpt><trkpt lat="43.7441896" lon="11.3578557"><ele>310.0</ele><time>2026-05-03T14:59:24.616Z</time></trkpt><trkpt lat="43.7442135" lon="11.3579377"><ele>310.0</ele><time>2026-05-03T14:59:25.616Z</time></trkpt><trkpt lat="43.7442305" lon="11.3580232"><ele>310.0</ele><time>2026-05-03T14:59:26.616Z</time></trkpt><trkpt lat="43.7442211" lon="11.3581769"><ele>310.0</ele><time>2026-05-03T14:59:28.616Z</time></trkpt><trkpt lat="43.7442002" lon="11.3583186"><ele>310.0</ele><time>2026-05-03T14:59:30.615Z</time></trkpt><trkpt lat="43.7441984" lon="11.358471"><ele>310.0</ele><time>2026-05-03T14:59:32.616Z</time></trkpt><trkpt lat="43.7441907" lon="11.358636"><ele>310.0</ele><time>2026-05-03T14:59:34.616Z</time></trkpt><trkpt lat="43.744181" lon="11.3588012"><ele>310.0</ele><time>2026-05-03T14:59:36.616Z</time></trkpt><trkpt lat="43.7441735" lon="11.3588879"><ele>310.0</ele><time>2026-05-03T14:59:37.616Z</time></trkpt><trkpt lat="43.744161" lon="11.3590317"><ele>310.0</ele><time>2026-05-03T14:59:39.616Z</time></trkpt><trkpt lat="43.7441442" lon="11.3591259"><ele>310.0</ele><time>2026-05-03T14:59:42.616Z</time></trkpt><trkpt lat="43.7441296" lon="11.3592568"><ele>309.8</ele><time>2026-05-03T14:59:46.616Z</time></trkpt><trkpt lat="43.7441124" lon="11.3593783"><ele>309.6</ele><time>2026-05-03T14:59:48.616Z</time></trkpt><trkpt lat="43.7440883" lon="11.3595295"><ele>309.4</ele><time>2026-05-03T14:59:50.616Z</time></trkpt><trkpt lat="43.7440633" lon="11.359703"><ele>309.2</ele><time>2026-05-03T14:59:52.615Z</time></trkpt><trkpt lat="43.7440541" lon="11.359807"><ele>309.0</ele><time>2026-05-03T14:59:53.615Z</time></trkpt><trkpt lat="43.7440512" lon="11.3599162"><ele>308.6666666666667</ele><time>2026-05-03T14:59:54.616Z</time></trkpt><trkpt lat="43.7440562" lon="11.3600274"><ele>308.3333333333333</ele><time>2026-05-03T14:59:55.615Z</time></trkpt><trkpt lat="43.7440621" lon="11.3601359"><ele>308.0</ele><time>2026-05-03T14:59:56.615Z</time></trkpt><trkpt lat="43.744071" lon="11.3602426"><ele>307.66666666666663</ele><time>2026-05-03T14:59:57.615Z</time></trkpt><trkpt lat="43.7440781" lon="11.3603536"><ele>307.3333333333333</ele><time>2026-05-03T14:59:58.615Z</time></trkpt><trkpt lat="43.7440823" lon="11.360462"><ele>307.0</ele><time>2026-05-03T14:59:59.616Z</time></trkpt><trkpt lat="43.7440858" lon="11.3605615"><ele>307.8333333333333</ele><time>2026-05-03T15:00:00.616Z</time></trkpt><trkpt lat="43.7440926" lon="11.3606596"><ele>308.66666666666663</ele><time>2026-05-03T15:00:01.616Z</time></trkpt><trkpt lat="43.7441015" lon="11.3607651"><ele>309.5</ele><time>2026-05-03T15:00:02.616Z</time></trkpt><trkpt lat="43.7441143" lon="11.3608726"><ele>310.3333333333333</ele><time>2026-05-03T15:00:03.616Z</time></trkpt><trkpt lat="43.7441308" lon="11.3609828"><ele>311.1666666666667</ele><time>2026-05-03T15:00:04.616Z</time></trkpt><trkpt lat="43.744148" lon="11.3610869"><ele>312.0</ele><time>2026-05-03T15:00:05.616Z</time></trkpt><trkpt lat="43.7441678" lon="11.3611973"><ele>312.0</ele><time>2026-05-03T15:00:06.615Z</time></trkpt><trkpt lat="43.7441865" lon="11.3612999"><ele>312.0</ele><time>2026-05-03T15:00:07.616Z</time></trkpt><trkpt lat="43.7442015" lon="11.3614066"><ele>312.0</ele><time>2026-05-03T15:00:08.616Z</time></trkpt><trkpt lat="43.7442202" lon="11.361514"><ele>312.0</ele><time>2026-05-03T15:00:09.616Z</time></trkpt><trkpt lat="43.7442402" lon="11.3616179"><ele>312.0</ele><time>2026-05-03T15:00:10.616Z</time></trkpt><trkpt lat="43.7442586" lon="11.3617208"><ele>312.0</ele><time>2026-05-03T15:00:11.616Z</time></trkpt><trkpt lat="43.7442697" lon="11.361823"><ele>313.2857142857143</ele><time>2026-05-03T15:00:12.616Z</time></trkpt><trkpt lat="43.7442701" lon="11.3619273"><ele>314.57142857142856</ele><time>2026-05-03T15:00:13.615Z</time></trkpt><trkpt lat="43.744264" lon="11.3620243"><ele>315.85714285714283</ele><time>2026-05-03T15:00:14.616Z</time></trkpt><trkpt lat="43.744256" lon="11.3621213"><ele>317.1428571428571</ele><time>2026-05-03T15:00:15.615Z</time></trkpt><trkpt lat="43.7442485" lon="11.3622183"><ele>318.42857142857144</ele><time>2026-05-03T15:00:16.616Z</time></trkpt><trkpt lat="43.7442459" lon="11.3623121"><ele>319.71428571428567</ele><time>2026-05-03T15:00:17.616Z</time></trkpt><trkpt lat="43.7442393" lon="11.3623997"><ele>321.0</ele><time>2026-05-03T15:00:18.616Z</time></trkpt><trkpt lat="43.7442087" lon="11.3625544"><ele>321.6666666666667</ele><time>2026-05-03T15:00:20.616Z</time></trkpt><trkpt lat="43.7441494" lon="11.3626796"><ele>322.3333333333333</ele><time>2026-05-03T15:00:22.616Z</time></trkpt><trkpt lat="43.7440761" lon="11.3627493"><ele>323.0</ele><time>2026-05-03T15:00:24.616Z</time></trkpt><trkpt lat="43.7439973" lon="11.362847"><ele>323.66666666666663</ele><time>2026-05-03T15:00:26.616Z</time></trkpt><trkpt lat="43.7439381" lon="11.3628918"><ele>324.3333333333333</ele><time>2026-05-03T15:00:27.616Z</time></trkpt><trkpt lat="43.7438877" lon="11.3629465"><ele>325.0</ele><time>2026-05-03T15:00:28.616Z</time></trkpt><trkpt lat="43.7438239" lon="11.3630818"><ele>325.0</ele><time>2026-05-03T15:00:30.615Z</time></trkpt><trkpt lat="43.7438561" lon="11.363201"><ele>325.0</ele><time>2026-05-03T15:00:32.616Z</time></trkpt><trkpt lat="43.7439258" lon="11.3633295"><ele>325.0</ele><time>2026-05-03T15:00:34.616Z</time></trkpt><trkpt lat="43.7439839" lon="11.363427"><ele>325.0</ele><time>2026-05-03T15:00:36.616Z</time></trkpt><trkpt lat="43.7440104" lon="11.3635591"><ele>325.0</ele><time>2026-05-03T15:00:38.616Z</time></trkpt><trkpt lat="43.7440035" lon="11.3637064"><ele>325.0</ele><time>2026-05-03T15:00:40.616Z</time></trkpt><trkpt lat="43.7439996" lon="11.3638165"><ele>325.0</ele><time>2026-05-03T15:00:42.616Z</time></trkpt><trkpt lat="43.7439726" lon="11.3639893"><ele>325.0</ele><time>2026-05-03T15:00:44.616Z</time></trkpt><trkpt lat="43.7439504" lon="11.3641525"><ele>325.0</ele><time>2026-05-03T15:00:46.616Z</time></trkpt><trkpt lat="43.7439353" lon="11.3642417"><ele>325.0</ele><time>2026-05-03T15:00:47.616Z</time></trkpt><trkpt lat="43.7439051" lon="11.3644056"><ele>324.8</ele><time>2026-05-03T15:00:49.616Z</time></trkpt><trkpt lat="43.7438842" lon="11.3645625"><ele>324.6</ele><time>2026-05-03T15:00:51.616Z</time></trkpt><trkpt lat="43.7438625" lon="11.3646706"><ele>324.4</ele><time>2026-05-03T15:00:52.616Z</time></trkpt><trkpt lat="43.7438447" lon="11.3647634"><ele>324.2</ele><time>2026-05-03T15:00:53.616Z</time></trkpt><trkpt lat="43.7438146" lon="11.3649136"><ele>324.0</ele><time>2026-05-03T15:00:55.616Z</time></trkpt><trkpt lat="43.7437921" lon="11.3650798"><ele>324.3333333333333</ele><time>2026-05-03T15:00:57.616Z</time></trkpt><trkpt lat="43.7437724" lon="11.3652359"><ele>324.6666666666667</ele><time>2026-05-03T15:00:59.616Z</time></trkpt><trkpt lat="43.7437577" lon="11.3653266"><ele>325.0</ele><time>2026-05-03T15:01:00.616Z</time></trkpt><trkpt lat="43.7437374" lon="11.3654134"><ele>325.33333333333337</ele><time>2026-05-03T15:01:01.615Z</time></trkpt><trkpt lat="43.7437111" lon="11.3654987"><ele>325.6666666666667</ele><time>2026-05-03T15:01:02.615Z</time></trkpt><trkpt lat="43.7436791" lon="11.3655864"><ele>326.0</ele><time>2026-05-03T15:01:03.616Z</time></trkpt><trkpt lat="43.7436409" lon="11.3656756"><ele>325.33333333333337</ele><time>2026-05-03T15:01:04.616Z</time></trkpt><trkpt lat="43.7435896" lon="11.3657462"><ele>324.6666666666667</ele><time>2026-05-03T15:01:05.616Z</time></trkpt><trkpt lat="43.7435282" lon="11.3658176"><ele>324.0</ele><time>2026-05-03T15:01:06.616Z</time></trkpt><trkpt lat="43.7434616" lon="11.3658816"><ele>323.3333333333333</ele><time>2026-05-03T15:01:07.616Z</time></trkpt><trkpt lat="43.7433935" lon="11.365924"><ele>322.66666666666663</ele><time>2026-05-03T15:01:08.616Z</time></trkpt><trkpt lat="43.7433222" lon="11.3659688"><ele>322.0</ele><time>2026-05-03T15:01:09.616Z</time></trkpt><trkpt lat="43.7432497" lon="11.3660055"><ele>325.8333333333333</ele><time>2026-05-03T15:01:10.616Z</time></trkpt><trkpt lat="43.7431751" lon="11.3660477"><ele>329.66666666666663</ele><time>2026-05-03T15:01:11.616Z</time></trkpt><trkpt lat="43.7431026" lon="11.3660881"><ele>333.5</ele><time>2026-05-03T15:01:12.615Z</time></trkpt><trkpt lat="43.7430247" lon="11.3661264"><ele>337.3333333333333</ele><time>2026-05-03T15:01:13.616Z</time></trkpt><trkpt lat="43.7429576" lon="11.3661678"><ele>341.1666666666667</ele><time>2026-05-03T15:01:14.616Z</time></trkpt><trkpt lat="43.7428916" lon="11.3662171"><ele>345.0</ele><time>2026-05-03T15:01:15.616Z</time></trkpt><trkpt lat="43.7428264" lon="11.3662833"><ele>347.5</ele><time>2026-05-03T15:01:16.616Z</time></trkpt><trkpt lat="43.7427731" lon="11.3663785"><ele>350.0</ele><time>2026-05-03T15:01:17.616Z</time></trkpt><trkpt lat="43.7427269" lon="11.3664869"><ele>352.5</ele><time>2026-05-03T15:01:18.616Z</time></trkpt><trkpt lat="43.7426827" lon="11.3665847"><ele>355.0</ele><time>2026-05-03T15:01:19.615Z</time></trkpt><trkpt lat="43.7426481" lon="11.3666883"><ele>357.5</ele><time>2026-05-03T15:01:20.616Z</time></trkpt><trkpt lat="43.7426162" lon="11.366795"><ele>360.0</ele><time>2026-05-03T15:01:21.616Z</time></trkpt><trkpt lat="43.7425959" lon="11.3668981"><ele>360.0</ele><time>2026-05-03T15:01:22.616Z</time></trkpt><trkpt lat="43.7425819" lon="11.3670031"><ele>360.0</ele><time>2026-05-03T15:01:23.615Z</time></trkpt><trkpt lat="43.7425739" lon="11.3671223"><ele>360.0</ele><time>2026-05-03T15:01:24.616Z</time></trkpt><trkpt lat="43.742578" lon="11.3672389"><ele>360.0</ele><time>2026-05-03T15:01:25.616Z</time></trkpt><trkpt lat="43.7425874" lon="11.3673522"><ele>360.0</ele><time>2026-05-03T15:01:26.616Z</time></trkpt><trkpt lat="43.7426109" lon="11.3674609"><ele>360.0</ele><time>2026-05-03T15:01:27.615Z</time></trkpt><trkpt lat="43.7426483" lon="11.3675817"><ele>326.0</ele><time>2026-05-03T15:01:28.616Z</time></trkpt><trkpt lat="43.7437724" lon="11.3652359"><ele>326.0</ele><time>2026-05-03T15:00:59.616Z</time></trkpt><trkpt lat="43.7437577" lon="11.3653266"><ele>326.0</ele><time>2026-05-03T15:01:00.616Z</time></trkpt><trkpt lat="43.7437374" lon="11.3654134"><ele>326.0</ele><time>2026-05-03T15:01:01.615Z</time></trkpt><trkpt lat="43.7437111" lon="11.3654987"><ele>326.0</ele><time>2026-05-03T15:01:02.615Z</time></trkpt><trkpt lat="43.7436791" lon="11.3655864"><ele>326.0</ele><time>2026-05-03T15:01:03.616Z</time></trkpt><trkpt lat="43.7436409" lon="11.3656756"><ele>326.0</ele><time>2026-05-03T15:01:04.616Z</time></trkpt><trkpt lat="43.7435896" lon="11.3657462"><ele>326.0</ele><time>2026-05-03T15:01:05.616Z</time></trkpt><trkpt lat="43.7435282" lon="11.3658176"><ele>329.1666666666667</ele><time>2026-05-03T15:01:06.616Z</time></trkpt><trkpt lat="43.7434616" lon="11.3658816"><ele>332.33333333333337</ele><time>2026-05-03T15:01:07.616Z</time></trkpt><trkpt lat="43.7433935" lon="11.365924"><ele>335.5</ele><time>2026-05-03T15:01:08.616Z</time></trkpt><trkpt lat="43.7433222" lon="11.3659688"><ele>338.6666666666667</ele><time>2026-05-03T15:01:09.616Z</time></trkpt><trkpt lat="43.7432497" lon="11.3660055"><ele>341.8333333333333</ele><time>2026-05-03T15:01:10.616Z</time></trkpt><trkpt lat="43.7431751" lon="11.3660477"><ele>345.0</ele><time>2026-05-03T15:01:11.616Z</time></trkpt><trkpt lat="43.7431026" lon="11.3660881"><ele>345.0</ele><time>2026-05-03T15:01:12.615Z</time></trkpt><trkpt lat="43.7430247" lon="11.3661264"><ele>345.0</ele><time>2026-05-03T15:01:13.616Z</time></trkpt><trkpt lat="43.7429576" lon="11.3661678"><ele>345.0</ele><time>2026-05-03T15:01:14.616Z</time></trkpt><trkpt lat="43.7428916" lon="11.3662171"><ele>345.0</ele><time>2026-05-03T15:01:15.616Z</time></trkpt><trkpt lat="43.7428264" lon="11.3662833"><ele>345.0</ele><time>2026-05-03T15:01:16.616Z</time></trkpt><trkpt lat="43.7427731" lon="11.3663785"><ele>345.0</ele><time>2026-05-03T15:01:17.616Z</time></trkpt><trkpt lat="43.7427269" lon="11.3664869"><ele>347.5</ele><time>2026-05-03T15:01:18.616Z</time></trkpt><trkpt lat="43.7426827" lon="11.3665847"><ele>350.0</ele><time>2026-05-03T15:01:19.615Z</time></trkpt><trkpt lat="43.7426481" lon="11.3666883"><ele>352.5</ele><time>2026-05-03T15:01:20.616Z</time></trkpt><trkpt lat="43.7426162" lon="11.366795"><ele>355.0</ele><time>2026-05-03T15:01:21.616Z</time></trkpt><trkpt lat="43.7425959" lon="11.3668981"><ele>357.5</ele><time>2026-05-03T15:01:22.616Z</time></trkpt><trkpt lat="43.7425819" lon="11.3670031"><ele>360.0</ele><time>2026-05-03T15:01:23.615Z</time></trkpt><trkpt lat="43.7425739" lon="11.3671223"><ele>358.5</ele><time>2026-05-03T15:01:24.616Z</time></trkpt><trkpt lat="43.742578" lon="11.3672389"><ele>357.0</ele><time>2026-05-03T15:01:25.616Z</time></trkpt><trkpt lat="43.7425874" lon="11.3673522"><ele>355.5</ele><time>2026-05-03T15:01:26.616Z</time></trkpt><trkpt lat="43.7426109" lon="11.3674609"><ele>354.0</ele><time>2026-05-03T15:01:27.615Z</time></trkpt><trkpt lat="43.7426483" lon="11.3675817"><ele>352.5</ele><time>2026-05-03T15:01:28.616Z</time></trkpt><trkpt lat="43.7426939" lon="11.3676927"><ele>351.0</ele><time>2026-05-03T15:01:29.616Z</time></trkpt><trkpt lat="43.7427493" lon="11.3677927"><ele>348.8333333333333</ele><time>2026-05-03T15:01:30.616Z</time></trkpt><trkpt lat="43.7428009" lon="11.367894"><ele>346.6666666666667</ele><time>2026-05-03T15:01:31.616Z</time></trkpt><trkpt lat="43.742849" lon="11.3679856"><ele>344.5</ele><time>2026-05-03T15:01:32.616Z</time></trkpt><trkpt lat="43.742893" lon="11.3680783"><ele>342.33333333333337</ele><time>2026-05-03T15:01:33.616Z</time></trkpt><trkpt lat="43.7429401" lon="11.3681727"><ele>340.1666666666667</ele><time>2026-05-03T15:01:34.615Z</time></trkpt><trkpt lat="43.7429861" lon="11.3682758"><ele>338.0</ele><time>2026-05-03T15:01:35.616Z</time></trkpt><trkpt lat="43.7430354" lon="11.3683841"><ele>338.0</ele><time>2026-05-03T15:01:36.616Z</time></trkpt><trkpt lat="43.7430846" lon="11.3684909"><ele>338.0</ele><time>2026-05-03T15:01:37.616Z</time></trkpt><trkpt lat="43.7431357" lon="11.3686014"><ele>338.0</ele><time>2026-05-03T15:01:38.615Z</time></trkpt><trkpt lat="43.7431886" lon="11.3687077"><ele>338.0</ele><time>2026-05-03T15:01:39.616Z</time></trkpt><trkpt lat="43.743241" lon="11.3688206"><ele>338.0</ele><time>2026-05-03T15:01:40.616Z</time></trkpt><trkpt lat="43.7432929" lon="11.3689261"><ele>339.83333333333337</ele><time>2026-05-03T15:01:41.616Z</time></trkpt><trkpt lat="43.7433387" lon="11.3690229"><ele>341.6666666666667</ele><time>2026-05-03T15:01:42.616Z</time></trkpt><trkpt lat="43.7433802" lon="11.3691186"><ele>343.5</ele><time>2026-05-03T15:01:43.616Z</time></trkpt><trkpt lat="43.7434084" lon="11.3692174"><ele>345.3333333333333</ele><time>2026-05-03T15:01:44.616Z</time></trkpt><trkpt lat="43.7434263" lon="11.3693158"><ele>347.16666666666663</ele><time>2026-05-03T15:01:45.616Z</time></trkpt><trkpt lat="43.7434433" lon="11.3694108"><ele>349.0</ele><time>2026-05-03T15:01:46.616Z</time></trkpt><trkpt lat="43.7434688" lon="11.369505"><ele>348.99999999999994</ele><time>2026-05-03T15:01:47.615Z</time></trkpt><trkpt lat="43.7435026" lon="11.3695945"><ele>349.0</ele><time>2026-05-03T15:01:48.616Z</time></trkpt><trkpt lat="43.7435435" lon="11.3696793"><ele>349.0</ele><time>2026-05-03T15:01:49.616Z</time></trkpt><trkpt lat="43.7435807" lon="11.3697642"><ele>349.0</ele><time>2026-05-03T15:01:50.615Z</time></trkpt><trkpt lat="43.7436217" lon="11.3698463"><ele>349.0</ele><time>2026-05-03T15:01:51.616Z</time></trkpt><trkpt lat="43.7436553" lon="11.3699381"><ele>348.99999999999994</ele><time>2026-05-03T15:01:52.616Z</time></trkpt><trkpt lat="43.7436713" lon="11.3700392"><ele>349.0</ele><time>2026-05-03T15:01:53.616Z</time></trkpt><trkpt lat="43.7436776" lon="11.3701446"><ele>345.66666666666663</ele><time>2026-05-03T15:01:54.616Z</time></trkpt><trkpt lat="43.743671" lon="11.3702491"><ele>342.3333333333333</ele><time>2026-05-03T15:01:55.615Z</time></trkpt><trkpt lat="43.7436602" lon="11.3703578"><ele>339.0</ele><time>2026-05-03T15:01:56.616Z</time></trkpt><trkpt lat="43.7436488" lon="11.3704714"><ele>335.6666666666667</ele><time>2026-05-03T15:01:57.615Z</time></trkpt><trkpt lat="43.7436379" lon="11.3705842"><ele>332.33333333333337</ele><time>2026-05-03T15:01:58.616Z</time></trkpt><trkpt lat="43.7436206" lon="11.3706937"><ele>329.0</ele><time>2026-05-03T15:01:59.616Z</time></trkpt><trkpt lat="43.7436014" lon="11.3708086"><ele>328.83333333333337</ele><time>2026-05-03T15:02:00.616Z</time></trkpt><trkpt lat="43.7435826" lon="11.3709144"><ele>328.6666666666667</ele><time>2026-05-03T15:02:01.616Z</time></trkpt><trkpt lat="43.7435565" lon="11.371041"><ele>328.5</ele><time>2026-05-03T15:02:02.616Z</time></trkpt><trkpt lat="43.7435196" lon="11.3711599"><ele>328.3333333333333</ele><time>2026-05-03T15:02:03.615Z</time></trkpt><trkpt lat="43.7434862" lon="11.3712737"><ele>328.16666666666663</ele><time>2026-05-03T15:02:04.616Z</time></trkpt><trkpt lat="43.7434697" lon="11.3713742"><ele>328.0</ele><time>2026-05-03T15:02:05.616Z</time></trkpt><trkpt lat="43.7434391" lon="11.3714845"><ele>330.8333333333333</ele><time>2026-05-03T15:02:06.615Z</time></trkpt><trkpt lat="43.7434146" lon="11.3715968"><ele>333.66666666666663</ele><time>2026-05-03T15:02:07.616Z</time></trkpt><trkpt lat="43.7433855" lon="11.3717172"><ele>336.5</ele><time>2026-05-03T15:02:08.616Z</time></trkpt><trkpt lat="43.7433705" lon="11.3718264"><ele>339.3333333333333</ele><time>2026-05-03T15:02:09.616Z</time></trkpt><trkpt lat="43.7433567" lon="11.3719355"><ele>342.1666666666667</ele><time>2026-05-03T15:02:10.616Z</time></trkpt><trkpt lat="43.7433391" lon="11.3720364"><ele>345.0</ele><time>2026-05-03T15:02:11.615Z</time></trkpt><trkpt lat="43.7433245" lon="11.3721319"><ele>343.8333333333333</ele><time>2026-05-03T15:02:12.616Z</time></trkpt><trkpt lat="43.743304" lon="11.3722164"><ele>342.6666666666667</ele><time>2026-05-03T15:02:13.616Z</time></trkpt><trkpt lat="43.7432809" lon="11.3723067"><ele>341.5</ele><time>2026-05-03T15:02:14.616Z</time></trkpt><trkpt lat="43.7432536" lon="11.3723972"><ele>340.33333333333337</ele><time>2026-05-03T15:02:15.616Z</time></trkpt><trkpt lat="43.7432234" lon="11.3725094"><ele>339.1666666666667</ele><time>2026-05-03T15:02:16.615Z</time></trkpt><trkpt lat="43.7431955" lon="11.3726211"><ele>338.0</ele><time>2026-05-03T15:02:17.616Z</time></trkpt><trkpt lat="43.7431708" lon="11.3727491"><ele>338.0</ele><time>2026-05-03T15:02:18.616Z</time></trkpt><trkpt lat="43.7431545" lon="11.3728789"><ele>338.0</ele><time>2026-05-03T15:02:19.616Z</time></trkpt><trkpt lat="43.7431511" lon="11.3730062"><ele>338.0</ele><time>2026-05-03T15:02:20.616Z</time></trkpt><trkpt lat="43.7431571" lon="11.3731273"><ele>338.0</ele><time>2026-05-03T15:02:21.616Z</time></trkpt><trkpt lat="43.743157" lon="11.3732478"><ele>338.0</ele><time>2026-05-03T15:02:22.616Z</time></trkpt><trkpt lat="43.7431489" lon="11.3733685"><ele>338.83333333333337</ele><time>2026-05-03T15:02:23.616Z</time></trkpt><trkpt lat="43.7431347" lon="11.3734847"><ele>339.6666666666667</ele><time>2026-05-03T15:02:24.616Z</time></trkpt><trkpt lat="43.7431115" lon="11.3735915"><ele>340.5</ele><time>2026-05-03T15:02:25.616Z</time></trkpt><trkpt lat="43.7430822" lon="11.373691"><ele>341.3333333333333</ele><time>2026-05-03T15:02:26.616Z</time></trkpt><trkpt lat="43.7430524" lon="11.3737724"><ele>342.16666666666663</ele><time>2026-05-03T15:02:27.616Z</time></trkpt><trkpt lat="43.7430151" lon="11.3738993"><ele>343.0</ele><time>2026-05-03T15:02:29.615Z</time></trkpt><trkpt lat="43.7430152" lon="11.3739956"><ele>344.66666666666663</ele><time>2026-05-03T15:02:38.615Z</time></trkpt><trkpt lat="43.7430415" lon="11.3740782"><ele>346.3333333333333</ele><time>2026-05-03T15:02:40.616Z</time></trkpt><trkpt lat="43.7430566" lon="11.374199"><ele>348.0</ele><time>2026-05-03T15:02:42.616Z</time></trkpt><trkpt lat="43.7431008" lon="11.3743267"><ele>349.6666666666667</ele><time>2026-05-03T15:02:44.615Z</time></trkpt><trkpt lat="43.7431543" lon="11.3744398"><ele>351.33333333333337</ele><time>2026-05-03T15:02:46.616Z</time></trkpt><trkpt lat="43.7432041" lon="11.3745264"><ele>353.0</ele><time>2026-05-03T15:02:48.616Z</time></trkpt><trkpt lat="43.7432669" lon="11.3745845"><ele>353.0</ele><time>2026-05-03T15:02:50.616Z</time></trkpt><trkpt lat="43.7433563" lon="11.3746618"><ele>353.0</ele><time>2026-05-03T15:02:52.616Z</time></trkpt><trkpt lat="43.743412" lon="11.3747079"><ele>353.0</ele><time>2026-05-03T15:02:53.616Z</time></trkpt><trkpt lat="43.7434695" lon="11.3747597"><ele>353.0</ele><time>2026-05-03T15:02:54.616Z</time></trkpt><trkpt lat="43.7435281" lon="11.3748098"><ele>353.0</ele><time>2026-05-03T15:02:55.616Z</time></trkpt><trkpt lat="43.7435902" lon="11.3748601"><ele>353.0</ele><time>2026-05-03T15:02:56.616Z</time></trkpt><trkpt lat="43.7436523" lon="11.3749192"><ele>351.6666666666667</ele><time>2026-05-03T15:02:57.616Z</time></trkpt><trkpt lat="43.7437114" lon="11.3749691"><ele>350.33333333333337</ele><time>2026-05-03T15:02:58.616Z</time></trkpt><trkpt lat="43.7437639" lon="11.3750178"><ele>349.0</ele><time>2026-05-03T15:02:59.615Z</time></trkpt><trkpt lat="43.7438206" lon="11.3751455"><ele>347.6666666666667</ele><time>2026-05-03T15:03:01.616Z</time></trkpt><trkpt lat="43.7438324" lon="11.3752907"><ele>346.3333333333333</ele><time>2026-05-03T15:03:03.616Z</time></trkpt><trkpt lat="43.7438997" lon="11.3753829"><ele>345.0</ele><time>2026-05-03T15:03:05.616Z</time></trkpt><trkpt lat="43.7439832" lon="11.3753601"><ele>345.0</ele><time>2026-05-03T15:03:07.616Z</time></trkpt><trkpt lat="43.7440777" lon="11.3753007"><ele>345.0</ele><time>2026-05-03T15:03:09.616Z</time></trkpt><trkpt lat="43.7441733" lon="11.3752754"><ele>345.0</ele><time>2026-05-03T15:03:11.616Z</time></trkpt><trkpt lat="43.7442747" lon="11.3752943"><ele>345.0</ele><time>2026-05-03T15:03:13.616Z</time></trkpt><trkpt lat="43.7443847" lon="11.3753202"><ele>345.0</ele><time>2026-05-03T15:03:15.615Z</time></trkpt><trkpt lat="43.7445053" lon="11.3753393"><ele>344.4</ele><time>2026-05-03T15:03:17.616Z</time></trkpt><trkpt lat="43.7446308" lon="11.3753736"><ele>343.8</ele><time>2026-05-03T15:03:19.616Z</time></trkpt><trkpt lat="43.744698" lon="11.3753938"><ele>343.20000000000005</ele><time>2026-05-03T15:03:20.616Z</time></trkpt><trkpt lat="43.744769" lon="11.3754136"><ele>342.6</ele><time>2026-05-03T15:03:21.616Z</time></trkpt><trkpt lat="43.7448315" lon="11.3754316"><ele>342.0</ele><time>2026-05-03T15:03:22.616Z</time></trkpt><trkpt lat="43.7449506" lon="11.3754682"><ele>344.40000000000003</ele><time>2026-05-03T15:03:24.616Z</time></trkpt><trkpt lat="43.7450543" lon="11.3755416"><ele>346.8</ele><time>2026-05-03T15:03:26.616Z</time></trkpt><trkpt lat="43.7451239" lon="11.3756633"><ele>349.2</ele><time>2026-05-03T15:03:28.616Z</time></trkpt><trkpt lat="43.7451811" lon="11.3758162"><ele>351.6</ele><time>2026-05-03T15:03:30.616Z</time></trkpt><trkpt lat="43.7452053" lon="11.3759018"><ele>354.0</ele><time>2026-05-03T15:03:31.615Z</time></trkpt><trkpt lat="43.7452328" lon="11.3759875"><ele>354.3333333333333</ele><time>2026-05-03T15:03:32.616Z</time></trkpt><trkpt lat="43.7452586" lon="11.3760702"><ele>354.6666666666667</ele><time>2026-05-03T15:03:33.616Z</time></trkpt><trkpt lat="43.7452859" lon="11.3761566"><ele>355.0</ele><time>2026-05-03T15:03:34.616Z</time></trkpt><trkpt lat="43.7453148" lon="11.3762358"><ele>355.33333333333337</ele><time>2026-05-03T15:03:35.615Z</time></trkpt><trkpt lat="43.7453589" lon="11.3763951"><ele>355.6666666666667</ele><time>2026-05-03T15:03:37.616Z</time></trkpt><trkpt lat="43.7454066" lon="11.3765564"><ele>356.0</ele><time>2026-05-03T15:03:39.615Z</time></trkpt><trkpt lat="43.7454251" lon="11.3766425"><ele>356.6666666666667</ele><time>2026-05-03T15:03:40.615Z</time></trkpt><trkpt lat="43.7454361" lon="11.3767383"><ele>357.33333333333337</ele><time>2026-05-03T15:03:41.616Z</time></trkpt><trkpt lat="43.7454483" lon="11.3768563"><ele>358.0</ele><time>2026-05-03T15:03:42.615Z</time></trkpt><trkpt lat="43.7454621" lon="11.3769693"><ele>358.6666666666667</ele><time>2026-05-03T15:03:43.615Z</time></trkpt><trkpt lat="43.7454753" lon="11.377089"><ele>359.3333333333333</ele><time>2026-05-03T15:03:44.615Z</time></trkpt><trkpt lat="43.7454891" lon="11.3772089"><ele>360.0</ele><time>2026-05-03T15:03:45.615Z</time></trkpt><trkpt lat="43.7455083" lon="11.3773221"><ele>361.0</ele><time>2026-05-03T15:03:46.616Z</time></trkpt><trkpt lat="43.7455248" lon="11.3774154"><ele>362.0</ele><time>2026-05-03T15:03:47.615Z</time></trkpt><trkpt lat="43.7455372" lon="11.3775025"><ele>363.0</ele><time>2026-05-03T15:03:48.616Z</time></trkpt><trkpt lat="43.7455456" lon="11.3776357"><ele>364.0</ele><time>2026-05-03T15:03:50.615Z</time></trkpt><trkpt lat="43.7455462" lon="11.3777405"><ele>365.0</ele><time>2026-05-03T15:04:08.615Z</time></trkpt><trkpt lat="43.745611" lon="11.3778025"><ele>366.0</ele><time>2026-05-03T15:04:11.616Z</time></trkpt><trkpt lat="43.7457159" lon="11.3779116"><ele>366.0</ele><time>2026-05-03T15:04:12.616Z</time></trkpt><trkpt lat="43.7458219" lon="11.3779108"><ele>366.0</ele><time>2026-05-03T15:04:14.615Z</time></trkpt><trkpt lat="43.74591" lon="11.377876"><ele>366.0</ele><time>2026-05-03T15:04:16.616Z</time></trkpt><trkpt lat="43.7459804" lon="11.3778098"><ele>366.0</ele><time>2026-05-03T15:04:18.616Z</time></trkpt><trkpt lat="43.7460559" lon="11.3777265"><ele>366.0</ele><time>2026-05-03T15:04:20.615Z</time></trkpt><trkpt lat="43.7461287" lon="11.3776438"><ele>369.0</ele><time>2026-05-03T15:04:22.616Z</time></trkpt><trkpt lat="43.746205" lon="11.3775653"><ele>372.0</ele><time>2026-05-03T15:04:24.616Z</time></trkpt><trkpt lat="43.7462742" lon="11.377508"><ele>375.0</ele><time>2026-05-03T15:04:26.616Z</time></trkpt><trkpt lat="43.7463459" lon="11.3775624"><ele>378.0</ele><time>2026-05-03T15:04:29.616Z</time></trkpt><trkpt lat="43.7463747" lon="11.3776401"><ele>381.0</ele><time>2026-05-03T15:04:31.616Z</time></trkpt><trkpt lat="43.7464849" lon="11.3776772"><ele>384.0</ele><time>2026-05-03T15:04:35.616Z</time></trkpt><trkpt lat="43.7465173" lon="11.3777585"><ele>384.0</ele><time>2026-05-03T15:04:36.616Z</time></trkpt><trkpt lat="43.7465586" lon="11.377889"><ele>384.0</ele><time>2026-05-03T15:04:37.615Z</time></trkpt><trkpt lat="43.7465831" lon="11.3780233"><ele>384.0</ele><time>2026-05-03T15:04:39.616Z</time></trkpt><trkpt lat="43.7466132" lon="11.3781547"><ele>384.0</ele><time>2026-05-03T15:04:41.615Z</time></trkpt><trkpt lat="43.7466465" lon="11.3782831"><ele>384.0</ele><time>2026-05-03T15:04:43.616Z</time></trkpt><trkpt lat="43.7466912" lon="11.3784108"><ele>384.4</ele><time>2026-05-03T15:04:45.615Z</time></trkpt><trkpt lat="43.7467495" lon="11.3785182"><ele>384.79999999999995</ele><time>2026-05-03T15:04:47.616Z</time></trkpt><trkpt lat="43.7467752" lon="11.3786182"><ele>385.20000000000005</ele><time>2026-05-03T15:04:49.616Z</time></trkpt><trkpt lat="43.7467948" lon="11.3787437"><ele>385.6</ele><time>2026-05-03T15:04:51.615Z</time></trkpt><trkpt lat="43.7468321" lon="11.3788722"><ele>386.0</ele><time>2026-05-03T15:04:53.616Z</time></trkpt><trkpt lat="43.7468481" lon="11.3790215"><ele>386.20000000000005</ele><time>2026-05-03T15:04:55.615Z</time></trkpt><trkpt lat="43.7468556" lon="11.3791735"><ele>386.40000000000003</ele><time>2026-05-03T15:04:57.615Z</time></trkpt><trkpt lat="43.7468604" lon="11.3793264"><ele>386.6</ele><time>2026-05-03T15:04:59.616Z</time></trkpt><trkpt lat="43.7468692" lon="11.3794535"><ele>386.8</ele><time>2026-05-03T15:05:01.615Z</time></trkpt><trkpt lat="43.7468737" lon="11.3795522"><ele>387.0</ele><time>2026-05-03T15:05:03.616Z</time></trkpt><trkpt lat="43.7468761" lon="11.3796511"><ele>387.1666666666667</ele><time>2026-05-03T15:05:05.616Z</time></trkpt><trkpt lat="43.7468716" lon="11.3797623"><ele>387.33333333333337</ele><time>2026-05-03T15:05:08.616Z</time></trkpt><trkpt lat="43.746884" lon="11.379869"><ele>387.5</ele><time>2026-05-03T15:05:13.616Z</time></trkpt><trkpt lat="43.7468927" lon="11.3799895"><ele>387.6666666666667</ele><time>2026-05-03T15:05:16.616Z</time></trkpt><trkpt lat="43.7468867" lon="11.3800976"><ele>387.83333333333337</ele><time>2026-05-03T15:05:19.615Z</time></trkpt><trkpt lat="43.7468896" lon="11.3802202"><ele>388.0</ele><time>2026-05-03T15:05:22.615Z</time></trkpt><trkpt lat="43.7469061" lon="11.3803303"><ele>393.2</ele><time>2026-05-03T15:05:28.616Z</time></trkpt><trkpt lat="43.7468998" lon="11.380418"><ele>398.4</ele><time>2026-05-03T15:05:31.616Z</time></trkpt><trkpt lat="43.7469318" lon="11.3806011"><ele>403.59999999999997</ele><time>2026-05-03T15:05:34.615Z</time></trkpt><trkpt lat="43.7469479" lon="11.3807358"><ele>408.79999999999995</ele><time>2026-05-03T15:05:36.616Z</time></trkpt><trkpt lat="43.7469699" lon="11.3808499"><ele>414.0</ele><time>2026-05-03T15:05:38.616Z</time></trkpt><trkpt lat="43.7469927" lon="11.3809859"><ele>414.0</ele><time>2026-05-03T15:05:40.615Z</time></trkpt><trkpt lat="43.7470297" lon="11.381117"><ele>414.0</ele><time>2026-05-03T15:05:42.616Z</time></trkpt><trkpt lat="43.7470706" lon="11.3812333"><ele>414.0</ele><time>2026-05-03T15:05:44.616Z</time></trkpt><trkpt lat="43.7470484" lon="11.3813211"><ele>414.0</ele><time>2026-05-03T15:05:47.616Z</time></trkpt><trkpt lat="43.7470218" lon="11.3814221"><ele>414.0</ele><time>2026-05-03T15:05:50.615Z</time></trkpt><trkpt lat="43.7470099" lon="11.3815254"><ele>414.0</ele><time>2026-05-03T15:05:53.616Z</time></trkpt><trkpt lat="43.7469963" lon="11.3816405"><ele>414.14285714285717</ele><time>2026-05-03T15:05:56.616Z</time></trkpt><trkpt lat="43.7469811" lon="11.3817597"><ele>414.2857142857143</ele><time>2026-05-03T15:05:59.616Z</time></trkpt><trkpt lat="43.7469676" lon="11.3818471"><ele>414.42857142857144</ele><time>2026-05-03T15:06:01.616Z</time></trkpt><trkpt lat="43.7469567" lon="11.3819597"><ele>414.57142857142856</ele><time>2026-05-03T15:06:04.616Z</time></trkpt><trkpt lat="43.7469451" lon="11.3820599"><ele>414.7142857142857</ele><time>2026-05-03T15:06:07.616Z</time></trkpt><trkpt lat="43.746935" lon="11.3821514"><ele>414.8571428571429</ele><time>2026-05-03T15:06:10.616Z</time></trkpt><trkpt lat="43.7468793" lon="11.382202"><ele>415.0</ele><time>2026-05-03T15:06:15.616Z</time></trkpt><trkpt lat="43.7468117" lon="11.3821309"><ele>412.00000000000006</ele><time>2026-05-03T15:06:19.616Z</time></trkpt><trkpt lat="43.7467617" lon="11.3820646"><ele>409.0</ele><time>2026-05-03T15:06:22.616Z</time></trkpt><trkpt lat="43.7467235" lon="11.3819653"><ele>406.0</ele><time>2026-05-03T15:06:25.616Z</time></trkpt><trkpt lat="43.7466954" lon="11.3818685"><ele>403.0</ele><time>2026-05-03T15:06:28.616Z</time></trkpt><trkpt lat="43.7466693" lon="11.3817482"><ele>400.00000000000006</ele><time>2026-05-03T15:06:31.616Z</time></trkpt><trkpt lat="43.7466507" lon="11.3816372"><ele>397.0</ele><time>2026-05-03T15:06:34.616Z</time></trkpt><trkpt lat="43.7466345" lon="11.3815242"><ele>397.00000000000006</ele><time>2026-05-03T15:06:37.616Z</time></trkpt><trkpt lat="43.7466127" lon="11.38142"><ele>397.0</ele><time>2026-05-03T15:06:40.616Z</time></trkpt><trkpt lat="43.7465925" lon="11.3813143"><ele>397.0</ele><time>2026-05-03T15:06:43.615Z</time></trkpt><trkpt lat="43.7465655" lon="11.3812253"><ele>397.0</ele><time>2026-05-03T15:06:46.615Z</time></trkpt><trkpt lat="43.7465428" lon="11.3811214"><ele>397.00000000000006</ele><time>2026-05-03T15:06:49.616Z</time></trkpt><trkpt lat="43.7465302" lon="11.3810106"><ele>397.0</ele><time>2026-05-03T15:06:52.616Z</time></trkpt><trkpt lat="43.7465261" lon="11.3809064"><ele>396.2857142857143</ele><time>2026-05-03T15:06:55.616Z</time></trkpt><trkpt lat="43.7465428" lon="11.3808144"><ele>395.57142857142856</ele><time>2026-05-03T15:06:58.616Z</time></trkpt><trkpt lat="43.7465655" lon="11.380724"><ele>394.8571428571429</ele><time>2026-05-03T15:07:02.615Z</time></trkpt><trkpt lat="43.7465725" lon="11.3806235"><ele>394.1428571428571</ele><time>2026-05-03T15:07:16.616Z</time></trkpt><trkpt lat="43.7465421" lon="11.3807007"><ele>393.42857142857144</ele><time>2026-05-03T15:07:44.615Z</time></trkpt><trkpt lat="43.7465257" lon="11.380798"><ele>392.7142857142857</ele><time>2026-05-03T15:07:50.615Z</time></trkpt><trkpt lat="43.7465163" lon="11.3808899"><ele>392.0</ele><time>2026-05-03T15:07:57.615Z</time></trkpt><trkpt lat="43.7464655" lon="11.380827"><ele>392.0</ele><time>2026-05-03T15:08:45.616Z</time></trkpt><trkpt lat="43.7464255" lon="11.3807508"><ele>392.0</ele><time>2026-05-03T15:08:56.616Z</time></trkpt><trkpt lat="43.7463841" lon="11.3806672"><ele>392.0</ele><time>2026-05-03T15:09:15.616Z</time></trkpt><trkpt lat="43.7464333" lon="11.3807513"><ele>392.0</ele><time>2026-05-03T15:09:29.448Z</time></trkpt><trkpt lat="43.7464795" lon="11.3808261"><ele>392.0</ele><time>2026-05-03T15:09:35.616Z</time></trkpt><trkpt lat="43.7465374" lon="11.3808716"><ele>392.0</ele><time>2026-05-03T15:09:44.616Z</time></trkpt><trkpt lat="43.7465241" lon="11.380958"><ele>392.0</ele><time>2026-05-03T15:09:52.616Z</time></trkpt><trkpt lat="43.7465332" lon="11.38106"><ele>391.99999999999994</ele><time>2026-05-03T15:10:34.616Z</time></trkpt><trkpt lat="43.7465571" lon="11.3811555"><ele>392.0</ele><time>2026-05-03T15:10:38.63Z</time></trkpt><trkpt lat="43.7465771" lon="11.3812463"><ele>392.0</ele><time>2026-05-03T15:10:40.616Z</time></trkpt><trkpt lat="43.7466043" lon="11.3813454"><ele>392.0</ele><time>2026-05-03T15:10:43.616Z</time></trkpt><trkpt lat="43.7466306" lon="11.3814493"><ele>391.99999999999994</ele><time>2026-05-03T15:10:46.616Z</time></trkpt><trkpt lat="43.7466502" lon="11.3815496"><ele>392.0</ele><time>2026-05-03T15:10:49.616Z</time></trkpt><trkpt lat="43.7466661" lon="11.381665"><ele>392.8333333333333</ele><time>2026-05-03T15:10:52.616Z</time></trkpt><trkpt lat="43.7466856" lon="11.3817844"><ele>393.66666666666663</ele><time>2026-05-03T15:10:55.616Z</time></trkpt><trkpt lat="43.7467045" lon="11.3819022"><ele>394.5</ele><time>2026-05-03T15:10:58.616Z</time></trkpt><trkpt lat="43.7467263" lon="11.3820182"><ele>395.33333333333337</ele><time>2026-05-03T15:11:01.616Z</time></trkpt><trkpt lat="43.7467518" lon="11.3821206"><ele>396.1666666666667</ele><time>2026-05-03T15:11:04.615Z</time></trkpt><trkpt lat="43.7467971" lon="11.3822091"><ele>397.0</ele><time>2026-05-03T15:11:07.616Z</time></trkpt><trkpt lat="43.7468609" lon="11.3822634"><ele>400.00000000000006</ele><time>2026-05-03T15:11:10.615Z</time></trkpt><trkpt lat="43.7469318" lon="11.3822752"><ele>403.0</ele><time>2026-05-03T15:11:14.616Z</time></trkpt><trkpt lat="43.746958" lon="11.3821776"><ele>406.0</ele><time>2026-05-03T15:11:18.616Z</time></trkpt><trkpt lat="43.7469721" lon="11.3820861"><ele>409.0</ele><time>2026-05-03T15:11:21.616Z</time></trkpt><trkpt lat="43.7469772" lon="11.3819667"><ele>412.00000000000006</ele><time>2026-05-03T15:11:24.615Z</time></trkpt><trkpt lat="43.7469858" lon="11.3818449"><ele>415.0</ele><time>2026-05-03T15:11:27.616Z</time></trkpt><trkpt lat="43.7470068" lon="11.3817411"><ele>415.00000000000006</ele><time>2026-05-03T15:11:30.616Z</time></trkpt><trkpt lat="43.7470304" lon="11.3816194"><ele>415.0</ele><time>2026-05-03T15:11:33.615Z</time></trkpt><trkpt lat="43.7470681" lon="11.3815213"><ele>415.0</ele><time>2026-05-03T15:11:36.616Z</time></trkpt><trkpt lat="43.7471346" lon="11.3815965"><ele>415.0</ele><time>2026-05-03T15:11:42.615Z</time></trkpt><trkpt lat="43.7471717" lon="11.3816707"><ele>415.00000000000006</ele><time>2026-05-03T15:11:44.616Z</time></trkpt><trkpt lat="43.7471955" lon="11.381781"><ele>415.0</ele><time>2026-05-03T15:11:46.616Z</time></trkpt><trkpt lat="43.7472158" lon="11.381909"><ele>415.0</ele><time>2026-05-03T15:11:48.616Z</time></trkpt><trkpt lat="43.7472282" lon="11.3820484"><ele>415.0</ele><time>2026-05-03T15:11:50.615Z</time></trkpt><trkpt lat="43.7472396" lon="11.3822098"><ele>415.0</ele><time>2026-05-03T15:11:52.616Z</time></trkpt><trkpt lat="43.7472653" lon="11.3823809"><ele>415.0</ele><time>2026-05-03T15:11:54.616Z</time></trkpt><trkpt lat="43.7472772" lon="11.3824723"><ele>415.0</ele><time>2026-05-03T15:11:55.616Z</time></trkpt><trkpt lat="43.7472916" lon="11.382566"><ele>415.50000000000006</ele><time>2026-05-03T15:11:56.616Z</time></trkpt><trkpt lat="43.7473064" lon="11.3826631"><ele>416.0</ele><time>2026-05-03T15:11:57.616Z</time></trkpt><trkpt lat="43.7473212" lon="11.3827563"><ele>416.5</ele><time>2026-05-03T15:11:58.616Z</time></trkpt><trkpt lat="43.7473297" lon="11.3828446"><ele>417.0</ele><time>2026-05-03T15:11:59.616Z</time></trkpt><trkpt lat="43.7473354" lon="11.3829403"><ele>417.50000000000006</ele><time>2026-05-03T15:12:00.616Z</time></trkpt><trkpt lat="43.7473515" lon="11.383095"><ele>418.0</ele><time>2026-05-03T15:12:02.616Z</time></trkpt><trkpt lat="43.7473555" lon="11.3832597"><ele>418.42857142857144</ele><time>2026-05-03T15:12:04.616Z</time></trkpt><trkpt lat="43.7473549" lon="11.3833477"><ele>418.85714285714283</ele><time>2026-05-03T15:12:05.616Z</time></trkpt><trkpt lat="43.7473519" lon="11.3835107"><ele>419.28571428571433</ele><time>2026-05-03T15:12:07.615Z</time></trkpt><trkpt lat="43.7473533" lon="11.3836013"><ele>419.7142857142857</ele><time>2026-05-03T15:12:08.616Z</time></trkpt><trkpt lat="43.7473532" lon="11.38369"><ele>420.14285714285717</ele><time>2026-05-03T15:12:09.616Z</time></trkpt><trkpt lat="43.7473567" lon="11.3837836"><ele>420.5714285714286</ele><time>2026-05-03T15:12:10.616Z</time></trkpt><trkpt lat="43.7473647" lon="11.3838716"><ele>421.0</ele><time>2026-05-03T15:12:11.616Z</time></trkpt><trkpt lat="43.747372" lon="11.3839641"><ele>421.83333333333337</ele><time>2026-05-03T15:12:12.616Z</time></trkpt><trkpt lat="43.7473745" lon="11.3841137"><ele>422.6666666666667</ele><time>2026-05-03T15:12:14.616Z</time></trkpt><trkpt lat="43.7473793" lon="11.3842071"><ele>423.5</ele><time>2026-05-03T15:12:17.616Z</time></trkpt><trkpt lat="43.747383" lon="11.3843038"><ele>424.33333333333337</ele><time>2026-05-03T15:12:24.615Z</time></trkpt><trkpt lat="43.7473778" lon="11.3844071"><ele>425.1666666666667</ele><time>2026-05-03T15:12:27.616Z</time></trkpt><trkpt lat="43.7473473" lon="11.3844863"><ele>426.0</ele><time>2026-05-03T15:12:31.616Z</time></trkpt><trkpt lat="43.7473183" lon="11.3845679"><ele>426.0</ele><time>2026-05-03T15:12:36.616Z</time></trkpt><trkpt lat="43.7473737" lon="11.3846248"><ele>426.0</ele><time>2026-05-03T15:12:47.616Z</time></trkpt><trkpt lat="43.7474626" lon="11.3846382"><ele>426.0</ele><time>2026-05-03T15:12:51.615Z</time></trkpt><trkpt lat="43.7475311" lon="11.3846409"><ele>426.0</ele><time>2026-05-03T15:12:53.616Z</time></trkpt><trkpt lat="43.7476113" lon="11.384661"><ele>426.0</ele><time>2026-05-03T15:12:56.616Z</time></trkpt><trkpt lat="43.7476935" lon="11.3847214"><ele>426.0</ele><time>2026-05-03T15:12:59.616Z</time></trkpt><trkpt lat="43.747767" lon="11.3847811"><ele>427.1666666666667</ele><time>2026-05-03T15:13:02.616Z</time></trkpt><trkpt lat="43.7478252" lon="11.3848426"><ele>428.33333333333337</ele><time>2026-05-03T15:13:05.615Z</time></trkpt><trkpt lat="43.7478779" lon="11.384893"><ele>429.5</ele><time>2026-05-03T15:13:07.616Z</time></trkpt><trkpt lat="43.7479487" lon="11.3849418"><ele>430.6666666666667</ele><time>2026-05-03T15:13:09.616Z</time></trkpt><trkpt lat="43.7480256" lon="11.3849652"><ele>431.83333333333337</ele><time>2026-05-03T15:13:11.616Z</time></trkpt><trkpt lat="43.7480995" lon="11.3850084"><ele>433.0</ele><time>2026-05-03T15:13:14.616Z</time></trkpt><trkpt lat="43.7481747" lon="11.3850562"><ele>433.00000000000006</ele><time>2026-05-03T15:13:17.616Z</time></trkpt><trkpt lat="43.7482628" lon="11.3851044"><ele>433.0</ele><time>2026-05-03T15:13:20.616Z</time></trkpt><trkpt lat="43.7483396" lon="11.3851533"><ele>433.0</ele><time>2026-05-03T15:13:22.616Z</time></trkpt><trkpt lat="43.7484158" lon="11.3851994"><ele>433.0</ele><time>2026-05-03T15:13:24.616Z</time></trkpt><trkpt lat="43.748494" lon="11.3852503"><ele>433.00000000000006</ele><time>2026-05-03T15:13:26.616Z</time></trkpt><trkpt lat="43.7485709" lon="11.3853063"><ele>433.0</ele><time>2026-05-03T15:13:28.616Z</time></trkpt><trkpt lat="43.748638" lon="11.3853649"><ele>434.71428571428567</ele><time>2026-05-03T15:13:30.616Z</time></trkpt><trkpt lat="43.7486955" lon="11.385415"><ele>436.42857142857144</ele><time>2026-05-03T15:13:32.616Z</time></trkpt><trkpt lat="43.74877" lon="11.3854702"><ele>438.1428571428571</ele><time>2026-05-03T15:13:35.616Z</time></trkpt><trkpt lat="43.7488395" lon="11.3854969"><ele>439.85714285714283</ele><time>2026-05-03T15:13:37.616Z</time></trkpt><trkpt lat="43.7489051" lon="11.3855009"><ele>441.57142857142856</ele><time>2026-05-03T15:13:39.616Z</time></trkpt><trkpt lat="43.7489806" lon="11.3854966"><ele>443.2857142857143</ele><time>2026-05-03T15:13:43.615Z</time></trkpt><trkpt lat="43.7490532" lon="11.3854962"><ele>445.0</ele><time>2026-05-03T15:13:45.616Z</time></trkpt><trkpt lat="43.7491232" lon="11.3854987"><ele>445.0</ele><time>2026-05-03T15:13:47.616Z</time></trkpt><trkpt lat="43.7491963" lon="11.3854987"><ele>445.0</ele><time>2026-05-03T15:13:49.616Z</time></trkpt><trkpt lat="43.7492791" lon="11.3854824"><ele>445.0</ele><time>2026-05-03T15:13:51.615Z</time></trkpt><trkpt lat="43.7493707" lon="11.3854577"><ele>445.0</ele><time>2026-05-03T15:13:53.616Z</time></trkpt><trkpt lat="43.7494778" lon="11.385421"><ele>445.0</ele><time>2026-05-03T15:13:55.616Z</time></trkpt><trkpt lat="43.7495771" lon="11.3854043"><ele>444.83333333333337</ele><time>2026-05-03T15:13:57.616Z</time></trkpt><trkpt lat="43.7496648" lon="11.3853908"><ele>444.6666666666667</ele><time>2026-05-03T15:13:59.616Z</time></trkpt><trkpt lat="43.7497345" lon="11.3853876"><ele>444.5</ele><time>2026-05-03T15:14:01.616Z</time></trkpt><trkpt lat="43.7498213" lon="11.3853627"><ele>444.33333333333337</ele><time>2026-05-03T15:14:04.616Z</time></trkpt><trkpt lat="43.7498866" lon="11.3853217"><ele>444.1666666666667</ele><time>2026-05-03T15:14:06.616Z</time></trkpt><trkpt lat="43.7499553" lon="11.3852552"><ele>444.0</ele><time>2026-05-03T15:14:08.616Z</time></trkpt><trkpt lat="43.750018" lon="11.3851639"><ele>444.0</ele><time>2026-05-03T15:14:10.616Z</time></trkpt><trkpt lat="43.75007" lon="11.3850596"><ele>444.0</ele><time>2026-05-03T15:14:12.616Z</time></trkpt><trkpt lat="43.7501246" lon="11.3849707"><ele>444.0</ele><time>2026-05-03T15:14:14.616Z</time></trkpt><trkpt lat="43.7501895" lon="11.3848904"><ele>444.0</ele><time>2026-05-03T15:14:16.616Z</time></trkpt><trkpt lat="43.7502633" lon="11.3848096"><ele>444.0</ele><time>2026-05-03T15:14:18.615Z</time></trkpt><trkpt lat="43.7503384" lon="11.3847507"><ele>444.0</ele><time>2026-05-03T15:14:20.616Z</time></trkpt><trkpt lat="43.7504155" lon="11.3847126"><ele>442.6666666666667</ele><time>2026-05-03T15:14:22.615Z</time></trkpt><trkpt lat="43.750486" lon="11.384682"><ele>441.33333333333337</ele><time>2026-05-03T15:14:24.616Z</time></trkpt><trkpt lat="43.7505606" lon="11.3846445"><ele>440.0</ele><time>2026-05-03T15:14:26.616Z</time></trkpt><trkpt lat="43.7506321" lon="11.3846079"><ele>438.6666666666667</ele><time>2026-05-03T15:14:28.616Z</time></trkpt><trkpt lat="43.750695" lon="11.384572"><ele>437.33333333333337</ele><time>2026-05-03T15:14:30.616Z</time></trkpt><trkpt lat="43.7507653" lon="11.3844969"><ele>436.0</ele><time>2026-05-03T15:14:32.615Z</time></trkpt><trkpt lat="43.750844" lon="11.3844237"><ele>438.50000000000006</ele><time>2026-05-03T15:14:34.616Z</time></trkpt><trkpt lat="43.7509122" lon="11.3843521"><ele>441.0</ele><time>2026-05-03T15:14:36.616Z</time></trkpt><trkpt lat="43.750983" lon="11.3842962"><ele>443.5</ele><time>2026-05-03T15:14:38.616Z</time></trkpt><trkpt lat="43.7510553" lon="11.3842485"><ele>446.0</ele><time>2026-05-03T15:14:40.616Z</time></trkpt><trkpt lat="43.7511263" lon="11.384221"><ele>448.50000000000006</ele><time>2026-05-03T15:14:42.616Z</time></trkpt><trkpt lat="43.7512035" lon="11.3841863"><ele>451.0</ele><time>2026-05-03T15:14:44.616Z</time></trkpt><trkpt lat="43.7512803" lon="11.3841639"><ele>451.00000000000006</ele><time>2026-05-03T15:14:46.616Z</time></trkpt><trkpt lat="43.7513538" lon="11.3841555"><ele>451.0</ele><time>2026-05-03T15:14:48.616Z</time></trkpt><trkpt lat="43.751442" lon="11.3841471"><ele>451.0</ele><time>2026-05-03T15:14:50.616Z</time></trkpt><trkpt lat="43.7515337" lon="11.3841234"><ele>451.0</ele><time>2026-05-03T15:14:52.615Z</time></trkpt><trkpt lat="43.7516143" lon="11.3841019"><ele>451.00000000000006</ele><time>2026-05-03T15:14:54.616Z</time></trkpt><trkpt lat="43.7516814" lon="11.3840713"><ele>451.0</ele><time>2026-05-03T15:14:56.616Z</time></trkpt><trkpt lat="43.7517474" lon="11.3840311"><ele>451.0</ele><time>2026-05-03T15:14:58.616Z</time></trkpt><trkpt lat="43.7518043" lon="11.3839929"><ele>451.0</ele><time>2026-05-03T15:15:00.615Z</time></trkpt><trkpt lat="43.7518845" lon="11.3839403"><ele>451.0</ele><time>2026-05-03T15:15:02.616Z</time></trkpt><trkpt lat="43.7519866" lon="11.3838897"><ele>451.0</ele><time>2026-05-03T15:15:04.616Z</time></trkpt><trkpt lat="43.7520835" lon="11.3838399"><ele>451.0</ele><time>2026-05-03T15:15:06.616Z</time></trkpt><trkpt lat="43.7521782" lon="11.3837873"><ele>452.6</ele><time>2026-05-03T15:15:08.616Z</time></trkpt><trkpt lat="43.7522876" lon="11.3837428"><ele>454.20000000000005</ele><time>2026-05-03T15:15:10.616Z</time></trkpt><trkpt lat="43.7523829" lon="11.3837028"><ele>455.79999999999995</ele><time>2026-05-03T15:15:12.615Z</time></trkpt><trkpt lat="43.7525028" lon="11.3836757"><ele>457.4</ele><time>2026-05-03T15:15:14.615Z</time></trkpt><trkpt lat="43.7526147" lon="11.3836589"><ele>459.0</ele><time>2026-05-03T15:15:16.616Z</time></trkpt><trkpt lat="43.7527183" lon="11.3836186"><ele>459.0</ele><time>2026-05-03T15:15:18.616Z</time></trkpt><trkpt lat="43.7528011" lon="11.3835881"><ele>459.0</ele><time>2026-05-03T15:15:20.616Z</time></trkpt><trkpt lat="43.7528893" lon="11.3835503"><ele>459.0</ele><time>2026-05-03T15:15:22.616Z</time></trkpt><trkpt lat="43.7529615" lon="11.3834664"><ele>459.0</ele><time>2026-05-03T15:15:24.616Z</time></trkpt><trkpt lat="43.75305" lon="11.3833793"><ele>459.0</ele><time>2026-05-03T15:15:26.616Z</time></trkpt><trkpt lat="43.7531223" lon="11.3832976"><ele>459.0</ele><time>2026-05-03T15:15:29.616Z</time></trkpt><trkpt lat="43.7532086" lon="11.3832659"><ele>459.0</ele><time>2026-05-03T15:15:31.616Z</time></trkpt><trkpt lat="43.7533059" lon="11.3832852"><ele>459.0</ele><time>2026-05-03T15:15:33.616Z</time></trkpt><trkpt lat="43.7533701" lon="11.3833533"><ele>459.0</ele><time>2026-05-03T15:15:35.616Z</time></trkpt><trkpt lat="43.7534359" lon="11.3834576"><ele>459.0</ele><time>2026-05-03T15:15:37.616Z</time></trkpt><trkpt lat="43.7534968" lon="11.3835504"><ele>459.5</ele><time>2026-05-03T15:15:39.616Z</time></trkpt><trkpt lat="43.7535545" lon="11.3836326"><ele>460.0</ele><time>2026-05-03T15:15:41.616Z</time></trkpt><trkpt lat="43.7535993" lon="11.3837112"><ele>460.5</ele><time>2026-05-03T15:15:43.616Z</time></trkpt><trkpt lat="43.7536452" lon="11.3837975"><ele>461.0</ele><time>2026-05-03T15:15:45.615Z</time></trkpt><trkpt lat="43.7536845" lon="11.3838854"><ele>461.5</ele><time>2026-05-03T15:15:47.615Z</time></trkpt><trkpt lat="43.7537163" lon="11.3839771"><ele>462.0</ele><time>2026-05-03T15:15:50.616Z</time></trkpt><trkpt lat="43.7537638" lon="11.384075"><ele>462.0</ele><time>2026-05-03T15:15:53.616Z</time></trkpt><trkpt lat="43.7538006" lon="11.3841486"><ele>462.0</ele><time>2026-05-03T15:15:55.615Z</time></trkpt><trkpt lat="43.7538364" lon="11.3842212"><ele>462.0</ele><time>2026-05-03T15:15:57.616Z</time></trkpt><trkpt lat="43.7538905" lon="11.3843248"><ele>462.0</ele><time>2026-05-03T15:16:00.616Z</time></trkpt><trkpt lat="43.7539277" lon="11.3844136"><ele>462.0</ele><time>2026-05-03T15:16:02.615Z</time></trkpt><trkpt lat="43.7539589" lon="11.384503"><ele>462.0</ele><time>2026-05-03T15:16:04.616Z</time></trkpt><trkpt lat="43.7539949" lon="11.3846144"><ele>460.6666666666667</ele><time>2026-05-03T15:16:06.615Z</time></trkpt><trkpt lat="43.7540251" lon="11.3847252"><ele>459.33333333333337</ele><time>2026-05-03T15:16:08.616Z</time></trkpt><trkpt lat="43.754059" lon="11.3848288"><ele>458.0</ele><time>2026-05-03T15:16:10.616Z</time></trkpt><trkpt lat="43.7540862" lon="11.3849481"><ele>456.6666666666667</ele><time>2026-05-03T15:16:12.616Z</time></trkpt><trkpt lat="43.7541136" lon="11.3850595"><ele>455.33333333333337</ele><time>2026-05-03T15:16:14.616Z</time></trkpt><trkpt lat="43.7541386" lon="11.3851663"><ele>454.0</ele><time>2026-05-03T15:16:16.616Z</time></trkpt><trkpt lat="43.7541896" lon="11.3852833"><ele>454.00000000000006</ele><time>2026-05-03T15:16:18.616Z</time></trkpt><trkpt lat="43.7542573" lon="11.385377"><ele>454.0</ele><time>2026-05-03T15:16:20.616Z</time></trkpt><trkpt lat="43.7543331" lon="11.3854265"><ele>454.0</ele><time>2026-05-03T15:16:22.616Z</time></trkpt><trkpt lat="43.7544098" lon="11.3854538"><ele>454.0</ele><time>2026-05-03T15:16:25.616Z</time></trkpt><trkpt lat="43.7544591" lon="11.3853941"><ele>454.00000000000006</ele><time>2026-05-03T15:16:32.616Z</time></trkpt><trkpt lat="43.7543801" lon="11.3853507"><ele>454.0</ele><time>2026-05-03T15:16:38.616Z</time></trkpt><trkpt lat="43.7543105" lon="11.3853197"><ele>454.00000000000006</ele><time>2026-05-03T15:16:40.616Z</time></trkpt><trkpt lat="43.7542564" lon="11.3852373"><ele>454.0</ele><time>2026-05-03T15:16:42.616Z</time></trkpt><trkpt lat="43.7542259" lon="11.3851199"><ele>454.0</ele><time>2026-05-03T15:16:44.616Z</time></trkpt><trkpt lat="43.7542073" lon="11.3849936"><ele>454.0</ele><time>2026-05-03T15:16:46.616Z</time></trkpt><trkpt lat="43.7542057" lon="11.3848541"><ele>454.00000000000006</ele><time>2026-05-03T15:16:48.616Z</time></trkpt><trkpt lat="43.7542344" lon="11.3847446"><ele>454.0</ele><time>2026-05-03T15:16:50.615Z</time></trkpt><trkpt lat="43.7542631" lon="11.3846471"><ele>455.33333333333337</ele><time>2026-05-03T15:16:52.616Z</time></trkpt><trkpt lat="43.7542877" lon="11.3844995"><ele>456.6666666666667</ele><time>2026-05-03T15:16:54.616Z</time></trkpt><trkpt lat="43.7542903" lon="11.3844097"><ele>458.0</ele><time>2026-05-03T15:16:55.615Z</time></trkpt><trkpt lat="43.7542767" lon="11.3842392"><ele>459.33333333333337</ele><time>2026-05-03T15:16:57.616Z</time></trkpt><trkpt lat="43.7542625" lon="11.3841475"><ele>460.6666666666667</ele><time>2026-05-03T15:16:58.616Z</time></trkpt><trkpt lat="43.754247" lon="11.3840554"><ele>462.0</ele><time>2026-05-03T15:16:59.616Z</time></trkpt><trkpt lat="43.754229" lon="11.3839483"><ele>463.6666666666667</ele><time>2026-05-03T15:17:00.616Z</time></trkpt><trkpt lat="43.7542192" lon="11.3838353"><ele>465.33333333333337</ele><time>2026-05-03T15:17:01.615Z</time></trkpt><trkpt lat="43.7542073" lon="11.3837193"><ele>467.0</ele><time>2026-05-03T15:17:02.616Z</time></trkpt><trkpt lat="43.7541921" lon="11.3835999"><ele>468.6666666666667</ele><time>2026-05-03T15:17:03.616Z</time></trkpt><trkpt lat="43.7541779" lon="11.3834779"><ele>470.33333333333337</ele><time>2026-05-03T15:17:04.616Z</time></trkpt><trkpt lat="43.7541647" lon="11.3833495"><ele>472.0</ele><time>2026-05-03T15:17:05.615Z</time></trkpt><trkpt lat="43.7541514" lon="11.3832234"><ele>472.0</ele><time>2026-05-03T15:17:06.616Z</time></trkpt><trkpt lat="43.754139" lon="11.3830913"><ele>472.00000000000006</ele><time>2026-05-03T15:17:07.615Z</time></trkpt><trkpt lat="43.7541209" lon="11.3829621"><ele>472.00000000000006</ele><time>2026-05-03T15:17:08.616Z</time></trkpt><trkpt lat="43.7540978" lon="11.3828325"><ele>472.0</ele><time>2026-05-03T15:17:09.616Z</time></trkpt><trkpt lat="43.7540725" lon="11.3827112"><ele>472.0</ele><time>2026-05-03T15:17:10.616Z</time></trkpt><trkpt lat="43.7540475" lon="11.3825851"><ele>474.8</ele><time>2026-05-03T15:17:11.616Z</time></trkpt><trkpt lat="43.7540146" lon="11.3824653"><ele>477.6</ele><time>2026-05-03T15:17:12.616Z</time></trkpt><trkpt lat="43.7539841" lon="11.3823479"><ele>480.40000000000003</ele><time>2026-05-03T15:17:13.615Z</time></trkpt><trkpt lat="43.7539537" lon="11.3822306"><ele>483.20000000000005</ele><time>2026-05-03T15:17:14.616Z</time></trkpt><trkpt lat="43.7539214" lon="11.3821101"><ele>486.0</ele><time>2026-05-03T15:17:15.616Z</time></trkpt><trkpt lat="43.7538906" lon="11.381984"><ele>489.4</ele><time>2026-05-03T15:17:16.616Z</time></trkpt><trkpt lat="43.7538523" lon="11.3818642"><ele>492.8</ele><time>2026-05-03T15:17:17.616Z</time></trkpt><trkpt lat="43.7538078" lon="11.38175"><ele>496.19999999999993</ele><time>2026-05-03T15:17:18.615Z</time></trkpt><trkpt lat="43.7537539" lon="11.3816471"><ele>499.59999999999997</ele><time>2026-05-03T15:17:19.616Z</time></trkpt><trkpt lat="43.7536942" lon="11.3815483"><ele>503.0</ele><time>2026-05-03T15:17:20.616Z</time></trkpt><trkpt lat="43.7536346" lon="11.3814541"><ele>503.0</ele><time>2026-05-03T15:17:21.616Z</time></trkpt><trkpt lat="43.7535781" lon="11.3813566"><ele>502.99999999999994</ele><time>2026-05-03T15:17:22.616Z</time></trkpt><trkpt lat="43.7535213" lon="11.3812559"><ele>502.99999999999994</ele><time>2026-05-03T15:17:23.616Z</time></trkpt><trkpt lat="43.7534667" lon="11.3811591"><ele>503.0</ele><time>2026-05-03T15:17:24.616Z</time></trkpt><trkpt lat="43.7534137" lon="11.3810543"><ele>503.0</ele><time>2026-05-03T15:17:25.616Z</time></trkpt><trkpt lat="43.75336" lon="11.3809507"><ele>503.99999999999994</ele><time>2026-05-03T15:17:26.616Z</time></trkpt><trkpt lat="43.7532997" lon="11.3808436"><ele>505.0</ele><time>2026-05-03T15:17:27.616Z</time></trkpt><trkpt lat="43.7532306" lon="11.3807801"><ele>506.0</ele><time>2026-05-03T15:17:28.616Z</time></trkpt><trkpt lat="43.7531529" lon="11.380733"><ele>507.0</ele><time>2026-05-03T15:17:29.616Z</time></trkpt><trkpt lat="43.7530702" lon="11.3807181"><ele>507.99999999999994</ele><time>2026-05-03T15:17:30.616Z</time></trkpt><trkpt lat="43.7529887" lon="11.3807274"><ele>509.0</ele><time>2026-05-03T15:17:31.616Z</time></trkpt><trkpt lat="43.75291" lon="11.3807599"><ele>508.99999999999994</ele><time>2026-05-03T15:17:32.616Z</time></trkpt><trkpt lat="43.7528342" lon="11.3808111"><ele>509.0</ele><time>2026-05-03T15:17:33.616Z</time></trkpt><trkpt lat="43.7527606" lon="11.380872"><ele>509.0</ele><time>2026-05-03T15:17:34.616Z</time></trkpt><trkpt lat="43.7526849" lon="11.38093"><ele>509.0</ele><time>2026-05-03T15:17:35.616Z</time></trkpt><trkpt lat="43.7526091" lon="11.3809866"><ele>508.99999999999994</ele><time>2026-05-03T15:17:36.616Z</time></trkpt><trkpt lat="43.7525326" lon="11.3810359"><ele>509.0</ele><time>2026-05-03T15:17:37.616Z</time></trkpt><trkpt lat="43.7524503" lon="11.3810726"><ele>510.66666666666663</ele><time>2026-05-03T15:17:38.616Z</time></trkpt><trkpt lat="43.7523694" lon="11.3810906"><ele>512.3333333333333</ele><time>2026-05-03T15:17:39.616Z</time></trkpt><trkpt lat="43.7522858" lon="11.3810897"><ele>514.0</ele><time>2026-05-03T15:17:40.616Z</time></trkpt><trkpt lat="43.7521984" lon="11.3810691"><ele>515.6666666666666</ele><time>2026-05-03T15:17:41.616Z</time></trkpt><trkpt lat="43.7521113" lon="11.3810294"><ele>517.3333333333334</ele><time>2026-05-03T15:17:42.615Z</time></trkpt><trkpt lat="43.7520193" lon="11.3809967"><ele>519.0</ele><time>2026-05-03T15:17:43.615Z</time></trkpt><trkpt lat="43.7519284" lon="11.3809589"><ele>520.2</ele><time>2026-05-03T15:17:44.616Z</time></trkpt><trkpt lat="43.7518374" lon="11.3809237"><ele>521.4</ele><time>2026-05-03T15:17:45.616Z</time></trkpt><trkpt lat="43.7517426" lon="11.380887"><ele>522.6</ele><time>2026-05-03T15:17:46.616Z</time></trkpt><trkpt lat="43.7516568" lon="11.3808491"><ele>523.8</ele><time>2026-05-03T15:17:47.615Z</time></trkpt><trkpt lat="43.7515754" lon="11.3808024"><ele>525.0</ele><time>2026-05-03T15:17:48.616Z</time></trkpt><trkpt lat="43.7515024" lon="11.3807396"><ele>525.0</ele><time>2026-05-03T15:17:49.616Z</time></trkpt><trkpt lat="43.7514436" lon="11.3806623"><ele>525.0</ele><time>2026-05-03T15:17:50.615Z</time></trkpt><trkpt lat="43.7513943" lon="11.3805779"><ele>525.0</ele><time>2026-05-03T15:17:51.615Z</time></trkpt><trkpt lat="43.7513521" lon="11.3804881"><ele>525.0</ele><time>2026-05-03T15:17:52.616Z</time></trkpt><trkpt lat="43.7513266" lon="11.3803958"><ele>525.0</ele><time>2026-05-03T15:17:53.615Z</time></trkpt><trkpt lat="43.7513134" lon="11.3803004"><ele>525.0</ele><time>2026-05-03T15:17:54.616Z</time></trkpt><trkpt lat="43.7513264" lon="11.3802129"><ele>525.0</ele><time>2026-05-03T15:17:55.616Z</time></trkpt><trkpt lat="43.7513709" lon="11.3801345"><ele>527.1666666666666</ele><time>2026-05-03T15:17:56.616Z</time></trkpt><trkpt lat="43.7514411" lon="11.3800955"><ele>529.3333333333334</ele><time>2026-05-03T15:17:57.616Z</time></trkpt><trkpt lat="43.7515209" lon="11.3801036"><ele>531.5</ele><time>2026-05-03T15:17:58.616Z</time></trkpt><trkpt lat="43.7516088" lon="11.3801389"><ele>533.6666666666667</ele><time>2026-05-03T15:17:59.616Z</time></trkpt><trkpt lat="43.7516973" lon="11.3801824"><ele>535.8333333333334</ele><time>2026-05-03T15:18:00.615Z</time></trkpt><trkpt lat="43.7517782" lon="11.3802233"><ele>538.0</ele><time>2026-05-03T15:18:01.616Z</time></trkpt><trkpt lat="43.7518588" lon="11.3802356"><ele>537.5</ele><time>2026-05-03T15:18:02.616Z</time></trkpt><trkpt lat="43.7519359" lon="11.3802438"><ele>537.0</ele><time>2026-05-03T15:18:03.615Z</time></trkpt><trkpt lat="43.7520167" lon="11.3802032"><ele>536.5</ele><time>2026-05-03T15:18:04.616Z</time></trkpt><trkpt lat="43.7520896" lon="11.3801391"><ele>536.0</ele><time>2026-05-03T15:18:05.616Z</time></trkpt><trkpt lat="43.7521698" lon="11.3800737"><ele>535.5</ele><time>2026-05-03T15:18:06.615Z</time></trkpt><trkpt lat="43.752251" lon="11.3800049"><ele>535.0</ele><time>2026-05-03T15:18:07.615Z</time></trkpt><trkpt lat="43.7523335" lon="11.3799355"><ele>535.0</ele><time>2026-05-03T15:18:08.615Z</time></trkpt><trkpt lat="43.7524124" lon="11.3798892"><ele>535.0</ele><time>2026-05-03T15:18:09.615Z</time></trkpt><trkpt lat="43.7524889" lon="11.3798384"><ele>535.0</ele><time>2026-05-03T15:18:10.616Z</time></trkpt><trkpt lat="43.7525665" lon="11.3797966"><ele>535.0</ele><time>2026-05-03T15:18:11.616Z</time></trkpt><trkpt lat="43.752655" lon="11.3797701"><ele>535.0</ele><time>2026-05-03T15:18:12.616Z</time></trkpt><trkpt lat="43.7527476" lon="11.3797542"><ele>535.0</ele><time>2026-05-03T15:18:13.616Z</time></trkpt><trkpt lat="43.752838" lon="11.3797344"><ele>534.0</ele><time>2026-05-03T15:18:14.616Z</time></trkpt><trkpt lat="43.7529317" lon="11.3797215"><ele>533.0</ele><time>2026-05-03T15:18:15.615Z</time></trkpt><trkpt lat="43.7530201" lon="11.3797013"><ele>532.0</ele><time>2026-05-03T15:18:16.616Z</time></trkpt><trkpt lat="43.7531039" lon="11.379675"><ele>531.0</ele><time>2026-05-03T15:18:17.616Z</time></trkpt><trkpt lat="43.7531913" lon="11.3796565"><ele>530.0</ele><time>2026-05-03T15:18:18.616Z</time></trkpt><trkpt lat="43.7532711" lon="11.3796491"><ele>529.0</ele><time>2026-05-03T15:18:19.616Z</time></trkpt><trkpt lat="43.7533517" lon="11.3796529"><ele>528.3333333333334</ele><time>2026-05-03T15:18:20.616Z</time></trkpt><trkpt lat="43.7534365" lon="11.3796499"><ele>527.6666666666667</ele><time>2026-05-03T15:18:21.615Z</time></trkpt><trkpt lat="43.7535192" lon="11.3796497"><ele>527.0</ele><time>2026-05-03T15:18:22.616Z</time></trkpt><trkpt lat="43.7535999" lon="11.3796415"><ele>526.3333333333334</ele><time>2026-05-03T15:18:23.616Z</time></trkpt><trkpt lat="43.7536706" lon="11.3796322"><ele>525.6666666666666</ele><time>2026-05-03T15:18:24.615Z</time></trkpt><trkpt lat="43.753779" lon="11.3796338"><ele>525.0</ele><time>2026-05-03T15:18:26.616Z</time></trkpt><trkpt lat="43.7538457" lon="11.3796461"><ele>525.0</ele><time>2026-05-03T15:18:28.616Z</time></trkpt><trkpt lat="43.7539159" lon="11.3796389"><ele>525.0</ele><time>2026-05-03T15:18:30.616Z</time></trkpt><trkpt lat="43.7539781" lon="11.3795734"><ele>525.0</ele><time>2026-05-03T15:18:32.615Z</time></trkpt><trkpt lat="43.7540139" lon="11.3794714"><ele>525.0</ele><time>2026-05-03T15:18:34.616Z</time></trkpt><trkpt lat="43.7539707" lon="11.3793668"><ele>525.0</ele><time>2026-05-03T15:18:36.616Z</time></trkpt><trkpt lat="43.7538896" lon="11.3792721"><ele>525.0</ele><time>2026-05-03T15:18:38.615Z</time></trkpt><trkpt lat="43.7538175" lon="11.3791832"><ele>525.0</ele><time>2026-05-03T15:18:40.616Z</time></trkpt><trkpt lat="43.7537511" lon="11.3791057"><ele>525.0</ele><time>2026-05-03T15:18:42.616Z</time></trkpt><trkpt lat="43.7536891" lon="11.3790135"><ele>525.0</ele><time>2026-05-03T15:18:44.615Z</time></trkpt><trkpt lat="43.753623" lon="11.3789243"><ele>525.0</ele><time>2026-05-03T15:18:46.615Z</time></trkpt><trkpt lat="43.7535669" lon="11.3788387"><ele>525.0</ele><time>2026-05-03T15:18:48.616Z</time></trkpt><trkpt lat="43.7535227" lon="11.378763"><ele>525.0</ele><time>2026-05-03T15:18:50.615Z</time></trkpt><trkpt lat="43.7535413" lon="11.3786534"><ele>524.4285714285714</ele><time>2026-05-03T15:18:55.616Z</time></trkpt><trkpt lat="43.7535443" lon="11.3785596"><ele>523.8571428571429</ele><time>2026-05-03T15:18:58.616Z</time></trkpt><trkpt lat="43.7535012" lon="11.3784652"><ele>523.2857142857142</ele><time>2026-05-03T15:19:01.615Z</time></trkpt><trkpt lat="43.7534441" lon="11.3784232"><ele>522.7142857142858</ele><time>2026-05-03T15:19:06.616Z</time></trkpt><trkpt lat="43.7533752" lon="11.3783854"><ele>522.1428571428571</ele><time>2026-05-03T15:27:02.616Z</time></trkpt><trkpt lat="43.7533152" lon="11.3784392"><ele>521.5714285714286</ele><time>2026-05-03T15:27:06.616Z</time></trkpt><trkpt lat="43.7533372" lon="11.3785209"><ele>521.0</ele><time>2026-05-03T15:27:08.616Z</time></trkpt><trkpt lat="43.7533982" lon="11.3785966"><ele>521.0</ele><time>2026-05-03T15:27:10.616Z</time></trkpt><trkpt lat="43.7534769" lon="11.3786939"><ele>521.0</ele><time>2026-05-03T15:27:12.616Z</time></trkpt><trkpt lat="43.7535571" lon="11.3788166"><ele>521.0</ele><time>2026-05-03T15:27:14.616Z</time></trkpt><trkpt lat="43.7536026" lon="11.3788792"><ele>521.0</ele><time>2026-05-03T15:27:15.616Z</time></trkpt><trkpt lat="43.753649" lon="11.3789513"><ele>521.0</ele><time>2026-05-03T15:27:16.616Z</time></trkpt><trkpt lat="43.7536915" lon="11.3790263"><ele>521.0</ele><time>2026-05-03T15:27:17.616Z</time></trkpt><trkpt lat="43.7537412" lon="11.3790965"><ele>521.5714285714286</ele><time>2026-05-03T15:27:18.616Z</time></trkpt><trkpt lat="43.753788" lon="11.3791622"><ele>522.1428571428571</ele><time>2026-05-03T15:27:19.616Z</time></trkpt><trkpt lat="43.753833" lon="11.3792277"><ele>522.7142857142858</ele><time>2026-05-03T15:27:20.615Z</time></trkpt><trkpt lat="43.7538903" lon="11.3793032"><ele>523.2857142857142</ele><time>2026-05-03T15:27:21.616Z</time></trkpt><trkpt lat="43.7539593" lon="11.3793857"><ele>523.8571428571429</ele><time>2026-05-03T15:27:23.615Z</time></trkpt><trkpt lat="43.7539974" lon="11.3794687"><ele>524.4285714285714</ele><time>2026-05-03T15:27:25.616Z</time></trkpt><trkpt lat="43.7539838" lon="11.3795582"><ele>525.0</ele><time>2026-05-03T15:27:27.616Z</time></trkpt><trkpt lat="43.7539418" lon="11.3796572"><ele>525.0</ele><time>2026-05-03T15:27:29.616Z</time></trkpt><trkpt lat="43.7538852" lon="11.3797129"><ele>525.0</ele><time>2026-05-03T15:27:31.616Z</time></trkpt><trkpt lat="43.7538189" lon="11.379713"><ele>525.0</ele><time>2026-05-03T15:27:33.616Z</time></trkpt><trkpt lat="43.7537429" lon="11.3797188"><ele>525.0</ele><time>2026-05-03T15:27:35.616Z</time></trkpt><trkpt lat="43.7536177" lon="11.379667"><ele>525.0</ele><time>2026-05-03T15:27:37.616Z</time></trkpt><trkpt lat="43.7534932" lon="11.3796733"><ele>525.6666666666666</ele><time>2026-05-03T15:27:39.616Z</time></trkpt><trkpt lat="43.7534249" lon="11.3796705"><ele>526.3333333333334</ele><time>2026-05-03T15:27:40.616Z</time></trkpt><trkpt lat="43.753345" lon="11.3796636"><ele>527.0</ele><time>2026-05-03T15:27:41.615Z</time></trkpt><trkpt lat="43.753273" lon="11.3796693"><ele>527.6666666666667</ele><time>2026-05-03T15:27:42.616Z</time></trkpt><trkpt lat="43.7531918" lon="11.3796702"><ele>528.3333333333334</ele><time>2026-05-03T15:27:43.616Z</time></trkpt><trkpt lat="43.7531178" lon="11.3796863"><ele>529.0</ele><time>2026-05-03T15:27:44.616Z</time></trkpt><trkpt lat="43.753009" lon="11.3797125"><ele>529.0</ele><time>2026-05-03T15:27:46.616Z</time></trkpt><trkpt lat="43.7529357" lon="11.3797476"><ele>529.0</ele><time>2026-05-03T15:27:47.616Z</time></trkpt><trkpt lat="43.7528646" lon="11.3797558"><ele>529.0</ele><time>2026-05-03T15:27:48.616Z</time></trkpt><trkpt lat="43.7527975" lon="11.379764"><ele>529.0</ele><time>2026-05-03T15:27:49.616Z</time></trkpt><trkpt lat="43.7526751" lon="11.3797867"><ele>529.0</ele><time>2026-05-03T15:27:51.616Z</time></trkpt><trkpt lat="43.7525559" lon="11.3798271"><ele>530.0</ele><time>2026-05-03T15:27:53.616Z</time></trkpt><trkpt lat="43.7524357" lon="11.3799084"><ele>531.0</ele><time>2026-05-03T15:27:55.616Z</time></trkpt><trkpt lat="43.7523672" lon="11.379942"><ele>532.0</ele><time>2026-05-03T15:27:56.616Z</time></trkpt><trkpt lat="43.7523039" lon="11.3799906"><ele>533.0</ele><time>2026-05-03T15:27:57.616Z</time></trkpt><trkpt lat="43.7522295" lon="11.3800377"><ele>534.0</ele><time>2026-05-03T15:27:58.616Z</time></trkpt><trkpt lat="43.7521653" lon="11.3800928"><ele>535.0</ele><time>2026-05-03T15:27:59.615Z</time></trkpt><trkpt lat="43.7520957" lon="11.3801554"><ele>535.0</ele><time>2026-05-03T15:28:00.616Z</time></trkpt><trkpt lat="43.7520281" lon="11.3802039"><ele>535.0</ele><time>2026-05-03T15:28:01.616Z</time></trkpt><trkpt lat="43.7519674" lon="11.3802369"><ele>535.0</ele><time>2026-05-03T15:28:02.615Z</time></trkpt><trkpt lat="43.7518259" lon="11.3802376"><ele>535.0</ele><time>2026-05-03T15:28:04.616Z</time></trkpt><trkpt lat="43.7516983" lon="11.380186"><ele>535.0</ele><time>2026-05-03T15:28:06.616Z</time></trkpt><trkpt lat="43.7516304" lon="11.3801449"><ele>535.6</ele><time>2026-05-03T15:28:07.616Z</time></trkpt><trkpt lat="43.751562" lon="11.3801009"><ele>536.2</ele><time>2026-05-03T15:28:08.616Z</time></trkpt><trkpt lat="43.7514942" lon="11.3800847"><ele>536.8</ele><time>2026-05-03T15:28:09.615Z</time></trkpt><trkpt lat="43.7513741" lon="11.3801148"><ele>537.4</ele><time>2026-05-03T15:28:11.616Z</time></trkpt><trkpt lat="43.7513042" lon="11.3802541"><ele>538.0</ele><time>2026-05-03T15:28:13.616Z</time></trkpt><trkpt lat="43.7513219" lon="11.3804235"><ele>538.0</ele><time>2026-05-03T15:28:15.616Z</time></trkpt><trkpt lat="43.7513462" lon="11.3805125"><ele>538.0</ele><time>2026-05-03T15:28:16.616Z</time></trkpt><trkpt lat="43.7513958" lon="11.3805965"><ele>538.0</ele><time>2026-05-03T15:28:17.616Z</time></trkpt><trkpt lat="43.7514421" lon="11.3806771"><ele>538.0</ele><time>2026-05-03T15:28:18.616Z</time></trkpt><trkpt lat="43.7515051" lon="11.3807474"><ele>538.0</ele><time>2026-05-03T15:28:19.616Z</time></trkpt><trkpt lat="43.751579" lon="11.3808072"><ele>538.0</ele><time>2026-05-03T15:28:20.616Z</time></trkpt><trkpt lat="43.7516557" lon="11.3808576"><ele>535.8333333333334</ele><time>2026-05-03T15:28:21.615Z</time></trkpt><trkpt lat="43.7517354" lon="11.3809022"><ele>533.6666666666667</ele><time>2026-05-03T15:28:22.616Z</time></trkpt><trkpt lat="43.7518218" lon="11.3809448"><ele>531.5</ele><time>2026-05-03T15:28:23.616Z</time></trkpt><trkpt lat="43.751908" lon="11.380971"><ele>529.3333333333334</ele><time>2026-05-03T15:28:24.616Z</time></trkpt><trkpt lat="43.7519795" lon="11.3809855"><ele>527.1666666666666</ele><time>2026-05-03T15:28:25.616Z</time></trkpt><trkpt lat="43.7520505" lon="11.3810238"><ele>525.0</ele><time>2026-05-03T15:28:26.615Z</time></trkpt><trkpt lat="43.7521302" lon="11.3810528"><ele>524.0</ele><time>2026-05-03T15:28:27.616Z</time></trkpt><trkpt lat="43.7522129" lon="11.3810935"><ele>523.0</ele><time>2026-05-03T15:28:28.616Z</time></trkpt><trkpt lat="43.7522939" lon="11.3811198"><ele>522.0</ele><time>2026-05-03T15:28:29.615Z</time></trkpt><trkpt lat="43.7523741" lon="11.3811103"><ele>521.0</ele><time>2026-05-03T15:28:30.615Z</time></trkpt><trkpt lat="43.7524499" lon="11.3810978"><ele>520.0</ele><time>2026-05-03T15:28:31.616Z</time></trkpt><trkpt lat="43.752524" lon="11.3810755"><ele>519.0</ele><time>2026-05-03T15:28:32.616Z</time></trkpt><trkpt lat="43.7525953" lon="11.3810359"><ele>519.0</ele><time>2026-05-03T15:28:33.616Z</time></trkpt><trkpt lat="43.7526624" lon="11.3809836"><ele>519.0</ele><time>2026-05-03T15:28:34.616Z</time></trkpt><trkpt lat="43.7527313" lon="11.3809279"><ele>519.0</ele><time>2026-05-03T15:28:35.615Z</time></trkpt><trkpt lat="43.752802" lon="11.3808704"><ele>519.0</ele><time>2026-05-03T15:28:36.615Z</time></trkpt><trkpt lat="43.752879" lon="11.3808104"><ele>519.0</ele><time>2026-05-03T15:28:37.616Z</time></trkpt><trkpt lat="43.7529439" lon="11.3807636"><ele>519.0</ele><time>2026-05-03T15:28:38.616Z</time></trkpt><trkpt lat="43.7530023" lon="11.380717"><ele>517.3333333333334</ele><time>2026-05-03T15:28:39.615Z</time></trkpt><trkpt lat="43.7530652" lon="11.3806957"><ele>515.6666666666666</ele><time>2026-05-03T15:28:40.616Z</time></trkpt><trkpt lat="43.7531347" lon="11.3806951"><ele>514.0</ele><time>2026-05-03T15:28:41.616Z</time></trkpt><trkpt lat="43.7532052" lon="11.3807102"><ele>512.3333333333333</ele><time>2026-05-03T15:28:42.616Z</time></trkpt><trkpt lat="43.7532752" lon="11.3808002"><ele>510.66666666666663</ele><time>2026-05-03T15:28:43.616Z</time></trkpt><trkpt lat="43.7533315" lon="11.3808818"><ele>509.0</ele><time>2026-05-03T15:28:44.615Z</time></trkpt><trkpt lat="43.7533858" lon="11.3809885"><ele>509.0</ele><time>2026-05-03T15:28:45.616Z</time></trkpt><trkpt lat="43.7534412" lon="11.3810997"><ele>509.0</ele><time>2026-05-03T15:28:46.616Z</time></trkpt><trkpt lat="43.7535035" lon="11.3812166"><ele>509.0</ele><time>2026-05-03T15:28:47.616Z</time></trkpt><trkpt lat="43.7535583" lon="11.3813301"><ele>509.0</ele><time>2026-05-03T15:28:48.616Z</time></trkpt><trkpt lat="43.7536185" lon="11.381438"><ele>509.0</ele><time>2026-05-03T15:28:49.615Z</time></trkpt><trkpt lat="43.7536731" lon="11.3815254"><ele>507.79999999999995</ele><time>2026-05-03T15:28:50.616Z</time></trkpt><trkpt lat="43.7537298" lon="11.3816219"><ele>506.59999999999997</ele><time>2026-05-03T15:28:51.616Z</time></trkpt><trkpt lat="43.7537862" lon="11.3817229"><ele>505.4</ele><time>2026-05-03T15:28:52.615Z</time></trkpt><trkpt lat="43.7538442" lon="11.381819"><ele>504.2</ele><time>2026-05-03T15:28:53.616Z</time></trkpt><trkpt lat="43.7538777" lon="11.3819342"><ele>503.0</ele><time>2026-05-03T15:28:54.616Z</time></trkpt><trkpt lat="43.7539103" lon="11.3820598"><ele>503.0</ele><time>2026-05-03T15:28:55.616Z</time></trkpt><trkpt lat="43.753946" lon="11.3821765"><ele>502.99999999999994</ele><time>2026-05-03T15:28:56.616Z</time></trkpt><trkpt lat="43.7539792" lon="11.3822994"><ele>502.99999999999994</ele><time>2026-05-03T15:28:57.615Z</time></trkpt><trkpt lat="43.7540102" lon="11.3824239"><ele>503.0</ele><time>2026-05-03T15:28:58.616Z</time></trkpt><trkpt lat="43.7540402" lon="11.382555"><ele>503.0</ele><time>2026-05-03T15:28:59.616Z</time></trkpt><trkpt lat="43.7540683" lon="11.3826887"><ele>499.59999999999997</ele><time>2026-05-03T15:29:00.616Z</time></trkpt><trkpt lat="43.7540895" lon="11.3828216"><ele>496.19999999999993</ele><time>2026-05-03T15:29:01.616Z</time></trkpt><trkpt lat="43.7541096" lon="11.3829444"><ele>492.8</ele><time>2026-05-03T15:29:02.615Z</time></trkpt><trkpt lat="43.7541269" lon="11.3830629"><ele>489.4</ele><time>2026-05-03T15:29:03.615Z</time></trkpt><trkpt lat="43.7541403" lon="11.3831856"><ele>486.0</ele><time>2026-05-03T15:29:04.616Z</time></trkpt><trkpt lat="43.7541534" lon="11.3833024"><ele>483.6666666666667</ele><time>2026-05-03T15:29:05.616Z</time></trkpt><trkpt lat="43.7541637" lon="11.3834186"><ele>481.33333333333337</ele><time>2026-05-03T15:29:06.616Z</time></trkpt><trkpt lat="43.7541721" lon="11.3835387"><ele>479.0</ele><time>2026-05-03T15:29:07.616Z</time></trkpt><trkpt lat="43.7541824" lon="11.3836622"><ele>476.6666666666667</ele><time>2026-05-03T15:29:08.615Z</time></trkpt><trkpt lat="43.7541925" lon="11.3837793"><ele>474.33333333333337</ele><time>2026-05-03T15:29:09.616Z</time></trkpt><trkpt lat="43.754211" lon="11.3838922"><ele>472.0</ele><time>2026-05-03T15:29:10.615Z</time></trkpt><trkpt lat="43.7542273" lon="11.3840136"><ele>470.33333333333337</ele><time>2026-05-03T15:29:11.616Z</time></trkpt><trkpt lat="43.7542456" lon="11.3841249"><ele>468.6666666666667</ele><time>2026-05-03T15:29:12.615Z</time></trkpt><trkpt lat="43.7542607" lon="11.3842395"><ele>467.0</ele><time>2026-05-03T15:29:13.616Z</time></trkpt><trkpt lat="43.7542725" lon="11.3843502"><ele>465.33333333333337</ele><time>2026-05-03T15:29:14.616Z</time></trkpt><trkpt lat="43.7542726" lon="11.3844608"><ele>463.6666666666667</ele><time>2026-05-03T15:29:15.616Z</time></trkpt><trkpt lat="43.7542678" lon="11.3845833"><ele>462.0</ele><time>2026-05-03T15:29:16.616Z</time></trkpt><trkpt lat="43.7542383" lon="11.3846798"><ele>460.6666666666667</ele><time>2026-05-03T15:29:17.616Z</time></trkpt><trkpt lat="43.7542093" lon="11.38477"><ele>459.33333333333337</ele><time>2026-05-03T15:29:18.616Z</time></trkpt><trkpt lat="43.7541849" lon="11.3848719"><ele>458.0</ele><time>2026-05-03T15:29:19.616Z</time></trkpt><trkpt lat="43.7541661" lon="11.3849664"><ele>456.6666666666667</ele><time>2026-05-03T15:29:20.616Z</time></trkpt><trkpt lat="43.7541709" lon="11.385066"><ele>455.33333333333337</ele><time>2026-05-03T15:29:21.616Z</time></trkpt><trkpt lat="43.7542202" lon="11.3852338"><ele>454.0</ele><time>2026-05-03T15:29:23.616Z</time></trkpt><trkpt lat="43.7542671" lon="11.3853063"><ele>454.0</ele><time>2026-05-03T15:29:24.616Z</time></trkpt><trkpt lat="43.7543259" lon="11.3853504"><ele>454.0</ele><time>2026-05-03T15:29:25.616Z</time></trkpt><trkpt lat="43.754391" lon="11.3853611"><ele>454.0</ele><time>2026-05-03T15:29:26.615Z</time></trkpt><trkpt lat="43.7545163" lon="11.3853302"><ele>454.0</ele><time>2026-05-03T15:29:28.616Z</time></trkpt><trkpt lat="43.754603" lon="11.3852312"><ele>454.0</ele><time>2026-05-03T15:29:30.616Z</time></trkpt><trkpt lat="43.7546532" lon="11.385139"><ele>454.1666666666667</ele><time>2026-05-03T15:29:32.96Z</time></trkpt><trkpt lat="43.7547068" lon="11.3850026"><ele>454.33333333333337</ele><time>2026-05-03T15:29:34.597Z</time></trkpt><trkpt lat="43.7547488" lon="11.3849034"><ele>454.5</ele><time>2026-05-03T15:29:35.599Z</time></trkpt><trkpt lat="43.7548033" lon="11.3848181"><ele>454.66666666666663</ele><time>2026-05-03T15:29:36.597Z</time></trkpt><trkpt lat="43.7548478" lon="11.3847212"><ele>454.8333333333333</ele><time>2026-05-03T15:29:37.603Z</time></trkpt><trkpt lat="43.754889" lon="11.3846369"><ele>455.0</ele><time>2026-05-03T15:29:38.594Z</time></trkpt><trkpt lat="43.7549388" lon="11.3845582"><ele>454.99999999999994</ele><time>2026-05-03T15:29:39.594Z</time></trkpt><trkpt lat="43.7549864" lon="11.3844787"><ele>455.0</ele><time>2026-05-03T15:29:40.593Z</time></trkpt><trkpt lat="43.755046" lon="11.3844217"><ele>455.0</ele><time>2026-05-03T15:29:41.594Z</time></trkpt><trkpt lat="43.7551097" lon="11.3843926"><ele>455.0</ele><time>2026-05-03T15:29:42.594Z</time></trkpt><trkpt lat="43.7552092" lon="11.3844293"><ele>454.99999999999994</ele><time>2026-05-03T15:29:43.594Z</time></trkpt><trkpt lat="43.755283" lon="11.3844507"><ele>455.0</ele><time>2026-05-03T15:29:44.594Z</time></trkpt><trkpt lat="43.7553556" lon="11.3844822"><ele>454.3333333333333</ele><time>2026-05-03T15:29:45.593Z</time></trkpt><trkpt lat="43.7554281" lon="11.3845177"><ele>453.66666666666663</ele><time>2026-05-03T15:29:46.594Z</time></trkpt><trkpt lat="43.7554992" lon="11.3845466"><ele>453.0</ele><time>2026-05-03T15:29:47.594Z</time></trkpt><trkpt lat="43.7555753" lon="11.3845808"><ele>452.33333333333337</ele><time>2026-05-03T15:29:48.593Z</time></trkpt><trkpt lat="43.7556524" lon="11.3846186"><ele>451.6666666666667</ele><time>2026-05-03T15:29:49.594Z</time></trkpt><trkpt lat="43.7557234" lon="11.3846575"><ele>451.0</ele><time>2026-05-03T15:29:50.594Z</time></trkpt><trkpt lat="43.7557944" lon="11.3846982"><ele>448.57142857142856</ele><time>2026-05-03T15:29:51.594Z</time></trkpt><trkpt lat="43.7558659" lon="11.384724"><ele>446.14285714285717</ele><time>2026-05-03T15:29:52.594Z</time></trkpt><trkpt lat="43.7559395" lon="11.384751"><ele>443.7142857142857</ele><time>2026-05-03T15:29:53.594Z</time></trkpt><trkpt lat="43.7560161" lon="11.3847743"><ele>441.2857142857143</ele><time>2026-05-03T15:29:54.594Z</time></trkpt><trkpt lat="43.7560886" lon="11.3847958"><ele>438.8571428571429</ele><time>2026-05-03T15:29:55.594Z</time></trkpt><trkpt lat="43.7561569" lon="11.3848018"><ele>436.42857142857144</ele><time>2026-05-03T15:29:56.594Z</time></trkpt><trkpt lat="43.7562278" lon="11.384818"><ele>434.0</ele><time>2026-05-03T15:29:57.594Z</time></trkpt><trkpt lat="43.7563007" lon="11.3848422"><ele>432.99999999999994</ele><time>2026-05-03T15:29:58.593Z</time></trkpt><trkpt lat="43.7563744" lon="11.3848915"><ele>432.0</ele><time>2026-05-03T15:29:59.594Z</time></trkpt><trkpt lat="43.7564487" lon="11.3849566"><ele>431.0</ele><time>2026-05-03T15:30:00.594Z</time></trkpt><trkpt lat="43.7565189" lon="11.3850273"><ele>430.0</ele><time>2026-05-03T15:30:01.594Z</time></trkpt><trkpt lat="43.7565913" lon="11.3851118"><ele>428.99999999999994</ele><time>2026-05-03T15:30:02.593Z</time></trkpt><trkpt lat="43.7566643" lon="11.3851921"><ele>428.0</ele><time>2026-05-03T15:30:03.594Z</time></trkpt><trkpt lat="43.7567288" lon="11.3852709"><ele>427.99999999999994</ele><time>2026-05-03T15:30:04.593Z</time></trkpt><trkpt lat="43.7567831" lon="11.385363"><ele>428.0</ele><time>2026-05-03T15:30:05.594Z</time></trkpt><trkpt lat="43.7568311" lon="11.385455"><ele>428.0</ele><time>2026-05-03T15:30:06.594Z</time></trkpt><trkpt lat="43.7568727" lon="11.3855753"><ele>428.0</ele><time>2026-05-03T15:30:07.594Z</time></trkpt><trkpt lat="43.7568854" lon="11.3857029"><ele>427.99999999999994</ele><time>2026-05-03T15:30:08.593Z</time></trkpt><trkpt lat="43.7568924" lon="11.3858279"><ele>428.0</ele><time>2026-05-03T15:30:09.594Z</time></trkpt><trkpt lat="43.7569123" lon="11.3859592"><ele>422.79999999999995</ele><time>2026-05-03T15:30:10.594Z</time></trkpt><trkpt lat="43.7569254" lon="11.3860984"><ele>417.59999999999997</ele><time>2026-05-03T15:30:11.593Z</time></trkpt><trkpt lat="43.7569411" lon="11.3862298"><ele>412.4</ele><time>2026-05-03T15:30:12.594Z</time></trkpt><trkpt lat="43.7569491" lon="11.3863653"><ele>407.20000000000005</ele><time>2026-05-03T15:30:13.594Z</time></trkpt><trkpt lat="43.7569553" lon="11.3864885"><ele>402.0</ele><time>2026-05-03T15:30:14.594Z</time></trkpt><trkpt lat="43.7569582" lon="11.3866236"><ele>402.0</ele><time>2026-05-03T15:30:15.594Z</time></trkpt><trkpt lat="43.7569527" lon="11.3867447"><ele>402.0</ele><time>2026-05-03T15:30:16.594Z</time></trkpt><trkpt lat="43.756943" lon="11.3868486"><ele>402.0</ele><time>2026-05-03T15:30:17.594Z</time></trkpt><trkpt lat="43.7569248" lon="11.3869605"><ele>402.0</ele><time>2026-05-03T15:30:18.594Z</time></trkpt><trkpt lat="43.7569372" lon="11.3871128"><ele>402.0</ele><time>2026-05-03T15:30:20.594Z</time></trkpt><trkpt lat="43.7570242" lon="11.3871377"><ele>402.0</ele><time>2026-05-03T15:30:22.593Z</time></trkpt><trkpt lat="43.7570847" lon="11.3871831"><ele>402.3333333333333</ele><time>2026-05-03T15:30:25.594Z</time></trkpt><trkpt lat="43.7570809" lon="11.3873081"><ele>402.66666666666663</ele><time>2026-05-03T15:30:29.593Z</time></trkpt><trkpt lat="43.7570716" lon="11.3874161"><ele>403.0</ele><time>2026-05-03T15:30:31.593Z</time></trkpt><trkpt lat="43.7570912" lon="11.387576"><ele>403.3333333333333</ele><time>2026-05-03T15:30:33.593Z</time></trkpt><trkpt lat="43.7571117" lon="11.3876589"><ele>403.66666666666663</ele><time>2026-05-03T15:30:34.594Z</time></trkpt><trkpt lat="43.7571304" lon="11.3877438"><ele>404.0</ele><time>2026-05-03T15:30:35.593Z</time></trkpt><trkpt lat="43.757145" lon="11.3878314"><ele>403.99999999999994</ele><time>2026-05-03T15:30:36.594Z</time></trkpt><trkpt lat="43.7571677" lon="11.3879289"><ele>404.0</ele><time>2026-05-03T15:30:37.594Z</time></trkpt><trkpt lat="43.7571924" lon="11.3880384"><ele>404.0</ele><time>2026-05-03T15:30:38.594Z</time></trkpt><trkpt lat="43.757215" lon="11.38815"><ele>404.0</ele><time>2026-05-03T15:30:39.593Z</time></trkpt><trkpt lat="43.7572355" lon="11.3882691"><ele>403.99999999999994</ele><time>2026-05-03T15:30:40.593Z</time></trkpt><trkpt lat="43.7572607" lon="11.3883928"><ele>404.0</ele><time>2026-05-03T15:30:41.594Z</time></trkpt><trkpt lat="43.7572916" lon="11.3885119"><ele>405.0</ele><time>2026-05-03T15:30:42.593Z</time></trkpt><trkpt lat="43.7573192" lon="11.388633"><ele>406.0</ele><time>2026-05-03T15:30:43.594Z</time></trkpt><trkpt lat="43.7573459" lon="11.3887553"><ele>407.0</ele><time>2026-05-03T15:30:44.593Z</time></trkpt><trkpt lat="43.7573698" lon="11.3888786"><ele>408.0</ele><time>2026-05-03T15:30:45.593Z</time></trkpt><trkpt lat="43.7573948" lon="11.3889936"><ele>409.0</ele><time>2026-05-03T15:30:46.594Z</time></trkpt><trkpt lat="43.7574199" lon="11.3891102"><ele>409.00000000000006</ele><time>2026-05-03T15:30:47.593Z</time></trkpt><trkpt lat="43.7574433" lon="11.3892234"><ele>409.0</ele><time>2026-05-03T15:30:48.594Z</time></trkpt><trkpt lat="43.7574684" lon="11.3893345"><ele>409.0</ele><time>2026-05-03T15:30:49.593Z</time></trkpt><trkpt lat="43.7574921" lon="11.3894431"><ele>409.0</ele><time>2026-05-03T15:30:50.593Z</time></trkpt><trkpt lat="43.7575144" lon="11.3895501"><ele>409.00000000000006</ele><time>2026-05-03T15:30:51.594Z</time></trkpt><trkpt lat="43.7575349" lon="11.389652"><ele>409.0</ele><time>2026-05-03T15:30:52.593Z</time></trkpt><trkpt lat="43.757559" lon="11.3897521"><ele>409.0</ele><time>2026-05-03T15:30:53.594Z</time></trkpt><trkpt lat="43.7575785" lon="11.3898496"><ele>409.0</ele><time>2026-05-03T15:30:54.594Z</time></trkpt><trkpt lat="43.7575973" lon="11.3899445"><ele>409.0</ele><time>2026-05-03T15:30:55.594Z</time></trkpt><trkpt lat="43.7576159" lon="11.3900408"><ele>409.0</ele><time>2026-05-03T15:30:56.593Z</time></trkpt><trkpt lat="43.7576367" lon="11.3901353"><ele>409.0</ele><time>2026-05-03T15:30:57.593Z</time></trkpt><trkpt lat="43.7576584" lon="11.3902317"><ele>409.0</ele><time>2026-05-03T15:30:58.593Z</time></trkpt><trkpt lat="43.7576792" lon="11.3903321"><ele>409.0</ele><time>2026-05-03T15:30:59.594Z</time></trkpt><trkpt lat="43.7577046" lon="11.390432"><ele>409.2857142857143</ele><time>2026-05-03T15:31:00.594Z</time></trkpt><trkpt lat="43.7577349" lon="11.3905264"><ele>409.5714285714286</ele><time>2026-05-03T15:31:01.593Z</time></trkpt><trkpt lat="43.7577683" lon="11.3906139"><ele>409.8571428571429</ele><time>2026-05-03T15:31:02.593Z</time></trkpt><trkpt lat="43.7578002" lon="11.3907018"><ele>410.1428571428571</ele><time>2026-05-03T15:31:03.594Z</time></trkpt><trkpt lat="43.7578352" lon="11.3907987"><ele>410.42857142857144</ele><time>2026-05-03T15:31:04.594Z</time></trkpt><trkpt lat="43.7578722" lon="11.3908808"><ele>410.7142857142857</ele><time>2026-05-03T15:31:05.594Z</time></trkpt><trkpt lat="43.757909" lon="11.3909632"><ele>411.0</ele><time>2026-05-03T15:31:06.594Z</time></trkpt><trkpt lat="43.7579437" lon="11.3910449"><ele>411.0</ele><time>2026-05-03T15:31:07.594Z</time></trkpt><trkpt lat="43.7579806" lon="11.3911321"><ele>411.0</ele><time>2026-05-03T15:31:08.594Z</time></trkpt><trkpt lat="43.7580154" lon="11.3912189"><ele>411.0</ele><time>2026-05-03T15:31:09.594Z</time></trkpt><trkpt lat="43.758043" lon="11.3913073"><ele>411.0</ele><time>2026-05-03T15:31:10.593Z</time></trkpt><trkpt lat="43.7580673" lon="11.3913968"><ele>411.0</ele><time>2026-05-03T15:31:11.594Z</time></trkpt><trkpt lat="43.7580784" lon="11.3914849"><ele>411.0</ele><time>2026-05-03T15:31:12.594Z</time></trkpt><trkpt lat="43.7580772" lon="11.3916522"><ele>410.8</ele><time>2026-05-03T15:31:14.593Z</time></trkpt><trkpt lat="43.7580669" lon="11.3918075"><ele>410.6</ele><time>2026-05-03T15:31:16.594Z</time></trkpt><trkpt lat="43.7580472" lon="11.3919717"><ele>410.4</ele><time>2026-05-03T15:31:18.594Z</time></trkpt><trkpt lat="43.7580376" lon="11.3920618"><ele>410.2</ele><time>2026-05-03T15:31:19.594Z</time></trkpt><trkpt lat="43.757987" lon="11.3922173"><ele>410.0</ele><time>2026-05-03T15:31:21.593Z</time></trkpt><trkpt lat="43.7579484" lon="11.3922942"><ele>410.0</ele><time>2026-05-03T15:31:22.594Z</time></trkpt><trkpt lat="43.7579098" lon="11.3923659"><ele>410.0</ele><time>2026-05-03T15:31:23.594Z</time></trkpt><trkpt lat="43.7578634" lon="11.3924425"><ele>410.0</ele><time>2026-05-03T15:31:24.594Z</time></trkpt><trkpt lat="43.7578159" lon="11.3925191"><ele>410.0</ele><time>2026-05-03T15:31:25.594Z</time></trkpt><trkpt lat="43.7577674" lon="11.3925962"><ele>410.0</ele><time>2026-05-03T15:31:26.593Z</time></trkpt><trkpt lat="43.7577214" lon="11.3926708"><ele>410.0</ele><time>2026-05-03T15:31:27.594Z</time></trkpt><trkpt lat="43.75768" lon="11.3927497"><ele>410.0</ele><time>2026-05-03T15:31:28.594Z</time></trkpt><trkpt lat="43.7576387" lon="11.3928269"><ele>409.8571428571429</ele><time>2026-05-03T15:31:29.594Z</time></trkpt><trkpt lat="43.7575945" lon="11.3929001"><ele>409.71428571428567</ele><time>2026-05-03T15:31:30.594Z</time></trkpt><trkpt lat="43.7575492" lon="11.3929765"><ele>409.57142857142856</ele><time>2026-05-03T15:31:31.593Z</time></trkpt><trkpt lat="43.7575026" lon="11.3930563"><ele>409.42857142857144</ele><time>2026-05-03T15:31:32.594Z</time></trkpt><trkpt lat="43.7574561" lon="11.3931368"><ele>409.28571428571433</ele><time>2026-05-03T15:31:33.593Z</time></trkpt><trkpt lat="43.7574133" lon="11.3932207"><ele>409.1428571428571</ele><time>2026-05-03T15:31:34.594Z</time></trkpt><trkpt lat="43.7573664" lon="11.3933065"><ele>409.0</ele><time>2026-05-03T15:31:35.594Z</time></trkpt><trkpt lat="43.757323" lon="11.3933915"><ele>409.83333333333337</ele><time>2026-05-03T15:31:36.594Z</time></trkpt><trkpt lat="43.7572818" lon="11.3934735"><ele>410.6666666666667</ele><time>2026-05-03T15:31:37.593Z</time></trkpt><trkpt lat="43.7572419" lon="11.3935531"><ele>411.5</ele><time>2026-05-03T15:31:38.594Z</time></trkpt><trkpt lat="43.7572061" lon="11.3936324"><ele>412.33333333333337</ele><time>2026-05-03T15:31:39.594Z</time></trkpt><trkpt lat="43.757181" lon="11.3937881"><ele>413.1666666666667</ele><time>2026-05-03T15:31:41.593Z</time></trkpt><trkpt lat="43.7572116" lon="11.3939289"><ele>414.0</ele><time>2026-05-03T15:31:43.594Z</time></trkpt><trkpt lat="43.7572832" lon="11.394053"><ele>414.0</ele><time>2026-05-03T15:31:45.593Z</time></trkpt><trkpt lat="43.7573665" lon="11.3941854"><ele>414.0</ele><time>2026-05-03T15:31:47.594Z</time></trkpt><trkpt lat="43.7574526" lon="11.3943116"><ele>414.0</ele><time>2026-05-03T15:31:49.594Z</time></trkpt><trkpt lat="43.7575032" lon="11.3943728"><ele>414.0</ele><time>2026-05-03T15:31:50.594Z</time></trkpt><trkpt lat="43.7575527" lon="11.3944329"><ele>414.0</ele><time>2026-05-03T15:31:51.594Z</time></trkpt><trkpt lat="43.7576042" lon="11.3944966"><ele>414.0</ele><time>2026-05-03T15:31:52.594Z</time></trkpt><trkpt lat="43.7576605" lon="11.3945627"><ele>414.0</ele><time>2026-05-03T15:31:53.594Z</time></trkpt><trkpt lat="43.7577232" lon="11.3946224"><ele>414.0</ele><time>2026-05-03T15:31:54.593Z</time></trkpt><trkpt lat="43.7577934" lon="11.3946763"><ele>414.0</ele><time>2026-05-03T15:31:55.594Z</time></trkpt><trkpt lat="43.7578629" lon="11.3947362"><ele>414.0</ele><time>2026-05-03T15:31:56.594Z</time></trkpt><trkpt lat="43.7579343" lon="11.3947968"><ele>414.0</ele><time>2026-05-03T15:31:57.593Z</time></trkpt><trkpt lat="43.7580048" lon="11.3948596"><ele>413.6666666666667</ele><time>2026-05-03T15:31:58.594Z</time></trkpt><trkpt lat="43.7580731" lon="11.3949236"><ele>413.33333333333337</ele><time>2026-05-03T15:31:59.594Z</time></trkpt><trkpt lat="43.7581446" lon="11.394985"><ele>413.0</ele><time>2026-05-03T15:32:00.594Z</time></trkpt><trkpt lat="43.7582127" lon="11.3950432"><ele>412.6666666666667</ele><time>2026-05-03T15:32:01.593Z</time></trkpt><trkpt lat="43.758272" lon="11.3951045"><ele>412.33333333333337</ele><time>2026-05-03T15:32:02.594Z</time></trkpt><trkpt lat="43.7583264" lon="11.3951654"><ele>412.0</ele><time>2026-05-03T15:32:03.594Z</time></trkpt><trkpt lat="43.7583688" lon="11.3952393"><ele>411.99999999999994</ele><time>2026-05-03T15:32:04.594Z</time></trkpt><trkpt lat="43.7583995" lon="11.3953236"><ele>412.0</ele><time>2026-05-03T15:32:05.594Z</time></trkpt><trkpt lat="43.7584073" lon="11.3954143"><ele>412.0</ele><time>2026-05-03T15:32:06.594Z</time></trkpt><trkpt lat="43.7584003" lon="11.3955047"><ele>412.0</ele><time>2026-05-03T15:32:07.593Z</time></trkpt><trkpt lat="43.7583826" lon="11.3955994"><ele>412.0</ele><time>2026-05-03T15:32:08.594Z</time></trkpt><trkpt lat="43.7583534" lon="11.3956968"><ele>411.99999999999994</ele><time>2026-05-03T15:32:09.594Z</time></trkpt><trkpt lat="43.7583137" lon="11.395789"><ele>412.0</ele><time>2026-05-03T15:32:10.594Z</time></trkpt><trkpt lat="43.7582598" lon="11.3958828"><ele>410.8</ele><time>2026-05-03T15:32:11.594Z</time></trkpt><trkpt lat="43.7582002" lon="11.3959704"><ele>409.6</ele><time>2026-05-03T15:32:12.594Z</time></trkpt><trkpt lat="43.7581344" lon="11.3960594"><ele>408.40000000000003</ele><time>2026-05-03T15:32:13.594Z</time></trkpt><trkpt lat="43.758065" lon="11.3961427"><ele>407.20000000000005</ele><time>2026-05-03T15:32:14.594Z</time></trkpt><trkpt lat="43.7579938" lon="11.3962262"><ele>406.0</ele><time>2026-05-03T15:32:15.593Z</time></trkpt><trkpt lat="43.7579225" lon="11.396315"><ele>404.83333333333337</ele><time>2026-05-03T15:32:16.594Z</time></trkpt><trkpt lat="43.7578583" lon="11.3964039"><ele>403.6666666666667</ele><time>2026-05-03T15:32:17.594Z</time></trkpt><trkpt lat="43.7577999" lon="11.3964934"><ele>402.5</ele><time>2026-05-03T15:32:18.593Z</time></trkpt><trkpt lat="43.7577512" lon="11.396579"><ele>401.33333333333337</ele><time>2026-05-03T15:32:19.594Z</time></trkpt><trkpt lat="43.7577092" lon="11.3966619"><ele>400.1666666666667</ele><time>2026-05-03T15:32:20.594Z</time></trkpt><trkpt lat="43.7576799" lon="11.3967462"><ele>399.0</ele><time>2026-05-03T15:32:21.594Z</time></trkpt><trkpt lat="43.7576646" lon="11.3968324"><ele>399.0</ele><time>2026-05-03T15:32:22.594Z</time></trkpt><trkpt lat="43.7576547" lon="11.3969251"><ele>399.0</ele><time>2026-05-03T15:32:23.594Z</time></trkpt><trkpt lat="43.7576473" lon="11.3970234"><ele>399.0</ele><time>2026-05-03T15:32:24.594Z</time></trkpt><trkpt lat="43.7576451" lon="11.3971226"><ele>399.0</ele><time>2026-05-03T15:32:25.594Z</time></trkpt><trkpt lat="43.7576392" lon="11.3972241"><ele>399.0</ele><time>2026-05-03T15:32:26.594Z</time></trkpt><trkpt lat="43.7576346" lon="11.3973316"><ele>399.0</ele><time>2026-05-03T15:32:27.594Z</time></trkpt><trkpt lat="43.7576309" lon="11.3974383"><ele>399.0</ele><time>2026-05-03T15:32:28.594Z</time></trkpt><trkpt lat="43.7576269" lon="11.3975495"><ele>399.0</ele><time>2026-05-03T15:32:29.594Z</time></trkpt><trkpt lat="43.7576197" lon="11.3976564"><ele>399.0</ele><time>2026-05-03T15:32:30.593Z</time></trkpt><trkpt lat="43.7576157" lon="11.3977614"><ele>399.0</ele><time>2026-05-03T15:32:31.593Z</time></trkpt><trkpt lat="43.7576132" lon="11.3978634"><ele>399.0</ele><time>2026-05-03T15:32:32.594Z</time></trkpt><trkpt lat="43.7576114" lon="11.3979624"><ele>399.0</ele><time>2026-05-03T15:32:33.594Z</time></trkpt><trkpt lat="43.7576096" lon="11.3980562"><ele>399.0</ele><time>2026-05-03T15:32:34.594Z</time></trkpt><trkpt lat="43.7575989" lon="11.3982242"><ele>399.0</ele><time>2026-05-03T15:32:36.594Z</time></trkpt><trkpt lat="43.7575833" lon="11.398386"><ele>399.0</ele><time>2026-05-03T15:32:38.594Z</time></trkpt><trkpt lat="43.757568" lon="11.3985159"><ele>399.0</ele><time>2026-05-03T15:32:40.594Z</time></trkpt><trkpt lat="43.757506" lon="11.3985724"><ele>399.0</ele><time>2026-05-03T15:32:43.594Z</time></trkpt><trkpt lat="43.7574406" lon="11.3984688"><ele>399.0</ele><time>2026-05-03T15:32:46.594Z</time></trkpt><trkpt lat="43.7574272" lon="11.398336"><ele>399.0</ele><time>2026-05-03T15:32:48.594Z</time></trkpt><trkpt lat="43.757407" lon="11.3981905"><ele>399.0</ele><time>2026-05-03T15:32:50.593Z</time></trkpt><trkpt lat="43.7573849" lon="11.3980359"><ele>399.0</ele><time>2026-05-03T15:32:52.594Z</time></trkpt><trkpt lat="43.757364" lon="11.3978926"><ele>399.0</ele><time>2026-05-03T15:32:54.594Z</time></trkpt><trkpt lat="43.7573449" lon="11.3977935"><ele>399.0</ele><time>2026-05-03T15:32:56.594Z</time></trkpt><trkpt lat="43.7572694" lon="11.3978144"><ele>399.0</ele><time>2026-05-03T15:32:59.594Z</time></trkpt><trkpt lat="43.7572683" lon="11.3979171"><ele>399.0</ele><time>2026-05-03T15:33:01.593Z</time></trkpt><trkpt lat="43.7572708" lon="11.3980554"><ele>399.0</ele><time>2026-05-03T15:33:03.593Z</time></trkpt><trkpt lat="43.7572407" lon="11.3981998"><ele>399.0</ele><time>2026-05-03T15:33:05.594Z</time></trkpt><trkpt lat="43.757165" lon="11.3983399"><ele>399.0</ele><time>2026-05-03T15:33:07.594Z</time></trkpt><trkpt lat="43.7571188" lon="11.3984058"><ele>399.0</ele><time>2026-05-03T15:33:08.594Z</time></trkpt><trkpt lat="43.7570362" lon="11.3985278"><ele>399.0</ele><time>2026-05-03T15:33:10.594Z</time></trkpt><trkpt lat="43.7569688" lon="11.3986537"><ele>399.0</ele><time>2026-05-03T15:33:12.593Z</time></trkpt><trkpt lat="43.7569231" lon="11.3988067"><ele>399.0</ele><time>2026-05-03T15:33:14.594Z</time></trkpt><trkpt lat="43.7569132" lon="11.3989589"><ele>397.6</ele><time>2026-05-03T15:33:16.593Z</time></trkpt><trkpt lat="43.7569401" lon="11.3991153"><ele>396.2</ele><time>2026-05-03T15:33:18.594Z</time></trkpt><trkpt lat="43.7570084" lon="11.3992614"><ele>394.8</ele><time>2026-05-03T15:33:20.593Z</time></trkpt><trkpt lat="43.7570515" lon="11.399333"><ele>393.40000000000003</ele><time>2026-05-03T15:33:21.594Z</time></trkpt><trkpt lat="43.7571019" lon="11.3994059"><ele>392.0</ele><time>2026-05-03T15:33:22.594Z</time></trkpt><trkpt lat="43.757152" lon="11.3994825"><ele>391.99999999999994</ele><time>2026-05-03T15:33:23.594Z</time></trkpt><trkpt lat="43.7571989" lon="11.3995611"><ele>392.0</ele><time>2026-05-03T15:33:24.593Z</time></trkpt><trkpt lat="43.7572391" lon="11.3996549"><ele>392.0</ele><time>2026-05-03T15:33:25.594Z</time></trkpt><trkpt lat="43.7572725" lon="11.3997553"><ele>392.0</ele><time>2026-05-03T15:33:26.594Z</time></trkpt><trkpt lat="43.7573091" lon="11.3998632"><ele>391.99999999999994</ele><time>2026-05-03T15:33:27.594Z</time></trkpt><trkpt lat="43.7573424" lon="11.3999624"><ele>392.0</ele><time>2026-05-03T15:33:28.594Z</time></trkpt><trkpt lat="43.7573763" lon="11.4000649"><ele>389.8333333333333</ele><time>2026-05-03T15:33:29.593Z</time></trkpt><trkpt lat="43.7574072" lon="11.4001724"><ele>387.66666666666663</ele><time>2026-05-03T15:33:30.593Z</time></trkpt><trkpt lat="43.7574405" lon="11.4002812"><ele>385.5</ele><time>2026-05-03T15:33:31.594Z</time></trkpt><trkpt lat="43.7574603" lon="11.4003922"><ele>383.3333333333333</ele><time>2026-05-03T15:33:32.594Z</time></trkpt><trkpt lat="43.757479" lon="11.4005021"><ele>381.16666666666663</ele><time>2026-05-03T15:33:33.593Z</time></trkpt><trkpt lat="43.7574949" lon="11.4006057"><ele>379.0</ele><time>2026-05-03T15:33:34.593Z</time></trkpt><trkpt lat="43.7575127" lon="11.4007055"><ele>377.8333333333333</ele><time>2026-05-03T15:33:35.594Z</time></trkpt><trkpt lat="43.7575324" lon="11.4008035"><ele>376.66666666666663</ele><time>2026-05-03T15:33:36.593Z</time></trkpt><trkpt lat="43.7575514" lon="11.4009012"><ele>375.5</ele><time>2026-05-03T15:33:37.594Z</time></trkpt><trkpt lat="43.7575922" lon="11.4010023"><ele>374.3333333333333</ele><time>2026-05-03T15:33:38.594Z</time></trkpt><trkpt lat="43.7576345" lon="11.4010996"><ele>373.1666666666667</ele><time>2026-05-03T15:33:39.594Z</time></trkpt><trkpt lat="43.7576719" lon="11.4011955"><ele>372.0</ele><time>2026-05-03T15:33:40.594Z</time></trkpt><trkpt lat="43.7576994" lon="11.4012931"><ele>373.00000000000006</ele><time>2026-05-03T15:33:41.594Z</time></trkpt><trkpt lat="43.757709" lon="11.4013862"><ele>374.0</ele><time>2026-05-03T15:33:42.594Z</time></trkpt><trkpt lat="43.7577012" lon="11.401473"><ele>375.0</ele><time>2026-05-03T15:33:43.594Z</time></trkpt><trkpt lat="43.7576838" lon="11.4015637"><ele>376.0</ele><time>2026-05-03T15:33:44.594Z</time></trkpt><trkpt lat="43.7576513" lon="11.4016632"><ele>377.0</ele><time>2026-05-03T15:33:45.594Z</time></trkpt><trkpt lat="43.7576217" lon="11.401744"><ele>378.00000000000006</ele><time>2026-05-03T15:33:46.594Z</time></trkpt><trkpt lat="43.7575645" lon="11.4018405"><ele>379.0</ele><time>2026-05-03T15:33:47.593Z</time></trkpt><trkpt lat="43.7574991" lon="11.4019412"><ele>379.0</ele><time>2026-05-03T15:33:48.593Z</time></trkpt><trkpt lat="43.7574388" lon="11.4020324"><ele>379.0</ele><time>2026-05-03T15:33:49.594Z</time></trkpt><trkpt lat="43.7573799" lon="11.402127"><ele>379.0</ele><time>2026-05-03T15:33:50.594Z</time></trkpt><trkpt lat="43.7573132" lon="11.4022118"><ele>379.0</ele><time>2026-05-03T15:33:51.594Z</time></trkpt><trkpt lat="43.7572499" lon="11.4022894"><ele>379.0</ele><time>2026-05-03T15:33:52.594Z</time></trkpt><trkpt lat="43.7572058" lon="11.4023708"><ele>379.0</ele><time>2026-05-03T15:33:53.594Z</time></trkpt><trkpt lat="43.7571603" lon="11.4024388"><ele>376.5</ele><time>2026-05-03T15:33:54.594Z</time></trkpt><trkpt lat="43.7571151" lon="11.4025046"><ele>374.0</ele><time>2026-05-03T15:33:55.594Z</time></trkpt><trkpt lat="43.7570476" lon="11.4026229"><ele>371.5</ele><time>2026-05-03T15:33:57.594Z</time></trkpt><trkpt lat="43.7569771" lon="11.4027521"><ele>369.0</ele><time>2026-05-03T15:33:59.594Z</time></trkpt><trkpt lat="43.7569335" lon="11.4028209"><ele>366.5</ele><time>2026-05-03T15:34:00.593Z</time></trkpt><trkpt lat="43.7568833" lon="11.4028801"><ele>364.0</ele><time>2026-05-03T15:34:01.594Z</time></trkpt><trkpt lat="43.7568286" lon="11.402934"><ele>364.0</ele><time>2026-05-03T15:34:02.594Z</time></trkpt><trkpt lat="43.7567603" lon="11.4029776"><ele>364.0</ele><time>2026-05-03T15:34:03.594Z</time></trkpt><trkpt lat="43.7567006" lon="11.403033"><ele>364.0</ele><time>2026-05-03T15:34:04.594Z</time></trkpt><trkpt lat="43.7566495" lon="11.4030971"><ele>364.0</ele><time>2026-05-03T15:34:05.594Z</time></trkpt><trkpt lat="43.7565963" lon="11.4031612"><ele>364.0</ele><time>2026-05-03T15:34:06.594Z</time></trkpt><trkpt lat="43.7565372" lon="11.4032252"><ele>364.0</ele><time>2026-05-03T15:34:07.594Z</time></trkpt><trkpt lat="43.7564703" lon="11.4032756"><ele>364.0</ele><time>2026-05-03T15:34:08.594Z</time></trkpt><trkpt lat="43.7564146" lon="11.4033176"><ele>360.79999999999995</ele><time>2026-05-03T15:34:09.594Z</time></trkpt><trkpt lat="43.7563452" lon="11.4033627"><ele>357.59999999999997</ele><time>2026-05-03T15:34:10.594Z</time></trkpt><trkpt lat="43.7562666" lon="11.4034065"><ele>354.4</ele><time>2026-05-03T15:34:11.594Z</time></trkpt><trkpt lat="43.7562014" lon="11.4034525"><ele>351.2</ele><time>2026-05-03T15:34:12.594Z</time></trkpt><trkpt lat="43.7560776" lon="11.4035296"><ele>348.0</ele><time>2026-05-03T15:34:14.594Z</time></trkpt><trkpt lat="43.7560101" lon="11.4035913"><ele>348.0</ele><time>2026-05-03T15:34:15.593Z</time></trkpt><trkpt lat="43.7559497" lon="11.4036609"><ele>348.0</ele><time>2026-05-03T15:34:16.593Z</time></trkpt><trkpt lat="43.7558921" lon="11.4037391"><ele>348.0</ele><time>2026-05-03T15:34:17.594Z</time></trkpt><trkpt lat="43.7558224" lon="11.4038075"><ele>348.0</ele><time>2026-05-03T15:34:18.594Z</time></trkpt><trkpt lat="43.7557592" lon="11.4038912"><ele>348.0</ele><time>2026-05-03T15:34:19.593Z</time></trkpt><trkpt lat="43.7556963" lon="11.4039712"><ele>348.0</ele><time>2026-05-03T15:34:20.594Z</time></trkpt><trkpt lat="43.7556342" lon="11.4040468"><ele>350.1666666666667</ele><time>2026-05-03T15:34:21.593Z</time></trkpt><trkpt lat="43.7555663" lon="11.4041163"><ele>352.3333333333333</ele><time>2026-05-03T15:34:22.594Z</time></trkpt><trkpt lat="43.7554937" lon="11.4041906"><ele>354.5</ele><time>2026-05-03T15:34:23.594Z</time></trkpt><trkpt lat="43.7554267" lon="11.4042586"><ele>356.66666666666663</ele><time>2026-05-03T15:34:24.594Z</time></trkpt><trkpt lat="43.7553514" lon="11.4043074"><ele>358.8333333333333</ele><time>2026-05-03T15:34:25.594Z</time></trkpt><trkpt lat="43.7552844" lon="11.4043635"><ele>361.0</ele><time>2026-05-03T15:34:26.594Z</time></trkpt><trkpt lat="43.7552216" lon="11.4044238"><ele>357.3333333333333</ele><time>2026-05-03T15:34:27.593Z</time></trkpt><trkpt lat="43.7551579" lon="11.4044809"><ele>353.66666666666663</ele><time>2026-05-03T15:34:28.593Z</time></trkpt><trkpt lat="43.7551062" lon="11.4045407"><ele>350.0</ele><time>2026-05-03T15:34:29.594Z</time></trkpt><trkpt lat="43.7550606" lon="11.4046156"><ele>346.3333333333333</ele><time>2026-05-03T15:34:30.594Z</time></trkpt><trkpt lat="43.7550251" lon="11.4047119"><ele>342.6666666666667</ele><time>2026-05-03T15:34:31.594Z</time></trkpt><trkpt lat="43.7550118" lon="11.4048229"><ele>339.0</ele><time>2026-05-03T15:34:32.594Z</time></trkpt><trkpt lat="43.7550154" lon="11.4049316"><ele>339.0</ele><time>2026-05-03T15:34:33.593Z</time></trkpt><trkpt lat="43.7550235" lon="11.405044"><ele>339.0</ele><time>2026-05-03T15:34:34.593Z</time></trkpt><trkpt lat="43.7550285" lon="11.4051525"><ele>339.0</ele><time>2026-05-03T15:34:35.594Z</time></trkpt><trkpt lat="43.7550366" lon="11.4052506"><ele>339.0</ele><time>2026-05-03T15:34:36.594Z</time></trkpt><trkpt lat="43.7550421" lon="11.4053398"><ele>339.0</ele><time>2026-05-03T15:34:37.594Z</time></trkpt><trkpt lat="43.755006" lon="11.4054443"><ele>339.0</ele><time>2026-05-03T15:34:39.594Z</time></trkpt><trkpt lat="43.7549305" lon="11.405503"><ele>340.79999999999995</ele><time>2026-05-03T15:34:41.594Z</time></trkpt><trkpt lat="43.7548353" lon="11.4055395"><ele>342.59999999999997</ele><time>2026-05-03T15:34:43.593Z</time></trkpt><trkpt lat="43.7547194" lon="11.4055926"><ele>344.4</ele><time>2026-05-03T15:34:45.594Z</time></trkpt><trkpt lat="43.7546478" lon="11.4056231"><ele>346.2</ele><time>2026-05-03T15:34:46.593Z</time></trkpt><trkpt lat="43.7545677" lon="11.4056573"><ele>348.0</ele><time>2026-05-03T15:34:47.593Z</time></trkpt><trkpt lat="43.7544866" lon="11.4056926"><ele>348.0</ele><time>2026-05-03T15:34:48.594Z</time></trkpt><trkpt lat="43.754405" lon="11.4057248"><ele>348.0</ele><time>2026-05-03T15:34:49.594Z</time></trkpt><trkpt lat="43.7543228" lon="11.4057533"><ele>348.0</ele><time>2026-05-03T15:34:50.594Z</time></trkpt><trkpt lat="43.7542443" lon="11.4057739"><ele>348.0</ele><time>2026-05-03T15:34:51.594Z</time></trkpt><trkpt lat="43.7541613" lon="11.4057877"><ele>348.0</ele><time>2026-05-03T15:34:52.594Z</time></trkpt><trkpt lat="43.7540821" lon="11.4058011"><ele>348.0</ele><time>2026-05-03T15:34:53.594Z</time></trkpt><trkpt lat="43.7540059" lon="11.4058221"><ele>345.79999999999995</ele><time>2026-05-03T15:34:54.594Z</time></trkpt><trkpt lat="43.7539378" lon="11.4058354"><ele>343.6</ele><time>2026-05-03T15:34:55.594Z</time></trkpt><trkpt lat="43.7538388" lon="11.4058647"><ele>341.4</ele><time>2026-05-03T15:34:57.594Z</time></trkpt><trkpt lat="43.7537278" lon="11.4058931"><ele>339.20000000000005</ele><time>2026-05-03T15:34:59.593Z</time></trkpt><trkpt lat="43.7536117" lon="11.4059593"><ele>337.0</ele><time>2026-05-03T15:35:01.594Z</time></trkpt><trkpt lat="43.7535459" lon="11.4060012"><ele>336.14285714285717</ele><time>2026-05-03T15:35:02.593Z</time></trkpt><trkpt lat="43.7534797" lon="11.4060473"><ele>335.2857142857143</ele><time>2026-05-03T15:35:03.594Z</time></trkpt><trkpt lat="43.7534174" lon="11.406088"><ele>334.42857142857144</ele><time>2026-05-03T15:35:04.594Z</time></trkpt><trkpt lat="43.7533483" lon="11.4061288"><ele>333.57142857142856</ele><time>2026-05-03T15:35:05.594Z</time></trkpt><trkpt lat="43.7532769" lon="11.4061665"><ele>332.7142857142857</ele><time>2026-05-03T15:35:06.593Z</time></trkpt><trkpt lat="43.7532068" lon="11.4062101"><ele>331.8571428571429</ele><time>2026-05-03T15:35:07.594Z</time></trkpt><trkpt lat="43.7531353" lon="11.4062493"><ele>331.0</ele><time>2026-05-03T15:35:08.593Z</time></trkpt><trkpt lat="43.7530682" lon="11.4062835"><ele>331.0</ele><time>2026-05-03T15:35:09.594Z</time></trkpt><trkpt lat="43.7529956" lon="11.4063023"><ele>331.0</ele><time>2026-05-03T15:35:10.594Z</time></trkpt><trkpt lat="43.7529331" lon="11.4063381"><ele>331.0</ele><time>2026-05-03T15:35:11.594Z</time></trkpt><trkpt lat="43.7528714" lon="11.4063782"><ele>331.0</ele><time>2026-05-03T15:35:12.593Z</time></trkpt><trkpt lat="43.7528102" lon="11.4064099"><ele>331.0</ele><time>2026-05-03T15:35:13.594Z</time></trkpt><trkpt lat="43.7526922" lon="11.4064746"><ele>331.0</ele><time>2026-05-03T15:35:15.594Z</time></trkpt><trkpt lat="43.752571" lon="11.4065096"><ele>332.8333333333333</ele><time>2026-05-03T15:35:17.594Z</time></trkpt><trkpt lat="43.7525042" lon="11.4065193"><ele>334.66666666666663</ele><time>2026-05-03T15:35:18.594Z</time></trkpt><trkpt lat="43.7524323" lon="11.4065323"><ele>336.5</ele><time>2026-05-03T15:35:19.594Z</time></trkpt><trkpt lat="43.7523567" lon="11.4065469"><ele>338.3333333333333</ele><time>2026-05-03T15:35:20.594Z</time></trkpt><trkpt lat="43.7522703" lon="11.4065594"><ele>340.1666666666667</ele><time>2026-05-03T15:35:21.594Z</time></trkpt><trkpt lat="43.752189" lon="11.4065706"><ele>342.0</ele><time>2026-05-03T15:35:22.594Z</time></trkpt><trkpt lat="43.7521153" lon="11.4065721"><ele>342.0</ele><time>2026-05-03T15:35:23.594Z</time></trkpt><trkpt lat="43.7520443" lon="11.4065731"><ele>342.0</ele><time>2026-05-03T15:35:24.594Z</time></trkpt><trkpt lat="43.7519803" lon="11.4065751"><ele>342.0</ele><time>2026-05-03T15:35:25.594Z</time></trkpt><trkpt lat="43.7518567" lon="11.4066148"><ele>342.0</ele><time>2026-05-03T15:35:27.594Z</time></trkpt><trkpt lat="43.751794" lon="11.4066468"><ele>342.0</ele><time>2026-05-03T15:35:28.594Z</time></trkpt><trkpt lat="43.7517308" lon="11.4066787"><ele>342.0</ele><time>2026-05-03T15:35:29.594Z</time></trkpt><trkpt lat="43.751669" lon="11.4067109"><ele>340.4285714285714</ele><time>2026-05-03T15:35:30.594Z</time></trkpt><trkpt lat="43.7515976" lon="11.4067377"><ele>338.85714285714283</ele><time>2026-05-03T15:35:31.594Z</time></trkpt><trkpt lat="43.7515306" lon="11.4067543"><ele>337.2857142857143</ele><time>2026-05-03T15:35:32.594Z</time></trkpt><trkpt lat="43.7514669" lon="11.4067762"><ele>335.71428571428567</ele><time>2026-05-03T15:35:33.593Z</time></trkpt><trkpt lat="43.7514" lon="11.4067896"><ele>334.1428571428571</ele><time>2026-05-03T15:35:34.593Z</time></trkpt><trkpt lat="43.7513407" lon="11.4068218"><ele>332.57142857142856</ele><time>2026-05-03T15:35:35.594Z</time></trkpt><trkpt lat="43.7512677" lon="11.4068568"><ele>331.0</ele><time>2026-05-03T15:35:36.593Z</time></trkpt><trkpt lat="43.7512025" lon="11.4069092"><ele>331.0</ele><time>2026-05-03T15:35:37.594Z</time></trkpt><trkpt lat="43.7511455" lon="11.4069593"><ele>331.0</ele><time>2026-05-03T15:35:38.593Z</time></trkpt><trkpt lat="43.7510628" lon="11.4070387"><ele>331.0</ele><time>2026-05-03T15:35:40.594Z</time></trkpt><trkpt lat="43.750985" lon="11.4070238"><ele>331.0</ele><time>2026-05-03T15:35:42.594Z</time></trkpt><trkpt lat="43.7509257" lon="11.4069184"><ele>331.0</ele><time>2026-05-03T15:35:44.593Z</time></trkpt><trkpt lat="43.7508672" lon="11.4068204"><ele>331.0</ele><time>2026-05-03T15:35:46.594Z</time></trkpt><trkpt lat="43.7507873" lon="11.406796"><ele>328.40000000000003</ele><time>2026-05-03T15:35:48.593Z</time></trkpt><trkpt lat="43.750697" lon="11.4068716"><ele>325.8</ele><time>2026-05-03T15:35:50.594Z</time></trkpt><trkpt lat="43.7506004" lon="11.4069584"><ele>323.20000000000005</ele><time>2026-05-03T15:35:52.594Z</time></trkpt><trkpt lat="43.7505064" lon="11.4070266"><ele>320.6</ele><time>2026-05-03T15:35:54.594Z</time></trkpt><trkpt lat="43.7504461" lon="11.4070858"><ele>318.0</ele><time>2026-05-03T15:35:56.594Z</time></trkpt><trkpt lat="43.7504387" lon="11.4072148"><ele>318.0</ele><time>2026-05-03T15:36:00.594Z</time></trkpt><trkpt lat="43.7505085" lon="11.407319"><ele>318.0</ele><time>2026-05-03T15:36:02.594Z</time></trkpt><trkpt lat="43.7506096" lon="11.4074279"><ele>318.0</ele><time>2026-05-03T15:36:04.594Z</time></trkpt><trkpt lat="43.7506664" lon="11.4074868"><ele>318.0</ele><time>2026-05-03T15:36:05.593Z</time></trkpt><trkpt lat="43.7507242" lon="11.4075476"><ele>318.0</ele><time>2026-05-03T15:36:06.594Z</time></trkpt><trkpt lat="43.7507815" lon="11.4076137"><ele>318.0</ele><time>2026-05-03T15:36:07.594Z</time></trkpt><trkpt lat="43.750838" lon="11.4076796"><ele>318.0</ele><time>2026-05-03T15:36:08.594Z</time></trkpt><trkpt lat="43.7509002" lon="11.4077441"><ele>318.0</ele><time>2026-05-03T15:36:09.594Z</time></trkpt><trkpt lat="43.7509551" lon="11.4078078"><ele>318.0</ele><time>2026-05-03T15:36:10.594Z</time></trkpt><trkpt lat="43.7510099" lon="11.4078678"><ele>318.0</ele><time>2026-05-03T15:36:11.594Z</time></trkpt><trkpt lat="43.7510624" lon="11.4079286"><ele>318.0</ele><time>2026-05-03T15:36:12.594Z</time></trkpt><trkpt lat="43.7511037" lon="11.4079958"><ele>318.0</ele><time>2026-05-03T15:36:13.594Z</time></trkpt><trkpt lat="43.7511549" lon="11.4081488"><ele>318.4</ele><time>2026-05-03T15:36:15.594Z</time></trkpt><trkpt lat="43.7511729" lon="11.4083253"><ele>318.8</ele><time>2026-05-03T15:36:17.593Z</time></trkpt><trkpt lat="43.7511752" lon="11.408416"><ele>319.2</ele><time>2026-05-03T15:36:18.594Z</time></trkpt><trkpt lat="43.7511786" lon="11.4085049"><ele>319.6</ele><time>2026-05-03T15:36:19.594Z</time></trkpt><trkpt lat="43.7511831" lon="11.408671"><ele>320.0</ele><time>2026-05-03T15:36:21.594Z</time></trkpt><trkpt lat="43.751203" lon="11.4088253"><ele>318.0</ele><time>2026-05-03T15:36:23.594Z</time></trkpt><trkpt lat="43.7512387" lon="11.4089828"><ele>316.0</ele><time>2026-05-03T15:36:25.594Z</time></trkpt><trkpt lat="43.7512864" lon="11.4091338"><ele>314.0</ele><time>2026-05-03T15:36:27.594Z</time></trkpt><trkpt lat="43.7513426" lon="11.4092834"><ele>312.0</ele><time>2026-05-03T15:36:29.593Z</time></trkpt><trkpt lat="43.7513976" lon="11.4094419"><ele>312.0</ele><time>2026-05-03T15:36:31.594Z</time></trkpt><trkpt lat="43.7514224" lon="11.4095248"><ele>312.0</ele><time>2026-05-03T15:36:32.594Z</time></trkpt><trkpt lat="43.7514465" lon="11.4096117"><ele>312.0</ele><time>2026-05-03T15:36:33.594Z</time></trkpt><trkpt lat="43.7514721" lon="11.4096977"><ele>312.0</ele><time>2026-05-03T15:36:34.594Z</time></trkpt><trkpt lat="43.7514997" lon="11.4097812"><ele>312.0</ele><time>2026-05-03T15:36:35.594Z</time></trkpt><trkpt lat="43.7515261" lon="11.4098657"><ele>312.0</ele><time>2026-05-03T15:36:36.594Z</time></trkpt><trkpt lat="43.7515526" lon="11.4099546"><ele>312.0</ele><time>2026-05-03T15:36:37.594Z</time></trkpt><trkpt lat="43.7515791" lon="11.4100365"><ele>311.3333333333333</ele><time>2026-05-03T15:36:38.594Z</time></trkpt><trkpt lat="43.7516064" lon="11.4101194"><ele>310.6666666666667</ele><time>2026-05-03T15:36:39.594Z</time></trkpt><trkpt lat="43.7516543" lon="11.4102898"><ele>310.0</ele><time>2026-05-03T15:36:41.593Z</time></trkpt><trkpt lat="43.7516832" lon="11.4103896"><ele>309.33333333333337</ele><time>2026-05-03T15:36:42.594Z</time></trkpt><trkpt lat="43.7517104" lon="11.410493"><ele>308.6666666666667</ele><time>2026-05-03T15:36:43.594Z</time></trkpt><trkpt lat="43.7517407" lon="11.4105974"><ele>308.0</ele><time>2026-05-03T15:36:44.594Z</time></trkpt><trkpt lat="43.7517784" lon="11.4106924"><ele>308.57142857142856</ele><time>2026-05-03T15:36:45.594Z</time></trkpt><trkpt lat="43.751801" lon="11.4107989"><ele>309.1428571428571</ele><time>2026-05-03T15:36:46.594Z</time></trkpt><trkpt lat="43.7518352" lon="11.4108884"><ele>309.7142857142857</ele><time>2026-05-03T15:36:47.594Z</time></trkpt><trkpt lat="43.7518661" lon="11.4109822"><ele>310.2857142857143</ele><time>2026-05-03T15:36:48.594Z</time></trkpt><trkpt lat="43.7519017" lon="11.4110612"><ele>310.85714285714283</ele><time>2026-05-03T15:36:49.593Z</time></trkpt><trkpt lat="43.7519449" lon="11.4111301"><ele>311.42857142857144</ele><time>2026-05-03T15:36:50.593Z</time></trkpt><trkpt lat="43.7519876" lon="11.4111947"><ele>312.0</ele><time>2026-05-03T15:36:51.594Z</time></trkpt><trkpt lat="43.7520373" lon="11.4112507"><ele>312.0</ele><time>2026-05-03T15:36:52.594Z</time></trkpt><trkpt lat="43.7520938" lon="11.4113086"><ele>312.0</ele><time>2026-05-03T15:36:53.594Z</time></trkpt><trkpt lat="43.7521459" lon="11.4113608"><ele>312.0</ele><time>2026-05-03T15:36:54.594Z</time></trkpt><trkpt lat="43.7522035" lon="11.4114141"><ele>312.0</ele><time>2026-05-03T15:36:55.594Z</time></trkpt><trkpt lat="43.752261" lon="11.4114734"><ele>312.0</ele><time>2026-05-03T15:36:56.594Z</time></trkpt><trkpt lat="43.752321" lon="11.4115358"><ele>312.0</ele><time>2026-05-03T15:36:57.593Z</time></trkpt><trkpt lat="43.7523826" lon="11.4115938"><ele>312.0</ele><time>2026-05-03T15:36:58.594Z</time></trkpt><trkpt lat="43.7524429" lon="11.4116505"><ele>312.0</ele><time>2026-05-03T15:36:59.594Z</time></trkpt><trkpt lat="43.7525022" lon="11.4117142"><ele>312.0</ele><time>2026-05-03T15:37:00.594Z</time></trkpt><trkpt lat="43.7525604" lon="11.4117829"><ele>312.0</ele><time>2026-05-03T15:37:01.594Z</time></trkpt><trkpt lat="43.7526168" lon="11.4118489"><ele>312.0</ele><time>2026-05-03T15:37:02.594Z</time></trkpt><trkpt lat="43.7526698" lon="11.4119162"><ele>312.0</ele><time>2026-05-03T15:37:03.594Z</time></trkpt><trkpt lat="43.7527146" lon="11.4119858"><ele>312.0</ele><time>2026-05-03T15:37:04.594Z</time></trkpt><trkpt lat="43.752752" lon="11.4120592"><ele>312.0</ele><time>2026-05-03T15:37:05.594Z</time></trkpt><trkpt lat="43.7527795" lon="11.4121385"><ele>310.6666666666667</ele><time>2026-05-03T15:37:06.594Z</time></trkpt><trkpt lat="43.7528022" lon="11.4122201"><ele>309.3333333333333</ele><time>2026-05-03T15:37:07.593Z</time></trkpt><trkpt lat="43.7528244" lon="11.4123025"><ele>308.0</ele><time>2026-05-03T15:37:08.594Z</time></trkpt><trkpt lat="43.7528827" lon="11.4124332"><ele>306.66666666666663</ele><time>2026-05-03T15:37:10.593Z</time></trkpt><trkpt lat="43.7529314" lon="11.4125143"><ele>305.3333333333333</ele><time>2026-05-03T15:37:13.594Z</time></trkpt><trkpt lat="43.7529883" lon="11.4125977"><ele>304.0</ele><time>2026-05-03T15:37:18.594Z</time></trkpt><trkpt lat="43.7530677" lon="11.4127096"><ele>304.0</ele><time>2026-05-03T15:37:20.594Z</time></trkpt><trkpt lat="43.7531278" lon="11.4128377"><ele>304.0</ele><time>2026-05-03T15:37:22.594Z</time></trkpt><trkpt lat="43.7531303" lon="11.4129649"><ele>304.0</ele><time>2026-05-03T15:37:24.594Z</time></trkpt><trkpt lat="43.7531062" lon="11.4131149"><ele>304.0</ele><time>2026-05-03T15:37:26.593Z</time></trkpt><trkpt lat="43.7531039" lon="11.413202"><ele>304.0</ele><time>2026-05-03T15:37:27.594Z</time></trkpt><trkpt lat="43.753101" lon="11.4132895"><ele>304.0</ele><time>2026-05-03T15:37:28.594Z</time></trkpt><trkpt lat="43.7531044" lon="11.4133833"><ele>303.0</ele><time>2026-05-03T15:37:29.594Z</time></trkpt><trkpt lat="43.7530894" lon="11.4135525"><ele>302.0</ele><time>2026-05-03T15:37:31.594Z</time></trkpt><trkpt lat="43.7530701" lon="11.4136406"><ele>301.0</ele><time>2026-05-03T15:37:32.594Z</time></trkpt><trkpt lat="43.7530362" lon="11.41372"><ele>300.0</ele><time>2026-05-03T15:37:33.594Z</time></trkpt><trkpt lat="43.7529962" lon="11.4137991"><ele>299.0</ele><time>2026-05-03T15:37:34.594Z</time></trkpt><trkpt lat="43.7529177" lon="11.4139128"><ele>298.0</ele><time>2026-05-03T15:37:36.594Z</time></trkpt><trkpt lat="43.7528319" lon="11.414013"><ele>298.0</ele><time>2026-05-03T15:37:38.593Z</time></trkpt><trkpt lat="43.7527685" lon="11.4140915"><ele>298.0</ele><time>2026-05-03T15:37:40.594Z</time></trkpt><trkpt lat="43.7527395" lon="11.4142137"><ele>298.0</ele><time>2026-05-03T15:37:42.594Z</time></trkpt><trkpt lat="43.7527299" lon="11.4143654"><ele>298.0</ele><time>2026-05-03T15:37:44.594Z</time></trkpt><trkpt lat="43.7527271" lon="11.4145313"><ele>298.0</ele><time>2026-05-03T15:37:46.593Z</time></trkpt><trkpt lat="43.752722" lon="11.4147059"><ele>297.6</ele><time>2026-05-03T15:37:48.594Z</time></trkpt><trkpt lat="43.7527208" lon="11.4147968"><ele>297.20000000000005</ele><time>2026-05-03T15:37:49.594Z</time></trkpt><trkpt lat="43.7527226" lon="11.4148865"><ele>296.8</ele><time>2026-05-03T15:37:50.594Z</time></trkpt><trkpt lat="43.7527254" lon="11.4150547"><ele>296.40000000000003</ele><time>2026-05-03T15:37:52.594Z</time></trkpt><trkpt lat="43.752744" lon="11.4152076"><ele>296.0</ele><time>2026-05-03T15:37:54.594Z</time></trkpt><trkpt lat="43.7527629" lon="11.4153558"><ele>295.75</ele><time>2026-05-03T15:37:56.594Z</time></trkpt><trkpt lat="43.752782" lon="11.4155105"><ele>295.5</ele><time>2026-05-03T15:37:58.594Z</time></trkpt><trkpt lat="43.7528001" lon="11.4156644"><ele>295.25</ele><time>2026-05-03T15:38:00.594Z</time></trkpt><trkpt lat="43.7528219" lon="11.4158206"><ele>295.0</ele><time>2026-05-03T15:38:02.593Z</time></trkpt><trkpt lat="43.7528443" lon="11.4159812"><ele>295.0</ele><time>2026-05-03T15:38:04.594Z</time></trkpt><trkpt lat="43.7528525" lon="11.4160678"><ele>295.0</ele><time>2026-05-03T15:38:05.594Z</time></trkpt><trkpt lat="43.7528726" lon="11.4162358"><ele>295.0</ele><time>2026-05-03T15:38:07.594Z</time></trkpt><trkpt lat="43.7528834" lon="11.4163793"><ele>295.0</ele><time>2026-05-03T15:38:09.594Z</time></trkpt><trkpt lat="43.7529036" lon="11.4165076"><ele>295.0</ele><time>2026-05-03T15:38:11.594Z</time></trkpt><trkpt lat="43.752927" lon="11.4166455"><ele>294.2</ele><time>2026-05-03T15:38:13.594Z</time></trkpt><trkpt lat="43.7529392" lon="11.4168016"><ele>293.4</ele><time>2026-05-03T15:38:15.594Z</time></trkpt><trkpt lat="43.7529429" lon="11.4169682"><ele>292.6</ele><time>2026-05-03T15:38:17.594Z</time></trkpt><trkpt lat="43.7529252" lon="11.4171249"><ele>291.8</ele><time>2026-05-03T15:38:19.594Z</time></trkpt><trkpt lat="43.7529081" lon="11.4172139"><ele>291.0</ele><time>2026-05-03T15:38:20.594Z</time></trkpt><trkpt lat="43.7528734" lon="11.417303"><ele>290.2</ele><time>2026-05-03T15:38:21.593Z</time></trkpt><trkpt lat="43.7528317" lon="11.4174491"><ele>289.40000000000003</ele><time>2026-05-03T15:38:23.594Z</time></trkpt><trkpt lat="43.75281" lon="11.4176288"><ele>288.6</ele><time>2026-05-03T15:38:25.594Z</time></trkpt><trkpt lat="43.7528136" lon="11.4177172"><ele>287.8</ele><time>2026-05-03T15:38:26.594Z</time></trkpt><trkpt lat="43.7528174" lon="11.4178169"><ele>287.0</ele><time>2026-05-03T15:38:27.594Z</time></trkpt><trkpt lat="43.7528202" lon="11.4179168"><ele>286.1666666666667</ele><time>2026-05-03T15:38:28.593Z</time></trkpt><trkpt lat="43.7528247" lon="11.4180187"><ele>285.33333333333337</ele><time>2026-05-03T15:38:29.594Z</time></trkpt><trkpt lat="43.7528326" lon="11.4181053"><ele>284.5</ele><time>2026-05-03T15:38:30.594Z</time></trkpt><trkpt lat="43.7528319" lon="11.4182043"><ele>283.6666666666667</ele><time>2026-05-03T15:38:31.593Z</time></trkpt><trkpt lat="43.7528239" lon="11.4183609"><ele>282.8333333333333</ele><time>2026-05-03T15:38:33.594Z</time></trkpt><trkpt lat="43.7528111" lon="11.4184508"><ele>282.0</ele><time>2026-05-03T15:38:34.594Z</time></trkpt><trkpt lat="43.752785" lon="11.418551"><ele>282.0</ele><time>2026-05-03T15:38:35.594Z</time></trkpt><trkpt lat="43.7527591" lon="11.4186468"><ele>282.0</ele><time>2026-05-03T15:38:36.594Z</time></trkpt><trkpt lat="43.7527281" lon="11.4187425"><ele>282.0</ele><time>2026-05-03T15:38:37.594Z</time></trkpt><trkpt lat="43.7526893" lon="11.4188333"><ele>282.0</ele><time>2026-05-03T15:38:38.594Z</time></trkpt><trkpt lat="43.7526505" lon="11.4189143"><ele>282.0</ele><time>2026-05-03T15:38:39.594Z</time></trkpt><trkpt lat="43.7526205" lon="11.4190028"><ele>282.0</ele><time>2026-05-03T15:38:40.594Z</time></trkpt><trkpt lat="43.7525946" lon="11.4190972"><ele>282.0</ele><time>2026-05-03T15:38:41.594Z</time></trkpt><trkpt lat="43.7525833" lon="11.4191871"><ele>274.2</ele><time>2026-05-03T15:38:42.594Z</time></trkpt><trkpt lat="43.7525709" lon="11.4193717"><ele>266.4</ele><time>2026-05-03T15:38:44.593Z</time></trkpt><trkpt lat="43.7525709" lon="11.4194592"><ele>258.6</ele><time>2026-05-03T15:38:45.594Z</time></trkpt><trkpt lat="43.7525981" lon="11.4196265"><ele>250.8</ele><time>2026-05-03T15:38:47.594Z</time></trkpt><trkpt lat="43.7526224" lon="11.4197894"><ele>243.0</ele><time>2026-05-03T15:38:49.594Z</time></trkpt><trkpt lat="43.7526396" lon="11.4199652"><ele>242.28571428571428</ele><time>2026-05-03T15:38:51.593Z</time></trkpt><trkpt lat="43.7526376" lon="11.4200618"><ele>241.57142857142858</ele><time>2026-05-03T15:38:52.594Z</time></trkpt><trkpt lat="43.7526378" lon="11.4201519"><ele>240.85714285714286</ele><time>2026-05-03T15:38:53.594Z</time></trkpt><trkpt lat="43.7526523" lon="11.4202814"><ele>240.14285714285714</ele><time>2026-05-03T15:38:55.593Z</time></trkpt><trkpt lat="43.7526597" lon="11.4203728"><ele>239.42857142857144</ele><time>2026-05-03T15:38:57.593Z</time></trkpt><trkpt lat="43.7526345" lon="11.4204582"><ele>238.71428571428572</ele><time>2026-05-03T15:39:06.594Z</time></trkpt><trkpt lat="43.7526965" lon="11.4205408"><ele>238.0</ele><time>2026-05-03T15:39:09.593Z</time></trkpt><trkpt lat="43.7527515" lon="11.4205944"><ele>237.99999999999997</ele><time>2026-05-03T15:39:11.594Z</time></trkpt><trkpt lat="43.752817" lon="11.4206432"><ele>238.0</ele><time>2026-05-03T15:39:13.594Z</time></trkpt><trkpt lat="43.7528869" lon="11.4206737"><ele>238.0</ele><time>2026-05-03T15:39:15.594Z</time></trkpt><trkpt lat="43.7529795" lon="11.4207108"><ele>238.0</ele><time>2026-05-03T15:39:17.594Z</time></trkpt><trkpt lat="43.7530666" lon="11.4207518"><ele>237.99999999999997</ele><time>2026-05-03T15:39:19.594Z</time></trkpt><trkpt lat="43.7531569" lon="11.4207822"><ele>238.0</ele><time>2026-05-03T15:39:21.593Z</time></trkpt><trkpt lat="43.7532446" lon="11.4208006"><ele>238.0</ele><time>2026-05-03T15:39:23.594Z</time></trkpt><trkpt lat="43.7533179" lon="11.4208297"><ele>238.0</ele><time>2026-05-03T15:39:25.593Z</time></trkpt><trkpt lat="43.7534034" lon="11.4208737"><ele>238.0</ele><time>2026-05-03T15:39:27.593Z</time></trkpt><trkpt lat="43.7534899" lon="11.4209126"><ele>238.0</ele><time>2026-05-03T15:39:29.594Z</time></trkpt><trkpt lat="43.7535957" lon="11.4209606"><ele>238.0</ele><time>2026-05-03T15:39:31.593Z</time></trkpt><trkpt lat="43.7537041" lon="11.4210009"><ele>237.2</ele><time>2026-05-03T15:39:33.593Z</time></trkpt><trkpt lat="43.7538092" lon="11.4210101"><ele>236.4</ele><time>2026-05-03T15:39:35.594Z</time></trkpt><trkpt lat="43.7539247" lon="11.4210294"><ele>235.59999999999997</ele><time>2026-05-03T15:39:37.594Z</time></trkpt><trkpt lat="43.7540327" lon="11.4210371"><ele>234.79999999999998</ele><time>2026-05-03T15:39:39.594Z</time></trkpt><trkpt lat="43.7541356" lon="11.4210232"><ele>234.0</ele><time>2026-05-03T15:39:41.594Z</time></trkpt><trkpt lat="43.7542466" lon="11.4209992"><ele>234.0</ele><time>2026-05-03T15:39:43.593Z</time></trkpt><trkpt lat="43.7543644" lon="11.420959"><ele>234.0</ele><time>2026-05-03T15:39:45.594Z</time></trkpt><trkpt lat="43.7544297" lon="11.4209481"><ele>234.0</ele><time>2026-05-03T15:39:46.594Z</time></trkpt><trkpt lat="43.7545085" lon="11.4209285"><ele>234.0</ele><time>2026-05-03T15:39:47.593Z</time></trkpt><trkpt lat="43.7545764" lon="11.420913"><ele>234.0</ele><time>2026-05-03T15:39:48.594Z</time></trkpt><trkpt lat="43.7546404" lon="11.420902"><ele>234.0</ele><time>2026-05-03T15:39:49.594Z</time></trkpt><trkpt lat="43.7547018" lon="11.420867"><ele>233.33333333333334</ele><time>2026-05-03T15:39:50.594Z</time></trkpt><trkpt lat="43.7547863" lon="11.4208403"><ele>232.66666666666669</ele><time>2026-05-03T15:39:51.593Z</time></trkpt><trkpt lat="43.7548624" lon="11.4208275"><ele>232.0</ele><time>2026-05-03T15:39:52.594Z</time></trkpt><trkpt lat="43.7549344" lon="11.4208274"><ele>231.33333333333334</ele><time>2026-05-03T15:39:53.594Z</time></trkpt><trkpt lat="43.7550059" lon="11.4208201"><ele>230.66666666666669</ele><time>2026-05-03T15:39:54.593Z</time></trkpt><trkpt lat="43.755072" lon="11.4208213"><ele>230.0</ele><time>2026-05-03T15:39:55.594Z</time></trkpt><trkpt lat="43.7551716" lon="11.4208184"><ele>230.00000000000003</ele><time>2026-05-03T15:39:57.594Z</time></trkpt><trkpt lat="43.7552346" lon="11.4208207"><ele>230.0</ele><time>2026-05-03T15:39:58.594Z</time></trkpt><trkpt lat="43.7553083" lon="11.4208116"><ele>230.0</ele><time>2026-05-03T15:39:59.593Z</time></trkpt><trkpt lat="43.7554013" lon="11.420829"><ele>230.0</ele><time>2026-05-03T15:40:01.594Z</time></trkpt><trkpt lat="43.7555349" lon="11.4208384"><ele>230.00000000000003</ele><time>2026-05-03T15:40:03.593Z</time></trkpt><trkpt lat="43.7555998" lon="11.4208357"><ele>230.0</ele><time>2026-05-03T15:40:04.594Z</time></trkpt><trkpt lat="43.7556706" lon="11.4208317"><ele>230.0</ele><time>2026-05-03T15:40:05.594Z</time></trkpt><trkpt lat="43.7557399" lon="11.4208179"><ele>230.0</ele><time>2026-05-03T15:40:06.594Z</time></trkpt><trkpt lat="43.7558036" lon="11.4208103"><ele>230.0</ele><time>2026-05-03T15:40:07.594Z</time></trkpt><trkpt lat="43.7559293" lon="11.4207554"><ele>230.0</ele><time>2026-05-03T15:40:09.594Z</time></trkpt><trkpt lat="43.7559873" lon="11.4207182"><ele>230.0</ele><time>2026-05-03T15:40:10.594Z</time></trkpt><trkpt lat="43.7561078" lon="11.4206472"><ele>231.6</ele><time>2026-05-03T15:40:12.594Z</time></trkpt><trkpt lat="43.7561876" lon="11.4205893"><ele>233.2</ele><time>2026-05-03T15:40:14.594Z</time></trkpt><trkpt lat="43.7562734" lon="11.4205014"><ele>234.8</ele><time>2026-05-03T15:40:16.593Z</time></trkpt><trkpt lat="43.7563396" lon="11.4203649"><ele>236.4</ele><time>2026-05-03T15:40:18.594Z</time></trkpt><trkpt lat="43.7564336" lon="11.4202395"><ele>238.0</ele><time>2026-05-03T15:40:20.594Z</time></trkpt><trkpt lat="43.7565094" lon="11.4201126"><ele>237.99999999999997</ele><time>2026-05-03T15:40:22.594Z</time></trkpt><trkpt lat="43.756565" lon="11.4200533"><ele>238.0</ele><time>2026-05-03T15:40:23.593Z</time></trkpt><trkpt lat="43.7566304" lon="11.4199932"><ele>238.0</ele><time>2026-05-03T15:40:24.594Z</time></trkpt><trkpt lat="43.7567098" lon="11.4199444"><ele>238.0</ele><time>2026-05-03T15:40:25.593Z</time></trkpt><trkpt lat="43.7567878" lon="11.419921"><ele>237.99999999999997</ele><time>2026-05-03T15:40:27.594Z</time></trkpt><trkpt lat="43.7568973" lon="11.4198945"><ele>238.0</ele><time>2026-05-03T15:40:29.593Z</time></trkpt><trkpt lat="43.7569696" lon="11.4198463"><ele>232.2</ele><time>2026-05-03T15:40:31.594Z</time></trkpt><trkpt lat="43.757069" lon="11.4198447"><ele>226.4</ele><time>2026-05-03T15:40:33.593Z</time></trkpt><trkpt lat="43.7571579" lon="11.4198359"><ele>220.6</ele><time>2026-05-03T15:40:35.593Z</time></trkpt><trkpt lat="43.7572648" lon="11.4197927"><ele>214.79999999999998</ele><time>2026-05-03T15:40:37.594Z</time></trkpt><trkpt lat="43.7573644" lon="11.4197398"><ele>209.0</ele><time>2026-05-03T15:40:39.594Z</time></trkpt><trkpt lat="43.7574254" lon="11.419715"><ele>209.00000000000003</ele><time>2026-05-03T15:40:40.594Z</time></trkpt><trkpt lat="43.7575507" lon="11.4196743"><ele>209.0</ele><time>2026-05-03T15:40:42.594Z</time></trkpt><trkpt lat="43.7576153" lon="11.4196501"><ele>209.0</ele><time>2026-05-03T15:40:43.594Z</time></trkpt><trkpt lat="43.7576816" lon="11.4196209"><ele>209.0</ele><time>2026-05-03T15:40:44.594Z</time></trkpt><trkpt lat="43.7577374" lon="11.4195761"><ele>209.00000000000003</ele><time>2026-05-03T15:40:45.594Z</time></trkpt><trkpt lat="43.7578436" lon="11.4195026"><ele>209.0</ele><time>2026-05-03T15:40:47.594Z</time></trkpt><trkpt lat="43.7579501" lon="11.4194226"><ele>209.33333333333334</ele><time>2026-05-03T15:40:49.594Z</time></trkpt><trkpt lat="43.7580635" lon="11.4193501"><ele>209.66666666666669</ele><time>2026-05-03T15:40:51.594Z</time></trkpt><trkpt lat="43.7581161" lon="11.4192965"><ele>210.0</ele><time>2026-05-03T15:40:52.594Z</time></trkpt><trkpt lat="43.758175" lon="11.4192606"><ele>210.33333333333331</ele><time>2026-05-03T15:40:53.594Z</time></trkpt><trkpt lat="43.758232" lon="11.4192205"><ele>210.66666666666666</ele><time>2026-05-03T15:40:54.594Z</time></trkpt><trkpt lat="43.7583364" lon="11.4191522"><ele>211.0</ele><time>2026-05-03T15:40:56.594Z</time></trkpt><trkpt lat="43.7584488" lon="11.419094"><ele>212.0</ele><time>2026-05-03T15:40:58.594Z</time></trkpt><trkpt lat="43.758551" lon="11.4190499"><ele>213.0</ele><time>2026-05-03T15:41:00.593Z</time></trkpt><trkpt lat="43.7586037" lon="11.4189959"><ele>214.00000000000003</ele><time>2026-05-03T15:41:01.594Z</time></trkpt><trkpt lat="43.7586922" lon="11.4189061"><ele>215.0</ele><time>2026-05-03T15:41:03.594Z</time></trkpt><trkpt lat="43.7587586" lon="11.4187728"><ele>216.0</ele><time>2026-05-03T15:41:05.594Z</time></trkpt><trkpt lat="43.7588118" lon="11.4186263"><ele>216.0</ele><time>2026-05-03T15:41:07.594Z</time></trkpt><trkpt lat="43.7588245" lon="11.4184818"><ele>216.00000000000003</ele><time>2026-05-03T15:41:09.593Z</time></trkpt><trkpt lat="43.7588972" lon="11.4183854"><ele>216.00000000000003</ele><time>2026-05-03T15:41:11.593Z</time></trkpt><trkpt lat="43.7589676" lon="11.4182868"><ele>216.0</ele><time>2026-05-03T15:41:13.594Z</time></trkpt><trkpt lat="43.7590407" lon="11.4182334"><ele>216.0</ele><time>2026-05-03T15:41:14.594Z</time></trkpt><trkpt lat="43.7591234" lon="11.4182129"><ele>216.0</ele><time>2026-05-03T15:41:16.593Z</time></trkpt><trkpt lat="43.7591792" lon="11.4182609"><ele>216.00000000000003</ele><time>2026-05-03T15:41:17.594Z</time></trkpt><trkpt lat="43.7592408" lon="11.4183374"><ele>216.00000000000003</ele><time>2026-05-03T15:41:19.594Z</time></trkpt><trkpt lat="43.7593035" lon="11.4184365"><ele>216.0</ele><time>2026-05-03T15:41:21.593Z</time></trkpt><trkpt lat="43.7593889" lon="11.4185561"><ele>216.0</ele><time>2026-05-03T15:41:23.594Z</time></trkpt><trkpt lat="43.7594705" lon="11.4186717"><ele>215.0</ele><time>2026-05-03T15:41:25.594Z</time></trkpt><trkpt lat="43.7595476" lon="11.4187957"><ele>214.0</ele><time>2026-05-03T15:41:27.593Z</time></trkpt><trkpt lat="43.7596296" lon="11.418914"><ele>213.0</ele><time>2026-05-03T15:41:29.594Z</time></trkpt><trkpt lat="43.7597079" lon="11.4190383"><ele>212.0</ele><time>2026-05-03T15:41:31.593Z</time></trkpt><trkpt lat="43.7597904" lon="11.4191558"><ele>212.00000000000003</ele><time>2026-05-03T15:41:33.594Z</time></trkpt><trkpt lat="43.7598688" lon="11.41926"><ele>212.0</ele><time>2026-05-03T15:41:35.594Z</time></trkpt><trkpt lat="43.7599332" lon="11.4193585"><ele>212.0</ele><time>2026-05-03T15:41:37.594Z</time></trkpt><trkpt lat="43.7599881" lon="11.4194472"><ele>212.0</ele><time>2026-05-03T15:41:39.594Z</time></trkpt><trkpt lat="43.7600463" lon="11.419521"><ele>212.00000000000003</ele><time>2026-05-03T15:41:41.594Z</time></trkpt><trkpt lat="43.7601078" lon="11.4195803"><ele>212.0</ele><time>2026-05-03T15:41:43.594Z</time></trkpt><trkpt lat="43.7601824" lon="11.4196048"><ele>212.6</ele><time>2026-05-03T15:41:45.594Z</time></trkpt><trkpt lat="43.7602664" lon="11.4195988"><ele>213.2</ele><time>2026-05-03T15:41:47.593Z</time></trkpt><trkpt lat="43.7603712" lon="11.4195671"><ele>213.8</ele><time>2026-05-03T15:41:49.594Z</time></trkpt><trkpt lat="43.7604703" lon="11.4195404"><ele>214.4</ele><time>2026-05-03T15:41:51.593Z</time></trkpt><trkpt lat="43.7605672" lon="11.419508"><ele>215.0</ele><time>2026-05-03T15:41:53.594Z</time></trkpt><trkpt lat="43.7606748" lon="11.4194654"><ele>215.00000000000003</ele><time>2026-05-03T15:41:55.594Z</time></trkpt><trkpt lat="43.7607467" lon="11.4194366"><ele>215.0</ele><time>2026-05-03T15:41:56.594Z</time></trkpt><trkpt lat="43.7608285" lon="11.4193964"><ele>215.0</ele><time>2026-05-03T15:41:57.594Z</time></trkpt><trkpt lat="43.760902" lon="11.4193633"><ele>215.0</ele><time>2026-05-03T15:41:58.594Z</time></trkpt><trkpt lat="43.760964" lon="11.4193363"><ele>215.00000000000003</ele><time>2026-05-03T15:41:59.593Z</time></trkpt><trkpt lat="43.7610394" lon="11.4193028"><ele>215.0</ele><time>2026-05-03T15:42:00.594Z</time></trkpt><trkpt lat="43.7611053" lon="11.4192623"><ele>215.00000000000003</ele><time>2026-05-03T15:42:01.594Z</time></trkpt><trkpt lat="43.7611787" lon="11.4192179"><ele>215.0</ele><time>2026-05-03T15:42:02.594Z</time></trkpt><trkpt lat="43.7612465" lon="11.4191886"><ele>215.0</ele><time>2026-05-03T15:42:03.593Z</time></trkpt><trkpt lat="43.7613296" lon="11.4191583"><ele>215.0</ele><time>2026-05-03T15:42:04.594Z</time></trkpt><trkpt lat="43.7614076" lon="11.4191215"><ele>215.00000000000003</ele><time>2026-05-03T15:42:05.594Z</time></trkpt><trkpt lat="43.7614757" lon="11.419093"><ele>215.0</ele><time>2026-05-03T15:42:06.594Z</time></trkpt><trkpt lat="43.7615423" lon="11.4190683"><ele>215.0</ele><time>2026-05-03T15:42:07.593Z</time></trkpt><trkpt lat="43.761606" lon="11.4190429"><ele>215.0</ele><time>2026-05-03T15:42:08.594Z</time></trkpt><trkpt lat="43.7616671" lon="11.4190143"><ele>215.0</ele><time>2026-05-03T15:42:09.594Z</time></trkpt><trkpt lat="43.7617288" lon="11.4189871"><ele>215.0</ele><time>2026-05-03T15:42:10.594Z</time></trkpt><trkpt lat="43.7618003" lon="11.4189671"><ele>215.0</ele><time>2026-05-03T15:42:12.593Z</time></trkpt><trkpt lat="43.7618479" lon="11.4188963"><ele>215.0</ele><time>2026-05-03T15:42:16.594Z</time></trkpt><trkpt lat="43.761894" lon="11.4187759"><ele>215.0</ele><time>2026-05-03T15:42:19.593Z</time></trkpt><trkpt lat="43.7619367" lon="11.4186878"><ele>211.6</ele><time>2026-05-03T15:42:21.594Z</time></trkpt><trkpt lat="43.7619467" lon="11.4185819"><ele>208.2</ele><time>2026-05-03T15:42:23.594Z</time></trkpt><trkpt lat="43.7619667" lon="11.418446"><ele>204.8</ele><time>2026-05-03T15:42:25.594Z</time></trkpt><trkpt lat="43.7619761" lon="11.4182972"><ele>201.4</ele><time>2026-05-03T15:42:27.594Z</time></trkpt><trkpt lat="43.7619825" lon="11.4181265"><ele>198.0</ele><time>2026-05-03T15:42:29.594Z</time></trkpt><trkpt lat="43.7619826" lon="11.4180388"><ele>196.83333333333334</ele><time>2026-05-03T15:42:30.594Z</time></trkpt><trkpt lat="43.7619943" lon="11.4179352"><ele>195.66666666666666</ele><time>2026-05-03T15:42:31.593Z</time></trkpt><trkpt lat="43.7619987" lon="11.4178291"><ele>194.5</ele><time>2026-05-03T15:42:32.594Z</time></trkpt><trkpt lat="43.7620069" lon="11.4177388"><ele>193.33333333333331</ele><time>2026-05-03T15:42:33.594Z</time></trkpt><trkpt lat="43.7620121" lon="11.4176271"><ele>192.16666666666666</ele><time>2026-05-03T15:42:34.594Z</time></trkpt><trkpt lat="43.7620181" lon="11.4175091"><ele>191.0</ele><time>2026-05-03T15:42:35.594Z</time></trkpt><trkpt lat="43.7620356" lon="11.4173968"><ele>191.0</ele><time>2026-05-03T15:42:36.594Z</time></trkpt><trkpt lat="43.7620536" lon="11.4172783"><ele>191.0</ele><time>2026-05-03T15:42:37.594Z</time></trkpt><trkpt lat="43.7620632" lon="11.4171831"><ele>191.0</ele><time>2026-05-03T15:42:38.594Z</time></trkpt><trkpt lat="43.7620745" lon="11.4170904"><ele>191.0</ele><time>2026-05-03T15:42:39.594Z</time></trkpt><trkpt lat="43.7620836" lon="11.4170027"><ele>191.0</ele><time>2026-05-03T15:42:40.593Z</time></trkpt><trkpt lat="43.7620966" lon="11.4168625"><ele>191.0</ele><time>2026-05-03T15:42:42.593Z</time></trkpt><trkpt lat="43.7621224" lon="11.4166979"><ele>191.0</ele><time>2026-05-03T15:42:44.594Z</time></trkpt><trkpt lat="43.762152" lon="11.4165356"><ele>191.0</ele><time>2026-05-03T15:42:46.594Z</time></trkpt><trkpt lat="43.7621747" lon="11.416436"><ele>191.0</ele><time>2026-05-03T15:42:47.594Z</time></trkpt><trkpt lat="43.762203" lon="11.4163363"><ele>191.0</ele><time>2026-05-03T15:42:48.594Z</time></trkpt><trkpt lat="43.7622338" lon="11.4162444"><ele>191.0</ele><time>2026-05-03T15:42:49.594Z</time></trkpt><trkpt lat="43.7622722" lon="11.416145"><ele>191.0</ele><time>2026-05-03T15:42:50.594Z</time></trkpt><trkpt lat="43.7623098" lon="11.4160425"><ele>191.16666666666666</ele><time>2026-05-03T15:42:51.594Z</time></trkpt><trkpt lat="43.7623474" lon="11.4159438"><ele>191.33333333333331</ele><time>2026-05-03T15:42:52.594Z</time></trkpt><trkpt lat="43.762382" lon="11.4158391"><ele>191.5</ele><time>2026-05-03T15:42:53.594Z</time></trkpt><trkpt lat="43.7624227" lon="11.415735"><ele>191.66666666666666</ele><time>2026-05-03T15:42:54.594Z</time></trkpt><trkpt lat="43.7624612" lon="11.4156275"><ele>191.83333333333334</ele><time>2026-05-03T15:42:55.594Z</time></trkpt><trkpt lat="43.7624983" lon="11.4155182"><ele>192.0</ele><time>2026-05-03T15:42:56.594Z</time></trkpt><trkpt lat="43.7625413" lon="11.4154044"><ele>192.0</ele><time>2026-05-03T15:42:57.594Z</time></trkpt><trkpt lat="43.7625789" lon="11.4152921"><ele>192.0</ele><time>2026-05-03T15:42:58.594Z</time></trkpt><trkpt lat="43.7626345" lon="11.4151832"><ele>192.0</ele><time>2026-05-03T15:42:59.594Z</time></trkpt><trkpt lat="43.7626786" lon="11.415076"><ele>192.0</ele><time>2026-05-03T15:43:00.594Z</time></trkpt><trkpt lat="43.7627311" lon="11.4149742"><ele>192.0</ele><time>2026-05-03T15:43:01.594Z</time></trkpt><trkpt lat="43.7627858" lon="11.4148758"><ele>190.33333333333334</ele><time>2026-05-03T15:43:02.594Z</time></trkpt><trkpt lat="43.7628393" lon="11.4147783"><ele>188.66666666666666</ele><time>2026-05-03T15:43:03.594Z</time></trkpt><trkpt lat="43.7628948" lon="11.414688"><ele>187.0</ele><time>2026-05-03T15:43:04.594Z</time></trkpt><trkpt lat="43.7629458" lon="11.4146001"><ele>185.33333333333331</ele><time>2026-05-03T15:43:05.594Z</time></trkpt><trkpt lat="43.7629988" lon="11.4145151"><ele>183.66666666666666</ele><time>2026-05-03T15:43:06.594Z</time></trkpt><trkpt lat="43.7630483" lon="11.4144236"><ele>182.0</ele><time>2026-05-03T15:43:07.593Z</time></trkpt><trkpt lat="43.763092" lon="11.4143382"><ele>182.0</ele><time>2026-05-03T15:43:08.594Z</time></trkpt><trkpt lat="43.7631383" lon="11.4142534"><ele>182.0</ele><time>2026-05-03T15:43:09.594Z</time></trkpt><trkpt lat="43.7631864" lon="11.4141726"><ele>182.0</ele><time>2026-05-03T15:43:10.594Z</time></trkpt><trkpt lat="43.763235" lon="11.4140914"><ele>182.0</ele><time>2026-05-03T15:43:11.594Z</time></trkpt><trkpt lat="43.7632891" lon="11.4140144"><ele>182.0</ele><time>2026-05-03T15:43:12.594Z</time></trkpt><trkpt lat="43.7633438" lon="11.4139341"><ele>182.0</ele><time>2026-05-03T15:43:13.593Z</time></trkpt><trkpt lat="43.7633987" lon="11.4138561"><ele>183.33333333333331</ele><time>2026-05-03T15:43:14.593Z</time></trkpt><trkpt lat="43.7634557" lon="11.4137744"><ele>184.66666666666666</ele><time>2026-05-03T15:43:15.594Z</time></trkpt><trkpt lat="43.7635136" lon="11.4136915"><ele>186.0</ele><time>2026-05-03T15:43:16.594Z</time></trkpt><trkpt lat="43.7635717" lon="11.4136083"><ele>187.33333333333334</ele><time>2026-05-03T15:43:17.594Z</time></trkpt><trkpt lat="43.7636254" lon="11.4135172"><ele>188.66666666666669</ele><time>2026-05-03T15:43:18.594Z</time></trkpt><trkpt lat="43.7636732" lon="11.4134269"><ele>190.0</ele><time>2026-05-03T15:43:19.594Z</time></trkpt><trkpt lat="43.7637115" lon="11.4133292"><ele>186.14285714285714</ele><time>2026-05-03T15:43:20.594Z</time></trkpt><trkpt lat="43.7637447" lon="11.4132338"><ele>182.28571428571428</ele><time>2026-05-03T15:43:21.593Z</time></trkpt><trkpt lat="43.7637774" lon="11.4131438"><ele>178.42857142857144</ele><time>2026-05-03T15:43:22.594Z</time></trkpt><trkpt lat="43.7638027" lon="11.4130486"><ele>174.57142857142856</ele><time>2026-05-03T15:43:23.594Z</time></trkpt><trkpt lat="43.7638114" lon="11.4129475"><ele>170.7142857142857</ele><time>2026-05-03T15:43:24.594Z</time></trkpt><trkpt lat="43.7638187" lon="11.4128463"><ele>166.85714285714286</ele><time>2026-05-03T15:43:25.594Z</time></trkpt><trkpt lat="43.763822" lon="11.4127438"><ele>163.0</ele><time>2026-05-03T15:43:26.594Z</time></trkpt><trkpt lat="43.7638283" lon="11.4126408"><ele>162.85714285714286</ele><time>2026-05-03T15:43:27.593Z</time></trkpt><trkpt lat="43.7638299" lon="11.4125461"><ele>162.7142857142857</ele><time>2026-05-03T15:43:28.594Z</time></trkpt><trkpt lat="43.7638333" lon="11.4124462"><ele>162.57142857142856</ele><time>2026-05-03T15:43:29.593Z</time></trkpt><trkpt lat="43.7638411" lon="11.4123431"><ele>162.42857142857144</ele><time>2026-05-03T15:43:30.593Z</time></trkpt><trkpt lat="43.7638504" lon="11.4122448"><ele>162.28571428571428</ele><time>2026-05-03T15:43:31.594Z</time></trkpt><trkpt lat="43.7638641" lon="11.4121481"><ele>162.14285714285714</ele><time>2026-05-03T15:43:32.594Z</time></trkpt><trkpt lat="43.7638785" lon="11.4120626"><ele>162.0</ele><time>2026-05-03T15:43:33.594Z</time></trkpt><trkpt lat="43.7638958" lon="11.4119694"><ele>162.0</ele><time>2026-05-03T15:43:34.594Z</time></trkpt><trkpt lat="43.7639142" lon="11.4118769"><ele>162.0</ele><time>2026-05-03T15:43:35.594Z</time></trkpt><trkpt lat="43.763928" lon="11.4117819"><ele>162.0</ele><time>2026-05-03T15:43:36.594Z</time></trkpt><trkpt lat="43.7639424" lon="11.4116753"><ele>162.0</ele><time>2026-05-03T15:43:37.594Z</time></trkpt><trkpt lat="43.7639689" lon="11.4115768"><ele>162.0</ele><time>2026-05-03T15:43:38.594Z</time></trkpt><trkpt lat="43.7639918" lon="11.411467"><ele>162.0</ele><time>2026-05-03T15:43:39.594Z</time></trkpt><trkpt lat="43.7640179" lon="11.4113615"><ele>162.66666666666666</ele><time>2026-05-03T15:43:40.594Z</time></trkpt><trkpt lat="43.7640425" lon="11.4112474"><ele>163.33333333333334</ele><time>2026-05-03T15:43:41.594Z</time></trkpt><trkpt lat="43.7640622" lon="11.4111287"><ele>164.0</ele><time>2026-05-03T15:43:42.593Z</time></trkpt><trkpt lat="43.7640856" lon="11.4110074"><ele>164.66666666666669</ele><time>2026-05-03T15:43:43.594Z</time></trkpt><trkpt lat="43.7641026" lon="11.4108891"><ele>165.33333333333334</ele><time>2026-05-03T15:43:44.594Z</time></trkpt><trkpt lat="43.7641189" lon="11.4107787"><ele>166.0</ele><time>2026-05-03T15:43:45.594Z</time></trkpt><trkpt lat="43.7641199" lon="11.4106658"><ele>166.0</ele><time>2026-05-03T15:43:46.594Z</time></trkpt><trkpt lat="43.7641568" lon="11.4105169"><ele>166.0</ele><time>2026-05-03T15:43:48.593Z</time></trkpt><trkpt lat="43.7642138" lon="11.4104451"><ele>166.0</ele><time>2026-05-03T15:43:50.594Z</time></trkpt><trkpt lat="43.7643144" lon="11.4104889"><ele>166.0</ele><time>2026-05-03T15:43:53.594Z</time></trkpt><trkpt lat="43.764406" lon="11.4105969"><ele>166.0</ele><time>2026-05-03T15:43:55.593Z</time></trkpt><trkpt lat="43.7644908" lon="11.4107369"><ele>168.0</ele><time>2026-05-03T15:43:57.594Z</time></trkpt><trkpt lat="43.7645471" lon="11.4108073"><ele>170.0</ele><time>2026-05-03T15:43:58.594Z</time></trkpt><trkpt lat="43.7646071" lon="11.4108832"><ele>172.0</ele><time>2026-05-03T15:43:59.594Z</time></trkpt><trkpt lat="43.7646718" lon="11.410963"><ele>174.0</ele><time>2026-05-03T15:44:00.593Z</time></trkpt><trkpt lat="43.7647371" lon="11.4110414"><ele>176.0</ele><time>2026-05-03T15:44:01.594Z</time></trkpt><trkpt lat="43.7648043" lon="11.4111218"><ele>178.0</ele><time>2026-05-03T15:44:02.594Z</time></trkpt><trkpt lat="43.7648691" lon="11.4112056"><ele>178.0</ele><time>2026-05-03T15:44:03.594Z</time></trkpt><trkpt lat="43.7649387" lon="11.4112792"><ele>178.0</ele><time>2026-05-03T15:44:04.593Z</time></trkpt><trkpt lat="43.7650141" lon="11.4113573"><ele>178.0</ele><time>2026-05-03T15:44:05.594Z</time></trkpt><trkpt lat="43.7650843" lon="11.4114339"><ele>178.0</ele><time>2026-05-03T15:44:06.593Z</time></trkpt><trkpt lat="43.7651527" lon="11.4115233"><ele>178.0</ele><time>2026-05-03T15:44:07.594Z</time></trkpt><trkpt lat="43.7652194" lon="11.4116022"><ele>175.66666666666669</ele><time>2026-05-03T15:44:08.594Z</time></trkpt><trkpt lat="43.7652857" lon="11.4116853"><ele>173.33333333333334</ele><time>2026-05-03T15:44:09.593Z</time></trkpt><trkpt lat="43.7653535" lon="11.4117694"><ele>171.0</ele><time>2026-05-03T15:44:10.594Z</time></trkpt><trkpt lat="43.7654157" lon="11.41185"><ele>168.66666666666666</ele><time>2026-05-03T15:44:11.594Z</time></trkpt><trkpt lat="43.7654762" lon="11.4119278"><ele>166.33333333333331</ele><time>2026-05-03T15:44:12.594Z</time></trkpt><trkpt lat="43.765539" lon="11.4120022"><ele>164.0</ele><time>2026-05-03T15:44:13.594Z</time></trkpt><trkpt lat="43.7656106" lon="11.4120678"><ele>164.0</ele><time>2026-05-03T15:44:14.593Z</time></trkpt><trkpt lat="43.765683" lon="11.4121226"><ele>164.0</ele><time>2026-05-03T15:44:15.594Z</time></trkpt><trkpt lat="43.7657576" lon="11.4121721"><ele>164.0</ele><time>2026-05-03T15:44:16.593Z</time></trkpt><trkpt lat="43.7658316" lon="11.4122199"><ele>164.0</ele><time>2026-05-03T15:44:17.593Z</time></trkpt><trkpt lat="43.7659096" lon="11.4122725"><ele>164.0</ele><time>2026-05-03T15:44:18.594Z</time></trkpt><trkpt lat="43.7659926" lon="11.412313"><ele>164.0</ele><time>2026-05-03T15:44:19.594Z</time></trkpt><trkpt lat="43.7660727" lon="11.412359"><ele>159.83333333333331</ele><time>2026-05-03T15:44:20.594Z</time></trkpt><trkpt lat="43.7661493" lon="11.4124056"><ele>155.66666666666666</ele><time>2026-05-03T15:44:21.594Z</time></trkpt><trkpt lat="43.7662263" lon="11.4124459"><ele>151.5</ele><time>2026-05-03T15:44:22.593Z</time></trkpt><trkpt lat="43.7663031" lon="11.4124649"><ele>147.33333333333334</ele><time>2026-05-03T15:44:23.594Z</time></trkpt><trkpt lat="43.7663795" lon="11.4124899"><ele>143.16666666666669</ele><time>2026-05-03T15:44:24.593Z</time></trkpt><trkpt lat="43.7664604" lon="11.4125206"><ele>139.0</ele><time>2026-05-03T15:44:25.593Z</time></trkpt><trkpt lat="43.7665402" lon="11.4125401"><ele>139.0</ele><time>2026-05-03T15:44:26.594Z</time></trkpt><trkpt lat="43.7666183" lon="11.4125683"><ele>139.0</ele><time>2026-05-03T15:44:27.594Z</time></trkpt><trkpt lat="43.7666951" lon="11.4125926"><ele>139.0</ele><time>2026-05-03T15:44:28.593Z</time></trkpt><trkpt lat="43.7667714" lon="11.412621"><ele>139.0</ele><time>2026-05-03T15:44:29.594Z</time></trkpt><trkpt lat="43.7668463" lon="11.4126461"><ele>139.0</ele><time>2026-05-03T15:44:30.594Z</time></trkpt><trkpt lat="43.7669246" lon="11.4126761"><ele>139.0</ele><time>2026-05-03T15:44:31.594Z</time></trkpt><trkpt lat="43.7669917" lon="11.4127233"><ele>139.57142857142856</ele><time>2026-05-03T15:44:32.594Z</time></trkpt><trkpt lat="43.767053" lon="11.4127794"><ele>140.14285714285714</ele><time>2026-05-03T15:44:33.594Z</time></trkpt><trkpt lat="43.7671128" lon="11.4128318"><ele>140.71428571428572</ele><time>2026-05-03T15:44:34.594Z</time></trkpt><trkpt lat="43.7671737" lon="11.4128711"><ele>141.28571428571428</ele><time>2026-05-03T15:44:35.594Z</time></trkpt><trkpt lat="43.7672464" lon="11.4128887"><ele>141.85714285714286</ele><time>2026-05-03T15:44:36.594Z</time></trkpt><trkpt lat="43.7673065" lon="11.4129189"><ele>142.42857142857142</ele><time>2026-05-03T15:44:37.594Z</time></trkpt><trkpt lat="43.7673758" lon="11.4129244"><ele>143.0</ele><time>2026-05-03T15:44:38.594Z</time></trkpt><trkpt lat="43.7674401" lon="11.4129582"><ele>139.0</ele><time>2026-05-03T15:44:39.594Z</time></trkpt><trkpt lat="43.7675108" lon="11.4130026"><ele>135.0</ele><time>2026-05-03T15:44:40.593Z</time></trkpt><trkpt lat="43.7675765" lon="11.4130543"><ele>131.0</ele><time>2026-05-03T15:44:41.594Z</time></trkpt><trkpt lat="43.7676541" lon="11.4131019"><ele>127.0</ele><time>2026-05-03T15:44:42.594Z</time></trkpt><trkpt lat="43.7677214" lon="11.413152"><ele>122.99999999999999</ele><time>2026-05-03T15:44:43.594Z</time></trkpt><trkpt lat="43.7677899" lon="11.413193"><ele>119.0</ele><time>2026-05-03T15:44:44.594Z</time></trkpt><trkpt lat="43.767868" lon="11.4132161"><ele>118.16666666666666</ele><time>2026-05-03T15:44:45.593Z</time></trkpt><trkpt lat="43.7679501" lon="11.4132313"><ele>117.33333333333333</ele><time>2026-05-03T15:44:46.594Z</time></trkpt><trkpt lat="43.7680311" lon="11.4132392"><ele>116.5</ele><time>2026-05-03T15:44:47.594Z</time></trkpt><trkpt lat="43.7681135" lon="11.4132353"><ele>115.66666666666666</ele><time>2026-05-03T15:44:48.594Z</time></trkpt><trkpt lat="43.7681862" lon="11.4132232"><ele>114.83333333333333</ele><time>2026-05-03T15:44:49.594Z</time></trkpt><trkpt lat="43.7682582" lon="11.4132123"><ele>114.0</ele><time>2026-05-03T15:44:50.594Z</time></trkpt><trkpt lat="43.7683231" lon="11.413196"><ele>114.0</ele><time>2026-05-03T15:44:51.594Z</time></trkpt><trkpt lat="43.7683877" lon="11.4131598"><ele>114.0</ele><time>2026-05-03T15:44:52.594Z</time></trkpt><trkpt lat="43.76849" lon="11.4130534"><ele>114.0</ele><time>2026-05-03T15:44:54.594Z</time></trkpt><trkpt lat="43.7685435" lon="11.4129968"><ele>114.0</ele><time>2026-05-03T15:44:55.594Z</time></trkpt><trkpt lat="43.7686044" lon="11.4129326"><ele>114.0</ele><time>2026-05-03T15:44:56.594Z</time></trkpt><trkpt lat="43.7686681" lon="11.4128682"><ele>114.0</ele><time>2026-05-03T15:44:57.594Z</time></trkpt><trkpt lat="43.7687317" lon="11.412789"><ele>113.4</ele><time>2026-05-03T15:44:58.593Z</time></trkpt><trkpt lat="43.768796" lon="11.4127019"><ele>112.80000000000001</ele><time>2026-05-03T15:44:59.593Z</time></trkpt><trkpt lat="43.7688631" lon="11.4126147"><ele>112.19999999999999</ele><time>2026-05-03T15:45:00.594Z</time></trkpt><trkpt lat="43.7689326" lon="11.4125242"><ele>111.6</ele><time>2026-05-03T15:45:01.594Z</time></trkpt><trkpt lat="43.7690053" lon="11.4124355"><ele>111.0</ele><time>2026-05-03T15:45:02.594Z</time></trkpt><trkpt lat="43.769079" lon="11.412353"><ele>111.0</ele><time>2026-05-03T15:45:03.593Z</time></trkpt><trkpt lat="43.7691538" lon="11.4122666"><ele>111.0</ele><time>2026-05-03T15:45:04.594Z</time></trkpt><trkpt lat="43.7692282" lon="11.4121828"><ele>111.0</ele><time>2026-05-03T15:45:05.594Z</time></trkpt><trkpt lat="43.7693009" lon="11.4121012"><ele>111.0</ele><time>2026-05-03T15:45:06.594Z</time></trkpt><trkpt lat="43.7693727" lon="11.412023"><ele>111.0</ele><time>2026-05-03T15:45:07.594Z</time></trkpt><trkpt lat="43.7694462" lon="11.4119414"><ele>109.4</ele><time>2026-05-03T15:45:08.593Z</time></trkpt><trkpt lat="43.7695184" lon="11.4118565"><ele>107.8</ele><time>2026-05-03T15:45:09.594Z</time></trkpt><trkpt lat="43.7695882" lon="11.4117685"><ele>106.2</ele><time>2026-05-03T15:45:10.594Z</time></trkpt><trkpt lat="43.7696591" lon="11.4116794"><ele>104.60000000000001</ele><time>2026-05-03T15:45:11.593Z</time></trkpt><trkpt lat="43.7697267" lon="11.4115894"><ele>103.0</ele><time>2026-05-03T15:45:12.593Z</time></trkpt><trkpt lat="43.7697895" lon="11.4114988"><ele>103.00000000000001</ele><time>2026-05-03T15:45:13.594Z</time></trkpt><trkpt lat="43.769854" lon="11.4114109"><ele>103.0</ele><time>2026-05-03T15:45:14.594Z</time></trkpt><trkpt lat="43.7699203" lon="11.4113278"><ele>103.0</ele><time>2026-05-03T15:45:15.594Z</time></trkpt><trkpt lat="43.7699834" lon="11.4112526"><ele>103.0</ele><time>2026-05-03T15:45:16.593Z</time></trkpt><trkpt lat="43.7700478" lon="11.4111798"><ele>103.00000000000001</ele><time>2026-05-03T15:45:17.594Z</time></trkpt><trkpt lat="43.7701183" lon="11.4111163"><ele>103.0</ele><time>2026-05-03T15:45:18.594Z</time></trkpt><trkpt lat="43.7701858" lon="11.4110631"><ele>103.00000000000001</ele><time>2026-05-03T15:45:19.593Z</time></trkpt><trkpt lat="43.7702647" lon="11.4110275"><ele>103.0</ele><time>2026-05-03T15:45:20.594Z</time></trkpt><trkpt lat="43.7703411" lon="11.4110065"><ele>103.0</ele><time>2026-05-03T15:45:21.594Z</time></trkpt><trkpt lat="43.7704153" lon="11.4109941"><ele>103.0</ele><time>2026-05-03T15:45:22.594Z</time></trkpt><trkpt lat="43.770482" lon="11.4109886"><ele>103.00000000000001</ele><time>2026-05-03T15:45:23.594Z</time></trkpt><trkpt lat="43.770585" lon="11.4110027"><ele>103.0</ele><time>2026-05-03T15:45:25.594Z</time></trkpt><trkpt lat="43.7706393" lon="11.4110498"><ele>103.00000000000001</ele><time>2026-05-03T15:45:26.594Z</time></trkpt><trkpt lat="43.7706991" lon="11.4111147"><ele>103.0</ele><time>2026-05-03T15:45:27.594Z</time></trkpt><trkpt lat="43.7707629" lon="11.4111888"><ele>103.0</ele><time>2026-05-03T15:45:28.594Z</time></trkpt><trkpt lat="43.7708283" lon="11.411266"><ele>103.0</ele><time>2026-05-03T15:45:29.593Z</time></trkpt><trkpt lat="43.7708954" lon="11.4113472"><ele>103.00000000000001</ele><time>2026-05-03T15:45:30.594Z</time></trkpt><trkpt lat="43.7709636" lon="11.411434"><ele>103.0</ele><time>2026-05-03T15:45:31.594Z</time></trkpt><trkpt lat="43.77103" lon="11.4115231"><ele>99.4</ele><time>2026-05-03T15:45:32.594Z</time></trkpt><trkpt lat="43.7710962" lon="11.4116172"><ele>95.80000000000001</ele><time>2026-05-03T15:45:33.594Z</time></trkpt><trkpt lat="43.771166" lon="11.4117033"><ele>92.2</ele><time>2026-05-03T15:45:34.594Z</time></trkpt><trkpt lat="43.7712372" lon="11.4117926"><ele>88.6</ele><time>2026-05-03T15:45:35.594Z</time></trkpt><trkpt lat="43.7713083" lon="11.4118817"><ele>85.0</ele><time>2026-05-03T15:45:36.594Z</time></trkpt><trkpt lat="43.7713763" lon="11.4119684"><ele>85.0</ele><time>2026-05-03T15:45:37.594Z</time></trkpt><trkpt lat="43.7714437" lon="11.4120558"><ele>85.0</ele><time>2026-05-03T15:45:38.594Z</time></trkpt><trkpt lat="43.7715124" lon="11.4121426"><ele>85.0</ele><time>2026-05-03T15:45:39.594Z</time></trkpt><trkpt lat="43.7715831" lon="11.4122256"><ele>85.0</ele><time>2026-05-03T15:45:40.594Z</time></trkpt><trkpt lat="43.7716546" lon="11.4123148"><ele>85.0</ele><time>2026-05-03T15:45:41.594Z</time></trkpt><trkpt lat="43.7717239" lon="11.4124072"><ele>84.8</ele><time>2026-05-03T15:45:42.594Z</time></trkpt><trkpt lat="43.7717932" lon="11.412494"><ele>84.6</ele><time>2026-05-03T15:45:43.593Z</time></trkpt><trkpt lat="43.7718621" lon="11.412588"><ele>84.4</ele><time>2026-05-03T15:45:44.594Z</time></trkpt><trkpt lat="43.7719321" lon="11.412686"><ele>84.2</ele><time>2026-05-03T15:45:45.594Z</time></trkpt><trkpt lat="43.7719995" lon="11.4127822"><ele>84.0</ele><time>2026-05-03T15:45:46.594Z</time></trkpt><trkpt lat="43.7720656" lon="11.4128788"><ele>83.6</ele><time>2026-05-03T15:45:47.593Z</time></trkpt><trkpt lat="43.772131" lon="11.4129789"><ele>83.2</ele><time>2026-05-03T15:45:48.594Z</time></trkpt><trkpt lat="43.7721973" lon="11.4130802"><ele>82.8</ele><time>2026-05-03T15:45:49.593Z</time></trkpt><trkpt lat="43.7722594" lon="11.4131744"><ele>82.39999999999999</ele><time>2026-05-03T15:45:50.594Z</time></trkpt><trkpt lat="43.7723209" lon="11.4132713"><ele>82.0</ele><time>2026-05-03T15:45:51.594Z</time></trkpt><trkpt lat="43.7723791" lon="11.4133679"><ele>81.5</ele><time>2026-05-03T15:45:52.593Z</time></trkpt><trkpt lat="43.772435" lon="11.4134614"><ele>81.0</ele><time>2026-05-03T15:45:53.594Z</time></trkpt><trkpt lat="43.77249" lon="11.4135498"><ele>80.5</ele><time>2026-05-03T15:45:54.593Z</time></trkpt><trkpt lat="43.772543" lon="11.4136341"><ele>80.0</ele><time>2026-05-03T15:45:55.594Z</time></trkpt><trkpt lat="43.7725903" lon="11.4137049"><ele>79.5</ele><time>2026-05-03T15:45:56.594Z</time></trkpt><trkpt lat="43.7726605" lon="11.4138069"><ele>79.0</ele><time>2026-05-03T15:45:58.594Z</time></trkpt><trkpt lat="43.7727042" lon="11.4138915"><ele>78.83333333333333</ele><time>2026-05-03T15:46:00.594Z</time></trkpt><trkpt lat="43.7727291" lon="11.4139748"><ele>78.66666666666666</ele><time>2026-05-03T15:46:04.594Z</time></trkpt><trkpt lat="43.7727096" lon="11.4140689"><ele>78.5</ele><time>2026-05-03T15:46:29.594Z</time></trkpt><trkpt lat="43.7726266" lon="11.4141751"><ele>78.33333333333333</ele><time>2026-05-03T15:46:31.594Z</time></trkpt><trkpt lat="43.7725731" lon="11.414241"><ele>78.16666666666667</ele><time>2026-05-03T15:46:32.594Z</time></trkpt><trkpt lat="43.7725158" lon="11.4143121"><ele>78.0</ele><time>2026-05-03T15:46:33.593Z</time></trkpt><trkpt lat="43.7724535" lon="11.4143983"><ele>78.0</ele><time>2026-05-03T15:46:34.594Z</time></trkpt><trkpt lat="43.7723972" lon="11.4145043"><ele>78.0</ele><time>2026-05-03T15:46:35.594Z</time></trkpt><trkpt lat="43.7723437" lon="11.4146212"><ele>78.0</ele><time>2026-05-03T15:46:36.594Z</time></trkpt><trkpt lat="43.7722963" lon="11.4147477"><ele>78.0</ele><time>2026-05-03T15:46:37.594Z</time></trkpt><trkpt lat="43.7722575" lon="11.4148885"><ele>78.0</ele><time>2026-05-03T15:46:38.594Z</time></trkpt><trkpt lat="43.7722259" lon="11.4150419"><ele>77.5</ele><time>2026-05-03T15:46:39.594Z</time></trkpt><trkpt lat="43.7721934" lon="11.4151952"><ele>77.0</ele><time>2026-05-03T15:46:40.593Z</time></trkpt><trkpt lat="43.7721564" lon="11.4153492"><ele>76.5</ele><time>2026-05-03T15:46:41.593Z</time></trkpt><trkpt lat="43.7721185" lon="11.4155098"><ele>76.0</ele><time>2026-05-03T15:46:42.594Z</time></trkpt><trkpt lat="43.7720778" lon="11.4156719"><ele>76.0</ele><time>2026-05-03T15:46:43.594Z</time></trkpt><trkpt lat="43.7720335" lon="11.415831"><ele>76.0</ele><time>2026-05-03T15:46:44.594Z</time></trkpt><trkpt lat="43.7719853" lon="11.4159945"><ele>76.0</ele><time>2026-05-03T15:46:45.594Z</time></trkpt><trkpt lat="43.7719346" lon="11.4161576"><ele>76.0</ele><time>2026-05-03T15:46:46.593Z</time></trkpt><trkpt lat="43.7718777" lon="11.4163241"><ele>76.75</ele><time>2026-05-03T15:46:47.593Z</time></trkpt><trkpt lat="43.7718221" lon="11.4164864"><ele>77.5</ele><time>2026-05-03T15:46:48.594Z</time></trkpt><trkpt lat="43.7717639" lon="11.4166514"><ele>78.25</ele><time>2026-05-03T15:46:49.594Z</time></trkpt><trkpt lat="43.7717037" lon="11.4168142"><ele>79.0</ele><time>2026-05-03T15:46:50.594Z</time></trkpt><trkpt lat="43.7716357" lon="11.4169808"><ele>79.0</ele><time>2026-05-03T15:46:51.594Z</time></trkpt><trkpt lat="43.771572" lon="11.4171495"><ele>79.0</ele><time>2026-05-03T15:46:52.594Z</time></trkpt><trkpt lat="43.7715149" lon="11.4173191"><ele>79.0</ele><time>2026-05-03T15:46:53.594Z</time></trkpt><trkpt lat="43.7714621" lon="11.4174903"><ele>79.0</ele><time>2026-05-03T15:46:54.594Z</time></trkpt><trkpt lat="43.7714126" lon="11.4176664"><ele>79.0</ele><time>2026-05-03T15:46:55.593Z</time></trkpt><trkpt lat="43.7713595" lon="11.4178435"><ele>79.0</ele><time>2026-05-03T15:46:56.594Z</time></trkpt><trkpt lat="43.7713088" lon="11.4180255"><ele>79.0</ele><time>2026-05-03T15:46:57.594Z</time></trkpt><trkpt lat="43.7712618" lon="11.4182096"><ele>79.0</ele><time>2026-05-03T15:46:58.593Z</time></trkpt><trkpt lat="43.7712154" lon="11.4183927"><ele>78.75</ele><time>2026-05-03T15:46:59.594Z</time></trkpt><trkpt lat="43.7711685" lon="11.4185754"><ele>78.5</ele><time>2026-05-03T15:47:00.594Z</time></trkpt><trkpt lat="43.771122" lon="11.4187556"><ele>78.25</ele><time>2026-05-03T15:47:01.594Z</time></trkpt><trkpt lat="43.7710807" lon="11.4189336"><ele>78.0</ele><time>2026-05-03T15:47:02.593Z</time></trkpt><trkpt lat="43.7710311" lon="11.4191112"><ele>78.25</ele><time>2026-05-03T15:47:03.594Z</time></trkpt><trkpt lat="43.7709851" lon="11.4192905"><ele>78.5</ele><time>2026-05-03T15:47:04.594Z</time></trkpt><trkpt lat="43.7709367" lon="11.4194653"><ele>78.75</ele><time>2026-05-03T15:47:05.593Z</time></trkpt><trkpt lat="43.7708932" lon="11.4196441"><ele>79.0</ele><time>2026-05-03T15:47:06.594Z</time></trkpt><trkpt lat="43.7708491" lon="11.4198199"><ele>78.5</ele><time>2026-05-03T15:47:07.594Z</time></trkpt><trkpt lat="43.7708033" lon="11.4199974"><ele>78.0</ele><time>2026-05-03T15:47:08.594Z</time></trkpt><trkpt lat="43.7707598" lon="11.4201766"><ele>77.5</ele><time>2026-05-03T15:47:09.593Z</time></trkpt><trkpt lat="43.7707154" lon="11.4203519"><ele>77.0</ele><time>2026-05-03T15:47:10.594Z</time></trkpt><trkpt lat="43.7706731" lon="11.4205268"><ele>77.0</ele><time>2026-05-03T15:47:11.594Z</time></trkpt><trkpt lat="43.7706284" lon="11.4207012"><ele>77.0</ele><time>2026-05-03T15:47:12.594Z</time></trkpt><trkpt lat="43.7705923" lon="11.4208745"><ele>77.0</ele><time>2026-05-03T15:47:13.594Z</time></trkpt><trkpt lat="43.770552" lon="11.4210449"><ele>77.0</ele><time>2026-05-03T15:47:14.594Z</time></trkpt><trkpt lat="43.7705148" lon="11.4212147"><ele>77.0</ele><time>2026-05-03T15:47:15.594Z</time></trkpt><trkpt lat="43.7704798" lon="11.4213762"><ele>77.0</ele><time>2026-05-03T15:47:16.594Z</time></trkpt><trkpt lat="43.7704502" lon="11.4215362"><ele>77.0</ele><time>2026-05-03T15:47:17.593Z</time></trkpt><trkpt lat="43.7704238" lon="11.4216862"><ele>77.0</ele><time>2026-05-03T15:47:18.594Z</time></trkpt><trkpt lat="43.7704036" lon="11.4218312"><ele>77.0</ele><time>2026-05-03T15:47:19.594Z</time></trkpt><trkpt lat="43.7703856" lon="11.4219693"><ele>77.0</ele><time>2026-05-03T15:47:20.593Z</time></trkpt><trkpt lat="43.7703708" lon="11.4221112"><ele>77.0</ele><time>2026-05-03T15:47:21.593Z</time></trkpt><trkpt lat="43.7703583" lon="11.4222422"><ele>77.0</ele><time>2026-05-03T15:47:22.594Z</time></trkpt><trkpt lat="43.7703429" lon="11.4223695"><ele>77.0</ele><time>2026-05-03T15:47:23.594Z</time></trkpt><trkpt lat="43.7703068" lon="11.4224837"><ele>77.0</ele><time>2026-05-03T15:47:24.594Z</time></trkpt><trkpt lat="43.7702594" lon="11.4225944"><ele>77.0</ele><time>2026-05-03T15:47:25.594Z</time></trkpt><trkpt lat="43.7702101" lon="11.4227033"><ele>77.0</ele><time>2026-05-03T15:47:26.594Z</time></trkpt><trkpt lat="43.7701612" lon="11.4228214"><ele>77.0</ele><time>2026-05-03T15:47:27.594Z</time></trkpt><trkpt lat="43.7701112" lon="11.4229366"><ele>77.0</ele><time>2026-05-03T15:47:28.594Z</time></trkpt><trkpt lat="43.7700646" lon="11.4230609"><ele>78.0</ele><time>2026-05-03T15:47:29.593Z</time></trkpt><trkpt lat="43.7700207" lon="11.4231967"><ele>79.0</ele><time>2026-05-03T15:47:30.594Z</time></trkpt><trkpt lat="43.7699761" lon="11.4233398"><ele>80.0</ele><time>2026-05-03T15:47:31.594Z</time></trkpt><trkpt lat="43.7699284" lon="11.4234787"><ele>81.0</ele><time>2026-05-03T15:47:32.593Z</time></trkpt><trkpt lat="43.7698816" lon="11.4236271"><ele>82.0</ele><time>2026-05-03T15:47:33.594Z</time></trkpt><trkpt lat="43.7698302" lon="11.4237747"><ele>81.75</ele><time>2026-05-03T15:47:34.594Z</time></trkpt><trkpt lat="43.769781" lon="11.4239263"><ele>81.5</ele><time>2026-05-03T15:47:35.593Z</time></trkpt><trkpt lat="43.7697292" lon="11.4240755"><ele>81.25</ele><time>2026-05-03T15:47:36.594Z</time></trkpt><trkpt lat="43.7696751" lon="11.4242329"><ele>81.0</ele><time>2026-05-03T15:47:37.594Z</time></trkpt><trkpt lat="43.769624" lon="11.4243832"><ele>81.0</ele><time>2026-05-03T15:47:38.594Z</time></trkpt><trkpt lat="43.7695708" lon="11.4245324"><ele>81.0</ele><time>2026-05-03T15:47:39.594Z</time></trkpt><trkpt lat="43.769509" lon="11.424674"><ele>81.0</ele><time>2026-05-03T15:47:40.594Z</time></trkpt><trkpt lat="43.769439" lon="11.4247963"><ele>81.0</ele><time>2026-05-03T15:47:41.593Z</time></trkpt><trkpt lat="43.7693567" lon="11.4249085"><ele>81.25</ele><time>2026-05-03T15:47:42.594Z</time></trkpt><trkpt lat="43.7692678" lon="11.4250102"><ele>81.5</ele><time>2026-05-03T15:47:43.594Z</time></trkpt><trkpt lat="43.7691678" lon="11.4251034"><ele>81.75</ele><time>2026-05-03T15:47:44.594Z</time></trkpt><trkpt lat="43.7690626" lon="11.4251877"><ele>82.0</ele><time>2026-05-03T15:47:45.594Z</time></trkpt><trkpt lat="43.7689567" lon="11.4252474"><ele>82.0</ele><time>2026-05-03T15:47:46.594Z</time></trkpt><trkpt lat="43.7688471" lon="11.4252835"><ele>82.0</ele><time>2026-05-03T15:47:47.594Z</time></trkpt><trkpt lat="43.7687507" lon="11.4253116"><ele>82.0</ele><time>2026-05-03T15:47:48.594Z</time></trkpt><trkpt lat="43.768659" lon="11.4253482"><ele>82.0</ele><time>2026-05-03T15:47:49.594Z</time></trkpt><trkpt lat="43.7685755" lon="11.4253999"><ele>82.0</ele><time>2026-05-03T15:47:50.594Z</time></trkpt><trkpt lat="43.7685026" lon="11.4254739"><ele>82.0</ele><time>2026-05-03T15:47:51.594Z</time></trkpt><trkpt lat="43.7684365" lon="11.4255673"><ele>82.0</ele><time>2026-05-03T15:47:52.593Z</time></trkpt><trkpt lat="43.7683791" lon="11.425673"><ele>82.0</ele><time>2026-05-03T15:47:53.594Z</time></trkpt><trkpt lat="43.7683303" lon="11.4257912"><ele>82.0</ele><time>2026-05-03T15:47:54.594Z</time></trkpt><trkpt lat="43.7682998" lon="11.425919"><ele>82.0</ele><time>2026-05-03T15:47:55.594Z</time></trkpt><trkpt lat="43.7682928" lon="11.4260552"><ele>82.0</ele><time>2026-05-03T15:47:56.594Z</time></trkpt><trkpt lat="43.7682977" lon="11.4261913"><ele>82.0</ele><time>2026-05-03T15:47:57.594Z</time></trkpt><trkpt lat="43.7683066" lon="11.4263212"><ele>82.0</ele><time>2026-05-03T15:47:58.594Z</time></trkpt><trkpt lat="43.7683123" lon="11.4264558"><ele>82.0</ele><time>2026-05-03T15:47:59.594Z</time></trkpt><trkpt lat="43.768303" lon="11.4265838"><ele>82.0</ele><time>2026-05-03T15:48:00.593Z</time></trkpt><trkpt lat="43.7682762" lon="11.4267106"><ele>82.39999999999999</ele><time>2026-05-03T15:48:01.594Z</time></trkpt><trkpt lat="43.7682314" lon="11.4268257"><ele>82.8</ele><time>2026-05-03T15:48:02.594Z</time></trkpt><trkpt lat="43.7681735" lon="11.4269386"><ele>83.2</ele><time>2026-05-03T15:48:03.594Z</time></trkpt><trkpt lat="43.7681086" lon="11.4270246"><ele>83.6</ele><time>2026-05-03T15:48:04.594Z</time></trkpt><trkpt lat="43.768036" lon="11.4270987"><ele>84.0</ele><time>2026-05-03T15:48:05.594Z</time></trkpt><trkpt lat="43.7679589" lon="11.4271584"><ele>85.80000000000001</ele><time>2026-05-03T15:48:06.594Z</time></trkpt><trkpt lat="43.7678712" lon="11.4272059"><ele>87.60000000000001</ele><time>2026-05-03T15:48:07.593Z</time></trkpt><trkpt lat="43.7677789" lon="11.4272429"><ele>89.4</ele><time>2026-05-03T15:48:08.594Z</time></trkpt><trkpt lat="43.7676834" lon="11.4272845"><ele>91.2</ele><time>2026-05-03T15:48:09.594Z</time></trkpt><trkpt lat="43.7675848" lon="11.4273193"><ele>93.0</ele><time>2026-05-03T15:48:10.593Z</time></trkpt><trkpt lat="43.7674878" lon="11.4273566"><ele>94.2</ele><time>2026-05-03T15:48:11.594Z</time></trkpt><trkpt lat="43.7673898" lon="11.4273908"><ele>95.4</ele><time>2026-05-03T15:48:12.594Z</time></trkpt><trkpt lat="43.7672904" lon="11.4274117"><ele>96.60000000000001</ele><time>2026-05-03T15:48:13.594Z</time></trkpt><trkpt lat="43.7671898" lon="11.4274152"><ele>97.80000000000001</ele><time>2026-05-03T15:48:14.594Z</time></trkpt><trkpt lat="43.7670935" lon="11.4273989"><ele>99.0</ele><time>2026-05-03T15:48:15.593Z</time></trkpt><trkpt lat="43.7670032" lon="11.4273519"><ele>99.0</ele><time>2026-05-03T15:48:16.594Z</time></trkpt><trkpt lat="43.7669207" lon="11.4272861"><ele>99.0</ele><time>2026-05-03T15:48:17.594Z</time></trkpt><trkpt lat="43.7668482" lon="11.4272061"><ele>99.0</ele><time>2026-05-03T15:48:18.594Z</time></trkpt><trkpt lat="43.7667839" lon="11.4271081"><ele>99.0</ele><time>2026-05-03T15:48:19.594Z</time></trkpt><trkpt lat="43.7667312" lon="11.4269922"><ele>99.0</ele><time>2026-05-03T15:48:20.594Z</time></trkpt><trkpt lat="43.7666902" lon="11.4268733"><ele>98.0</ele><time>2026-05-03T15:48:21.593Z</time></trkpt><trkpt lat="43.7666551" lon="11.4267568"><ele>97.0</ele><time>2026-05-03T15:48:22.594Z</time></trkpt><trkpt lat="43.7666119" lon="11.4266493"><ele>96.0</ele><time>2026-05-03T15:48:23.593Z</time></trkpt><trkpt lat="43.7665578" lon="11.4265537"><ele>95.0</ele><time>2026-05-03T15:48:24.594Z</time></trkpt><trkpt lat="43.7664922" lon="11.4264645"><ele>94.0</ele><time>2026-05-03T15:48:25.594Z</time></trkpt><trkpt lat="43.7664249" lon="11.4263853"><ele>93.0</ele><time>2026-05-03T15:48:26.594Z</time></trkpt><trkpt lat="43.7663349" lon="11.4263199"><ele>92.4</ele><time>2026-05-03T15:48:27.593Z</time></trkpt><trkpt lat="43.7662376" lon="11.4262921"><ele>91.80000000000001</ele><time>2026-05-03T15:48:28.594Z</time></trkpt><trkpt lat="43.7661318" lon="11.4262907"><ele>91.2</ele><time>2026-05-03T15:48:29.594Z</time></trkpt><trkpt lat="43.7660323" lon="11.4262952"><ele>90.6</ele><time>2026-05-03T15:48:30.594Z</time></trkpt><trkpt lat="43.7659271" lon="11.4262925"><ele>90.0</ele><time>2026-05-03T15:48:31.594Z</time></trkpt><trkpt lat="43.7658257" lon="11.4262807"><ele>90.0</ele><time>2026-05-03T15:48:32.594Z</time></trkpt><trkpt lat="43.7657323" lon="11.4262534"><ele>90.0</ele><time>2026-05-03T15:48:33.594Z</time></trkpt><trkpt lat="43.7656482" lon="11.4261962"><ele>90.0</ele><time>2026-05-03T15:48:34.594Z</time></trkpt><trkpt lat="43.7655664" lon="11.4261419"><ele>90.0</ele><time>2026-05-03T15:48:35.594Z</time></trkpt><trkpt lat="43.7654884" lon="11.4260867"><ele>90.0</ele><time>2026-05-03T15:48:36.593Z</time></trkpt><trkpt lat="43.7654041" lon="11.4260427"><ele>90.0</ele><time>2026-05-03T15:48:37.594Z</time></trkpt><trkpt lat="43.7653165" lon="11.4260216"><ele>90.0</ele><time>2026-05-03T15:48:38.594Z</time></trkpt><trkpt lat="43.7652265" lon="11.4260128"><ele>90.0</ele><time>2026-05-03T15:48:39.594Z</time></trkpt><trkpt lat="43.7651363" lon="11.4259982"><ele>90.0</ele><time>2026-05-03T15:48:40.594Z</time></trkpt><trkpt lat="43.7650599" lon="11.4260348"><ele>90.0</ele><time>2026-05-03T15:48:41.594Z</time></trkpt><trkpt lat="43.764981" lon="11.4260916"><ele>90.0</ele><time>2026-05-03T15:48:42.594Z</time></trkpt><trkpt lat="43.7649024" lon="11.4261593"><ele>90.2</ele><time>2026-05-03T15:48:43.594Z</time></trkpt><trkpt lat="43.7648284" lon="11.4262285"><ele>90.4</ele><time>2026-05-03T15:48:44.594Z</time></trkpt><trkpt lat="43.7647546" lon="11.4263067"><ele>90.6</ele><time>2026-05-03T15:48:45.594Z</time></trkpt><trkpt lat="43.7646749" lon="11.4263738"><ele>90.8</ele><time>2026-05-03T15:48:46.594Z</time></trkpt><trkpt lat="43.7645914" lon="11.4264435"><ele>91.0</ele><time>2026-05-03T15:48:47.594Z</time></trkpt><trkpt lat="43.7645034" lon="11.4265215"><ele>92.4</ele><time>2026-05-03T15:48:48.594Z</time></trkpt><trkpt lat="43.7644148" lon="11.4265923"><ele>93.8</ele><time>2026-05-03T15:48:49.593Z</time></trkpt><trkpt lat="43.7643242" lon="11.4266673"><ele>95.2</ele><time>2026-05-03T15:48:50.593Z</time></trkpt><trkpt lat="43.7642278" lon="11.4267307"><ele>96.60000000000001</ele><time>2026-05-03T15:48:51.594Z</time></trkpt><trkpt lat="43.7641306" lon="11.4267926"><ele>98.0</ele><time>2026-05-03T15:48:52.593Z</time></trkpt><trkpt lat="43.7640304" lon="11.4268536"><ele>98.0</ele><time>2026-05-03T15:48:53.594Z</time></trkpt><trkpt lat="43.7639277" lon="11.4269095"><ele>98.0</ele><time>2026-05-03T15:48:54.594Z</time></trkpt><trkpt lat="43.7638267" lon="11.4269678"><ele>98.0</ele><time>2026-05-03T15:48:55.594Z</time></trkpt><trkpt lat="43.7637236" lon="11.4270308"><ele>98.0</ele><time>2026-05-03T15:48:56.594Z</time></trkpt><trkpt lat="43.7636184" lon="11.4271016"><ele>98.0</ele><time>2026-05-03T15:48:57.594Z</time></trkpt><trkpt lat="43.7635135" lon="11.4271648"><ele>101.25</ele><time>2026-05-03T15:48:58.594Z</time></trkpt><trkpt lat="43.763409" lon="11.4272346"><ele>104.5</ele><time>2026-05-03T15:48:59.593Z</time></trkpt><trkpt lat="43.7632975" lon="11.4272908"><ele>107.75</ele><time>2026-05-03T15:49:00.594Z</time></trkpt><trkpt lat="43.7631863" lon="11.4273293"><ele>111.0</ele><time>2026-05-03T15:49:01.594Z</time></trkpt><trkpt lat="43.7630711" lon="11.42734"><ele>111.0</ele><time>2026-05-03T15:49:02.594Z</time></trkpt><trkpt lat="43.7629559" lon="11.4273285"><ele>111.0</ele><time>2026-05-03T15:49:03.594Z</time></trkpt><trkpt lat="43.7628427" lon="11.4272967"><ele>111.0</ele><time>2026-05-03T15:49:04.594Z</time></trkpt><trkpt lat="43.7627303" lon="11.4272522"><ele>111.0</ele><time>2026-05-03T15:49:05.594Z</time></trkpt><trkpt lat="43.7626236" lon="11.4272027"><ele>110.8</ele><time>2026-05-03T15:49:06.594Z</time></trkpt><trkpt lat="43.762513" lon="11.4271664"><ele>110.6</ele><time>2026-05-03T15:49:07.593Z</time></trkpt><trkpt lat="43.7624063" lon="11.4271574"><ele>110.4</ele><time>2026-05-03T15:49:08.594Z</time></trkpt><trkpt lat="43.7622965" lon="11.4271822"><ele>110.2</ele><time>2026-05-03T15:49:09.594Z</time></trkpt><trkpt lat="43.762192" lon="11.4272366"><ele>110.0</ele><time>2026-05-03T15:49:10.593Z</time></trkpt><trkpt lat="43.7620975" lon="11.4273245"><ele>110.0</ele><time>2026-05-03T15:49:11.593Z</time></trkpt><trkpt lat="43.7620079" lon="11.4274366"><ele>110.0</ele><time>2026-05-03T15:49:12.594Z</time></trkpt><trkpt lat="43.7619228" lon="11.4275582"><ele>110.0</ele><time>2026-05-03T15:49:13.594Z</time></trkpt><trkpt lat="43.7618372" lon="11.4276832"><ele>110.0</ele><time>2026-05-03T15:49:14.594Z</time></trkpt><trkpt lat="43.7617507" lon="11.4278103"><ele>110.25</ele><time>2026-05-03T15:49:15.594Z</time></trkpt><trkpt lat="43.7616636" lon="11.4279387"><ele>110.5</ele><time>2026-05-03T15:49:16.594Z</time></trkpt><trkpt lat="43.7615733" lon="11.4280641"><ele>110.75</ele><time>2026-05-03T15:49:17.594Z</time></trkpt><trkpt lat="43.7614823" lon="11.4281903"><ele>111.0</ele><time>2026-05-03T15:49:18.594Z</time></trkpt><trkpt lat="43.7613881" lon="11.4283153"><ele>112.25</ele><time>2026-05-03T15:49:19.594Z</time></trkpt><trkpt lat="43.7612965" lon="11.4284347"><ele>113.5</ele><time>2026-05-03T15:49:20.594Z</time></trkpt><trkpt lat="43.761202" lon="11.4285524"><ele>114.75</ele><time>2026-05-03T15:49:21.594Z</time></trkpt><trkpt lat="43.7611036" lon="11.4286657"><ele>116.0</ele><time>2026-05-03T15:49:22.594Z</time></trkpt><trkpt lat="43.761" lon="11.4287684"><ele>119.25</ele><time>2026-05-03T15:49:23.594Z</time></trkpt><trkpt lat="43.760893" lon="11.4288752"><ele>122.5</ele><time>2026-05-03T15:49:24.593Z</time></trkpt><trkpt lat="43.7607884" lon="11.4289822"><ele>125.75</ele><time>2026-05-03T15:49:25.594Z</time></trkpt><trkpt lat="43.7606838" lon="11.4290854"><ele>129.0</ele><time>2026-05-03T15:49:26.594Z</time></trkpt><trkpt lat="43.7605813" lon="11.4291875"><ele>129.0</ele><time>2026-05-03T15:49:27.594Z</time></trkpt><trkpt lat="43.7604805" lon="11.4292899"><ele>129.0</ele><time>2026-05-03T15:49:28.594Z</time></trkpt><trkpt lat="43.7603806" lon="11.4293923"><ele>129.0</ele><time>2026-05-03T15:49:29.594Z</time></trkpt><trkpt lat="43.7602876" lon="11.4294966"><ele>129.0</ele><time>2026-05-03T15:49:30.594Z</time></trkpt><trkpt lat="43.7602065" lon="11.42962"><ele>129.25</ele><time>2026-05-03T15:49:31.594Z</time></trkpt><trkpt lat="43.7601449" lon="11.4297614"><ele>129.5</ele><time>2026-05-03T15:49:32.594Z</time></trkpt><trkpt lat="43.7601017" lon="11.4299195"><ele>129.75</ele><time>2026-05-03T15:49:33.594Z</time></trkpt><trkpt lat="43.7600717" lon="11.4300884"><ele>130.0</ele><time>2026-05-03T15:49:34.594Z</time></trkpt><trkpt lat="43.7600422" lon="11.4302552"><ele>130.0</ele><time>2026-05-03T15:49:35.594Z</time></trkpt><trkpt lat="43.7600035" lon="11.4304246"><ele>130.0</ele><time>2026-05-03T15:49:36.594Z</time></trkpt><trkpt lat="43.7599475" lon="11.4305822"><ele>130.0</ele><time>2026-05-03T15:49:37.594Z</time></trkpt><trkpt lat="43.7598688" lon="11.4307178"><ele>130.0</ele><time>2026-05-03T15:49:38.594Z</time></trkpt><trkpt lat="43.7597715" lon="11.4308261"><ele>130.5</ele><time>2026-05-03T15:49:39.593Z</time></trkpt><trkpt lat="43.7596627" lon="11.4309163"><ele>131.0</ele><time>2026-05-03T15:49:40.594Z</time></trkpt><trkpt lat="43.7595521" lon="11.4310015"><ele>131.5</ele><time>2026-05-03T15:49:41.593Z</time></trkpt><trkpt lat="43.7594439" lon="11.4310902"><ele>132.0</ele><time>2026-05-03T15:49:42.594Z</time></trkpt><trkpt lat="43.7593356" lon="11.4311787"><ele>132.0</ele><time>2026-05-03T15:49:43.594Z</time></trkpt><trkpt lat="43.7592262" lon="11.4312637"><ele>132.0</ele><time>2026-05-03T15:49:44.594Z</time></trkpt><trkpt lat="43.7591207" lon="11.4313426"><ele>132.0</ele><time>2026-05-03T15:49:45.594Z</time></trkpt><trkpt lat="43.7590171" lon="11.4314232"><ele>132.0</ele><time>2026-05-03T15:49:46.594Z</time></trkpt><trkpt lat="43.7589186" lon="11.4315114"><ele>135.0</ele><time>2026-05-03T15:49:47.594Z</time></trkpt><trkpt lat="43.7588277" lon="11.4316059"><ele>138.0</ele><time>2026-05-03T15:49:48.594Z</time></trkpt><trkpt lat="43.7587533" lon="11.4317166"><ele>141.0</ele><time>2026-05-03T15:49:49.593Z</time></trkpt><trkpt lat="43.758706" lon="11.4318489"><ele>144.0</ele><time>2026-05-03T15:49:50.593Z</time></trkpt><trkpt lat="43.7586729" lon="11.4319891"><ele>147.0</ele><time>2026-05-03T15:49:51.594Z</time></trkpt><trkpt lat="43.7586674" lon="11.4321509"><ele>149.5</ele><time>2026-05-03T15:49:52.593Z</time></trkpt><trkpt lat="43.7586689" lon="11.432313"><ele>152.0</ele><time>2026-05-03T15:49:53.594Z</time></trkpt><trkpt lat="43.7586651" lon="11.4324722"><ele>154.5</ele><time>2026-05-03T15:49:54.594Z</time></trkpt><trkpt lat="43.758664" lon="11.4326336"><ele>157.0</ele><time>2026-05-03T15:49:55.593Z</time></trkpt><trkpt lat="43.7586637" lon="11.4327906"><ele>157.0</ele><time>2026-05-03T15:49:56.594Z</time></trkpt><trkpt lat="43.7586631" lon="11.4329572"><ele>157.0</ele><time>2026-05-03T15:49:57.594Z</time></trkpt><trkpt lat="43.758666" lon="11.4331218"><ele>157.0</ele><time>2026-05-03T15:49:58.594Z</time></trkpt><trkpt lat="43.7586679" lon="11.4332839"><ele>157.0</ele><time>2026-05-03T15:49:59.594Z</time></trkpt><trkpt lat="43.7586684" lon="11.4334341"><ele>157.0</ele><time>2026-05-03T15:50:00.594Z</time></trkpt><trkpt lat="43.7586692" lon="11.4335723"><ele>157.0</ele><time>2026-05-03T15:50:01.594Z</time></trkpt><trkpt lat="43.7586893" lon="11.4336834"><ele>157.0</ele><time>2026-05-03T15:50:02.594Z</time></trkpt><trkpt lat="43.7587374" lon="11.4337686"><ele>157.0</ele><time>2026-05-03T15:50:03.594Z</time></trkpt><trkpt lat="43.7588001" lon="11.4338257"><ele>157.0</ele><time>2026-05-03T15:50:04.594Z</time></trkpt><trkpt lat="43.7588614" lon="11.4338653"><ele>157.0</ele><time>2026-05-03T15:50:05.594Z</time></trkpt><trkpt lat="43.7589982" lon="11.4337809"><ele>157.0</ele><time>2026-05-03T15:50:07.594Z</time></trkpt><trkpt lat="43.7590653" lon="11.4337059"><ele>157.0</ele><time>2026-05-03T15:50:08.594Z</time></trkpt><trkpt lat="43.7591456" lon="11.4336137"><ele>157.0</ele><time>2026-05-03T15:50:09.594Z</time></trkpt><trkpt lat="43.75922" lon="11.4335208"><ele>157.0</ele><time>2026-05-03T15:50:10.594Z</time></trkpt><trkpt lat="43.7593019" lon="11.4334248"><ele>157.0</ele><time>2026-05-03T15:50:11.594Z</time></trkpt><trkpt lat="43.7593827" lon="11.433334"><ele>158.6</ele><time>2026-05-03T15:50:12.594Z</time></trkpt><trkpt lat="43.759468" lon="11.4332498"><ele>160.2</ele><time>2026-05-03T15:50:13.594Z</time></trkpt><trkpt lat="43.7595627" lon="11.4331778"><ele>161.8</ele><time>2026-05-03T15:50:14.593Z</time></trkpt><trkpt lat="43.7596643" lon="11.4331385"><ele>163.4</ele><time>2026-05-03T15:50:15.594Z</time></trkpt><trkpt lat="43.7597692" lon="11.4331223"><ele>165.0</ele><time>2026-05-03T15:50:16.593Z</time></trkpt><trkpt lat="43.7598698" lon="11.4331473"><ele>165.0</ele><time>2026-05-03T15:50:17.593Z</time></trkpt><trkpt lat="43.7599661" lon="11.4332017"><ele>165.0</ele><time>2026-05-03T15:50:18.594Z</time></trkpt><trkpt lat="43.7600364" lon="11.433302"><ele>165.0</ele><time>2026-05-03T15:50:19.594Z</time></trkpt><trkpt lat="43.7600885" lon="11.433426"><ele>165.0</ele><time>2026-05-03T15:50:20.594Z</time></trkpt><trkpt lat="43.7601155" lon="11.4335573"><ele>165.0</ele><time>2026-05-03T15:50:21.594Z</time></trkpt><trkpt lat="43.7601422" lon="11.4337006"><ele>165.75</ele><time>2026-05-03T15:50:22.593Z</time></trkpt><trkpt lat="43.7601681" lon="11.4338542"><ele>166.5</ele><time>2026-05-03T15:50:23.593Z</time></trkpt><trkpt lat="43.7601921" lon="11.4340153"><ele>167.25</ele><time>2026-05-03T15:50:24.593Z</time></trkpt><trkpt lat="43.7602144" lon="11.4341739"><ele>168.0</ele><time>2026-05-03T15:50:25.594Z</time></trkpt><trkpt lat="43.7602244" lon="11.4343362"><ele>168.0</ele><time>2026-05-03T15:50:26.594Z</time></trkpt><trkpt lat="43.7602053" lon="11.4344913"><ele>168.0</ele><time>2026-05-03T15:50:27.593Z</time></trkpt><trkpt lat="43.7601619" lon="11.4346317"><ele>168.0</ele><time>2026-05-03T15:50:28.593Z</time></trkpt><trkpt lat="43.7601069" lon="11.4347671"><ele>168.0</ele><time>2026-05-03T15:50:29.594Z</time></trkpt><trkpt lat="43.7600455" lon="11.4349026"><ele>169.25</ele><time>2026-05-03T15:50:30.594Z</time></trkpt><trkpt lat="43.7599841" lon="11.4350432"><ele>170.5</ele><time>2026-05-03T15:50:31.594Z</time></trkpt><trkpt lat="43.7599274" lon="11.4351798"><ele>171.75</ele><time>2026-05-03T15:50:32.594Z</time></trkpt><trkpt lat="43.7598709" lon="11.4353186"><ele>173.0</ele><time>2026-05-03T15:50:33.594Z</time></trkpt><trkpt lat="43.7598185" lon="11.4354606"><ele>174.75</ele><time>2026-05-03T15:50:34.594Z</time></trkpt><trkpt lat="43.7597737" lon="11.4356095"><ele>176.5</ele><time>2026-05-03T15:50:35.594Z</time></trkpt><trkpt lat="43.7597367" lon="11.435762"><ele>178.25</ele><time>2026-05-03T15:50:36.594Z</time></trkpt><trkpt lat="43.7597103" lon="11.4359184"><ele>180.0</ele><time>2026-05-03T15:50:37.594Z</time></trkpt><trkpt lat="43.7597013" lon="11.4360845"><ele>180.0</ele><time>2026-05-03T15:50:38.594Z</time></trkpt><trkpt lat="43.7597069" lon="11.4362648"><ele>180.0</ele><time>2026-05-03T15:50:39.594Z</time></trkpt><trkpt lat="43.7597299" lon="11.4364443"><ele>180.0</ele><time>2026-05-03T15:50:40.594Z</time></trkpt><trkpt lat="43.7597686" lon="11.4366107"><ele>180.0</ele><time>2026-05-03T15:50:41.594Z</time></trkpt><trkpt lat="43.7598086" lon="11.4367815"><ele>180.5</ele><time>2026-05-03T15:50:42.594Z</time></trkpt><trkpt lat="43.759854" lon="11.436953"><ele>181.0</ele><time>2026-05-03T15:50:43.594Z</time></trkpt><trkpt lat="43.7598918" lon="11.437125"><ele>181.5</ele><time>2026-05-03T15:50:44.593Z</time></trkpt><trkpt lat="43.7599254" lon="11.437294"><ele>182.0</ele><time>2026-05-03T15:50:45.594Z</time></trkpt><trkpt lat="43.7599547" lon="11.4374621"><ele>183.0</ele><time>2026-05-03T15:50:46.594Z</time></trkpt><trkpt lat="43.7599554" lon="11.4376336"><ele>184.0</ele><time>2026-05-03T15:50:47.594Z</time></trkpt><trkpt lat="43.759934" lon="11.437791"><ele>185.0</ele><time>2026-05-03T15:50:48.594Z</time></trkpt><trkpt lat="43.7598885" lon="11.4379334"><ele>186.0</ele><time>2026-05-03T15:50:49.594Z</time></trkpt><trkpt lat="43.7598231" lon="11.438058"><ele>188.5</ele><time>2026-05-03T15:50:50.594Z</time></trkpt><trkpt lat="43.7597498" lon="11.4381769"><ele>191.0</ele><time>2026-05-03T15:50:51.594Z</time></trkpt><trkpt lat="43.7596813" lon="11.4383003"><ele>193.5</ele><time>2026-05-03T15:50:52.594Z</time></trkpt><trkpt lat="43.7596301" lon="11.4384418"><ele>196.0</ele><time>2026-05-03T15:50:53.594Z</time></trkpt><trkpt lat="43.7595954" lon="11.4385954"><ele>196.0</ele><time>2026-05-03T15:50:54.594Z</time></trkpt><trkpt lat="43.7595711" lon="11.4387584"><ele>196.0</ele><time>2026-05-03T15:50:55.594Z</time></trkpt><trkpt lat="43.7595574" lon="11.4389287"><ele>196.0</ele><time>2026-05-03T15:50:56.594Z</time></trkpt><trkpt lat="43.7595441" lon="11.4390965"><ele>196.0</ele><time>2026-05-03T15:50:57.594Z</time></trkpt><trkpt lat="43.7595296" lon="11.4392694"><ele>198.75</ele><time>2026-05-03T15:50:58.594Z</time></trkpt><trkpt lat="43.7595171" lon="11.4394412"><ele>201.5</ele><time>2026-05-03T15:50:59.594Z</time></trkpt><trkpt lat="43.7595014" lon="11.439618"><ele>204.25</ele><time>2026-05-03T15:51:00.594Z</time></trkpt><trkpt lat="43.7594884" lon="11.4398034"><ele>207.0</ele><time>2026-05-03T15:51:01.593Z</time></trkpt><trkpt lat="43.7594727" lon="11.4399835"><ele>208.75</ele><time>2026-05-03T15:51:02.594Z</time></trkpt><trkpt lat="43.7594574" lon="11.4401678"><ele>210.5</ele><time>2026-05-03T15:51:03.594Z</time></trkpt><trkpt lat="43.7594417" lon="11.4403484"><ele>212.25</ele><time>2026-05-03T15:51:04.593Z</time></trkpt><trkpt lat="43.7594263" lon="11.4405234"><ele>214.0</ele><time>2026-05-03T15:51:05.594Z</time></trkpt><trkpt lat="43.7594101" lon="11.4406981"><ele>213.79999999999998</ele><time>2026-05-03T15:51:06.593Z</time></trkpt><trkpt lat="43.7593875" lon="11.4408532"><ele>213.59999999999997</ele><time>2026-05-03T15:51:07.594Z</time></trkpt><trkpt lat="43.7593488" lon="11.4409788"><ele>213.4</ele><time>2026-05-03T15:51:08.594Z</time></trkpt><trkpt lat="43.7592864" lon="11.4410757"><ele>213.2</ele><time>2026-05-03T15:51:09.593Z</time></trkpt><trkpt lat="43.7592031" lon="11.4411388"><ele>213.0</ele><time>2026-05-03T15:51:10.594Z</time></trkpt><trkpt lat="43.759103" lon="11.4411688"><ele>213.0</ele><time>2026-05-03T15:51:11.594Z</time></trkpt><trkpt lat="43.7590001" lon="11.4411897"><ele>213.0</ele><time>2026-05-03T15:51:12.594Z</time></trkpt><trkpt lat="43.758893" lon="11.4412086"><ele>213.0</ele><time>2026-05-03T15:51:13.594Z</time></trkpt><trkpt lat="43.7587887" lon="11.4412258"><ele>213.0</ele><time>2026-05-03T15:51:14.594Z</time></trkpt><trkpt lat="43.7586916" lon="11.4412495"><ele>213.0</ele><time>2026-05-03T15:51:15.594Z</time></trkpt><trkpt lat="43.7585975" lon="11.4412986"><ele>215.0</ele><time>2026-05-03T15:51:16.594Z</time></trkpt><trkpt lat="43.7585201" lon="11.4413884"><ele>217.0</ele><time>2026-05-03T15:51:17.594Z</time></trkpt><trkpt lat="43.7584514" lon="11.4414995"><ele>219.0</ele><time>2026-05-03T15:51:18.594Z</time></trkpt><trkpt lat="43.7583935" lon="11.4416251"><ele>221.0</ele><time>2026-05-03T15:51:19.594Z</time></trkpt><trkpt lat="43.7583408" lon="11.4417602"><ele>223.0</ele><time>2026-05-03T15:51:20.594Z</time></trkpt><trkpt lat="43.7582887" lon="11.4418912"><ele>223.0</ele><time>2026-05-03T15:51:21.594Z</time></trkpt><trkpt lat="43.7582268" lon="11.4420237"><ele>223.0</ele><time>2026-05-03T15:51:22.594Z</time></trkpt><trkpt lat="43.7581571" lon="11.4421498"><ele>223.0</ele><time>2026-05-03T15:51:23.593Z</time></trkpt><trkpt lat="43.7580787" lon="11.442266"><ele>223.0</ele><time>2026-05-03T15:51:24.594Z</time></trkpt><trkpt lat="43.757997" lon="11.442374"><ele>224.2</ele><time>2026-05-03T15:51:25.594Z</time></trkpt><trkpt lat="43.757918" lon="11.4424829"><ele>225.4</ele><time>2026-05-03T15:51:26.594Z</time></trkpt><trkpt lat="43.7578379" lon="11.4425797"><ele>226.59999999999997</ele><time>2026-05-03T15:51:27.594Z</time></trkpt><trkpt lat="43.7577641" lon="11.4426663"><ele>227.79999999999998</ele><time>2026-05-03T15:51:28.594Z</time></trkpt><trkpt lat="43.757699" lon="11.4427688"><ele>229.0</ele><time>2026-05-03T15:51:29.594Z</time></trkpt><trkpt lat="43.7576526" lon="11.4428826"><ele>230.0</ele><time>2026-05-03T15:51:30.594Z</time></trkpt><trkpt lat="43.7576354" lon="11.4429953"><ele>230.99999999999997</ele><time>2026-05-03T15:51:31.594Z</time></trkpt><trkpt lat="43.7576414" lon="11.4431151"><ele>231.99999999999997</ele><time>2026-05-03T15:51:32.593Z</time></trkpt><trkpt lat="43.7576689" lon="11.4432365"><ele>233.0</ele><time>2026-05-03T15:51:33.594Z</time></trkpt><trkpt lat="43.7577174" lon="11.4433549"><ele>234.0</ele><time>2026-05-03T15:51:34.594Z</time></trkpt><trkpt lat="43.7577746" lon="11.4434747"><ele>234.0</ele><time>2026-05-03T15:51:35.594Z</time></trkpt><trkpt lat="43.7578335" lon="11.4436139"><ele>234.0</ele><time>2026-05-03T15:51:36.594Z</time></trkpt><trkpt lat="43.7578811" lon="11.4437543"><ele>234.0</ele><time>2026-05-03T15:51:37.594Z</time></trkpt><trkpt lat="43.7579289" lon="11.4439024"><ele>234.0</ele><time>2026-05-03T15:51:38.594Z</time></trkpt><trkpt lat="43.7579734" lon="11.4440552"><ele>236.25</ele><time>2026-05-03T15:51:39.594Z</time></trkpt><trkpt lat="43.7580106" lon="11.4442042"><ele>238.5</ele><time>2026-05-03T15:51:40.594Z</time></trkpt><trkpt lat="43.7580487" lon="11.4443585"><ele>240.75</ele><time>2026-05-03T15:51:41.594Z</time></trkpt><trkpt lat="43.7580864" lon="11.444506"><ele>243.0</ele><time>2026-05-03T15:51:42.594Z</time></trkpt><trkpt lat="43.7581278" lon="11.4446564"><ele>245.25</ele><time>2026-05-03T15:51:43.594Z</time></trkpt><trkpt lat="43.7581805" lon="11.4447956"><ele>247.5</ele><time>2026-05-03T15:51:44.593Z</time></trkpt><trkpt lat="43.7582458" lon="11.4449249"><ele>249.75</ele><time>2026-05-03T15:51:45.594Z</time></trkpt><trkpt lat="43.7583177" lon="11.445042"><ele>252.0</ele><time>2026-05-03T15:51:46.594Z</time></trkpt><trkpt lat="43.7583992" lon="11.4451525"><ele>252.0</ele><time>2026-05-03T15:51:47.594Z</time></trkpt><trkpt lat="43.7584817" lon="11.4452573"><ele>252.0</ele><time>2026-05-03T15:51:48.593Z</time></trkpt><trkpt lat="43.758567" lon="11.4453624"><ele>252.0</ele><time>2026-05-03T15:51:49.594Z</time></trkpt><trkpt lat="43.7586517" lon="11.4454683"><ele>252.0</ele><time>2026-05-03T15:51:50.593Z</time></trkpt><trkpt lat="43.7587353" lon="11.4455752"><ele>254.0</ele><time>2026-05-03T15:51:51.593Z</time></trkpt><trkpt lat="43.7588207" lon="11.4456773"><ele>256.0</ele><time>2026-05-03T15:51:52.594Z</time></trkpt><trkpt lat="43.7589047" lon="11.4457788"><ele>258.0</ele><time>2026-05-03T15:51:53.594Z</time></trkpt><trkpt lat="43.7589819" lon="11.445881"><ele>260.0</ele><time>2026-05-03T15:51:54.594Z</time></trkpt><trkpt lat="43.7590468" lon="11.4459868"><ele>262.0</ele><time>2026-05-03T15:51:55.593Z</time></trkpt><trkpt lat="43.7590969" lon="11.4461038"><ele>262.0</ele><time>2026-05-03T15:51:56.594Z</time></trkpt><trkpt lat="43.759128" lon="11.4462262"><ele>262.0</ele><time>2026-05-03T15:51:57.594Z</time></trkpt><trkpt lat="43.7591306" lon="11.4463627"><ele>262.0</ele><time>2026-05-03T15:51:58.594Z</time></trkpt><trkpt lat="43.7591175" lon="11.4465002"><ele>262.0</ele><time>2026-05-03T15:51:59.594Z</time></trkpt><trkpt lat="43.759089" lon="11.4466307"><ele>262.0</ele><time>2026-05-03T15:52:00.593Z</time></trkpt><trkpt lat="43.7590426" lon="11.4467537"><ele>263.2</ele><time>2026-05-03T15:52:01.594Z</time></trkpt><trkpt lat="43.7589877" lon="11.4468774"><ele>264.4</ele><time>2026-05-03T15:52:02.594Z</time></trkpt><trkpt lat="43.758921" lon="11.4469868"><ele>265.6</ele><time>2026-05-03T15:52:03.594Z</time></trkpt><trkpt lat="43.7588421" lon="11.4470874"><ele>266.8</ele><time>2026-05-03T15:52:04.593Z</time></trkpt><trkpt lat="43.7587522" lon="11.4471801"><ele>268.0</ele><time>2026-05-03T15:52:05.594Z</time></trkpt><trkpt lat="43.7586631" lon="11.4472699"><ele>270.0</ele><time>2026-05-03T15:52:06.594Z</time></trkpt><trkpt lat="43.7585686" lon="11.4473642"><ele>272.0</ele><time>2026-05-03T15:52:07.594Z</time></trkpt><trkpt lat="43.7584721" lon="11.4474546"><ele>274.0</ele><time>2026-05-03T15:52:08.594Z</time></trkpt><trkpt lat="43.7583781" lon="11.4475491"><ele>276.0</ele><time>2026-05-03T15:52:09.594Z</time></trkpt><trkpt lat="43.7582805" lon="11.4476399"><ele>277.0</ele><time>2026-05-03T15:52:10.594Z</time></trkpt><trkpt lat="43.7581834" lon="11.4477334"><ele>278.0</ele><time>2026-05-03T15:52:11.594Z</time></trkpt><trkpt lat="43.7580867" lon="11.4478329"><ele>279.0</ele><time>2026-05-03T15:52:12.594Z</time></trkpt><trkpt lat="43.7579935" lon="11.4479406"><ele>280.0</ele><time>2026-05-03T15:52:13.594Z</time></trkpt><trkpt lat="43.7579041" lon="11.4480601"><ele>280.0</ele><time>2026-05-03T15:52:14.594Z</time></trkpt><trkpt lat="43.757817" lon="11.4481844"><ele>280.0</ele><time>2026-05-03T15:52:15.594Z</time></trkpt><trkpt lat="43.757729" lon="11.4483111"><ele>280.0</ele><time>2026-05-03T15:52:16.594Z</time></trkpt><trkpt lat="43.7576429" lon="11.4484384"><ele>280.0</ele><time>2026-05-03T15:52:17.594Z</time></trkpt><trkpt lat="43.7575568" lon="11.4485658"><ele>280.0</ele><time>2026-05-03T15:52:18.594Z</time></trkpt><trkpt lat="43.7574677" lon="11.44869"><ele>280.0</ele><time>2026-05-03T15:52:19.594Z</time></trkpt><trkpt lat="43.757375" lon="11.4488152"><ele>280.0</ele><time>2026-05-03T15:52:20.594Z</time></trkpt><trkpt lat="43.757273" lon="11.4489289"><ele>280.0</ele><time>2026-05-03T15:52:21.594Z</time></trkpt><trkpt lat="43.7571655" lon="11.4490282"><ele>279.0</ele><time>2026-05-03T15:52:22.593Z</time></trkpt><trkpt lat="43.7570518" lon="11.4491295"><ele>278.0</ele><time>2026-05-03T15:52:23.594Z</time></trkpt><trkpt lat="43.7569343" lon="11.4492268"><ele>277.0</ele><time>2026-05-03T15:52:24.594Z</time></trkpt><trkpt lat="43.756813" lon="11.449319"><ele>276.0</ele><time>2026-05-03T15:52:25.594Z</time></trkpt><trkpt lat="43.7566923" lon="11.4494069"><ele>274.75</ele><time>2026-05-03T15:52:26.594Z</time></trkpt><trkpt lat="43.7565732" lon="11.449497"><ele>273.5</ele><time>2026-05-03T15:52:27.594Z</time></trkpt><trkpt lat="43.7564541" lon="11.4495853"><ele>272.25</ele><time>2026-05-03T15:52:28.594Z</time></trkpt><trkpt lat="43.7563328" lon="11.4496774"><ele>271.0</ele><time>2026-05-03T15:52:29.594Z</time></trkpt><trkpt lat="43.7562118" lon="11.4497686"><ele>269.5</ele><time>2026-05-03T15:52:30.594Z</time></trkpt><trkpt lat="43.7560874" lon="11.44986"><ele>268.0</ele><time>2026-05-03T15:52:31.594Z</time></trkpt><trkpt lat="43.7559636" lon="11.4499506"><ele>266.5</ele><time>2026-05-03T15:52:32.594Z</time></trkpt><trkpt lat="43.755838" lon="11.4500308"><ele>265.0</ele><time>2026-05-03T15:52:33.594Z</time></trkpt><trkpt lat="43.7557135" lon="11.4501048"><ele>265.0</ele><time>2026-05-03T15:52:34.594Z</time></trkpt><trkpt lat="43.7555886" lon="11.4501687"><ele>265.0</ele><time>2026-05-03T15:52:35.594Z</time></trkpt><trkpt lat="43.7554622" lon="11.4502188"><ele>265.0</ele><time>2026-05-03T15:52:36.594Z</time></trkpt><trkpt lat="43.7553369" lon="11.4502655"><ele>265.0</ele><time>2026-05-03T15:52:37.593Z</time></trkpt><trkpt lat="43.7552182" lon="11.450296"><ele>265.75</ele><time>2026-05-03T15:52:38.594Z</time></trkpt><trkpt lat="43.755102" lon="11.450305"><ele>266.5</ele><time>2026-05-03T15:52:39.594Z</time></trkpt><trkpt lat="43.7549937" lon="11.4502844"><ele>267.25</ele><time>2026-05-03T15:52:40.594Z</time></trkpt><trkpt lat="43.7548867" lon="11.4502386"><ele>268.0</ele><time>2026-05-03T15:52:41.594Z</time></trkpt><trkpt lat="43.7547877" lon="11.4501665"><ele>268.0</ele><time>2026-05-03T15:52:42.594Z</time></trkpt><trkpt lat="43.7546979" lon="11.4500756"><ele>268.0</ele><time>2026-05-03T15:52:43.593Z</time></trkpt><trkpt lat="43.7546139" lon="11.4499759"><ele>268.0</ele><time>2026-05-03T15:52:44.594Z</time></trkpt><trkpt lat="43.7545241" lon="11.4498827"><ele>268.0</ele><time>2026-05-03T15:52:45.594Z</time></trkpt><trkpt lat="43.7544235" lon="11.4497975"><ele>267.0</ele><time>2026-05-03T15:52:46.594Z</time></trkpt><trkpt lat="43.7543139" lon="11.4497262"><ele>266.0</ele><time>2026-05-03T15:52:47.594Z</time></trkpt><trkpt lat="43.7542" lon="11.4496656"><ele>265.0</ele><time>2026-05-03T15:52:48.594Z</time></trkpt><trkpt lat="43.7540829" lon="11.4495996"><ele>264.0</ele><time>2026-05-03T15:52:49.594Z</time></trkpt><trkpt lat="43.753973" lon="11.4495346"><ele>264.0</ele><time>2026-05-03T15:52:50.594Z</time></trkpt><trkpt lat="43.7538693" lon="11.4494819"><ele>264.0</ele><time>2026-05-03T15:52:51.594Z</time></trkpt><trkpt lat="43.7537644" lon="11.4494529"><ele>264.0</ele><time>2026-05-03T15:52:52.594Z</time></trkpt><trkpt lat="43.7536585" lon="11.4494518"><ele>264.0</ele><time>2026-05-03T15:52:53.594Z</time></trkpt><trkpt lat="43.7535397" lon="11.4494844"><ele>264.0</ele><time>2026-05-03T15:52:54.594Z</time></trkpt><trkpt lat="43.7534266" lon="11.4495378"><ele>264.25</ele><time>2026-05-03T15:52:55.594Z</time></trkpt><trkpt lat="43.7533117" lon="11.4496077"><ele>264.5</ele><time>2026-05-03T15:52:56.594Z</time></trkpt><trkpt lat="43.7531935" lon="11.4496788"><ele>264.75</ele><time>2026-05-03T15:52:57.594Z</time></trkpt><trkpt lat="43.7530699" lon="11.4497583"><ele>265.0</ele><time>2026-05-03T15:52:58.594Z</time></trkpt><trkpt lat="43.752944" lon="11.4498224"><ele>266.0</ele><time>2026-05-03T15:52:59.593Z</time></trkpt><trkpt lat="43.7528153" lon="11.4498832"><ele>267.0</ele><time>2026-05-03T15:53:00.594Z</time></trkpt><trkpt lat="43.7526775" lon="11.4499318"><ele>268.0</ele><time>2026-05-03T15:53:01.593Z</time></trkpt><trkpt lat="43.7525437" lon="11.4499781"><ele>269.0</ele><time>2026-05-03T15:53:02.594Z</time></trkpt><trkpt lat="43.7524065" lon="11.4500244"><ele>269.0</ele><time>2026-05-03T15:53:03.594Z</time></trkpt><trkpt lat="43.7522669" lon="11.4500643"><ele>269.0</ele><time>2026-05-03T15:53:04.594Z</time></trkpt><trkpt lat="43.7521297" lon="11.4501037"><ele>269.0</ele><time>2026-05-03T15:53:05.594Z</time></trkpt><trkpt lat="43.7519955" lon="11.4501333"><ele>269.0</ele><time>2026-05-03T15:53:06.593Z</time></trkpt><trkpt lat="43.7518564" lon="11.4501421"><ele>268.0</ele><time>2026-05-03T15:53:07.594Z</time></trkpt><trkpt lat="43.7517181" lon="11.4501328"><ele>267.0</ele><time>2026-05-03T15:53:08.594Z</time></trkpt><trkpt lat="43.7515834" lon="11.4501269"><ele>266.0</ele><time>2026-05-03T15:53:09.593Z</time></trkpt><trkpt lat="43.7514481" lon="11.4501066"><ele>265.0</ele><time>2026-05-03T15:53:10.594Z</time></trkpt><trkpt lat="43.7513135" lon="11.4500785"><ele>265.0</ele><time>2026-05-03T15:53:11.594Z</time></trkpt><trkpt lat="43.7511775" lon="11.4500362"><ele>265.0</ele><time>2026-05-03T15:53:12.593Z</time></trkpt><trkpt lat="43.7510429" lon="11.4499937"><ele>265.0</ele><time>2026-05-03T15:53:13.593Z</time></trkpt><trkpt lat="43.750909" lon="11.4499496"><ele>265.0</ele><time>2026-05-03T15:53:14.594Z</time></trkpt><trkpt lat="43.750773" lon="11.449915"><ele>265.25</ele><time>2026-05-03T15:53:15.594Z</time></trkpt><trkpt lat="43.7506307" lon="11.4498899"><ele>265.5</ele><time>2026-05-03T15:53:16.594Z</time></trkpt><trkpt lat="43.7504878" lon="11.4498693"><ele>265.75</ele><time>2026-05-03T15:53:17.594Z</time></trkpt><trkpt lat="43.7503386" lon="11.449853"><ele>266.0</ele><time>2026-05-03T15:53:18.594Z</time></trkpt><trkpt lat="43.7501887" lon="11.4498459"><ele>264.75</ele><time>2026-05-03T15:53:19.594Z</time></trkpt><trkpt lat="43.7500389" lon="11.4498282"><ele>263.5</ele><time>2026-05-03T15:53:20.594Z</time></trkpt><trkpt lat="43.7498907" lon="11.4498113"><ele>262.25</ele><time>2026-05-03T15:53:21.594Z</time></trkpt><trkpt lat="43.7497435" lon="11.4497906"><ele>261.0</ele><time>2026-05-03T15:53:22.594Z</time></trkpt><trkpt lat="43.7496002" lon="11.4497691"><ele>261.0</ele><time>2026-05-03T15:53:23.594Z</time></trkpt><trkpt lat="43.749459" lon="11.4497379"><ele>261.0</ele><time>2026-05-03T15:53:24.594Z</time></trkpt><trkpt lat="43.7493199" lon="11.4496894"><ele>261.0</ele><time>2026-05-03T15:53:25.594Z</time></trkpt><trkpt lat="43.7491867" lon="11.4496214"><ele>261.0</ele><time>2026-05-03T15:53:26.594Z</time></trkpt><trkpt lat="43.7490597" lon="11.4495382"><ele>259.5</ele><time>2026-05-03T15:53:27.594Z</time></trkpt><trkpt lat="43.748939" lon="11.4494472"><ele>258.0</ele><time>2026-05-03T15:53:28.593Z</time></trkpt><trkpt lat="43.7488279" lon="11.4493484"><ele>256.5</ele><time>2026-05-03T15:53:29.594Z</time></trkpt><trkpt lat="43.7487198" lon="11.4492403"><ele>255.0</ele><time>2026-05-03T15:53:30.594Z</time></trkpt><trkpt lat="43.7486101" lon="11.4491408"><ele>257.25</ele><time>2026-05-03T15:53:31.594Z</time></trkpt><trkpt lat="43.7484979" lon="11.4490547"><ele>259.5</ele><time>2026-05-03T15:53:32.594Z</time></trkpt><trkpt lat="43.7483814" lon="11.4489774"><ele>261.75</ele><time>2026-05-03T15:53:33.594Z</time></trkpt><trkpt lat="43.7482576" lon="11.448916"><ele>264.0</ele><time>2026-05-03T15:53:34.594Z</time></trkpt><trkpt lat="43.7481295" lon="11.4488677"><ele>264.0</ele><time>2026-05-03T15:53:35.593Z</time></trkpt><trkpt lat="43.7479985" lon="11.4488231"><ele>264.0</ele><time>2026-05-03T15:53:36.593Z</time></trkpt><trkpt lat="43.7478655" lon="11.4487831"><ele>264.0</ele><time>2026-05-03T15:53:37.594Z</time></trkpt><trkpt lat="43.747733" lon="11.448742"><ele>264.0</ele><time>2026-05-03T15:53:38.593Z</time></trkpt><trkpt lat="43.7476013" lon="11.4486921"><ele>263.0</ele><time>2026-05-03T15:53:39.594Z</time></trkpt><trkpt lat="43.7474766" lon="11.448632"><ele>262.0</ele><time>2026-05-03T15:53:40.594Z</time></trkpt><trkpt lat="43.7473628" lon="11.4485606"><ele>261.0</ele><time>2026-05-03T15:53:41.593Z</time></trkpt><trkpt lat="43.7472582" lon="11.4484676"><ele>260.0</ele><time>2026-05-03T15:53:42.594Z</time></trkpt><trkpt lat="43.7471644" lon="11.4483558"><ele>260.0</ele><time>2026-05-03T15:53:43.593Z</time></trkpt><trkpt lat="43.7470844" lon="11.4482289"><ele>260.0</ele><time>2026-05-03T15:53:44.594Z</time></trkpt><trkpt lat="43.7470157" lon="11.448095"><ele>260.0</ele><time>2026-05-03T15:53:45.594Z</time></trkpt><trkpt lat="43.7469582" lon="11.4479425"><ele>260.0</ele><time>2026-05-03T15:53:46.594Z</time></trkpt><trkpt lat="43.7469145" lon="11.4477889"><ele>262.0</ele><time>2026-05-03T15:53:47.593Z</time></trkpt><trkpt lat="43.7468863" lon="11.4476313"><ele>264.0</ele><time>2026-05-03T15:53:48.594Z</time></trkpt><trkpt lat="43.7468647" lon="11.4474716"><ele>266.0</ele><time>2026-05-03T15:53:49.594Z</time></trkpt><trkpt lat="43.7468415" lon="11.4472979"><ele>268.0</ele><time>2026-05-03T15:53:50.594Z</time></trkpt><trkpt lat="43.7468191" lon="11.4471287"><ele>267.5</ele><time>2026-05-03T15:53:51.593Z</time></trkpt><trkpt lat="43.7467969" lon="11.4469569"><ele>267.0</ele><time>2026-05-03T15:53:52.593Z</time></trkpt><trkpt lat="43.7467765" lon="11.446793"><ele>266.5</ele><time>2026-05-03T15:53:53.594Z</time></trkpt><trkpt lat="43.7467494" lon="11.446629"><ele>266.0</ele><time>2026-05-03T15:53:54.594Z</time></trkpt><trkpt lat="43.7467094" lon="11.4464744"><ele>266.0</ele><time>2026-05-03T15:53:55.593Z</time></trkpt><trkpt lat="43.7466517" lon="11.4463321"><ele>266.0</ele><time>2026-05-03T15:53:56.594Z</time></trkpt><trkpt lat="43.746576" lon="11.4462084"><ele>266.0</ele><time>2026-05-03T15:53:57.593Z</time></trkpt><trkpt lat="43.7464845" lon="11.4461025"><ele>266.0</ele><time>2026-05-03T15:53:58.594Z</time></trkpt><trkpt lat="43.746375" lon="11.4460275"><ele>265.5</ele><time>2026-05-03T15:53:59.594Z</time></trkpt><trkpt lat="43.7462593" lon="11.4459741"><ele>265.0</ele><time>2026-05-03T15:54:00.594Z</time></trkpt><trkpt lat="43.7461412" lon="11.4459239"><ele>264.5</ele><time>2026-05-03T15:54:01.594Z</time></trkpt><trkpt lat="43.7460178" lon="11.445869"><ele>264.0</ele><time>2026-05-03T15:54:02.594Z</time></trkpt><trkpt lat="43.7459004" lon="11.4458216"><ele>264.0</ele><time>2026-05-03T15:54:03.594Z</time></trkpt><trkpt lat="43.7457907" lon="11.4457702"><ele>264.0</ele><time>2026-05-03T15:54:04.594Z</time></trkpt><trkpt lat="43.7456863" lon="11.4457088"><ele>264.0</ele><time>2026-05-03T15:54:05.594Z</time></trkpt><trkpt lat="43.7455894" lon="11.4456409"><ele>264.0</ele><time>2026-05-03T15:54:06.594Z</time></trkpt><trkpt lat="43.7455051" lon="11.4455624"><ele>264.0</ele><time>2026-05-03T15:54:07.593Z</time></trkpt><trkpt lat="43.7454231" lon="11.445477"><ele>263.59999999999997</ele><time>2026-05-03T15:54:08.594Z</time></trkpt><trkpt lat="43.7453519" lon="11.4453986"><ele>263.2</ele><time>2026-05-03T15:54:09.594Z</time></trkpt><trkpt lat="43.7452799" lon="11.4453091"><ele>262.79999999999995</ele><time>2026-05-03T15:54:10.594Z</time></trkpt><trkpt lat="43.7452167" lon="11.4452177"><ele>262.4</ele><time>2026-05-03T15:54:11.594Z</time></trkpt><trkpt lat="43.7451444" lon="11.4451252"><ele>262.0</ele><time>2026-05-03T15:54:12.594Z</time></trkpt><trkpt lat="43.7450799" lon="11.445037"><ele>262.0</ele><time>2026-05-03T15:54:13.594Z</time></trkpt><trkpt lat="43.7450142" lon="11.4449414"><ele>262.0</ele><time>2026-05-03T15:54:14.593Z</time></trkpt><trkpt lat="43.7449491" lon="11.4448424"><ele>262.0</ele><time>2026-05-03T15:54:15.594Z</time></trkpt><trkpt lat="43.7448843" lon="11.4447478"><ele>262.0</ele><time>2026-05-03T15:54:16.594Z</time></trkpt><trkpt lat="43.7448146" lon="11.4446581"><ele>262.0</ele><time>2026-05-03T15:54:17.593Z</time></trkpt><trkpt lat="43.7447406" lon="11.4445746"><ele>262.2</ele><time>2026-05-03T15:54:18.594Z</time></trkpt><trkpt lat="43.7446574" lon="11.4445126"><ele>262.4</ele><time>2026-05-03T15:54:19.593Z</time></trkpt><trkpt lat="43.7445661" lon="11.4444351"><ele>262.6</ele><time>2026-05-03T15:54:20.594Z</time></trkpt><trkpt lat="43.7444707" lon="11.4443667"><ele>262.8</ele><time>2026-05-03T15:54:21.594Z</time></trkpt><trkpt lat="43.7443696" lon="11.4443032"><ele>263.0</ele><time>2026-05-03T15:54:22.594Z</time></trkpt><trkpt lat="43.7442687" lon="11.4442524"><ele>261.6</ele><time>2026-05-03T15:54:23.594Z</time></trkpt><trkpt lat="43.7441629" lon="11.4441958"><ele>260.20000000000005</ele><time>2026-05-03T15:54:24.594Z</time></trkpt><trkpt lat="43.7440574" lon="11.444151"><ele>258.8</ele><time>2026-05-03T15:54:25.594Z</time></trkpt><trkpt lat="43.7439511" lon="11.4441072"><ele>257.40000000000003</ele><time>2026-05-03T15:54:26.594Z</time></trkpt><trkpt lat="43.7438431" lon="11.444058"><ele>256.0</ele><time>2026-05-03T15:54:27.594Z</time></trkpt><trkpt lat="43.7437297" lon="11.4440076"><ele>256.0</ele><time>2026-05-03T15:54:28.594Z</time></trkpt><trkpt lat="43.7436164" lon="11.4439592"><ele>256.0</ele><time>2026-05-03T15:54:29.594Z</time></trkpt><trkpt lat="43.7435027" lon="11.4439053"><ele>256.0</ele><time>2026-05-03T15:54:30.593Z</time></trkpt><trkpt lat="43.7433857" lon="11.4438538"><ele>256.0</ele><time>2026-05-03T15:54:31.593Z</time></trkpt><trkpt lat="43.7432696" lon="11.443798"><ele>256.5</ele><time>2026-05-03T15:54:32.593Z</time></trkpt><trkpt lat="43.7431489" lon="11.4437421"><ele>257.0</ele><time>2026-05-03T15:54:33.594Z</time></trkpt><trkpt lat="43.7430242" lon="11.4436837"><ele>257.5</ele><time>2026-05-03T15:54:34.594Z</time></trkpt><trkpt lat="43.7429017" lon="11.4436293"><ele>258.0</ele><time>2026-05-03T15:54:35.594Z</time></trkpt><trkpt lat="43.7427802" lon="11.4435778"><ele>259.25</ele><time>2026-05-03T15:54:36.594Z</time></trkpt><trkpt lat="43.7426559" lon="11.4435235"><ele>260.5</ele><time>2026-05-03T15:54:37.594Z</time></trkpt><trkpt lat="43.7425309" lon="11.4434698"><ele>261.75</ele><time>2026-05-03T15:54:38.593Z</time></trkpt><trkpt lat="43.7424017" lon="11.443416"><ele>263.0</ele><time>2026-05-03T15:54:39.594Z</time></trkpt><trkpt lat="43.7422732" lon="11.4433572"><ele>263.0</ele><time>2026-05-03T15:54:40.594Z</time></trkpt><trkpt lat="43.7421423" lon="11.4432925"><ele>263.0</ele><time>2026-05-03T15:54:41.594Z</time></trkpt><trkpt lat="43.7420111" lon="11.4432238"><ele>263.0</ele><time>2026-05-03T15:54:42.594Z</time></trkpt><trkpt lat="43.7418756" lon="11.4431517"><ele>263.0</ele><time>2026-05-03T15:54:43.594Z</time></trkpt><trkpt lat="43.7417381" lon="11.4430768"><ele>263.0</ele><time>2026-05-03T15:54:44.594Z</time></trkpt><trkpt lat="43.7415965" lon="11.4429965"><ele>263.0</ele><time>2026-05-03T15:54:45.594Z</time></trkpt><trkpt lat="43.7414545" lon="11.4429142"><ele>263.0</ele><time>2026-05-03T15:54:46.594Z</time></trkpt><trkpt lat="43.7413061" lon="11.44283"><ele>263.33333333333337</ele><time>2026-05-03T15:54:47.593Z</time></trkpt><trkpt lat="43.7411571" lon="11.4427473"><ele>263.6666666666667</ele><time>2026-05-03T15:54:48.594Z</time></trkpt><trkpt lat="43.7410057" lon="11.4426655"><ele>264.0</ele><time>2026-05-03T15:54:49.594Z</time></trkpt><trkpt lat="43.7408547" lon="11.4425809"><ele>262.0</ele><time>2026-05-03T15:54:50.594Z</time></trkpt><trkpt lat="43.740706" lon="11.4424912"><ele>260.0</ele><time>2026-05-03T15:54:51.594Z</time></trkpt><trkpt lat="43.7405584" lon="11.4423944"><ele>258.0</ele><time>2026-05-03T15:54:52.594Z</time></trkpt><trkpt lat="43.7404191" lon="11.4422866"><ele>258.0</ele><time>2026-05-03T15:54:53.594Z</time></trkpt><trkpt lat="43.7402848" lon="11.4421643"><ele>258.0</ele><time>2026-05-03T15:54:54.594Z</time></trkpt><trkpt lat="43.7401512" lon="11.4420296"><ele>258.0</ele><time>2026-05-03T15:54:55.593Z</time></trkpt><trkpt lat="43.7400178" lon="11.441894"><ele>258.6666666666667</ele><time>2026-05-03T15:54:56.593Z</time></trkpt><trkpt lat="43.7398782" lon="11.4417545"><ele>259.33333333333337</ele><time>2026-05-03T15:54:57.593Z</time></trkpt><trkpt lat="43.739742" lon="11.4416132"><ele>260.0</ele><time>2026-05-03T15:54:58.593Z</time></trkpt><trkpt lat="43.739606" lon="11.4414741"><ele>260.0</ele><time>2026-05-03T15:54:59.594Z</time></trkpt><trkpt lat="43.7394698" lon="11.4413298"><ele>260.0</ele><time>2026-05-03T15:55:00.594Z</time></trkpt><trkpt lat="43.7393371" lon="11.441192"><ele>260.0</ele><time>2026-05-03T15:55:01.594Z</time></trkpt><trkpt lat="43.7392019" lon="11.4410548"><ele>261.0</ele><time>2026-05-03T15:55:02.594Z</time></trkpt><trkpt lat="43.7390658" lon="11.4409227"><ele>262.0</ele><time>2026-05-03T15:55:03.594Z</time></trkpt><trkpt lat="43.7389281" lon="11.4407899"><ele>263.0</ele><time>2026-05-03T15:55:04.593Z</time></trkpt><trkpt lat="43.7387943" lon="11.4406647"><ele>263.0</ele><time>2026-05-03T15:55:05.593Z</time></trkpt><trkpt lat="43.7386638" lon="11.4405355"><ele>263.0</ele><time>2026-05-03T15:55:06.594Z</time></trkpt><trkpt lat="43.7385327" lon="11.4404072"><ele>263.0</ele><time>2026-05-03T15:55:07.594Z</time></trkpt><trkpt lat="43.738405" lon="11.4402828"><ele>263.6666666666667</ele><time>2026-05-03T15:55:08.594Z</time></trkpt><trkpt lat="43.7382777" lon="11.4401583"><ele>264.3333333333333</ele><time>2026-05-03T15:55:09.594Z</time></trkpt><trkpt lat="43.7381533" lon="11.4400339"><ele>265.0</ele><time>2026-05-03T15:55:10.594Z</time></trkpt><trkpt lat="43.7380315" lon="11.4399092"><ele>265.0</ele><time>2026-05-03T15:55:11.594Z</time></trkpt><trkpt lat="43.7379138" lon="11.439786"><ele>265.0</ele><time>2026-05-03T15:55:12.594Z</time></trkpt><trkpt lat="43.7377984" lon="11.439658"><ele>265.0</ele><time>2026-05-03T15:55:13.593Z</time></trkpt><trkpt lat="43.7376895" lon="11.4395202"><ele>265.0</ele><time>2026-05-03T15:55:14.594Z</time></trkpt><trkpt lat="43.7375891" lon="11.4393726"><ele>264.5</ele><time>2026-05-03T15:55:15.594Z</time></trkpt><trkpt lat="43.7375014" lon="11.4392148"><ele>264.0</ele><time>2026-05-03T15:55:16.593Z</time></trkpt><trkpt lat="43.7374181" lon="11.4390426"><ele>263.5</ele><time>2026-05-03T15:55:17.594Z</time></trkpt><trkpt lat="43.7373346" lon="11.4388674"><ele>263.0</ele><time>2026-05-03T15:55:18.594Z</time></trkpt><trkpt lat="43.7372447" lon="11.4386941"><ele>263.0</ele><time>2026-05-03T15:55:19.593Z</time></trkpt><trkpt lat="43.7371478" lon="11.4385353"><ele>263.0</ele><time>2026-05-03T15:55:20.594Z</time></trkpt><trkpt lat="43.7370397" lon="11.4383905"><ele>263.0</ele><time>2026-05-03T15:55:21.594Z</time></trkpt><trkpt lat="43.7369229" lon="11.4382641"><ele>263.0</ele><time>2026-05-03T15:55:22.594Z</time></trkpt><trkpt lat="43.7368018" lon="11.4381488"><ele>262.75</ele><time>2026-05-03T15:55:23.594Z</time></trkpt><trkpt lat="43.7366849" lon="11.438036"><ele>262.5</ele><time>2026-05-03T15:55:24.594Z</time></trkpt><trkpt lat="43.7365715" lon="11.4379252"><ele>262.25</ele><time>2026-05-03T15:55:25.594Z</time></trkpt><trkpt lat="43.7364566" lon="11.4378097"><ele>262.0</ele><time>2026-05-03T15:55:26.593Z</time></trkpt><trkpt lat="43.7363437" lon="11.4376916"><ele>261.75</ele><time>2026-05-03T15:55:27.594Z</time></trkpt><trkpt lat="43.7362292" lon="11.4375716"><ele>261.5</ele><time>2026-05-03T15:55:28.594Z</time></trkpt><trkpt lat="43.7361136" lon="11.437453"><ele>261.25</ele><time>2026-05-03T15:55:29.594Z</time></trkpt><trkpt lat="43.7359986" lon="11.4373368"><ele>261.0</ele><time>2026-05-03T15:55:30.594Z</time></trkpt><trkpt lat="43.7358814" lon="11.4372248"><ele>262.0</ele><time>2026-05-03T15:55:31.593Z</time></trkpt><trkpt lat="43.735767" lon="11.4371128"><ele>263.0</ele><time>2026-05-03T15:55:32.594Z</time></trkpt><trkpt lat="43.7356542" lon="11.4370011"><ele>264.0</ele><time>2026-05-03T15:55:33.593Z</time></trkpt><trkpt lat="43.7355482" lon="11.4368779"><ele>265.0</ele><time>2026-05-03T15:55:34.594Z</time></trkpt><trkpt lat="43.735449" lon="11.4367423"><ele>265.0</ele><time>2026-05-03T15:55:35.594Z</time></trkpt><trkpt lat="43.7353455" lon="11.4366096"><ele>265.0</ele><time>2026-05-03T15:55:36.594Z</time></trkpt><trkpt lat="43.7352435" lon="11.436485"><ele>265.0</ele><time>2026-05-03T15:55:37.594Z</time></trkpt><trkpt lat="43.7351323" lon="11.4363712"><ele>265.0</ele><time>2026-05-03T15:55:38.594Z</time></trkpt><trkpt lat="43.7350156" lon="11.4362693"><ele>265.5</ele><time>2026-05-03T15:55:39.594Z</time></trkpt><trkpt lat="43.7348954" lon="11.4361878"><ele>266.0</ele><time>2026-05-03T15:55:40.594Z</time></trkpt><trkpt lat="43.7347678" lon="11.4361317"><ele>266.5</ele><time>2026-05-03T15:55:41.593Z</time></trkpt><trkpt lat="43.7346348" lon="11.4361018"><ele>267.0</ele><time>2026-05-03T15:55:42.593Z</time></trkpt><trkpt lat="43.7344974" lon="11.4360892"><ele>267.5</ele><time>2026-05-03T15:55:43.594Z</time></trkpt><trkpt lat="43.7343606" lon="11.4360927"><ele>268.0</ele><time>2026-05-03T15:55:44.593Z</time></trkpt><trkpt lat="43.7342229" lon="11.4360955"><ele>268.5</ele><time>2026-05-03T15:55:45.594Z</time></trkpt><trkpt lat="43.734086" lon="11.436101"><ele>269.0</ele><time>2026-05-03T15:55:46.594Z</time></trkpt><trkpt lat="43.7339502" lon="11.4361117"><ele>269.0</ele><time>2026-05-03T15:55:47.594Z</time></trkpt><trkpt lat="43.73382" lon="11.4361207"><ele>269.0</ele><time>2026-05-03T15:55:48.594Z</time></trkpt><trkpt lat="43.733687" lon="11.436138"><ele>269.0</ele><time>2026-05-03T15:55:49.594Z</time></trkpt><trkpt lat="43.7335579" lon="11.4361592"><ele>269.0</ele><time>2026-05-03T15:55:50.594Z</time></trkpt><trkpt lat="43.7334264" lon="11.4361706"><ele>268.75</ele><time>2026-05-03T15:55:51.594Z</time></trkpt><trkpt lat="43.7332906" lon="11.4361789"><ele>268.5</ele><time>2026-05-03T15:55:52.594Z</time></trkpt><trkpt lat="43.7331506" lon="11.4361881"><ele>268.25</ele><time>2026-05-03T15:55:53.594Z</time></trkpt><trkpt lat="43.7330156" lon="11.436201"><ele>268.0</ele><time>2026-05-03T15:55:54.593Z</time></trkpt><trkpt lat="43.7328814" lon="11.4362112"><ele>268.0</ele><time>2026-05-03T15:55:55.594Z</time></trkpt><trkpt lat="43.7327561" lon="11.436222"><ele>268.0</ele><time>2026-05-03T15:55:56.594Z</time></trkpt><trkpt lat="43.7326403" lon="11.4362439"><ele>268.0</ele><time>2026-05-03T15:55:57.594Z</time></trkpt><trkpt lat="43.7325311" lon="11.4362786"><ele>268.0</ele><time>2026-05-03T15:55:58.594Z</time></trkpt><trkpt lat="43.7324288" lon="11.4363414"><ele>266.5</ele><time>2026-05-03T15:55:59.594Z</time></trkpt><trkpt lat="43.7323327" lon="11.4364297"><ele>265.0</ele><time>2026-05-03T15:56:00.593Z</time></trkpt><trkpt lat="43.7322495" lon="11.4365351"><ele>263.5</ele><time>2026-05-03T15:56:01.594Z</time></trkpt><trkpt lat="43.732177" lon="11.4366556"><ele>262.0</ele><time>2026-05-03T15:56:02.594Z</time></trkpt><trkpt lat="43.7321304" lon="11.4367986"><ele>262.0</ele><time>2026-05-03T15:56:03.593Z</time></trkpt><trkpt lat="43.732106" lon="11.4369521"><ele>262.0</ele><time>2026-05-03T15:56:04.593Z</time></trkpt><trkpt lat="43.7320996" lon="11.4371125"><ele>262.0</ele><time>2026-05-03T15:56:05.594Z</time></trkpt><trkpt lat="43.7321081" lon="11.4372687"><ele>262.0</ele><time>2026-05-03T15:56:06.594Z</time></trkpt><trkpt lat="43.7321247" lon="11.4374272"><ele>262.25</ele><time>2026-05-03T15:56:07.594Z</time></trkpt><trkpt lat="43.7321426" lon="11.4375948"><ele>262.5</ele><time>2026-05-03T15:56:08.594Z</time></trkpt><trkpt lat="43.7321565" lon="11.4377632"><ele>262.75</ele><time>2026-05-03T15:56:09.594Z</time></trkpt><trkpt lat="43.7321752" lon="11.4379368"><ele>263.0</ele><time>2026-05-03T15:56:10.593Z</time></trkpt><trkpt lat="43.7321934" lon="11.4381148"><ele>263.0</ele><time>2026-05-03T15:56:11.594Z</time></trkpt><trkpt lat="43.7322087" lon="11.4382988"><ele>263.0</ele><time>2026-05-03T15:56:12.594Z</time></trkpt><trkpt lat="43.7322205" lon="11.4384816"><ele>263.0</ele><time>2026-05-03T15:56:13.594Z</time></trkpt><trkpt lat="43.7322303" lon="11.4386647"><ele>263.0</ele><time>2026-05-03T15:56:14.594Z</time></trkpt><trkpt lat="43.732242" lon="11.4388496"><ele>264.0</ele><time>2026-05-03T15:56:15.594Z</time></trkpt><trkpt lat="43.7322554" lon="11.4390407"><ele>265.0</ele><time>2026-05-03T15:56:16.594Z</time></trkpt><trkpt lat="43.7322653" lon="11.4392282"><ele>266.0</ele><time>2026-05-03T15:56:17.594Z</time></trkpt><trkpt lat="43.732276" lon="11.4394165"><ele>267.0</ele><time>2026-05-03T15:56:18.593Z</time></trkpt><trkpt lat="43.7322846" lon="11.4396033"><ele>268.5</ele><time>2026-05-03T15:56:19.594Z</time></trkpt><trkpt lat="43.7322947" lon="11.4397876"><ele>270.0</ele><time>2026-05-03T15:56:20.594Z</time></trkpt><trkpt lat="43.732307" lon="11.4399625"><ele>271.5</ele><time>2026-05-03T15:56:21.593Z</time></trkpt><trkpt lat="43.7323162" lon="11.4401204"><ele>273.0</ele><time>2026-05-03T15:56:22.594Z</time></trkpt><trkpt lat="43.7323226" lon="11.4402552"><ele>273.0</ele><time>2026-05-03T15:56:23.594Z</time></trkpt><trkpt lat="43.7323253" lon="11.4403673"><ele>273.0</ele><time>2026-05-03T15:56:24.594Z</time></trkpt><trkpt lat="43.732301" lon="11.4404644"><ele>273.0</ele><time>2026-05-03T15:56:25.594Z</time></trkpt><trkpt lat="43.7322519" lon="11.4405257"><ele>273.0</ele><time>2026-05-03T15:56:26.593Z</time></trkpt><trkpt lat="43.732145" lon="11.4405734"><ele>273.0</ele><time>2026-05-03T15:56:28.594Z</time></trkpt><trkpt lat="43.7320668" lon="11.44047"><ele>273.0</ele><time>2026-05-03T15:56:29.594Z</time></trkpt><trkpt lat="43.7320015" lon="11.4403955"><ele>273.0</ele><time>2026-05-03T15:56:30.594Z</time></trkpt><trkpt lat="43.7319314" lon="11.4403056"><ele>273.0</ele><time>2026-05-03T15:56:31.594Z</time></trkpt><trkpt lat="43.7318616" lon="11.4402124"><ele>273.0</ele><time>2026-05-03T15:56:32.594Z</time></trkpt><trkpt lat="43.7317949" lon="11.4401103"><ele>273.0</ele><time>2026-05-03T15:56:33.594Z</time></trkpt><trkpt lat="43.7317309" lon="11.4400098"><ele>273.0</ele><time>2026-05-03T15:56:34.594Z</time></trkpt><trkpt lat="43.7316682" lon="11.4398925"><ele>275.0</ele><time>2026-05-03T15:56:35.593Z</time></trkpt><trkpt lat="43.7316115" lon="11.4397763"><ele>277.0</ele><time>2026-05-03T15:56:36.594Z</time></trkpt><trkpt lat="43.7315571" lon="11.4396593"><ele>279.0</ele><time>2026-05-03T15:56:37.594Z</time></trkpt><trkpt lat="43.7314986" lon="11.4395341"><ele>281.0</ele><time>2026-05-03T15:56:38.593Z</time></trkpt><trkpt lat="43.7314424" lon="11.4394088"><ele>283.0</ele><time>2026-05-03T15:56:39.594Z</time></trkpt><trkpt lat="43.731384" lon="11.4392871"><ele>283.0</ele><time>2026-05-03T15:56:40.593Z</time></trkpt><trkpt lat="43.731325" lon="11.4391605"><ele>283.0</ele><time>2026-05-03T15:56:41.594Z</time></trkpt><trkpt lat="43.7312689" lon="11.4390302"><ele>283.0</ele><time>2026-05-03T15:56:42.594Z</time></trkpt><trkpt lat="43.7312122" lon="11.4388966"><ele>283.0</ele><time>2026-05-03T15:56:43.594Z</time></trkpt><trkpt lat="43.7311541" lon="11.438763"><ele>283.0</ele><time>2026-05-03T15:56:44.594Z</time></trkpt><trkpt lat="43.7310973" lon="11.4386292"><ele>285.5</ele><time>2026-05-03T15:56:45.594Z</time></trkpt><trkpt lat="43.7310379" lon="11.4384929"><ele>288.0</ele><time>2026-05-03T15:56:46.593Z</time></trkpt><trkpt lat="43.7309789" lon="11.4383592"><ele>290.5</ele><time>2026-05-03T15:56:47.594Z</time></trkpt><trkpt lat="43.7309164" lon="11.4382265"><ele>293.0</ele><time>2026-05-03T15:56:48.594Z</time></trkpt><trkpt lat="43.7308484" lon="11.4380917"><ele>293.0</ele><time>2026-05-03T15:56:49.594Z</time></trkpt><trkpt lat="43.7307795" lon="11.4379702"><ele>293.0</ele><time>2026-05-03T15:56:50.594Z</time></trkpt><trkpt lat="43.7307061" lon="11.4378481"><ele>293.0</ele><time>2026-05-03T15:56:51.594Z</time></trkpt><trkpt lat="43.7306262" lon="11.4377302"><ele>293.0</ele><time>2026-05-03T15:56:52.594Z</time></trkpt><trkpt lat="43.7305423" lon="11.437618"><ele>292.25</ele><time>2026-05-03T15:56:53.594Z</time></trkpt><trkpt lat="43.7304596" lon="11.4375002"><ele>291.5</ele><time>2026-05-03T15:56:54.594Z</time></trkpt><trkpt lat="43.7303782" lon="11.4373921"><ele>290.75</ele><time>2026-05-03T15:56:55.594Z</time></trkpt><trkpt lat="43.7302985" lon="11.4372836"><ele>290.0</ele><time>2026-05-03T15:56:56.594Z</time></trkpt><trkpt lat="43.7302163" lon="11.4371781"><ele>292.6</ele><time>2026-05-03T15:56:57.593Z</time></trkpt><trkpt lat="43.7301356" lon="11.4370729"><ele>295.2</ele><time>2026-05-03T15:56:58.594Z</time></trkpt><trkpt lat="43.7300663" lon="11.4369607"><ele>297.8</ele><time>2026-05-03T15:56:59.594Z</time></trkpt><trkpt lat="43.7300129" lon="11.4368298"><ele>300.4</ele><time>2026-05-03T15:57:00.594Z</time></trkpt><trkpt lat="43.7299682" lon="11.436692"><ele>303.0</ele><time>2026-05-03T15:57:01.594Z</time></trkpt><trkpt lat="43.7299225" lon="11.4365581"><ele>303.0</ele><time>2026-05-03T15:57:02.594Z</time></trkpt><trkpt lat="43.7298796" lon="11.4364171"><ele>303.0</ele><time>2026-05-03T15:57:03.594Z</time></trkpt><trkpt lat="43.7298338" lon="11.4362784"><ele>303.0</ele><time>2026-05-03T15:57:04.594Z</time></trkpt><trkpt lat="43.7297945" lon="11.4361326"><ele>303.0</ele><time>2026-05-03T15:57:05.593Z</time></trkpt><trkpt lat="43.7297659" lon="11.4359824"><ele>303.0</ele><time>2026-05-03T15:57:06.594Z</time></trkpt><trkpt lat="43.7297402" lon="11.4358134"><ele>302.0</ele><time>2026-05-03T15:57:07.594Z</time></trkpt><trkpt lat="43.7297197" lon="11.4356515"><ele>301.0</ele><time>2026-05-03T15:57:08.594Z</time></trkpt><trkpt lat="43.7297019" lon="11.4354967"><ele>300.0</ele><time>2026-05-03T15:57:09.594Z</time></trkpt><trkpt lat="43.7296859" lon="11.4353331"><ele>299.0</ele><time>2026-05-03T15:57:10.594Z</time></trkpt><trkpt lat="43.7296582" lon="11.4351928"><ele>298.59999999999997</ele><time>2026-05-03T15:57:11.593Z</time></trkpt><trkpt lat="43.7296153" lon="11.4350537"><ele>298.2</ele><time>2026-05-03T15:57:12.594Z</time></trkpt><trkpt lat="43.7295551" lon="11.4349344"><ele>297.79999999999995</ele><time>2026-05-03T15:57:13.594Z</time></trkpt><trkpt lat="43.7294856" lon="11.4348223"><ele>297.4</ele><time>2026-05-03T15:57:14.594Z</time></trkpt><trkpt lat="43.7294115" lon="11.4347131"><ele>297.0</ele><time>2026-05-03T15:57:15.594Z</time></trkpt><trkpt lat="43.7293334" lon="11.4346074"><ele>300.75</ele><time>2026-05-03T15:57:16.594Z</time></trkpt><trkpt lat="43.7292547" lon="11.4344946"><ele>304.5</ele><time>2026-05-03T15:57:17.593Z</time></trkpt><trkpt lat="43.7291689" lon="11.4343938"><ele>308.25</ele><time>2026-05-03T15:57:18.593Z</time></trkpt><trkpt lat="43.7290781" lon="11.4342933"><ele>312.0</ele><time>2026-05-03T15:57:19.594Z</time></trkpt><trkpt lat="43.7289868" lon="11.4342081"><ele>312.0</ele><time>2026-05-03T15:57:20.593Z</time></trkpt><trkpt lat="43.7288835" lon="11.4341285"><ele>312.0</ele><time>2026-05-03T15:57:21.593Z</time></trkpt><trkpt lat="43.7287827" lon="11.4340514"><ele>312.0</ele><time>2026-05-03T15:57:22.594Z</time></trkpt><trkpt lat="43.7286832" lon="11.4340063"><ele>312.0</ele><time>2026-05-03T15:57:23.594Z</time></trkpt><trkpt lat="43.7285837" lon="11.4339742"><ele>312.0</ele><time>2026-05-03T15:57:24.594Z</time></trkpt><trkpt lat="43.7284808" lon="11.4339427"><ele>310.8</ele><time>2026-05-03T15:57:25.594Z</time></trkpt><trkpt lat="43.7283749" lon="11.4339129"><ele>309.6</ele><time>2026-05-03T15:57:26.594Z</time></trkpt><trkpt lat="43.7282682" lon="11.4338668"><ele>308.40000000000003</ele><time>2026-05-03T15:57:27.594Z</time></trkpt><trkpt lat="43.7281651" lon="11.4338169"><ele>307.2</ele><time>2026-05-03T15:57:28.594Z</time></trkpt><trkpt lat="43.7280649" lon="11.4337492"><ele>306.0</ele><time>2026-05-03T15:57:29.593Z</time></trkpt><trkpt lat="43.727967" lon="11.4336615"><ele>306.0</ele><time>2026-05-03T15:57:30.594Z</time></trkpt><trkpt lat="43.7278725" lon="11.4335634"><ele>306.0</ele><time>2026-05-03T15:57:31.593Z</time></trkpt><trkpt lat="43.7277814" lon="11.433466"><ele>306.0</ele><time>2026-05-03T15:57:32.594Z</time></trkpt><trkpt lat="43.7276925" lon="11.4333603"><ele>306.0</ele><time>2026-05-03T15:57:33.594Z</time></trkpt><trkpt lat="43.7276046" lon="11.4332551"><ele>307.0</ele><time>2026-05-03T15:57:34.594Z</time></trkpt><trkpt lat="43.7275251" lon="11.4331438"><ele>308.0</ele><time>2026-05-03T15:57:35.593Z</time></trkpt><trkpt lat="43.7274543" lon="11.4330277"><ele>309.0</ele><time>2026-05-03T15:57:36.594Z</time></trkpt><trkpt lat="43.7273899" lon="11.4329032"><ele>310.0</ele><time>2026-05-03T15:57:37.594Z</time></trkpt><trkpt lat="43.7273318" lon="11.4327723"><ele>311.0</ele><time>2026-05-03T15:57:38.594Z</time></trkpt><trkpt lat="43.7272721" lon="11.4326444"><ele>311.0</ele><time>2026-05-03T15:57:39.593Z</time></trkpt><trkpt lat="43.7272153" lon="11.4325154"><ele>311.0</ele><time>2026-05-03T15:57:40.594Z</time></trkpt><trkpt lat="43.7271524" lon="11.4323874"><ele>311.0</ele><time>2026-05-03T15:57:41.593Z</time></trkpt><trkpt lat="43.7270819" lon="11.432261"><ele>311.0</ele><time>2026-05-03T15:57:42.594Z</time></trkpt><trkpt lat="43.7270103" lon="11.4321472"><ele>311.0</ele><time>2026-05-03T15:57:43.594Z</time></trkpt><trkpt lat="43.7269356" lon="11.432036"><ele>313.0</ele><time>2026-05-03T15:57:44.594Z</time></trkpt><trkpt lat="43.7268589" lon="11.4319265"><ele>315.0</ele><time>2026-05-03T15:57:45.594Z</time></trkpt><trkpt lat="43.7267819" lon="11.4318154"><ele>317.0</ele><time>2026-05-03T15:57:46.594Z</time></trkpt><trkpt lat="43.726709" lon="11.4317082"><ele>319.0</ele><time>2026-05-03T15:57:47.593Z</time></trkpt><trkpt lat="43.7266383" lon="11.4316035"><ele>321.0</ele><time>2026-05-03T15:57:48.594Z</time></trkpt><trkpt lat="43.7265716" lon="11.4315078"><ele>321.0</ele><time>2026-05-03T15:57:49.594Z</time></trkpt><trkpt lat="43.7265066" lon="11.4314135"><ele>321.0</ele><time>2026-05-03T15:57:50.594Z</time></trkpt><trkpt lat="43.7264439" lon="11.4313084"><ele>321.0</ele><time>2026-05-03T15:57:51.594Z</time></trkpt><trkpt lat="43.726384" lon="11.4311926"><ele>321.0</ele><time>2026-05-03T15:57:52.594Z</time></trkpt><trkpt lat="43.7263271" lon="11.4310669"><ele>321.0</ele><time>2026-05-03T15:57:53.594Z</time></trkpt><trkpt lat="43.7262784" lon="11.4309316"><ele>319.2</ele><time>2026-05-03T15:57:54.594Z</time></trkpt><trkpt lat="43.7262335" lon="11.430791"><ele>317.40000000000003</ele><time>2026-05-03T15:57:55.594Z</time></trkpt><trkpt lat="43.726194" lon="11.4306558"><ele>315.6</ele><time>2026-05-03T15:57:56.594Z</time></trkpt><trkpt lat="43.7261616" lon="11.4305345"><ele>313.8</ele><time>2026-05-03T15:57:57.593Z</time></trkpt><trkpt lat="43.7261269" lon="11.4304104"><ele>312.0</ele><time>2026-05-03T15:57:58.593Z</time></trkpt><trkpt lat="43.7260976" lon="11.4303008"><ele>313.6666666666667</ele><time>2026-05-03T15:57:59.594Z</time></trkpt><trkpt lat="43.7260602" lon="11.4301959"><ele>315.3333333333333</ele><time>2026-05-03T15:58:00.593Z</time></trkpt><trkpt lat="43.7260244" lon="11.4300975"><ele>317.0</ele><time>2026-05-03T15:58:01.594Z</time></trkpt><trkpt lat="43.7259867" lon="11.43001"><ele>318.66666666666663</ele><time>2026-05-03T15:58:02.594Z</time></trkpt><trkpt lat="43.7259495" lon="11.4299226"><ele>320.3333333333333</ele><time>2026-05-03T15:58:03.593Z</time></trkpt><trkpt lat="43.7259071" lon="11.4298346"><ele>322.0</ele><time>2026-05-03T15:58:04.594Z</time></trkpt><trkpt lat="43.7258588" lon="11.4297398"><ele>322.40000000000003</ele><time>2026-05-03T15:58:05.594Z</time></trkpt><trkpt lat="43.7258067" lon="11.4296383"><ele>322.8</ele><time>2026-05-03T15:58:06.593Z</time></trkpt><trkpt lat="43.7257496" lon="11.4295288"><ele>323.2</ele><time>2026-05-03T15:58:07.594Z</time></trkpt><trkpt lat="43.7256902" lon="11.4294144"><ele>323.6</ele><time>2026-05-03T15:58:08.594Z</time></trkpt><trkpt lat="43.7256313" lon="11.4292893"><ele>324.0</ele><time>2026-05-03T15:58:09.594Z</time></trkpt><trkpt lat="43.7255706" lon="11.4291573"><ele>324.0</ele><time>2026-05-03T15:58:10.593Z</time></trkpt><trkpt lat="43.7255124" lon="11.4290248"><ele>324.0</ele><time>2026-05-03T15:58:11.594Z</time></trkpt><trkpt lat="43.7254571" lon="11.428898"><ele>324.0</ele><time>2026-05-03T15:58:12.594Z</time></trkpt><trkpt lat="43.7254049" lon="11.4287736"><ele>324.0</ele><time>2026-05-03T15:58:13.594Z</time></trkpt><trkpt lat="43.7253534" lon="11.4286453"><ele>324.0</ele><time>2026-05-03T15:58:14.593Z</time></trkpt><trkpt lat="43.7253" lon="11.4285173"><ele>322.8</ele><time>2026-05-03T15:58:15.594Z</time></trkpt><trkpt lat="43.7252467" lon="11.4283906"><ele>321.59999999999997</ele><time>2026-05-03T15:58:16.594Z</time></trkpt><trkpt lat="43.725192" lon="11.4282643"><ele>320.4</ele><time>2026-05-03T15:58:17.594Z</time></trkpt><trkpt lat="43.7251391" lon="11.4281382"><ele>319.2</ele><time>2026-05-03T15:58:18.593Z</time></trkpt><trkpt lat="43.7250858" lon="11.4280061"><ele>318.0</ele><time>2026-05-03T15:58:19.594Z</time></trkpt><trkpt lat="43.7250342" lon="11.427875"><ele>320.8</ele><time>2026-05-03T15:58:20.593Z</time></trkpt><trkpt lat="43.724987" lon="11.4277498"><ele>323.6</ele><time>2026-05-03T15:58:21.593Z</time></trkpt><trkpt lat="43.7249358" lon="11.4276174"><ele>326.40000000000003</ele><time>2026-05-03T15:58:22.594Z</time></trkpt><trkpt lat="43.7248821" lon="11.4274897"><ele>329.20000000000005</ele><time>2026-05-03T15:58:23.594Z</time></trkpt><trkpt lat="43.7248226" lon="11.4273542"><ele>332.0</ele><time>2026-05-03T15:58:24.593Z</time></trkpt><trkpt lat="43.7247565" lon="11.4272227"><ele>331.75</ele><time>2026-05-03T15:58:25.594Z</time></trkpt><trkpt lat="43.7246897" lon="11.4270853"><ele>331.5</ele><time>2026-05-03T15:58:26.594Z</time></trkpt><trkpt lat="43.724619" lon="11.4269471"><ele>331.25</ele><time>2026-05-03T15:58:27.594Z</time></trkpt><trkpt lat="43.724547" lon="11.426804"><ele>331.0</ele><time>2026-05-03T15:58:28.593Z</time></trkpt><trkpt lat="43.724474" lon="11.4266635"><ele>331.0</ele><time>2026-05-03T15:58:29.594Z</time></trkpt><trkpt lat="43.7244059" lon="11.4265229"><ele>331.0</ele><time>2026-05-03T15:58:30.594Z</time></trkpt><trkpt lat="43.7243441" lon="11.4263819"><ele>331.0</ele><time>2026-05-03T15:58:31.594Z</time></trkpt><trkpt lat="43.7242913" lon="11.4262434"><ele>331.0</ele><time>2026-05-03T15:58:32.594Z</time></trkpt><trkpt lat="43.7242425" lon="11.426105"><ele>333.4</ele><time>2026-05-03T15:58:33.594Z</time></trkpt><trkpt lat="43.7242003" lon="11.4259576"><ele>335.8</ele><time>2026-05-03T15:58:34.594Z</time></trkpt><trkpt lat="43.724162" lon="11.4258151"><ele>338.2</ele><time>2026-05-03T15:58:35.594Z</time></trkpt><trkpt lat="43.7241344" lon="11.425683"><ele>340.59999999999997</ele><time>2026-05-03T15:58:36.594Z</time></trkpt><trkpt lat="43.7241203" lon="11.4255402"><ele>343.0</ele><time>2026-05-03T15:58:37.593Z</time></trkpt><trkpt lat="43.7241125" lon="11.4253971"><ele>344.79999999999995</ele><time>2026-05-03T15:58:38.593Z</time></trkpt><trkpt lat="43.7241124" lon="11.4252508"><ele>346.6</ele><time>2026-05-03T15:58:39.594Z</time></trkpt><trkpt lat="43.7241164" lon="11.4250999"><ele>348.4</ele><time>2026-05-03T15:58:40.594Z</time></trkpt><trkpt lat="43.7241291" lon="11.4249521"><ele>350.20000000000005</ele><time>2026-05-03T15:58:41.594Z</time></trkpt><trkpt lat="43.7241499" lon="11.4248038"><ele>352.0</ele><time>2026-05-03T15:58:42.594Z</time></trkpt><trkpt lat="43.7241851" lon="11.42466"><ele>354.20000000000005</ele><time>2026-05-03T15:58:43.594Z</time></trkpt><trkpt lat="43.7242375" lon="11.4245251"><ele>356.4</ele><time>2026-05-03T15:58:44.594Z</time></trkpt><trkpt lat="43.7243018" lon="11.4243981"><ele>358.6</ele><time>2026-05-03T15:58:45.594Z</time></trkpt><trkpt lat="43.7243757" lon="11.4242832"><ele>360.79999999999995</ele><time>2026-05-03T15:58:46.593Z</time></trkpt><trkpt lat="43.7244564" lon="11.4241803"><ele>363.0</ele><time>2026-05-03T15:58:47.593Z</time></trkpt><trkpt lat="43.7245506" lon="11.4240938"><ele>364.75</ele><time>2026-05-03T15:58:48.594Z</time></trkpt><trkpt lat="43.724652" lon="11.4240168"><ele>366.5</ele><time>2026-05-03T15:58:49.594Z</time></trkpt><trkpt lat="43.7247613" lon="11.4239758"><ele>368.25</ele><time>2026-05-03T15:58:50.593Z</time></trkpt><trkpt lat="43.724874" lon="11.4239306"><ele>370.0</ele><time>2026-05-03T15:58:51.594Z</time></trkpt><trkpt lat="43.7249824" lon="11.4238903"><ele>370.0</ele><time>2026-05-03T15:58:52.594Z</time></trkpt><trkpt lat="43.7250843" lon="11.4238457"><ele>370.0</ele><time>2026-05-03T15:58:53.593Z</time></trkpt><trkpt lat="43.7251808" lon="11.4237988"><ele>370.0</ele><time>2026-05-03T15:58:54.594Z</time></trkpt><trkpt lat="43.725265" lon="11.4237426"><ele>370.0</ele><time>2026-05-03T15:58:55.594Z</time></trkpt><trkpt lat="43.7253309" lon="11.423677"><ele>370.0</ele><time>2026-05-03T15:58:56.593Z</time></trkpt><trkpt lat="43.7253841" lon="11.4235951"><ele>370.5</ele><time>2026-05-03T15:58:57.594Z</time></trkpt><trkpt lat="43.7254255" lon="11.4235013"><ele>371.0</ele><time>2026-05-03T15:58:58.594Z</time></trkpt><trkpt lat="43.7254387" lon="11.42339"><ele>371.5</ele><time>2026-05-03T15:58:59.594Z</time></trkpt><trkpt lat="43.7254377" lon="11.4232746"><ele>372.0</ele><time>2026-05-03T15:59:00.594Z</time></trkpt><trkpt lat="43.7254281" lon="11.4231451"><ele>372.5</ele><time>2026-05-03T15:59:01.593Z</time></trkpt><trkpt lat="43.7254172" lon="11.4230055"><ele>373.0</ele><time>2026-05-03T15:59:02.594Z</time></trkpt><trkpt lat="43.7254126" lon="11.4228606"><ele>373.5</ele><time>2026-05-03T15:59:03.593Z</time></trkpt><trkpt lat="43.7254189" lon="11.4227061"><ele>374.0</ele><time>2026-05-03T15:59:04.594Z</time></trkpt><trkpt lat="43.7254417" lon="11.4225423"><ele>374.5</ele><time>2026-05-03T15:59:05.594Z</time></trkpt><trkpt lat="43.7254828" lon="11.4223817"><ele>375.0</ele><time>2026-05-03T15:59:06.593Z</time></trkpt><trkpt lat="43.7255389" lon="11.4222307"><ele>377.25</ele><time>2026-05-03T15:59:07.594Z</time></trkpt><trkpt lat="43.7256051" lon="11.4220804"><ele>379.5</ele><time>2026-05-03T15:59:08.594Z</time></trkpt><trkpt lat="43.7256745" lon="11.4219396"><ele>381.75</ele><time>2026-05-03T15:59:09.594Z</time></trkpt><trkpt lat="43.7257428" lon="11.4217993"><ele>384.0</ele><time>2026-05-03T15:59:10.594Z</time></trkpt><trkpt lat="43.7258171" lon="11.4216606"><ele>384.0</ele><time>2026-05-03T15:59:11.594Z</time></trkpt><trkpt lat="43.7258912" lon="11.4215189"><ele>384.0</ele><time>2026-05-03T15:59:12.593Z</time></trkpt><trkpt lat="43.725963" lon="11.4213751"><ele>384.0</ele><time>2026-05-03T15:59:13.594Z</time></trkpt><trkpt lat="43.7260353" lon="11.4212297"><ele>384.0</ele><time>2026-05-03T15:59:14.594Z</time></trkpt><trkpt lat="43.7261065" lon="11.4210812"><ele>384.0</ele><time>2026-05-03T15:59:15.594Z</time></trkpt><trkpt lat="43.7261806" lon="11.4209359"><ele>384.0</ele><time>2026-05-03T15:59:16.593Z</time></trkpt><trkpt lat="43.7262551" lon="11.420794"><ele>384.0</ele><time>2026-05-03T15:59:17.593Z</time></trkpt><trkpt lat="43.726322" lon="11.4206649"><ele>384.0</ele><time>2026-05-03T15:59:18.594Z</time></trkpt><trkpt lat="43.7263838" lon="11.4205422"><ele>385.2</ele><time>2026-05-03T15:59:19.594Z</time></trkpt><trkpt lat="43.726443" lon="11.4204266"><ele>386.4</ele><time>2026-05-03T15:59:20.594Z</time></trkpt><trkpt lat="43.7264997" lon="11.4203223"><ele>387.6</ele><time>2026-05-03T15:59:21.594Z</time></trkpt><trkpt lat="43.7265625" lon="11.4202194"><ele>388.8</ele><time>2026-05-03T15:59:22.593Z</time></trkpt><trkpt lat="43.7266375" lon="11.4201287"><ele>390.0</ele><time>2026-05-03T15:59:23.594Z</time></trkpt><trkpt lat="43.7267405" lon="11.4200736"><ele>390.0</ele><time>2026-05-03T15:59:24.594Z</time></trkpt><trkpt lat="43.7268516" lon="11.4200509"><ele>390.0</ele><time>2026-05-03T15:59:25.594Z</time></trkpt><trkpt lat="43.7269665" lon="11.4200335"><ele>390.0</ele><time>2026-05-03T15:59:26.594Z</time></trkpt><trkpt lat="43.727086" lon="11.4200122"><ele>390.0</ele><time>2026-05-03T15:59:27.594Z</time></trkpt><trkpt lat="43.7272063" lon="11.419993"><ele>390.25</ele><time>2026-05-03T15:59:28.594Z</time></trkpt><trkpt lat="43.7273281" lon="11.4199703"><ele>390.5</ele><time>2026-05-03T15:59:29.594Z</time></trkpt><trkpt lat="43.7274547" lon="11.4199402"><ele>390.75</ele><time>2026-05-03T15:59:30.593Z</time></trkpt><trkpt lat="43.7275814" lon="11.4199142"><ele>391.0</ele><time>2026-05-03T15:59:31.593Z</time></trkpt><trkpt lat="43.7277078" lon="11.419894"><ele>392.0</ele><time>2026-05-03T15:59:32.594Z</time></trkpt><trkpt lat="43.7278366" lon="11.4198704"><ele>393.0</ele><time>2026-05-03T15:59:33.593Z</time></trkpt><trkpt lat="43.7279606" lon="11.4198502"><ele>394.0</ele><time>2026-05-03T15:59:34.594Z</time></trkpt><trkpt lat="43.7280848" lon="11.4198277"><ele>395.0</ele><time>2026-05-03T15:59:35.594Z</time></trkpt><trkpt lat="43.7282038" lon="11.4198085"><ele>395.0</ele><time>2026-05-03T15:59:36.594Z</time></trkpt><trkpt lat="43.7283106" lon="11.4197943"><ele>395.0</ele><time>2026-05-03T15:59:37.593Z</time></trkpt><trkpt lat="43.7284144" lon="11.4197804"><ele>395.0</ele><time>2026-05-03T15:59:38.594Z</time></trkpt><trkpt lat="43.7285219" lon="11.4197691"><ele>395.0</ele><time>2026-05-03T15:59:39.594Z</time></trkpt><trkpt lat="43.7286306" lon="11.4197609"><ele>395.0</ele><time>2026-05-03T15:59:40.594Z</time></trkpt><trkpt lat="43.7287389" lon="11.4197518"><ele>394.75</ele><time>2026-05-03T15:59:41.594Z</time></trkpt><trkpt lat="43.7288629" lon="11.4197407"><ele>394.5</ele><time>2026-05-03T15:59:42.594Z</time></trkpt><trkpt lat="43.7289825" lon="11.4197283"><ele>394.25</ele><time>2026-05-03T15:59:43.594Z</time></trkpt><trkpt lat="43.7291076" lon="11.4197084"><ele>394.0</ele><time>2026-05-03T15:59:44.594Z</time></trkpt><trkpt lat="43.7292326" lon="11.4196872"><ele>394.0</ele><time>2026-05-03T15:59:45.594Z</time></trkpt><trkpt lat="43.7293567" lon="11.4196588"><ele>394.0</ele><time>2026-05-03T15:59:46.593Z</time></trkpt><trkpt lat="43.7294816" lon="11.419613"><ele>394.0</ele><time>2026-05-03T15:59:47.594Z</time></trkpt><trkpt lat="43.7295973" lon="11.4195475"><ele>394.0</ele><time>2026-05-03T15:59:48.594Z</time></trkpt><trkpt lat="43.7297044" lon="11.4194713"><ele>392.5</ele><time>2026-05-03T15:59:49.594Z</time></trkpt><trkpt lat="43.7298025" lon="11.4193807"><ele>391.0</ele><time>2026-05-03T15:59:50.594Z</time></trkpt><trkpt lat="43.7298925" lon="11.4192761"><ele>389.5</ele><time>2026-05-03T15:59:51.594Z</time></trkpt><trkpt lat="43.7299697" lon="11.4191604"><ele>388.0</ele><time>2026-05-03T15:59:52.593Z</time></trkpt><trkpt lat="43.7300124" lon="11.419028"><ele>388.0</ele><time>2026-05-03T15:59:53.594Z</time></trkpt><trkpt lat="43.7300504" lon="11.4188837"><ele>388.0</ele><time>2026-05-03T15:59:54.593Z</time></trkpt><trkpt lat="43.7300599" lon="11.4187352"><ele>388.0</ele><time>2026-05-03T15:59:55.594Z</time></trkpt><trkpt lat="43.7300656" lon="11.4185796"><ele>388.0</ele><time>2026-05-03T15:59:56.593Z</time></trkpt><trkpt lat="43.7300658" lon="11.4184153"><ele>386.25</ele><time>2026-05-03T15:59:57.594Z</time></trkpt><trkpt lat="43.7300558" lon="11.4182501"><ele>384.5</ele><time>2026-05-03T15:59:58.594Z</time></trkpt><trkpt lat="43.7300517" lon="11.4180866"><ele>382.75</ele><time>2026-05-03T15:59:59.594Z</time></trkpt><trkpt lat="43.7300383" lon="11.4179171"><ele>381.0</ele><time>2026-05-03T16:00:00.593Z</time></trkpt><trkpt lat="43.7300223" lon="11.4177464"><ele>380.25</ele><time>2026-05-03T16:00:01.594Z</time></trkpt><trkpt lat="43.7299972" lon="11.4175827"><ele>379.5</ele><time>2026-05-03T16:00:02.594Z</time></trkpt><trkpt lat="43.7299708" lon="11.4174137"><ele>378.75</ele><time>2026-05-03T16:00:03.594Z</time></trkpt><trkpt lat="43.7299363" lon="11.4172427"><ele>378.0</ele><time>2026-05-03T16:00:04.594Z</time></trkpt><trkpt lat="43.7298981" lon="11.4170766"><ele>377.0</ele><time>2026-05-03T16:00:05.594Z</time></trkpt><trkpt lat="43.7298535" lon="11.4169155"><ele>376.0</ele><time>2026-05-03T16:00:06.594Z</time></trkpt><trkpt lat="43.7298061" lon="11.4167595"><ele>375.0</ele><time>2026-05-03T16:00:07.594Z</time></trkpt><trkpt lat="43.7297441" lon="11.4166114"><ele>374.0</ele><time>2026-05-03T16:00:08.593Z</time></trkpt><trkpt lat="43.7296929" lon="11.4164548"><ele>372.75</ele><time>2026-05-03T16:00:09.594Z</time></trkpt><trkpt lat="43.7296419" lon="11.416303"><ele>371.5</ele><time>2026-05-03T16:00:10.594Z</time></trkpt><trkpt lat="43.7295931" lon="11.4161538"><ele>370.25</ele><time>2026-05-03T16:00:11.593Z</time></trkpt><trkpt lat="43.7295467" lon="11.4160042"><ele>369.0</ele><time>2026-05-03T16:00:12.594Z</time></trkpt><trkpt lat="43.7294929" lon="11.4158613"><ele>369.0</ele><time>2026-05-03T16:00:13.593Z</time></trkpt><trkpt lat="43.7294359" lon="11.4157198"><ele>369.0</ele><time>2026-05-03T16:00:14.593Z</time></trkpt><trkpt lat="43.7293713" lon="11.4155826"><ele>369.0</ele><time>2026-05-03T16:00:15.594Z</time></trkpt><trkpt lat="43.7293047" lon="11.4154492"><ele>369.0</ele><time>2026-05-03T16:00:16.594Z</time></trkpt><trkpt lat="43.729234" lon="11.4153185"><ele>365.2</ele><time>2026-05-03T16:00:17.593Z</time></trkpt><trkpt lat="43.7291621" lon="11.4151953"><ele>361.4</ele><time>2026-05-03T16:00:18.594Z</time></trkpt><trkpt lat="43.7290851" lon="11.4150767"><ele>357.6</ele><time>2026-05-03T16:00:19.594Z</time></trkpt><trkpt lat="43.7290131" lon="11.4149771"><ele>353.8</ele><time>2026-05-03T16:00:20.594Z</time></trkpt><trkpt lat="43.7289458" lon="11.4148944"><ele>350.0</ele><time>2026-05-03T16:00:21.594Z</time></trkpt><trkpt lat="43.7288786" lon="11.4148139"><ele>350.0</ele><time>2026-05-03T16:00:22.593Z</time></trkpt><trkpt lat="43.7288112" lon="11.4147279"><ele>350.0</ele><time>2026-05-03T16:00:23.594Z</time></trkpt><trkpt lat="43.7287526" lon="11.4146262"><ele>350.0</ele><time>2026-05-03T16:00:24.594Z</time></trkpt><trkpt lat="43.7287086" lon="11.4145172"><ele>350.0</ele><time>2026-05-03T16:00:25.594Z</time></trkpt><trkpt lat="43.7286666" lon="11.414403"><ele>350.0</ele><time>2026-05-03T16:00:26.593Z</time></trkpt><trkpt lat="43.7286245" lon="11.4142916"><ele>348.6</ele><time>2026-05-03T16:00:27.594Z</time></trkpt><trkpt lat="43.7285738" lon="11.4141849"><ele>347.2</ele><time>2026-05-03T16:00:28.593Z</time></trkpt><trkpt lat="43.7285148" lon="11.4140785"><ele>345.79999999999995</ele><time>2026-05-03T16:00:29.594Z</time></trkpt><trkpt lat="43.7284507" lon="11.4139829"><ele>344.4</ele><time>2026-05-03T16:00:30.594Z</time></trkpt><trkpt lat="43.7283773" lon="11.4138909"><ele>343.0</ele><time>2026-05-03T16:00:31.594Z</time></trkpt><trkpt lat="43.7282882" lon="11.4138199"><ele>341.8333333333333</ele><time>2026-05-03T16:00:32.593Z</time></trkpt><trkpt lat="43.7282053" lon="11.4137523"><ele>340.66666666666663</ele><time>2026-05-03T16:00:33.594Z</time></trkpt><trkpt lat="43.7281234" lon="11.4136865"><ele>339.5</ele><time>2026-05-03T16:00:34.594Z</time></trkpt><trkpt lat="43.7280438" lon="11.4136256"><ele>338.3333333333333</ele><time>2026-05-03T16:00:35.594Z</time></trkpt><trkpt lat="43.7279717" lon="11.413565"><ele>337.1666666666667</ele><time>2026-05-03T16:00:36.594Z</time></trkpt><trkpt lat="43.7279108" lon="11.4135021"><ele>336.0</ele><time>2026-05-03T16:00:37.594Z</time></trkpt><trkpt lat="43.7278539" lon="11.4134172"><ele>336.0</ele><time>2026-05-03T16:00:38.594Z</time></trkpt><trkpt lat="43.7278239" lon="11.4133275"><ele>336.0</ele><time>2026-05-03T16:00:39.594Z</time></trkpt><trkpt lat="43.7278102" lon="11.4131942"><ele>336.0</ele><time>2026-05-03T16:00:40.594Z</time></trkpt><trkpt lat="43.7277974" lon="11.4130582"><ele>336.0</ele><time>2026-05-03T16:00:41.594Z</time></trkpt><trkpt lat="43.7277971" lon="11.4129097"><ele>336.0</ele><time>2026-05-03T16:00:42.593Z</time></trkpt><trkpt lat="43.7278089" lon="11.4127782"><ele>333.5</ele><time>2026-05-03T16:00:43.594Z</time></trkpt><trkpt lat="43.7278257" lon="11.4126314"><ele>331.0</ele><time>2026-05-03T16:00:44.594Z</time></trkpt><trkpt lat="43.7278478" lon="11.4124834"><ele>328.5</ele><time>2026-05-03T16:00:45.594Z</time></trkpt><trkpt lat="43.727869" lon="11.4123145"><ele>326.0</ele><time>2026-05-03T16:00:46.594Z</time></trkpt><trkpt lat="43.7278802" lon="11.4121519"><ele>324.0</ele><time>2026-05-03T16:00:47.594Z</time></trkpt><trkpt lat="43.7278882" lon="11.4119772"><ele>322.0</ele><time>2026-05-03T16:00:48.594Z</time></trkpt><trkpt lat="43.7278717" lon="11.4117946"><ele>320.0</ele><time>2026-05-03T16:00:49.594Z</time></trkpt><trkpt lat="43.7278354" lon="11.411607"><ele>318.0</ele><time>2026-05-03T16:00:50.594Z</time></trkpt><trkpt lat="43.7277986" lon="11.4114197"><ele>317.75</ele><time>2026-05-03T16:00:51.594Z</time></trkpt><trkpt lat="43.7277623" lon="11.4112306"><ele>317.5</ele><time>2026-05-03T16:00:52.593Z</time></trkpt><trkpt lat="43.7277163" lon="11.4110501"><ele>317.25</ele><time>2026-05-03T16:00:53.594Z</time></trkpt><trkpt lat="43.7276707" lon="11.4108668"><ele>317.0</ele><time>2026-05-03T16:00:54.594Z</time></trkpt><trkpt lat="43.7276272" lon="11.4106807"><ele>317.0</ele><time>2026-05-03T16:00:55.594Z</time></trkpt><trkpt lat="43.7275827" lon="11.4104954"><ele>317.0</ele><time>2026-05-03T16:00:56.593Z</time></trkpt><trkpt lat="43.7275423" lon="11.4103128"><ele>317.0</ele><time>2026-05-03T16:00:57.594Z</time></trkpt><trkpt lat="43.7275104" lon="11.410141"><ele>317.0</ele><time>2026-05-03T16:00:58.594Z</time></trkpt><trkpt lat="43.7274869" lon="11.4099807"><ele>315.5</ele><time>2026-05-03T16:00:59.593Z</time></trkpt><trkpt lat="43.7274731" lon="11.4098271"><ele>314.0</ele><time>2026-05-03T16:01:00.594Z</time></trkpt><trkpt lat="43.7274545" lon="11.4096608"><ele>312.5</ele><time>2026-05-03T16:01:01.593Z</time></trkpt><trkpt lat="43.727423" lon="11.4095187"><ele>311.0</ele><time>2026-05-03T16:01:02.594Z</time></trkpt><trkpt lat="43.7273703" lon="11.4093822"><ele>308.5</ele><time>2026-05-03T16:01:03.594Z</time></trkpt><trkpt lat="43.7272996" lon="11.4092557"><ele>306.0</ele><time>2026-05-03T16:01:04.594Z</time></trkpt><trkpt lat="43.7272322" lon="11.4091191"><ele>303.5</ele><time>2026-05-03T16:01:05.594Z</time></trkpt><trkpt lat="43.7271747" lon="11.4089705"><ele>301.0</ele><time>2026-05-03T16:01:06.594Z</time></trkpt><trkpt lat="43.7271276" lon="11.4088067"><ele>298.75</ele><time>2026-05-03T16:01:07.594Z</time></trkpt><trkpt lat="43.72709" lon="11.40862"><ele>296.5</ele><time>2026-05-03T16:01:08.594Z</time></trkpt><trkpt lat="43.7270532" lon="11.4084225"><ele>294.25</ele><time>2026-05-03T16:01:09.594Z</time></trkpt><trkpt lat="43.7270148" lon="11.4082187"><ele>292.0</ele><time>2026-05-03T16:01:10.594Z</time></trkpt><trkpt lat="43.7269751" lon="11.4080099"><ele>290.66666666666663</ele><time>2026-05-03T16:01:11.594Z</time></trkpt><trkpt lat="43.7269332" lon="11.4078004"><ele>289.3333333333333</ele><time>2026-05-03T16:01:12.594Z</time></trkpt><trkpt lat="43.7268944" lon="11.4075911"><ele>288.0</ele><time>2026-05-03T16:01:13.594Z</time></trkpt><trkpt lat="43.7268597" lon="11.4073906"><ele>288.0</ele><time>2026-05-03T16:01:14.594Z</time></trkpt><trkpt lat="43.726822" lon="11.4071928"><ele>288.0</ele><time>2026-05-03T16:01:15.593Z</time></trkpt><trkpt lat="43.726786" lon="11.4070019"><ele>288.0</ele><time>2026-05-03T16:01:16.594Z</time></trkpt><trkpt lat="43.7267548" lon="11.406827"><ele>288.0</ele><time>2026-05-03T16:01:17.593Z</time></trkpt><trkpt lat="43.726724" lon="11.4066733"><ele>287.5</ele><time>2026-05-03T16:01:18.594Z</time></trkpt><trkpt lat="43.7266986" lon="11.4065447"><ele>287.0</ele><time>2026-05-03T16:01:19.594Z</time></trkpt><trkpt lat="43.7266788" lon="11.406441"><ele>286.5</ele><time>2026-05-03T16:01:20.594Z</time></trkpt><trkpt lat="43.7266659" lon="11.4063066"><ele>286.0</ele><time>2026-05-03T16:01:22.594Z</time></trkpt><trkpt lat="43.7266618" lon="11.4061967"><ele>285.5</ele><time>2026-05-03T16:01:31.594Z</time></trkpt><trkpt lat="43.7266241" lon="11.4060827"><ele>285.0</ele><time>2026-05-03T16:01:33.594Z</time></trkpt><trkpt lat="43.7266031" lon="11.4059981"><ele>285.0</ele><time>2026-05-03T16:01:34.593Z</time></trkpt><trkpt lat="43.7265783" lon="11.4058965"><ele>285.0</ele><time>2026-05-03T16:01:35.594Z</time></trkpt><trkpt lat="43.7265523" lon="11.4057814"><ele>285.0</ele><time>2026-05-03T16:01:36.593Z</time></trkpt><trkpt lat="43.7265245" lon="11.4056468"><ele>285.0</ele><time>2026-05-03T16:01:37.593Z</time></trkpt><trkpt lat="43.726495" lon="11.4055013"><ele>285.0</ele><time>2026-05-03T16:01:38.594Z</time></trkpt><trkpt lat="43.7264645" lon="11.4053419"><ele>285.5</ele><time>2026-05-03T16:01:39.593Z</time></trkpt><trkpt lat="43.7264314" lon="11.4051708"><ele>286.0</ele><time>2026-05-03T16:01:40.594Z</time></trkpt><trkpt lat="43.726399" lon="11.404995"><ele>286.5</ele><time>2026-05-03T16:01:41.594Z</time></trkpt><trkpt lat="43.7263752" lon="11.4048275"><ele>287.0</ele><time>2026-05-03T16:01:42.594Z</time></trkpt><trkpt lat="43.7263561" lon="11.4046786"><ele>287.0</ele><time>2026-05-03T16:01:43.593Z</time></trkpt><trkpt lat="43.72635" lon="11.4045434"><ele>287.0</ele><time>2026-05-03T16:01:44.594Z</time></trkpt><trkpt lat="43.7263463" lon="11.4044348"><ele>287.0</ele><time>2026-05-03T16:01:45.594Z</time></trkpt><trkpt lat="43.7263464" lon="11.4043402"><ele>287.0</ele><time>2026-05-03T16:01:46.594Z</time></trkpt><trkpt lat="43.7263851" lon="11.4042239"><ele>287.0</ele><time>2026-05-03T16:01:48.594Z</time></trkpt><trkpt lat="43.726471" lon="11.4042138"><ele>287.0</ele><time>2026-05-03T16:01:50.593Z</time></trkpt><trkpt lat="43.7265417" lon="11.4042235"><ele>287.0</ele><time>2026-05-03T16:01:51.593Z</time></trkpt><trkpt lat="43.7266288" lon="11.404242"><ele>287.0</ele><time>2026-05-03T16:01:52.593Z</time></trkpt><trkpt lat="43.7267278" lon="11.4042567"><ele>287.0</ele><time>2026-05-03T16:01:53.594Z</time></trkpt><trkpt lat="43.7268361" lon="11.4042772"><ele>287.0</ele><time>2026-05-03T16:01:54.594Z</time></trkpt><trkpt lat="43.7269499" lon="11.4042947"><ele>287.0</ele><time>2026-05-03T16:01:55.594Z</time></trkpt><trkpt lat="43.7270654" lon="11.4043117"><ele>289.0</ele><time>2026-05-03T16:01:56.594Z</time></trkpt><trkpt lat="43.727189" lon="11.4043307"><ele>291.0</ele><time>2026-05-03T16:01:57.593Z</time></trkpt><trkpt lat="43.7273137" lon="11.4043478"><ele>293.0</ele><time>2026-05-03T16:01:58.594Z</time></trkpt><trkpt lat="43.727441" lon="11.404367"><ele>295.0</ele><time>2026-05-03T16:01:59.594Z</time></trkpt><trkpt lat="43.7275679" lon="11.4043849"><ele>295.0</ele><time>2026-05-03T16:02:00.594Z</time></trkpt><trkpt lat="43.7277007" lon="11.4043981"><ele>295.0</ele><time>2026-05-03T16:02:01.594Z</time></trkpt><trkpt lat="43.7278315" lon="11.4044122"><ele>295.0</ele><time>2026-05-03T16:02:02.594Z</time></trkpt><trkpt lat="43.7279633" lon="11.4044292"><ele>295.0</ele><time>2026-05-03T16:02:03.593Z</time></trkpt><trkpt lat="43.7280985" lon="11.4044472"><ele>297.25</ele><time>2026-05-03T16:02:04.594Z</time></trkpt><trkpt lat="43.7282365" lon="11.40447"><ele>299.5</ele><time>2026-05-03T16:02:05.594Z</time></trkpt><trkpt lat="43.7283796" lon="11.4044926"><ele>301.75</ele><time>2026-05-03T16:02:06.593Z</time></trkpt><trkpt lat="43.7285204" lon="11.4045117"><ele>304.0</ele><time>2026-05-03T16:02:07.594Z</time></trkpt><trkpt lat="43.7286634" lon="11.4045325"><ele>306.0</ele><time>2026-05-03T16:02:08.594Z</time></trkpt><trkpt lat="43.7287943" lon="11.4045523"><ele>308.0</ele><time>2026-05-03T16:02:09.593Z</time></trkpt><trkpt lat="43.7289178" lon="11.4045742"><ele>310.0</ele><time>2026-05-03T16:02:10.594Z</time></trkpt><trkpt lat="43.7290316" lon="11.4045949"><ele>312.0</ele><time>2026-05-03T16:02:11.593Z</time></trkpt><trkpt lat="43.7291382" lon="11.4046117"><ele>312.0</ele><time>2026-05-03T16:02:12.594Z</time></trkpt><trkpt lat="43.7292408" lon="11.4046319"><ele>312.0</ele><time>2026-05-03T16:02:13.593Z</time></trkpt><trkpt lat="43.729339" lon="11.4046445"><ele>312.0</ele><time>2026-05-03T16:02:14.594Z</time></trkpt><trkpt lat="43.7294366" lon="11.4046554"><ele>312.0</ele><time>2026-05-03T16:02:15.594Z</time></trkpt><trkpt lat="43.7295299" lon="11.4046623"><ele>312.0</ele><time>2026-05-03T16:02:16.594Z</time></trkpt><trkpt lat="43.7296294" lon="11.4046569"><ele>313.6</ele><time>2026-05-03T16:02:17.594Z</time></trkpt><trkpt lat="43.7297285" lon="11.4046491"><ele>315.2</ele><time>2026-05-03T16:02:18.594Z</time></trkpt><trkpt lat="43.7298296" lon="11.4046325"><ele>316.8</ele><time>2026-05-03T16:02:19.593Z</time></trkpt><trkpt lat="43.7299295" lon="11.4046103"><ele>318.4</ele><time>2026-05-03T16:02:20.594Z</time></trkpt><trkpt lat="43.7300357" lon="11.4045973"><ele>320.0</ele><time>2026-05-03T16:02:21.594Z</time></trkpt><trkpt lat="43.7301416" lon="11.4045772"><ele>321.4</ele><time>2026-05-03T16:02:22.594Z</time></trkpt><trkpt lat="43.7302492" lon="11.4045595"><ele>322.8</ele><time>2026-05-03T16:02:23.594Z</time></trkpt><trkpt lat="43.7303511" lon="11.4045476"><ele>324.20000000000005</ele><time>2026-05-03T16:02:24.594Z</time></trkpt><trkpt lat="43.7304495" lon="11.4045336"><ele>325.6</ele><time>2026-05-03T16:02:25.594Z</time></trkpt><trkpt lat="43.7305455" lon="11.4045257"><ele>327.0</ele><time>2026-05-03T16:02:26.594Z</time></trkpt><trkpt lat="43.7306351" lon="11.4045145"><ele>327.0</ele><time>2026-05-03T16:02:27.593Z</time></trkpt><trkpt lat="43.7307338" lon="11.4045023"><ele>327.0</ele><time>2026-05-03T16:02:28.594Z</time></trkpt><trkpt lat="43.7308376" lon="11.4044896"><ele>327.0</ele><time>2026-05-03T16:02:29.594Z</time></trkpt><trkpt lat="43.7309313" lon="11.4044773"><ele>327.0</ele><time>2026-05-03T16:02:30.594Z</time></trkpt><trkpt lat="43.731018" lon="11.4044622"><ele>327.0</ele><time>2026-05-03T16:02:31.594Z</time></trkpt><trkpt lat="43.731105" lon="11.4044552"><ele>327.6666666666667</ele><time>2026-05-03T16:02:32.594Z</time></trkpt><trkpt lat="43.7311966" lon="11.4044481"><ele>328.3333333333333</ele><time>2026-05-03T16:02:33.594Z</time></trkpt><trkpt lat="43.7312832" lon="11.4044344"><ele>329.0</ele><time>2026-05-03T16:02:34.593Z</time></trkpt><trkpt lat="43.7313688" lon="11.4044161"><ele>329.66666666666663</ele><time>2026-05-03T16:02:35.593Z</time></trkpt><trkpt lat="43.7314595" lon="11.4043955"><ele>330.3333333333333</ele><time>2026-05-03T16:02:36.594Z</time></trkpt><trkpt lat="43.7315471" lon="11.4043707"><ele>331.0</ele><time>2026-05-03T16:02:37.594Z</time></trkpt><trkpt lat="43.7316371" lon="11.4043499"><ele>331.0</ele><time>2026-05-03T16:02:38.594Z</time></trkpt><trkpt lat="43.7317225" lon="11.4043265"><ele>331.0</ele><time>2026-05-03T16:02:39.593Z</time></trkpt><trkpt lat="43.7318093" lon="11.4043069"><ele>331.0</ele><time>2026-05-03T16:02:40.594Z</time></trkpt><trkpt lat="43.7318886" lon="11.4042922"><ele>331.0</ele><time>2026-05-03T16:02:41.594Z</time></trkpt><trkpt lat="43.7319625" lon="11.4042631"><ele>331.0</ele><time>2026-05-03T16:02:42.594Z</time></trkpt><trkpt lat="43.7320333" lon="11.404232"><ele>331.0</ele><time>2026-05-03T16:02:43.593Z</time></trkpt><trkpt lat="43.7320986" lon="11.4041982"><ele>330.8571428571429</ele><time>2026-05-03T16:02:44.594Z</time></trkpt><trkpt lat="43.7321736" lon="11.4041618"><ele>330.7142857142857</ele><time>2026-05-03T16:02:45.594Z</time></trkpt><trkpt lat="43.7322467" lon="11.4041369"><ele>330.57142857142856</ele><time>2026-05-03T16:02:46.594Z</time></trkpt><trkpt lat="43.7323168" lon="11.4041222"><ele>330.42857142857144</ele><time>2026-05-03T16:02:47.594Z</time></trkpt><trkpt lat="43.7323888" lon="11.4041058"><ele>330.2857142857143</ele><time>2026-05-03T16:02:48.593Z</time></trkpt><trkpt lat="43.7324626" lon="11.4040902"><ele>330.14285714285717</ele><time>2026-05-03T16:02:49.594Z</time></trkpt><trkpt lat="43.7325302" lon="11.4040646"><ele>330.0</ele><time>2026-05-03T16:02:50.594Z</time></trkpt><trkpt lat="43.7326021" lon="11.4040475"><ele>330.0</ele><time>2026-05-03T16:02:51.594Z</time></trkpt><trkpt lat="43.7326663" lon="11.4040207"><ele>330.0</ele><time>2026-05-03T16:02:52.593Z</time></trkpt><trkpt lat="43.7327293" lon="11.4039928"><ele>330.0</ele><time>2026-05-03T16:02:53.594Z</time></trkpt><trkpt lat="43.7328282" lon="11.4039392"><ele>330.0</ele><time>2026-05-03T16:02:55.593Z</time></trkpt><trkpt lat="43.7329224" lon="11.4038956"><ele>330.0</ele><time>2026-05-03T16:02:57.594Z</time></trkpt><trkpt lat="43.7329827" lon="11.4038531"><ele>330.0</ele><time>2026-05-03T16:02:59.594Z</time></trkpt><trkpt lat="43.733054" lon="11.4038227"><ele>329.8333333333333</ele><time>2026-05-03T16:03:01.594Z</time></trkpt><trkpt lat="43.7331184" lon="11.4037991"><ele>329.6666666666667</ele><time>2026-05-03T16:03:03.593Z</time></trkpt><trkpt lat="43.7332062" lon="11.4037647"><ele>329.5</ele><time>2026-05-03T16:03:06.594Z</time></trkpt><trkpt lat="43.733285" lon="11.4037183"><ele>329.33333333333337</ele><time>2026-05-03T16:03:09.593Z</time></trkpt><trkpt lat="43.733361" lon="11.4036904"><ele>329.1666666666667</ele><time>2026-05-03T16:03:12.593Z</time></trkpt><trkpt lat="43.7334258" lon="11.4036662"><ele>329.0</ele><time>2026-05-03T16:03:14.594Z</time></trkpt><trkpt lat="43.7334952" lon="11.4036413"><ele>331.1666666666667</ele><time>2026-05-03T16:03:16.594Z</time></trkpt><trkpt lat="43.7335827" lon="11.4036097"><ele>333.33333333333337</ele><time>2026-05-03T16:03:19.594Z</time></trkpt><trkpt lat="43.7336716" lon="11.4035814"><ele>335.5</ele><time>2026-05-03T16:03:22.594Z</time></trkpt><trkpt lat="43.7337625" lon="11.403544"><ele>337.6666666666667</ele><time>2026-05-03T16:03:25.594Z</time></trkpt><trkpt lat="43.7338249" lon="11.403518"><ele>339.8333333333333</ele><time>2026-05-03T16:03:27.594Z</time></trkpt><trkpt lat="43.7338873" lon="11.4034864"><ele>342.0</ele><time>2026-05-03T16:03:29.594Z</time></trkpt><trkpt lat="43.7339479" lon="11.4034606"><ele>342.0</ele><time>2026-05-03T16:03:31.594Z</time></trkpt><trkpt lat="43.7340411" lon="11.4034326"><ele>342.0</ele><time>2026-05-03T16:03:34.594Z</time></trkpt><trkpt lat="43.7341034" lon="11.4034083"><ele>342.0</ele><time>2026-05-03T16:03:36.593Z</time></trkpt><trkpt lat="43.7341726" lon="11.4033891"><ele>342.0</ele><time>2026-05-03T16:03:38.594Z</time></trkpt><trkpt lat="43.7342561" lon="11.4033652"><ele>342.0</ele><time>2026-05-03T16:03:41.594Z</time></trkpt><trkpt lat="43.7343333" lon="11.4033174"><ele>342.0</ele><time>2026-05-03T16:03:44.593Z</time></trkpt><trkpt lat="43.7343928" lon="11.4032813"><ele>343.85714285714283</ele><time>2026-05-03T16:03:46.594Z</time></trkpt><trkpt lat="43.7344555" lon="11.4032598"><ele>345.7142857142857</ele><time>2026-05-03T16:03:48.594Z</time></trkpt><trkpt lat="43.7345159" lon="11.4032332"><ele>347.57142857142856</ele><time>2026-05-03T16:03:50.594Z</time></trkpt><trkpt lat="43.7345764" lon="11.403198"><ele>349.42857142857144</ele><time>2026-05-03T16:03:52.594Z</time></trkpt><trkpt lat="43.7346379" lon="11.4031641"><ele>351.2857142857143</ele><time>2026-05-03T16:03:54.594Z</time></trkpt><trkpt lat="43.7347029" lon="11.4031267"><ele>353.1428571428571</ele><time>2026-05-03T16:03:56.594Z</time></trkpt><trkpt lat="43.7347683" lon="11.4030865"><ele>355.0</ele><time>2026-05-03T16:03:58.594Z</time></trkpt><trkpt lat="43.7348348" lon="11.403044"><ele>355.0</ele><time>2026-05-03T16:04:00.594Z</time></trkpt><trkpt lat="43.7349074" lon="11.4030057"><ele>355.0</ele><time>2026-05-03T16:04:02.594Z</time></trkpt><trkpt lat="43.734977" lon="11.4029572"><ele>355.0</ele><time>2026-05-03T16:04:04.594Z</time></trkpt><trkpt lat="43.7350533" lon="11.4028935"><ele>355.0</ele><time>2026-05-03T16:04:06.594Z</time></trkpt><trkpt lat="43.7351351" lon="11.4028095"><ele>355.0</ele><time>2026-05-03T16:04:08.594Z</time></trkpt><trkpt lat="43.7352107" lon="11.4027267"><ele>355.0</ele><time>2026-05-03T16:04:10.594Z</time></trkpt><trkpt lat="43.7352808" lon="11.4026433"><ele>354.5</ele><time>2026-05-03T16:04:12.594Z</time></trkpt><trkpt lat="43.7353604" lon="11.4025657"><ele>354.0</ele><time>2026-05-03T16:04:14.594Z</time></trkpt><trkpt lat="43.7354367" lon="11.4024963"><ele>353.5</ele><time>2026-05-03T16:04:16.594Z</time></trkpt><trkpt lat="43.7354891" lon="11.4023751"><ele>353.0</ele><time>2026-05-03T16:04:18.594Z</time></trkpt><trkpt lat="43.7355281" lon="11.40228"><ele>352.5</ele><time>2026-05-03T16:04:20.594Z</time></trkpt><trkpt lat="43.7355196" lon="11.4021836"><ele>352.0</ele><time>2026-05-03T16:04:22.594Z</time></trkpt><trkpt lat="43.7354735" lon="11.4020784"><ele>352.0</ele><time>2026-05-03T16:04:24.594Z</time></trkpt><trkpt lat="43.7354178" lon="11.4019721"><ele>352.0</ele><time>2026-05-03T16:04:26.593Z</time></trkpt><trkpt lat="43.7353641" lon="11.4018691"><ele>352.0</ele><time>2026-05-03T16:04:28.594Z</time></trkpt><trkpt lat="43.735322" lon="11.4017569"><ele>352.0</ele><time>2026-05-03T16:04:30.594Z</time></trkpt><trkpt lat="43.7352742" lon="11.4016496"><ele>352.0</ele><time>2026-05-03T16:04:32.594Z</time></trkpt><trkpt lat="43.7352256" lon="11.4015494"><ele>351.0</ele><time>2026-05-03T16:04:34.594Z</time></trkpt><trkpt lat="43.7351927" lon="11.4014344"><ele>350.0</ele><time>2026-05-03T16:04:36.594Z</time></trkpt><trkpt lat="43.735173" lon="11.4013219"><ele>349.0</ele><time>2026-05-03T16:04:38.593Z</time></trkpt><trkpt lat="43.735163" lon="11.4012158"><ele>348.0</ele><time>2026-05-03T16:04:40.594Z</time></trkpt><trkpt lat="43.7351545" lon="11.4010815"><ele>347.0</ele><time>2026-05-03T16:04:43.593Z</time></trkpt><trkpt lat="43.7351534" lon="11.4009905"><ele>346.0</ele><time>2026-05-03T16:04:45.594Z</time></trkpt><trkpt lat="43.7352067" lon="11.4008961"><ele>346.66666666666663</ele><time>2026-05-03T16:04:48.594Z</time></trkpt><trkpt lat="43.7352888" lon="11.4008938"><ele>347.3333333333333</ele><time>2026-05-03T16:04:50.593Z</time></trkpt><trkpt lat="43.7353735" lon="11.400888"><ele>348.0</ele><time>2026-05-03T16:04:52.594Z</time></trkpt><trkpt lat="43.7354485" lon="11.400866"><ele>348.6666666666667</ele><time>2026-05-03T16:04:54.594Z</time></trkpt><trkpt lat="43.735529" lon="11.400851"><ele>349.33333333333337</ele><time>2026-05-03T16:04:56.594Z</time></trkpt><trkpt lat="43.7356008" lon="11.4008301"><ele>350.0</ele><time>2026-05-03T16:04:58.594Z</time></trkpt><trkpt lat="43.7356678" lon="11.4008157"><ele>350.0</ele><time>2026-05-03T16:05:00.593Z</time></trkpt><trkpt lat="43.7357543" lon="11.4007938"><ele>350.0</ele><time>2026-05-03T16:05:03.594Z</time></trkpt><trkpt lat="43.7358183" lon="11.4007871"><ele>350.0</ele><time>2026-05-03T16:05:05.594Z</time></trkpt><trkpt lat="43.7358871" lon="11.4007809"><ele>350.0</ele><time>2026-05-03T16:05:07.594Z</time></trkpt><trkpt lat="43.7359559" lon="11.4007785"><ele>350.0</ele><time>2026-05-03T16:05:09.594Z</time></trkpt><trkpt lat="43.736025" lon="11.4007742"><ele>350.0</ele><time>2026-05-03T16:05:11.593Z</time></trkpt><trkpt lat="43.7360935" lon="11.40076"><ele>350.0</ele><time>2026-05-03T16:05:13.593Z</time></trkpt><trkpt lat="43.7361654" lon="11.4007449"><ele>351.0</ele><time>2026-05-03T16:05:15.594Z</time></trkpt><trkpt lat="43.7362376" lon="11.4007275"><ele>352.0</ele><time>2026-05-03T16:05:17.594Z</time></trkpt><trkpt lat="43.7363119" lon="11.4007146"><ele>353.0</ele><time>2026-05-03T16:05:19.594Z</time></trkpt><trkpt lat="43.7363782" lon="11.4006942"><ele>354.0</ele><time>2026-05-03T16:05:21.594Z</time></trkpt><trkpt lat="43.7364537" lon="11.4006735"><ele>355.0</ele><time>2026-05-03T16:05:23.593Z</time></trkpt><trkpt lat="43.7365418" lon="11.4006632"><ele>356.0</ele><time>2026-05-03T16:05:25.594Z</time></trkpt><trkpt lat="43.7366303" lon="11.4006585"><ele>356.0</ele><time>2026-05-03T16:05:27.594Z</time></trkpt><trkpt lat="43.73671" lon="11.4006484"><ele>356.0</ele><time>2026-05-03T16:05:29.594Z</time></trkpt><trkpt lat="43.7367891" lon="11.4006399"><ele>356.0</ele><time>2026-05-03T16:05:31.594Z</time></trkpt><trkpt lat="43.7368617" lon="11.4006232"><ele>356.0</ele><time>2026-05-03T16:05:33.594Z</time></trkpt><trkpt lat="43.7369324" lon="11.4005908"><ele>356.0</ele><time>2026-05-03T16:05:35.594Z</time></trkpt><trkpt lat="43.7370113" lon="11.4005726"><ele>356.0</ele><time>2026-05-03T16:05:37.594Z</time></trkpt><trkpt lat="43.7370951" lon="11.4005665"><ele>357.6666666666667</ele><time>2026-05-03T16:05:39.593Z</time></trkpt><trkpt lat="43.7371833" lon="11.4005711"><ele>359.33333333333337</ele><time>2026-05-03T16:05:41.593Z</time></trkpt><trkpt lat="43.7372625" lon="11.4005758"><ele>361.0</ele><time>2026-05-03T16:05:43.594Z</time></trkpt><trkpt lat="43.7373406" lon="11.4005844"><ele>362.6666666666667</ele><time>2026-05-03T16:05:45.594Z</time></trkpt><trkpt lat="43.7374217" lon="11.4005902"><ele>364.3333333333333</ele><time>2026-05-03T16:05:47.594Z</time></trkpt><trkpt lat="43.7374965" lon="11.4005622"><ele>366.0</ele><time>2026-05-03T16:05:49.594Z</time></trkpt><trkpt lat="43.7375574" lon="11.4005129"><ele>365.0</ele><time>2026-05-03T16:05:51.594Z</time></trkpt><trkpt lat="43.7376266" lon="11.4004689"><ele>364.0</ele><time>2026-05-03T16:05:53.594Z</time></trkpt><trkpt lat="43.7377013" lon="11.4004182"><ele>363.0</ele><time>2026-05-03T16:05:55.593Z</time></trkpt><trkpt lat="43.7377786" lon="11.4003618"><ele>362.0</ele><time>2026-05-03T16:05:57.594Z</time></trkpt><trkpt lat="43.7378558" lon="11.4003253"><ele>361.0</ele><time>2026-05-03T16:05:59.594Z</time></trkpt><trkpt lat="43.7379265" lon="11.4003319"><ele>360.0</ele><time>2026-05-03T16:06:01.594Z</time></trkpt><trkpt lat="43.7379866" lon="11.4003743"><ele>362.57142857142856</ele><time>2026-05-03T16:06:03.594Z</time></trkpt><trkpt lat="43.7380441" lon="11.4004259"><ele>365.14285714285717</ele><time>2026-05-03T16:06:05.594Z</time></trkpt><trkpt lat="43.7380898" lon="11.4005008"><ele>367.7142857142857</ele><time>2026-05-03T16:06:08.594Z</time></trkpt><trkpt lat="43.7380425" lon="11.4005875"><ele>370.2857142857143</ele><time>2026-05-03T16:06:16.594Z</time></trkpt><trkpt lat="43.7379748" lon="11.4006593"><ele>372.8571428571429</ele><time>2026-05-03T16:06:19.594Z</time></trkpt><trkpt lat="43.7379163" lon="11.4007226"><ele>375.42857142857144</ele><time>2026-05-03T16:06:21.594Z</time></trkpt><trkpt lat="43.7378634" lon="11.4007859"><ele>378.0</ele><time>2026-05-03T16:06:23.594Z</time></trkpt><trkpt lat="43.7377991" lon="11.4008574"><ele>375.59999999999997</ele><time>2026-05-03T16:06:25.594Z</time></trkpt><trkpt lat="43.7377167" lon="11.4009577"><ele>373.2</ele><time>2026-05-03T16:06:27.594Z</time></trkpt><trkpt lat="43.7376367" lon="11.4010585"><ele>370.8</ele><time>2026-05-03T16:06:29.594Z</time></trkpt><trkpt lat="43.737556" lon="11.4011402"><ele>368.4</ele><time>2026-05-03T16:06:31.594Z</time></trkpt><trkpt lat="43.7374742" lon="11.4012164"><ele>366.0</ele><time>2026-05-03T16:06:33.594Z</time></trkpt><trkpt lat="43.7374046" lon="11.4012596"><ele>366.0</ele><time>2026-05-03T16:06:35.594Z</time></trkpt><trkpt lat="43.7373135" lon="11.4012314"><ele>366.0</ele><time>2026-05-03T16:06:38.594Z</time></trkpt><trkpt lat="43.7372557" lon="11.4011592"><ele>366.0</ele><time>2026-05-03T16:06:40.594Z</time></trkpt><trkpt lat="43.7371931" lon="11.4010587"><ele>366.0</ele><time>2026-05-03T16:06:42.594Z</time></trkpt><trkpt lat="43.737128" lon="11.400961"><ele>366.0</ele><time>2026-05-03T16:06:44.593Z</time></trkpt><trkpt lat="43.737062" lon="11.4008667"><ele>366.0</ele><time>2026-05-03T16:06:46.594Z</time></trkpt><trkpt lat="43.7369947" lon="11.4007769"><ele>366.0</ele><time>2026-05-03T16:06:48.594Z</time></trkpt><trkpt lat="43.7369317" lon="11.4006788"><ele>366.0</ele><time>2026-05-03T16:06:50.594Z</time></trkpt><trkpt lat="43.7368657" lon="11.4006285"><ele>366.0</ele><time>2026-05-03T16:06:52.594Z</time></trkpt><trkpt lat="43.7367698" lon="11.4006501"><ele>366.0</ele><time>2026-05-03T16:06:55.593Z</time></trkpt><trkpt lat="43.7366899" lon="11.4006605"><ele>366.0</ele><time>2026-05-03T16:06:57.594Z</time></trkpt><trkpt lat="43.7365906" lon="11.4006707"><ele>364.0</ele><time>2026-05-03T16:06:59.594Z</time></trkpt><trkpt lat="43.7364924" lon="11.4006808"><ele>362.0</ele><time>2026-05-03T16:07:01.594Z</time></trkpt><trkpt lat="43.7363926" lon="11.4007011"><ele>360.0</ele><time>2026-05-03T16:07:03.594Z</time></trkpt><trkpt lat="43.7362997" lon="11.4007139"><ele>358.0</ele><time>2026-05-03T16:07:05.593Z</time></trkpt><trkpt lat="43.7362122" lon="11.4007339"><ele>356.0</ele><time>2026-05-03T16:07:07.593Z</time></trkpt><trkpt lat="43.7361236" lon="11.4007492"><ele>355.0</ele><time>2026-05-03T16:07:09.594Z</time></trkpt><trkpt lat="43.7360319" lon="11.4007689"><ele>354.0</ele><time>2026-05-03T16:07:11.594Z</time></trkpt><trkpt lat="43.7359404" lon="11.400778"><ele>353.0</ele><time>2026-05-03T16:07:13.594Z</time></trkpt><trkpt lat="43.7358669" lon="11.4007929"><ele>352.0</ele><time>2026-05-03T16:07:15.593Z</time></trkpt><trkpt lat="43.7357947" lon="11.4008035"><ele>351.0</ele><time>2026-05-03T16:07:17.593Z</time></trkpt><trkpt lat="43.73573" lon="11.400817"><ele>350.0</ele><time>2026-05-03T16:07:19.593Z</time></trkpt><trkpt lat="43.7357211" lon="11.4007178"><ele>350.0</ele><time>2026-05-03T16:07:23.594Z</time></trkpt><trkpt lat="43.735786" lon="11.4006732"><ele>350.0</ele><time>2026-05-03T16:07:25.594Z</time></trkpt><trkpt lat="43.7358632" lon="11.4006522"><ele>350.0</ele><time>2026-05-03T16:07:27.594Z</time></trkpt><trkpt lat="43.7359638" lon="11.4006227"><ele>350.0</ele><time>2026-05-03T16:07:29.594Z</time></trkpt><trkpt lat="43.7360673" lon="11.4005993"><ele>350.0</ele><time>2026-05-03T16:07:31.593Z</time></trkpt><trkpt lat="43.7361658" lon="11.4005914"><ele>349.5</ele><time>2026-05-03T16:07:33.594Z</time></trkpt><trkpt lat="43.7362686" lon="11.4005768"><ele>349.0</ele><time>2026-05-03T16:07:35.594Z</time></trkpt><trkpt lat="43.7363624" lon="11.4005619"><ele>348.5</ele><time>2026-05-03T16:07:37.594Z</time></trkpt><trkpt lat="43.736428" lon="11.4005384"><ele>348.0</ele><time>2026-05-03T16:07:39.594Z</time></trkpt><trkpt lat="43.7364967" lon="11.4004971"><ele>347.5</ele><time>2026-05-03T16:07:41.594Z</time></trkpt><trkpt lat="43.7365668" lon="11.4004669"><ele>347.0</ele><time>2026-05-03T16:07:43.594Z</time></trkpt><trkpt lat="43.73663" lon="11.4004552"><ele>347.0</ele><time>2026-05-03T16:07:45.594Z</time></trkpt><trkpt lat="43.7366884" lon="11.4004081"><ele>347.0</ele><time>2026-05-03T16:07:49.594Z</time></trkpt><trkpt lat="43.736612" lon="11.4004199"><ele>347.0</ele><time>2026-05-03T16:08:24.594Z</time></trkpt><trkpt lat="43.736535" lon="11.400458"><ele>347.0</ele><time>2026-05-03T16:08:26.594Z</time></trkpt><trkpt lat="43.7364736" lon="11.4004994"><ele>347.0</ele><time>2026-05-03T16:08:28.594Z</time></trkpt><trkpt lat="43.736414" lon="11.4005347"><ele>347.0</ele><time>2026-05-03T16:08:30.594Z</time></trkpt><trkpt lat="43.7363401" lon="11.4005634"><ele>347.0</ele><time>2026-05-03T16:08:32.593Z</time></trkpt><trkpt lat="43.7362667" lon="11.4005782"><ele>347.42857142857144</ele><time>2026-05-03T16:08:34.594Z</time></trkpt><trkpt lat="43.7361885" lon="11.4005856"><ele>347.85714285714283</ele><time>2026-05-03T16:08:36.593Z</time></trkpt><trkpt lat="43.736109" lon="11.400592"><ele>348.2857142857143</ele><time>2026-05-03T16:08:38.594Z</time></trkpt><trkpt lat="43.7360353" lon="11.4005966"><ele>348.7142857142857</ele><time>2026-05-03T16:08:40.594Z</time></trkpt><trkpt lat="43.7359627" lon="11.4006095"><ele>349.1428571428571</ele><time>2026-05-03T16:08:42.594Z</time></trkpt><trkpt lat="43.7358928" lon="11.4006358"><ele>349.57142857142856</ele><time>2026-05-03T16:08:44.594Z</time></trkpt><trkpt lat="43.7358237" lon="11.4006576"><ele>350.0</ele><time>2026-05-03T16:08:46.593Z</time></trkpt><trkpt lat="43.7357601" lon="11.4006818"><ele>350.0</ele><time>2026-05-03T16:08:48.594Z</time></trkpt><trkpt lat="43.7356976" lon="11.4007264"><ele>350.0</ele><time>2026-05-03T16:08:50.594Z</time></trkpt><trkpt lat="43.7356351" lon="11.4007759"><ele>350.0</ele><time>2026-05-03T16:08:52.594Z</time></trkpt><trkpt lat="43.7355762" lon="11.4008152"><ele>350.0</ele><time>2026-05-03T16:08:54.594Z</time></trkpt><trkpt lat="43.735508" lon="11.4008451"><ele>350.0</ele><time>2026-05-03T16:08:56.594Z</time></trkpt><trkpt lat="43.7354369" lon="11.4008578"><ele>350.0</ele><time>2026-05-03T16:08:58.594Z</time></trkpt><trkpt lat="43.7353688" lon="11.4008746"><ele>350.0</ele><time>2026-05-03T16:09:00.594Z</time></trkpt><trkpt lat="43.7352739" lon="11.4008856"><ele>349.33333333333337</ele><time>2026-05-03T16:09:03.594Z</time></trkpt><trkpt lat="43.7352031" lon="11.4008937"><ele>348.6666666666667</ele><time>2026-05-03T16:09:05.594Z</time></trkpt><trkpt lat="43.735156" lon="11.4009626"><ele>348.0</ele><time>2026-05-03T16:09:07.594Z</time></trkpt><trkpt lat="43.7351486" lon="11.4010974"><ele>347.3333333333333</ele><time>2026-05-03T16:09:09.594Z</time></trkpt><trkpt lat="43.735158" lon="11.4012388"><ele>346.66666666666663</ele><time>2026-05-03T16:09:11.594Z</time></trkpt><trkpt lat="43.7351715" lon="11.4013796"><ele>346.0</ele><time>2026-05-03T16:09:13.593Z</time></trkpt><trkpt lat="43.7351904" lon="11.4015113"><ele>347.20000000000005</ele><time>2026-05-03T16:09:15.593Z</time></trkpt><trkpt lat="43.7352396" lon="11.401635"><ele>348.40000000000003</ele><time>2026-05-03T16:09:17.594Z</time></trkpt><trkpt lat="43.735295" lon="11.4017597"><ele>349.6</ele><time>2026-05-03T16:09:19.594Z</time></trkpt><trkpt lat="43.7353409" lon="11.4018639"><ele>350.8</ele><time>2026-05-03T16:09:21.594Z</time></trkpt><trkpt lat="43.7354029" lon="11.4019726"><ele>352.0</ele><time>2026-05-03T16:09:23.593Z</time></trkpt><trkpt lat="43.7354572" lon="11.4020673"><ele>352.0</ele><time>2026-05-03T16:09:25.594Z</time></trkpt><trkpt lat="43.7354963" lon="11.4021572"><ele>352.0</ele><time>2026-05-03T16:09:27.594Z</time></trkpt><trkpt lat="43.7355251" lon="11.4022482"><ele>352.0</ele><time>2026-05-03T16:09:29.593Z</time></trkpt><trkpt lat="43.7355078" lon="11.4023554"><ele>352.0</ele><time>2026-05-03T16:09:32.593Z</time></trkpt><trkpt lat="43.7354574" lon="11.4024119"><ele>352.0</ele><time>2026-05-03T16:09:34.593Z</time></trkpt><trkpt lat="43.7353918" lon="11.4024747"><ele>352.0</ele><time>2026-05-03T16:09:36.594Z</time></trkpt><trkpt lat="43.7353228" lon="11.402545"><ele>351.5</ele><time>2026-05-03T16:09:38.594Z</time></trkpt><trkpt lat="43.7352467" lon="11.4026052"><ele>351.0</ele><time>2026-05-03T16:09:40.594Z</time></trkpt><trkpt lat="43.7351752" lon="11.4026825"><ele>350.5</ele><time>2026-05-03T16:09:42.594Z</time></trkpt><trkpt lat="43.7351035" lon="11.4027556"><ele>350.0</ele><time>2026-05-03T16:09:44.594Z</time></trkpt><trkpt lat="43.7350302" lon="11.4028289"><ele>349.5</ele><time>2026-05-03T16:09:46.594Z</time></trkpt><trkpt lat="43.7349559" lon="11.4029007"><ele>349.0</ele><time>2026-05-03T16:09:48.594Z</time></trkpt><trkpt lat="43.7348856" lon="11.4029654"><ele>350.0</ele><time>2026-05-03T16:09:50.594Z</time></trkpt><trkpt lat="43.7348168" lon="11.4030095"><ele>351.0</ele><time>2026-05-03T16:09:52.593Z</time></trkpt><trkpt lat="43.7347417" lon="11.4030555"><ele>352.0</ele><time>2026-05-03T16:09:55.594Z</time></trkpt><trkpt lat="43.7346775" lon="11.4030931"><ele>353.0</ele><time>2026-05-03T16:09:58.594Z</time></trkpt><trkpt lat="43.7346109" lon="11.4031332"><ele>354.0</ele><time>2026-05-03T16:10:01.594Z</time></trkpt><trkpt lat="43.7345407" lon="11.403174"><ele>355.0</ele><time>2026-05-03T16:10:04.593Z</time></trkpt><trkpt lat="43.7344656" lon="11.4032122"><ele>355.0</ele><time>2026-05-03T16:10:07.594Z</time></trkpt><trkpt lat="43.7343992" lon="11.4032393"><ele>355.0</ele><time>2026-05-03T16:10:10.594Z</time></trkpt><trkpt lat="43.7343328" lon="11.4032719"><ele>355.0</ele><time>2026-05-03T16:10:13.594Z</time></trkpt><trkpt lat="43.7342675" lon="11.4033371"><ele>355.0</ele><time>2026-05-03T16:10:17.594Z</time></trkpt><trkpt lat="43.7342044" lon="11.4033489"><ele>355.0</ele><time>2026-05-03T16:10:20.594Z</time></trkpt><trkpt lat="43.7341254" lon="11.4033759"><ele>355.0</ele><time>2026-05-03T16:10:23.594Z</time></trkpt><trkpt lat="43.7340471" lon="11.4033999"><ele>355.0</ele><time>2026-05-03T16:10:26.594Z</time></trkpt><trkpt lat="43.7339668" lon="11.4034276"><ele>352.8333333333333</ele><time>2026-05-03T16:10:29.594Z</time></trkpt><trkpt lat="43.7338979" lon="11.4034623"><ele>350.66666666666663</ele><time>2026-05-03T16:10:32.594Z</time></trkpt><trkpt lat="43.7338178" lon="11.4034917"><ele>348.5</ele><time>2026-05-03T16:10:35.594Z</time></trkpt><trkpt lat="43.7337408" lon="11.4035059"><ele>346.3333333333333</ele><time>2026-05-03T16:10:38.593Z</time></trkpt><trkpt lat="43.7336553" lon="11.4035308"><ele>344.1666666666667</ele><time>2026-05-03T16:10:41.594Z</time></trkpt><trkpt lat="43.7335882" lon="11.4035601"><ele>342.0</ele><time>2026-05-03T16:10:44.594Z</time></trkpt><trkpt lat="43.7335121" lon="11.4035987"><ele>339.8333333333333</ele><time>2026-05-03T16:10:47.594Z</time></trkpt><trkpt lat="43.7334414" lon="11.4036312"><ele>337.6666666666667</ele><time>2026-05-03T16:10:50.594Z</time></trkpt><trkpt lat="43.7333601" lon="11.4036656"><ele>335.5</ele><time>2026-05-03T16:10:53.594Z</time></trkpt><trkpt lat="43.7332661" lon="11.4037048"><ele>333.33333333333337</ele><time>2026-05-03T16:10:56.594Z</time></trkpt><trkpt lat="43.7332004" lon="11.4037454"><ele>331.1666666666667</ele><time>2026-05-03T16:10:58.594Z</time></trkpt><trkpt lat="43.7331374" lon="11.4037773"><ele>329.0</ele><time>2026-05-03T16:11:00.593Z</time></trkpt><trkpt lat="43.7330702" lon="11.4038011"><ele>329.0</ele><time>2026-05-03T16:11:02.594Z</time></trkpt><trkpt lat="43.7329975" lon="11.4038214"><ele>329.0</ele><time>2026-05-03T16:11:04.594Z</time></trkpt><trkpt lat="43.7329285" lon="11.4038748"><ele>329.0</ele><time>2026-05-03T16:11:06.593Z</time></trkpt><trkpt lat="43.7328513" lon="11.4039178"><ele>329.0</ele><time>2026-05-03T16:11:08.594Z</time></trkpt><trkpt lat="43.7327634" lon="11.4039697"><ele>329.0</ele><time>2026-05-03T16:11:10.594Z</time></trkpt><trkpt lat="43.7326509" lon="11.4040211"><ele>329.14285714285717</ele><time>2026-05-03T16:11:12.594Z</time></trkpt><trkpt lat="43.7325892" lon="11.4040472"><ele>329.2857142857143</ele><time>2026-05-03T16:11:13.594Z</time></trkpt><trkpt lat="43.7325218" lon="11.404074"><ele>329.42857142857144</ele><time>2026-05-03T16:11:14.594Z</time></trkpt><trkpt lat="43.7324529" lon="11.4040946"><ele>329.57142857142856</ele><time>2026-05-03T16:11:15.594Z</time></trkpt><trkpt lat="43.7323847" lon="11.4041169"><ele>329.7142857142857</ele><time>2026-05-03T16:11:16.594Z</time></trkpt><trkpt lat="43.7323165" lon="11.4041341"><ele>329.8571428571429</ele><time>2026-05-03T16:11:17.594Z</time></trkpt><trkpt lat="43.7322491" lon="11.4041516"><ele>330.0</ele><time>2026-05-03T16:11:18.593Z</time></trkpt><trkpt lat="43.7321814" lon="11.4041723"><ele>330.0</ele><time>2026-05-03T16:11:19.594Z</time></trkpt><trkpt lat="43.7321152" lon="11.4041947"><ele>330.0</ele><time>2026-05-03T16:11:20.593Z</time></trkpt><trkpt lat="43.7320487" lon="11.4042202"><ele>330.0</ele><time>2026-05-03T16:11:21.594Z</time></trkpt><trkpt lat="43.7319789" lon="11.4042492"><ele>330.0</ele><time>2026-05-03T16:11:22.594Z</time></trkpt><trkpt lat="43.7319006" lon="11.4042705"><ele>330.0</ele><time>2026-05-03T16:11:23.594Z</time></trkpt><trkpt lat="43.7318206" lon="11.4042919"><ele>330.0</ele><time>2026-05-03T16:11:24.594Z</time></trkpt><trkpt lat="43.7317383" lon="11.4043173"><ele>330.1666666666667</ele><time>2026-05-03T16:11:25.594Z</time></trkpt><trkpt lat="43.7316523" lon="11.404335"><ele>330.3333333333333</ele><time>2026-05-03T16:11:26.594Z</time></trkpt><trkpt lat="43.7315654" lon="11.4043548"><ele>330.5</ele><time>2026-05-03T16:11:27.594Z</time></trkpt><trkpt lat="43.73148" lon="11.4043712"><ele>330.66666666666663</ele><time>2026-05-03T16:11:28.594Z</time></trkpt><trkpt lat="43.7313942" lon="11.4043879"><ele>330.8333333333333</ele><time>2026-05-03T16:11:29.594Z</time></trkpt><trkpt lat="43.7313085" lon="11.4044033"><ele>331.0</ele><time>2026-05-03T16:11:30.594Z</time></trkpt><trkpt lat="43.7312147" lon="11.4044183"><ele>331.0</ele><time>2026-05-03T16:11:31.594Z</time></trkpt><trkpt lat="43.7311345" lon="11.4044314"><ele>331.0</ele><time>2026-05-03T16:11:32.593Z</time></trkpt><trkpt lat="43.7310595" lon="11.404445"><ele>331.0</ele><time>2026-05-03T16:11:33.594Z</time></trkpt><trkpt lat="43.7309888" lon="11.4044534"><ele>331.0</ele><time>2026-05-03T16:11:34.593Z</time></trkpt><trkpt lat="43.73092" lon="11.4044641"><ele>331.0</ele><time>2026-05-03T16:11:35.594Z</time></trkpt><trkpt lat="43.7308551" lon="11.4044709"><ele>331.0</ele><time>2026-05-03T16:11:36.593Z</time></trkpt><trkpt lat="43.7307851" lon="11.404476"><ele>331.0</ele><time>2026-05-03T16:11:37.594Z</time></trkpt><trkpt lat="43.730706" lon="11.4044831"><ele>330.3333333333333</ele><time>2026-05-03T16:11:38.593Z</time></trkpt><trkpt lat="43.7306257" lon="11.4044911"><ele>329.66666666666663</ele><time>2026-05-03T16:11:39.594Z</time></trkpt><trkpt lat="43.7305375" lon="11.4045034"><ele>329.0</ele><time>2026-05-03T16:11:40.594Z</time></trkpt><trkpt lat="43.7304529" lon="11.4045132"><ele>328.3333333333333</ele><time>2026-05-03T16:11:41.593Z</time></trkpt><trkpt lat="43.7303642" lon="11.4045209"><ele>327.6666666666667</ele><time>2026-05-03T16:11:42.594Z</time></trkpt><trkpt lat="43.7302781" lon="11.4045354"><ele>327.0</ele><time>2026-05-03T16:11:43.594Z</time></trkpt><trkpt lat="43.7301885" lon="11.4045553"><ele>325.8333333333333</ele><time>2026-05-03T16:11:44.594Z</time></trkpt><trkpt lat="43.7300964" lon="11.4045508"><ele>324.6666666666667</ele><time>2026-05-03T16:11:45.594Z</time></trkpt><trkpt lat="43.730021" lon="11.4045629"><ele>323.5</ele><time>2026-05-03T16:11:46.594Z</time></trkpt><trkpt lat="43.72994" lon="11.4045756"><ele>322.33333333333337</ele><time>2026-05-03T16:11:47.593Z</time></trkpt><trkpt lat="43.7298601" lon="11.4045864"><ele>321.1666666666667</ele><time>2026-05-03T16:11:48.594Z</time></trkpt><trkpt lat="43.7297864" lon="11.4045953"><ele>320.0</ele><time>2026-05-03T16:11:49.594Z</time></trkpt><trkpt lat="43.7297078" lon="11.4046018"><ele>320.0</ele><time>2026-05-03T16:11:50.594Z</time></trkpt><trkpt lat="43.7296317" lon="11.4046088"><ele>320.0</ele><time>2026-05-03T16:11:51.594Z</time></trkpt><trkpt lat="43.7295513" lon="11.4046177"><ele>320.0</ele><time>2026-05-03T16:11:52.594Z</time></trkpt><trkpt lat="43.7294679" lon="11.404617"><ele>320.0</ele><time>2026-05-03T16:11:53.594Z</time></trkpt><trkpt lat="43.7293736" lon="11.4046075"><ele>320.0</ele><time>2026-05-03T16:11:54.593Z</time></trkpt><trkpt lat="43.7292713" lon="11.4045957"><ele>320.0</ele><time>2026-05-03T16:11:55.594Z</time></trkpt><trkpt lat="43.7291621" lon="11.4045825"><ele>318.0</ele><time>2026-05-03T16:11:56.594Z</time></trkpt><trkpt lat="43.7290428" lon="11.4045665"><ele>316.0</ele><time>2026-05-03T16:11:57.594Z</time></trkpt><trkpt lat="43.7289196" lon="11.4045418"><ele>314.0</ele><time>2026-05-03T16:11:58.594Z</time></trkpt><trkpt lat="43.7287926" lon="11.4045216"><ele>312.0</ele><time>2026-05-03T16:11:59.593Z</time></trkpt><trkpt lat="43.7286588" lon="11.4044997"><ele>310.0</ele><time>2026-05-03T16:12:00.594Z</time></trkpt><trkpt lat="43.728521" lon="11.4044879"><ele>308.0</ele><time>2026-05-03T16:12:01.593Z</time></trkpt><trkpt lat="43.7283811" lon="11.404469"><ele>306.0</ele><time>2026-05-03T16:12:02.594Z</time></trkpt><trkpt lat="43.7282408" lon="11.4044561"><ele>304.0</ele><time>2026-05-03T16:12:03.594Z</time></trkpt><trkpt lat="43.7280973" lon="11.4044375"><ele>304.0</ele><time>2026-05-03T16:12:04.594Z</time></trkpt><trkpt lat="43.7279529" lon="11.4044159"><ele>304.0</ele><time>2026-05-03T16:12:05.594Z</time></trkpt><trkpt lat="43.7278118" lon="11.4043937"><ele>304.0</ele><time>2026-05-03T16:12:06.594Z</time></trkpt><trkpt lat="43.727671" lon="11.4043702"><ele>304.0</ele><time>2026-05-03T16:12:07.594Z</time></trkpt><trkpt lat="43.7275328" lon="11.4043535"><ele>301.75</ele><time>2026-05-03T16:12:08.593Z</time></trkpt><trkpt lat="43.7273944" lon="11.4043339"><ele>299.5</ele><time>2026-05-03T16:12:09.594Z</time></trkpt><trkpt lat="43.727253" lon="11.4043168"><ele>297.25</ele><time>2026-05-03T16:12:10.594Z</time></trkpt><trkpt lat="43.7271132" lon="11.4042919"><ele>295.0</ele><time>2026-05-03T16:12:11.594Z</time></trkpt><trkpt lat="43.7269798" lon="11.4042691"><ele>293.4</ele><time>2026-05-03T16:12:12.594Z</time></trkpt><trkpt lat="43.7268525" lon="11.4042535"><ele>291.8</ele><time>2026-05-03T16:12:13.594Z</time></trkpt><trkpt lat="43.7267399" lon="11.4042386"><ele>290.2</ele><time>2026-05-03T16:12:14.593Z</time></trkpt><trkpt lat="43.7266424" lon="11.4042228"><ele>288.6</ele><time>2026-05-03T16:12:15.594Z</time></trkpt><trkpt lat="43.7265591" lon="11.4042158"><ele>287.0</ele><time>2026-05-03T16:12:16.594Z</time></trkpt><trkpt lat="43.7264891" lon="11.4042024"><ele>287.0</ele><time>2026-05-03T16:12:17.594Z</time></trkpt><trkpt lat="43.7263813" lon="11.4041588"><ele>287.0</ele><time>2026-05-03T16:12:19.594Z</time></trkpt><trkpt lat="43.7263372" lon="11.4040137"><ele>287.0</ele><time>2026-05-03T16:12:21.594Z</time></trkpt><trkpt lat="43.7263486" lon="11.4039032"><ele>287.0</ele><time>2026-05-03T16:12:22.593Z</time></trkpt><trkpt lat="43.7263551" lon="11.4037696"><ele>287.0</ele><time>2026-05-03T16:12:23.593Z</time></trkpt><trkpt lat="43.7263578" lon="11.4036147"><ele>286.25</ele><time>2026-05-03T16:12:24.594Z</time></trkpt><trkpt lat="43.7263626" lon="11.4034448"><ele>285.5</ele><time>2026-05-03T16:12:25.594Z</time></trkpt><trkpt lat="43.7263647" lon="11.4032696"><ele>284.75</ele><time>2026-05-03T16:12:26.594Z</time></trkpt><trkpt lat="43.7263697" lon="11.4030878"><ele>284.0</ele><time>2026-05-03T16:12:27.594Z</time></trkpt><trkpt lat="43.7263724" lon="11.4028924"><ele>284.0</ele><time>2026-05-03T16:12:28.594Z</time></trkpt><trkpt lat="43.726371" lon="11.4026856"><ele>284.0</ele><time>2026-05-03T16:12:29.594Z</time></trkpt><trkpt lat="43.7263735" lon="11.4024739"><ele>284.0</ele><time>2026-05-03T16:12:30.593Z</time></trkpt><trkpt lat="43.7263733" lon="11.402251"><ele>284.6666666666667</ele><time>2026-05-03T16:12:31.594Z</time></trkpt><trkpt lat="43.7263628" lon="11.4020209"><ele>285.3333333333333</ele><time>2026-05-03T16:12:32.594Z</time></trkpt><trkpt lat="43.7263398" lon="11.4017936"><ele>286.0</ele><time>2026-05-03T16:12:33.594Z</time></trkpt><trkpt lat="43.7263022" lon="11.4015707"><ele>286.0</ele><time>2026-05-03T16:12:34.593Z</time></trkpt><trkpt lat="43.7262473" lon="11.4013533"><ele>286.0</ele><time>2026-05-03T16:12:35.593Z</time></trkpt><trkpt lat="43.7261892" lon="11.4011366"><ele>286.0</ele><time>2026-05-03T16:12:36.593Z</time></trkpt><trkpt lat="43.7261295" lon="11.4009329"><ele>286.3333333333333</ele><time>2026-05-03T16:12:37.594Z</time></trkpt><trkpt lat="43.726066" lon="11.4007345"><ele>286.6666666666667</ele><time>2026-05-03T16:12:38.594Z</time></trkpt><trkpt lat="43.7260045" lon="11.4005426"><ele>287.0</ele><time>2026-05-03T16:12:39.594Z</time></trkpt><trkpt lat="43.7259429" lon="11.4003485"><ele>288.6666666666667</ele><time>2026-05-03T16:12:40.593Z</time></trkpt><trkpt lat="43.7258846" lon="11.4001555"><ele>290.3333333333333</ele><time>2026-05-03T16:12:41.594Z</time></trkpt><trkpt lat="43.725832" lon="11.3999592"><ele>292.0</ele><time>2026-05-03T16:12:42.593Z</time></trkpt><trkpt lat="43.7257911" lon="11.3997603"><ele>293.0</ele><time>2026-05-03T16:12:43.594Z</time></trkpt><trkpt lat="43.7257635" lon="11.3995619"><ele>294.0</ele><time>2026-05-03T16:12:44.594Z</time></trkpt><trkpt lat="43.7257465" lon="11.3993565"><ele>295.0</ele><time>2026-05-03T16:12:45.594Z</time></trkpt><trkpt lat="43.7257388" lon="11.3991588"><ele>296.0</ele><time>2026-05-03T16:12:46.594Z</time></trkpt><trkpt lat="43.7257344" lon="11.3989623"><ele>296.25</ele><time>2026-05-03T16:12:47.594Z</time></trkpt><trkpt lat="43.7257335" lon="11.3987818"><ele>296.5</ele><time>2026-05-03T16:12:48.593Z</time></trkpt><trkpt lat="43.7257264" lon="11.3986151"><ele>296.75</ele><time>2026-05-03T16:12:49.594Z</time></trkpt><trkpt lat="43.725704" lon="11.3984516"><ele>297.0</ele><time>2026-05-03T16:12:50.594Z</time></trkpt><trkpt lat="43.7256606" lon="11.3983002"><ele>297.0</ele><time>2026-05-03T16:12:51.593Z</time></trkpt><trkpt lat="43.7255974" lon="11.3981558"><ele>297.0</ele><time>2026-05-03T16:12:52.593Z</time></trkpt><trkpt lat="43.7255134" lon="11.3980248"><ele>297.0</ele><time>2026-05-03T16:12:53.594Z</time></trkpt><trkpt lat="43.7254128" lon="11.3979071"><ele>297.0</ele><time>2026-05-03T16:12:54.594Z</time></trkpt><trkpt lat="43.7253023" lon="11.3978014"><ele>297.0</ele><time>2026-05-03T16:12:55.593Z</time></trkpt><trkpt lat="43.7251833" lon="11.3977129"><ele>297.0</ele><time>2026-05-03T16:12:56.594Z</time></trkpt><trkpt lat="43.7250623" lon="11.3976377"><ele>297.0</ele><time>2026-05-03T16:12:57.594Z</time></trkpt><trkpt lat="43.7249518" lon="11.3975539"><ele>297.0</ele><time>2026-05-03T16:12:58.594Z</time></trkpt><trkpt lat="43.7248568" lon="11.3974544"><ele>297.0</ele><time>2026-05-03T16:12:59.594Z</time></trkpt><trkpt lat="43.7247786" lon="11.3973322"><ele>297.0</ele><time>2026-05-03T16:13:00.593Z</time></trkpt><trkpt lat="43.7247212" lon="11.3971947"><ele>297.0</ele><time>2026-05-03T16:13:01.593Z</time></trkpt><trkpt lat="43.7246706" lon="11.3970522"><ele>297.0</ele><time>2026-05-03T16:13:02.594Z</time></trkpt><trkpt lat="43.7246238" lon="11.3969044"><ele>297.2</ele><time>2026-05-03T16:13:03.594Z</time></trkpt><trkpt lat="43.7245785" lon="11.3967548"><ele>297.4</ele><time>2026-05-03T16:13:04.594Z</time></trkpt><trkpt lat="43.7245377" lon="11.3966121"><ele>297.6</ele><time>2026-05-03T16:13:05.594Z</time></trkpt><trkpt lat="43.7244974" lon="11.3964856"><ele>297.8</ele><time>2026-05-03T16:13:06.594Z</time></trkpt><trkpt lat="43.7244653" lon="11.3963771"><ele>298.0</ele><time>2026-05-03T16:13:07.594Z</time></trkpt><trkpt lat="43.7244411" lon="11.3962822"><ele>298.8</ele><time>2026-05-03T16:13:08.594Z</time></trkpt><trkpt lat="43.7244206" lon="11.3961543"><ele>299.6</ele><time>2026-05-03T16:13:10.594Z</time></trkpt><trkpt lat="43.7244663" lon="11.3959846"><ele>300.4</ele><time>2026-05-03T16:13:12.593Z</time></trkpt><trkpt lat="43.724523" lon="11.3958824"><ele>301.2</ele><time>2026-05-03T16:13:13.594Z</time></trkpt><trkpt lat="43.7245809" lon="11.3957644"><ele>302.0</ele><time>2026-05-03T16:13:14.594Z</time></trkpt><trkpt lat="43.7246365" lon="11.3956312"><ele>304.0</ele><time>2026-05-03T16:13:15.594Z</time></trkpt><trkpt lat="43.7246833" lon="11.3954887"><ele>306.0</ele><time>2026-05-03T16:13:16.594Z</time></trkpt><trkpt lat="43.7247175" lon="11.395337"><ele>308.0</ele><time>2026-05-03T16:13:17.594Z</time></trkpt><trkpt lat="43.7247391" lon="11.3951777"><ele>310.0</ele><time>2026-05-03T16:13:18.594Z</time></trkpt><trkpt lat="43.7247484" lon="11.3950125"><ele>310.0</ele><time>2026-05-03T16:13:19.594Z</time></trkpt><trkpt lat="43.7247412" lon="11.3948541"><ele>310.0</ele><time>2026-05-03T16:13:20.594Z</time></trkpt><trkpt lat="43.724718" lon="11.3946947"><ele>310.0</ele><time>2026-05-03T16:13:21.594Z</time></trkpt><trkpt lat="43.724689" lon="11.394537"><ele>310.0</ele><time>2026-05-03T16:13:22.593Z</time></trkpt><trkpt lat="43.724656" lon="11.3943834"><ele>313.5</ele><time>2026-05-03T16:13:23.594Z</time></trkpt><trkpt lat="43.7246255" lon="11.3942268"><ele>317.0</ele><time>2026-05-03T16:13:24.594Z</time></trkpt><trkpt lat="43.7246058" lon="11.3940635"><ele>320.5</ele><time>2026-05-03T16:13:25.594Z</time></trkpt><trkpt lat="43.7245978" lon="11.3938947"><ele>324.0</ele><time>2026-05-03T16:13:26.594Z</time></trkpt><trkpt lat="43.7246059" lon="11.3937259"><ele>326.5</ele><time>2026-05-03T16:13:27.593Z</time></trkpt><trkpt lat="43.724621" lon="11.3935551"><ele>329.0</ele><time>2026-05-03T16:13:28.594Z</time></trkpt><trkpt lat="43.7246452" lon="11.3933831"><ele>331.5</ele><time>2026-05-03T16:13:29.594Z</time></trkpt><trkpt lat="43.7246688" lon="11.3932109"><ele>334.0</ele><time>2026-05-03T16:13:30.594Z</time></trkpt><trkpt lat="43.7246892" lon="11.3930376"><ele>335.0</ele><time>2026-05-03T16:13:31.594Z</time></trkpt><trkpt lat="43.7247105" lon="11.3928617"><ele>336.0</ele><time>2026-05-03T16:13:32.594Z</time></trkpt><trkpt lat="43.7247346" lon="11.392683"><ele>337.0</ele><time>2026-05-03T16:13:33.594Z</time></trkpt><trkpt lat="43.7247536" lon="11.3925051"><ele>338.0</ele><time>2026-05-03T16:13:34.594Z</time></trkpt><trkpt lat="43.7247739" lon="11.3923297"><ele>339.25</ele><time>2026-05-03T16:13:35.593Z</time></trkpt><trkpt lat="43.7247944" lon="11.3921571"><ele>340.5</ele><time>2026-05-03T16:13:36.594Z</time></trkpt><trkpt lat="43.7248161" lon="11.3919808"><ele>341.75</ele><time>2026-05-03T16:13:37.594Z</time></trkpt><trkpt lat="43.7248376" lon="11.3918113"><ele>343.0</ele><time>2026-05-03T16:13:38.594Z</time></trkpt><trkpt lat="43.7248583" lon="11.3916449"><ele>343.0</ele><time>2026-05-03T16:13:39.594Z</time></trkpt><trkpt lat="43.7248803" lon="11.3914831"><ele>343.0</ele><time>2026-05-03T16:13:40.594Z</time></trkpt><trkpt lat="43.7249024" lon="11.391336"><ele>343.0</ele><time>2026-05-03T16:13:41.594Z</time></trkpt><trkpt lat="43.7249016" lon="11.3912063"><ele>343.0</ele><time>2026-05-03T16:13:42.594Z</time></trkpt><trkpt lat="43.7248639" lon="11.3910968"><ele>343.0</ele><time>2026-05-03T16:13:43.594Z</time></trkpt><trkpt lat="43.7247876" lon="11.3910233"><ele>343.79999999999995</ele><time>2026-05-03T16:13:44.594Z</time></trkpt><trkpt lat="43.7246929" lon="11.3909945"><ele>344.6</ele><time>2026-05-03T16:13:45.594Z</time></trkpt><trkpt lat="43.7246001" lon="11.3909661"><ele>345.4</ele><time>2026-05-03T16:13:46.594Z</time></trkpt><trkpt lat="43.724497" lon="11.3909458"><ele>346.20000000000005</ele><time>2026-05-03T16:13:47.593Z</time></trkpt><trkpt lat="43.7244014" lon="11.3909246"><ele>347.0</ele><time>2026-05-03T16:13:48.593Z</time></trkpt><trkpt lat="43.7243001" lon="11.3909306"><ele>347.0</ele><time>2026-05-03T16:13:49.594Z</time></trkpt><trkpt lat="43.7242071" lon="11.390985"><ele>347.0</ele><time>2026-05-03T16:13:50.593Z</time></trkpt><trkpt lat="43.7241301" lon="11.3910891"><ele>347.0</ele><time>2026-05-03T16:13:51.593Z</time></trkpt><trkpt lat="43.7240582" lon="11.3912035"><ele>347.0</ele><time>2026-05-03T16:13:52.594Z</time></trkpt><trkpt lat="43.7239732" lon="11.3913124"><ele>347.0</ele><time>2026-05-03T16:13:53.593Z</time></trkpt><trkpt lat="43.723885" lon="11.3914079"><ele>347.33333333333337</ele><time>2026-05-03T16:13:54.594Z</time></trkpt><trkpt lat="43.7237942" lon="11.391493"><ele>347.6666666666667</ele><time>2026-05-03T16:13:55.594Z</time></trkpt><trkpt lat="43.7237114" lon="11.3915438"><ele>348.0</ele><time>2026-05-03T16:13:56.593Z</time></trkpt><trkpt lat="43.7236251" lon="11.3915544"><ele>348.3333333333333</ele><time>2026-05-03T16:13:57.593Z</time></trkpt><trkpt lat="43.7235622" lon="11.391515"><ele>348.66666666666663</ele><time>2026-05-03T16:13:58.593Z</time></trkpt><trkpt lat="43.7235261" lon="11.3914157"><ele>349.0</ele><time>2026-05-03T16:13:59.593Z</time></trkpt><trkpt lat="43.723518" lon="11.3912982"><ele>348.6</ele><time>2026-05-03T16:14:00.593Z</time></trkpt><trkpt lat="43.7235288" lon="11.3911706"><ele>348.2</ele><time>2026-05-03T16:14:01.594Z</time></trkpt><trkpt lat="43.7235488" lon="11.3910254"><ele>347.8</ele><time>2026-05-03T16:14:02.593Z</time></trkpt><trkpt lat="43.7235753" lon="11.3908699"><ele>347.40000000000003</ele><time>2026-05-03T16:14:03.594Z</time></trkpt><trkpt lat="43.7236105" lon="11.3907101"><ele>347.0</ele><time>2026-05-03T16:14:04.594Z</time></trkpt><trkpt lat="43.723671" lon="11.3905526"><ele>349.25</ele><time>2026-05-03T16:14:05.594Z</time></trkpt><trkpt lat="43.723746" lon="11.390402"><ele>351.5</ele><time>2026-05-03T16:14:06.594Z</time></trkpt><trkpt lat="43.7238299" lon="11.3902565"><ele>353.75</ele><time>2026-05-03T16:14:07.594Z</time></trkpt><trkpt lat="43.7239192" lon="11.3901171"><ele>356.0</ele><time>2026-05-03T16:14:08.594Z</time></trkpt><trkpt lat="43.7240159" lon="11.389989"><ele>356.0</ele><time>2026-05-03T16:14:09.594Z</time></trkpt><trkpt lat="43.7241131" lon="11.3898759"><ele>356.0</ele><time>2026-05-03T16:14:10.593Z</time></trkpt><trkpt lat="43.724203" lon="11.3897734"><ele>356.0</ele><time>2026-05-03T16:14:11.594Z</time></trkpt><trkpt lat="43.7242788" lon="11.3896562"><ele>356.0</ele><time>2026-05-03T16:14:12.594Z</time></trkpt><trkpt lat="43.7243246" lon="11.3895199"><ele>359.0</ele><time>2026-05-03T16:14:13.594Z</time></trkpt><trkpt lat="43.7243433" lon="11.3893653"><ele>362.0</ele><time>2026-05-03T16:14:14.593Z</time></trkpt><trkpt lat="43.7243401" lon="11.3891984"><ele>365.0</ele><time>2026-05-03T16:14:15.593Z</time></trkpt><trkpt lat="43.7243253" lon="11.3890308"><ele>368.0</ele><time>2026-05-03T16:14:16.594Z</time></trkpt><trkpt lat="43.7243" lon="11.3888508"><ele>369.75</ele><time>2026-05-03T16:14:17.593Z</time></trkpt><trkpt lat="43.7242648" lon="11.3886712"><ele>371.5</ele><time>2026-05-03T16:14:18.593Z</time></trkpt><trkpt lat="43.7242212" lon="11.3884891"><ele>373.25</ele><time>2026-05-03T16:14:19.593Z</time></trkpt><trkpt lat="43.7241708" lon="11.3883097"><ele>375.0</ele><time>2026-05-03T16:14:20.594Z</time></trkpt><trkpt lat="43.7241052" lon="11.3881326"><ele>377.5</ele><time>2026-05-03T16:14:21.594Z</time></trkpt><trkpt lat="43.7240317" lon="11.3879669"><ele>380.0</ele><time>2026-05-03T16:14:22.594Z</time></trkpt><trkpt lat="43.7239494" lon="11.3878107"><ele>382.5</ele><time>2026-05-03T16:14:23.593Z</time></trkpt><trkpt lat="43.723859" lon="11.3876591"><ele>385.0</ele><time>2026-05-03T16:14:24.594Z</time></trkpt><trkpt lat="43.7237592" lon="11.3875092"><ele>385.0</ele><time>2026-05-03T16:14:25.594Z</time></trkpt><trkpt lat="43.7236571" lon="11.3873849"><ele>385.0</ele><time>2026-05-03T16:14:26.594Z</time></trkpt><trkpt lat="43.7235542" lon="11.387267"><ele>385.0</ele><time>2026-05-03T16:14:27.594Z</time></trkpt><trkpt lat="43.7234452" lon="11.3871504"><ele>385.0</ele><time>2026-05-03T16:14:28.594Z</time></trkpt><trkpt lat="43.7233369" lon="11.3870319"><ele>386.0</ele><time>2026-05-03T16:14:29.594Z</time></trkpt><trkpt lat="43.7232313" lon="11.3869097"><ele>387.0</ele><time>2026-05-03T16:14:30.594Z</time></trkpt><trkpt lat="43.7231293" lon="11.3867823"><ele>388.0</ele><time>2026-05-03T16:14:31.594Z</time></trkpt><trkpt lat="43.7230338" lon="11.386658"><ele>389.0</ele><time>2026-05-03T16:14:32.594Z</time></trkpt><trkpt lat="43.7229356" lon="11.3865324"><ele>389.0</ele><time>2026-05-03T16:14:33.594Z</time></trkpt><trkpt lat="43.722852" lon="11.3864123"><ele>389.0</ele><time>2026-05-03T16:14:34.593Z</time></trkpt><trkpt lat="43.7227625" lon="11.3862848"><ele>389.0</ele><time>2026-05-03T16:14:35.593Z</time></trkpt><trkpt lat="43.722667" lon="11.3861576"><ele>389.0</ele><time>2026-05-03T16:14:36.594Z</time></trkpt><trkpt lat="43.7225777" lon="11.386033"><ele>387.0</ele><time>2026-05-03T16:14:37.594Z</time></trkpt><trkpt lat="43.7224975" lon="11.3859206"><ele>385.0</ele><time>2026-05-03T16:14:38.593Z</time></trkpt><trkpt lat="43.7224038" lon="11.3857949"><ele>383.0</ele><time>2026-05-03T16:14:39.594Z</time></trkpt><trkpt lat="43.7223212" lon="11.3856713"><ele>381.0</ele><time>2026-05-03T16:14:40.594Z</time></trkpt><trkpt lat="43.7222483" lon="11.3855391"><ele>382.5</ele><time>2026-05-03T16:14:41.593Z</time></trkpt><trkpt lat="43.7221817" lon="11.3854013"><ele>384.0</ele><time>2026-05-03T16:14:42.594Z</time></trkpt><trkpt lat="43.7221253" lon="11.3852615"><ele>385.5</ele><time>2026-05-03T16:14:43.593Z</time></trkpt><trkpt lat="43.7220728" lon="11.3851128"><ele>387.0</ele><time>2026-05-03T16:14:44.594Z</time></trkpt><trkpt lat="43.7220238" lon="11.3849633"><ele>387.0</ele><time>2026-05-03T16:14:45.594Z</time></trkpt><trkpt lat="43.7219772" lon="11.3848199"><ele>387.0</ele><time>2026-05-03T16:14:46.594Z</time></trkpt><trkpt lat="43.7219273" lon="11.3846781"><ele>387.0</ele><time>2026-05-03T16:14:47.593Z</time></trkpt><trkpt lat="43.7218817" lon="11.3845393"><ele>387.0</ele><time>2026-05-03T16:14:48.594Z</time></trkpt><trkpt lat="43.7218393" lon="11.3843971"><ele>387.0</ele><time>2026-05-03T16:14:49.594Z</time></trkpt><trkpt lat="43.7217925" lon="11.3842499"><ele>387.25</ele><time>2026-05-03T16:14:50.593Z</time></trkpt><trkpt lat="43.7217402" lon="11.3841014"><ele>387.5</ele><time>2026-05-03T16:14:51.594Z</time></trkpt><trkpt lat="43.7216894" lon="11.3839524"><ele>387.75</ele><time>2026-05-03T16:14:52.594Z</time></trkpt><trkpt lat="43.7216404" lon="11.3838027"><ele>388.0</ele><time>2026-05-03T16:14:53.594Z</time></trkpt><trkpt lat="43.721589" lon="11.3836553"><ele>388.0</ele><time>2026-05-03T16:14:54.594Z</time></trkpt><trkpt lat="43.7215346" lon="11.3835105"><ele>388.0</ele><time>2026-05-03T16:14:55.594Z</time></trkpt><trkpt lat="43.7214796" lon="11.3833642"><ele>388.0</ele><time>2026-05-03T16:14:56.593Z</time></trkpt><trkpt lat="43.7214252" lon="11.38322"><ele>388.0</ele><time>2026-05-03T16:14:57.594Z</time></trkpt><trkpt lat="43.7213737" lon="11.3830841"><ele>389.0</ele><time>2026-05-03T16:14:58.594Z</time></trkpt><trkpt lat="43.7213143" lon="11.3829598"><ele>390.0</ele><time>2026-05-03T16:14:59.594Z</time></trkpt><trkpt lat="43.7212621" lon="11.3828472"><ele>391.0</ele><time>2026-05-03T16:15:00.594Z</time></trkpt><trkpt lat="43.7212108" lon="11.3827322"><ele>392.0</ele><time>2026-05-03T16:15:01.594Z</time></trkpt><trkpt lat="43.7211551" lon="11.382631"><ele>393.0</ele><time>2026-05-03T16:15:02.594Z</time></trkpt><trkpt lat="43.7211098" lon="11.382525"><ele>393.0</ele><time>2026-05-03T16:15:03.594Z</time></trkpt><trkpt lat="43.7210746" lon="11.382419"><ele>393.0</ele><time>2026-05-03T16:15:04.594Z</time></trkpt><trkpt lat="43.7210439" lon="11.3823069"><ele>393.0</ele><time>2026-05-03T16:15:05.594Z</time></trkpt><trkpt lat="43.7210221" lon="11.3821939"><ele>393.0</ele><time>2026-05-03T16:15:06.594Z</time></trkpt><trkpt lat="43.7210049" lon="11.3820826"><ele>393.0</ele><time>2026-05-03T16:15:07.593Z</time></trkpt><trkpt lat="43.7209902" lon="11.3819937"><ele>393.0</ele><time>2026-05-03T16:15:08.594Z</time></trkpt><trkpt lat="43.7209844" lon="11.3818211"><ele>391.5</ele><time>2026-05-03T16:15:10.593Z</time></trkpt><trkpt lat="43.7209964" lon="11.3816541"><ele>390.0</ele><time>2026-05-03T16:15:12.594Z</time></trkpt><trkpt lat="43.7210095" lon="11.3815604"><ele>388.5</ele><time>2026-05-03T16:15:13.594Z</time></trkpt><trkpt lat="43.7210361" lon="11.3814701"><ele>387.0</ele><time>2026-05-03T16:15:14.594Z</time></trkpt><trkpt lat="43.7210716" lon="11.3813683"><ele>385.5</ele><time>2026-05-03T16:15:15.593Z</time></trkpt><trkpt lat="43.7211249" lon="11.381276"><ele>384.0</ele><time>2026-05-03T16:15:16.593Z</time></trkpt><trkpt lat="43.7211845" lon="11.3812052"><ele>382.1666666666667</ele><time>2026-05-03T16:15:17.594Z</time></trkpt><trkpt lat="43.7212544" lon="11.3811589"><ele>380.3333333333333</ele><time>2026-05-03T16:15:18.594Z</time></trkpt><trkpt lat="43.7213471" lon="11.3811405"><ele>378.5</ele><time>2026-05-03T16:15:19.594Z</time></trkpt><trkpt lat="43.7214343" lon="11.381152"><ele>376.66666666666663</ele><time>2026-05-03T16:15:20.594Z</time></trkpt><trkpt lat="43.7215207" lon="11.3811863"><ele>374.8333333333333</ele><time>2026-05-03T16:15:21.594Z</time></trkpt><trkpt lat="43.7216085" lon="11.3812359"><ele>373.0</ele><time>2026-05-03T16:15:22.594Z</time></trkpt><trkpt lat="43.7217036" lon="11.381286"><ele>373.0</ele><time>2026-05-03T16:15:23.594Z</time></trkpt><trkpt lat="43.7218058" lon="11.3813392"><ele>373.0</ele><time>2026-05-03T16:15:24.594Z</time></trkpt><trkpt lat="43.7219042" lon="11.3813923"><ele>373.0</ele><time>2026-05-03T16:15:25.593Z</time></trkpt><trkpt lat="43.7220078" lon="11.3814471"><ele>373.0</ele><time>2026-05-03T16:15:26.593Z</time></trkpt><trkpt lat="43.7221168" lon="11.3815107"><ele>373.0</ele><time>2026-05-03T16:15:27.594Z</time></trkpt><trkpt lat="43.7222281" lon="11.3815772"><ele>372.0</ele><time>2026-05-03T16:15:28.594Z</time></trkpt><trkpt lat="43.7223403" lon="11.3816582"><ele>371.0</ele><time>2026-05-03T16:15:29.594Z</time></trkpt><trkpt lat="43.7224399" lon="11.3817549"><ele>370.0</ele><time>2026-05-03T16:15:30.594Z</time></trkpt><trkpt lat="43.7225447" lon="11.3818505"><ele>369.0</ele><time>2026-05-03T16:15:31.594Z</time></trkpt><trkpt lat="43.722651" lon="11.3819382"><ele>367.25</ele><time>2026-05-03T16:15:32.594Z</time></trkpt><trkpt lat="43.7227656" lon="11.3820092"><ele>365.5</ele><time>2026-05-03T16:15:33.594Z</time></trkpt><trkpt lat="43.7228876" lon="11.3820493"><ele>363.75</ele><time>2026-05-03T16:15:34.594Z</time></trkpt><trkpt lat="43.7230107" lon="11.382061"><ele>362.0</ele><time>2026-05-03T16:15:35.593Z</time></trkpt><trkpt lat="43.7231345" lon="11.3820364"><ele>362.0</ele><time>2026-05-03T16:15:36.593Z</time></trkpt><trkpt lat="43.7232578" lon="11.3820033"><ele>362.0</ele><time>2026-05-03T16:15:37.594Z</time></trkpt><trkpt lat="43.7233806" lon="11.3819757"><ele>362.0</ele><time>2026-05-03T16:15:38.594Z</time></trkpt><trkpt lat="43.7235028" lon="11.3819728"><ele>362.0</ele><time>2026-05-03T16:15:39.594Z</time></trkpt><trkpt lat="43.7236255" lon="11.3819904"><ele>362.0</ele><time>2026-05-03T16:15:40.593Z</time></trkpt><trkpt lat="43.723758" lon="11.3820257"><ele>362.0</ele><time>2026-05-03T16:15:41.593Z</time></trkpt><trkpt lat="43.7238767" lon="11.3820577"><ele>362.0</ele><time>2026-05-03T16:15:42.594Z</time></trkpt><trkpt lat="43.7240032" lon="11.3820802"><ele>362.0</ele><time>2026-05-03T16:15:43.593Z</time></trkpt><trkpt lat="43.7241316" lon="11.3820819"><ele>362.0</ele><time>2026-05-03T16:15:44.594Z</time></trkpt><trkpt lat="43.7242551" lon="11.3820815"><ele>362.0</ele><time>2026-05-03T16:15:45.594Z</time></trkpt><trkpt lat="43.7243847" lon="11.382058"><ele>362.0</ele><time>2026-05-03T16:15:46.593Z</time></trkpt><trkpt lat="43.7245145" lon="11.382021"><ele>362.0</ele><time>2026-05-03T16:15:47.593Z</time></trkpt><trkpt lat="43.7246396" lon="11.3819712"><ele>363.5</ele><time>2026-05-03T16:15:48.594Z</time></trkpt><trkpt lat="43.7247585" lon="11.3818923"><ele>365.0</ele><time>2026-05-03T16:15:49.593Z</time></trkpt><trkpt lat="43.7248707" lon="11.3817986"><ele>366.5</ele><time>2026-05-03T16:15:50.593Z</time></trkpt><trkpt lat="43.7249741" lon="11.3816893"><ele>368.0</ele><time>2026-05-03T16:15:51.594Z</time></trkpt><trkpt lat="43.7250735" lon="11.3815818"><ele>368.0</ele><time>2026-05-03T16:15:52.594Z</time></trkpt><trkpt lat="43.7251703" lon="11.381463"><ele>368.0</ele><time>2026-05-03T16:15:53.594Z</time></trkpt><trkpt lat="43.7252616" lon="11.3813468"><ele>368.0</ele><time>2026-05-03T16:15:54.594Z</time></trkpt><trkpt lat="43.7253581" lon="11.3812392"><ele>368.0</ele><time>2026-05-03T16:15:55.593Z</time></trkpt><trkpt lat="43.7254563" lon="11.381148"><ele>367.25</ele><time>2026-05-03T16:15:56.594Z</time></trkpt><trkpt lat="43.7255513" lon="11.3810951"><ele>366.5</ele><time>2026-05-03T16:15:57.594Z</time></trkpt><trkpt lat="43.7256873" lon="11.3810601"><ele>365.75</ele><time>2026-05-03T16:15:58.593Z</time></trkpt><trkpt lat="43.7258129" lon="11.3810331"><ele>365.0</ele><time>2026-05-03T16:15:59.594Z</time></trkpt><trkpt lat="43.7259427" lon="11.3810063"><ele>365.75</ele><time>2026-05-03T16:16:00.594Z</time></trkpt><trkpt lat="43.7260754" lon="11.3809868"><ele>366.5</ele><time>2026-05-03T16:16:01.594Z</time></trkpt><trkpt lat="43.7262072" lon="11.3809611"><ele>367.25</ele><time>2026-05-03T16:16:02.593Z</time></trkpt><trkpt lat="43.7263336" lon="11.3809253"><ele>368.0</ele><time>2026-05-03T16:16:03.594Z</time></trkpt><trkpt lat="43.7264644" lon="11.380898"><ele>368.0</ele><time>2026-05-03T16:16:04.594Z</time></trkpt><trkpt lat="43.7265905" lon="11.3808742"><ele>368.0</ele><time>2026-05-03T16:16:05.594Z</time></trkpt><trkpt lat="43.7267245" lon="11.3808574"><ele>368.0</ele><time>2026-05-03T16:16:06.594Z</time></trkpt><trkpt lat="43.7268528" lon="11.3808457"><ele>368.0</ele><time>2026-05-03T16:16:07.594Z</time></trkpt><trkpt lat="43.7269782" lon="11.3808462"><ele>365.25</ele><time>2026-05-03T16:16:08.594Z</time></trkpt><trkpt lat="43.7271034" lon="11.3808668"><ele>362.5</ele><time>2026-05-03T16:16:09.593Z</time></trkpt><trkpt lat="43.7272004" lon="11.3809211"><ele>359.75</ele><time>2026-05-03T16:16:10.594Z</time></trkpt><trkpt lat="43.7273138" lon="11.3810001"><ele>357.0</ele><time>2026-05-03T16:16:11.594Z</time></trkpt><trkpt lat="43.7274045" lon="11.3811038"><ele>357.0</ele><time>2026-05-03T16:16:12.594Z</time></trkpt><trkpt lat="43.7274927" lon="11.3812192"><ele>357.0</ele><time>2026-05-03T16:16:13.594Z</time></trkpt><trkpt lat="43.7275772" lon="11.3813395"><ele>357.0</ele><time>2026-05-03T16:16:14.594Z</time></trkpt><trkpt lat="43.7276663" lon="11.381467"><ele>357.0</ele><time>2026-05-03T16:16:15.594Z</time></trkpt><trkpt lat="43.7277422" lon="11.3815522"><ele>361.0</ele><time>2026-05-03T16:16:16.594Z</time></trkpt><trkpt lat="43.7278204" lon="11.3816164"><ele>365.0</ele><time>2026-05-03T16:16:17.594Z</time></trkpt><trkpt lat="43.7279245" lon="11.3816151"><ele>369.0</ele><time>2026-05-03T16:16:18.594Z</time></trkpt><trkpt lat="43.7280236" lon="11.3815792"><ele>373.0</ele><time>2026-05-03T16:16:19.594Z</time></trkpt><trkpt lat="43.7280973" lon="11.3814654"><ele>377.0</ele><time>2026-05-03T16:16:20.594Z</time></trkpt><trkpt lat="43.7281855" lon="11.3813611"><ele>373.5</ele><time>2026-05-03T16:16:21.594Z</time></trkpt><trkpt lat="43.7282646" lon="11.3812409"><ele>370.0</ele><time>2026-05-03T16:16:22.594Z</time></trkpt><trkpt lat="43.7283608" lon="11.3811519"><ele>366.5</ele><time>2026-05-03T16:16:23.594Z</time></trkpt><trkpt lat="43.7284601" lon="11.381116"><ele>363.0</ele><time>2026-05-03T16:16:24.593Z</time></trkpt><trkpt lat="43.7285805" lon="11.3811156"><ele>363.0</ele><time>2026-05-03T16:16:25.593Z</time></trkpt><trkpt lat="43.7286905" lon="11.3811413"><ele>363.0</ele><time>2026-05-03T16:16:26.594Z</time></trkpt><trkpt lat="43.7287991" lon="11.3811494"><ele>363.0</ele><time>2026-05-03T16:16:27.594Z</time></trkpt><trkpt lat="43.7289146" lon="11.3811614"><ele>363.0</ele><time>2026-05-03T16:16:28.594Z</time></trkpt><trkpt lat="43.7290413" lon="11.3811771"><ele>363.0</ele><time>2026-05-03T16:16:29.594Z</time></trkpt><trkpt lat="43.7291717" lon="11.3811693"><ele>363.0</ele><time>2026-05-03T16:16:30.594Z</time></trkpt><trkpt lat="43.7292987" lon="11.3811442"><ele>363.0</ele><time>2026-05-03T16:16:31.594Z</time></trkpt><trkpt lat="43.7294179" lon="11.3810948"><ele>363.0</ele><time>2026-05-03T16:16:32.594Z</time></trkpt><trkpt lat="43.7295367" lon="11.3810169"><ele>364.75</ele><time>2026-05-03T16:16:33.594Z</time></trkpt><trkpt lat="43.7296404" lon="11.3809186"><ele>366.5</ele><time>2026-05-03T16:16:34.594Z</time></trkpt><trkpt lat="43.7297382" lon="11.3807946"><ele>368.25</ele><time>2026-05-03T16:16:35.594Z</time></trkpt><trkpt lat="43.7298266" lon="11.3806561"><ele>370.0</ele><time>2026-05-03T16:16:36.593Z</time></trkpt><trkpt lat="43.7299219" lon="11.3805345"><ele>366.75</ele><time>2026-05-03T16:16:37.594Z</time></trkpt><trkpt lat="43.730022" lon="11.3804299"><ele>363.5</ele><time>2026-05-03T16:16:38.593Z</time></trkpt><trkpt lat="43.7301241" lon="11.3803456"><ele>360.25</ele><time>2026-05-03T16:16:39.594Z</time></trkpt><trkpt lat="43.7302302" lon="11.3802846"><ele>357.0</ele><time>2026-05-03T16:16:40.594Z</time></trkpt><trkpt lat="43.7303701" lon="11.3802582"><ele>357.0</ele><time>2026-05-03T16:16:41.593Z</time></trkpt><trkpt lat="43.730495" lon="11.3802377"><ele>357.0</ele><time>2026-05-03T16:16:42.593Z</time></trkpt><trkpt lat="43.7306213" lon="11.380227"><ele>357.0</ele><time>2026-05-03T16:16:43.594Z</time></trkpt><trkpt lat="43.7307452" lon="11.3802078"><ele>357.0</ele><time>2026-05-03T16:16:44.594Z</time></trkpt><trkpt lat="43.7308736" lon="11.3801818"><ele>357.0</ele><time>2026-05-03T16:16:45.594Z</time></trkpt><trkpt lat="43.7309934" lon="11.3801682"><ele>357.0</ele><time>2026-05-03T16:16:46.594Z</time></trkpt><trkpt lat="43.7311131" lon="11.3801532"><ele>357.0</ele><time>2026-05-03T16:16:47.594Z</time></trkpt><trkpt lat="43.7312339" lon="11.3801284"><ele>357.0</ele><time>2026-05-03T16:16:48.594Z</time></trkpt><trkpt lat="43.7313563" lon="11.3801094"><ele>356.5</ele><time>2026-05-03T16:16:49.594Z</time></trkpt><trkpt lat="43.7314752" lon="11.3800929"><ele>356.0</ele><time>2026-05-03T16:16:50.594Z</time></trkpt><trkpt lat="43.7316045" lon="11.3800609"><ele>355.5</ele><time>2026-05-03T16:16:51.594Z</time></trkpt><trkpt lat="43.7317288" lon="11.3800251"><ele>355.0</ele><time>2026-05-03T16:16:52.594Z</time></trkpt><trkpt lat="43.7318526" lon="11.3799855"><ele>355.25</ele><time>2026-05-03T16:16:53.594Z</time></trkpt><trkpt lat="43.7319732" lon="11.3799275"><ele>355.5</ele><time>2026-05-03T16:16:54.594Z</time></trkpt><trkpt lat="43.7320834" lon="11.3798672"><ele>355.75</ele><time>2026-05-03T16:16:55.594Z</time></trkpt><trkpt lat="43.7321902" lon="11.3797997"><ele>356.0</ele><time>2026-05-03T16:16:56.594Z</time></trkpt><trkpt lat="43.7322923" lon="11.3797215"><ele>353.5</ele><time>2026-05-03T16:16:57.594Z</time></trkpt><trkpt lat="43.7323953" lon="11.3796401"><ele>351.0</ele><time>2026-05-03T16:16:58.594Z</time></trkpt><trkpt lat="43.7324978" lon="11.3795533"><ele>348.5</ele><time>2026-05-03T16:16:59.594Z</time></trkpt><trkpt lat="43.7325973" lon="11.3794591"><ele>346.0</ele><time>2026-05-03T16:17:00.594Z</time></trkpt><trkpt lat="43.7326913" lon="11.3793485"><ele>347.25</ele><time>2026-05-03T16:17:01.594Z</time></trkpt><trkpt lat="43.7327838" lon="11.3792408"><ele>348.5</ele><time>2026-05-03T16:17:02.594Z</time></trkpt><trkpt lat="43.7328721" lon="11.3791253"><ele>349.75</ele><time>2026-05-03T16:17:03.594Z</time></trkpt><trkpt lat="43.7329486" lon="11.3790121"><ele>351.0</ele><time>2026-05-03T16:17:04.594Z</time></trkpt><trkpt lat="43.7330205" lon="11.3789009"><ele>349.8</ele><time>2026-05-03T16:17:05.594Z</time></trkpt><trkpt lat="43.7330894" lon="11.3787828"><ele>348.6</ele><time>2026-05-03T16:17:06.594Z</time></trkpt><trkpt lat="43.7331509" lon="11.3786601"><ele>347.4</ele><time>2026-05-03T16:17:07.594Z</time></trkpt><trkpt lat="43.7332063" lon="11.3785363"><ele>346.2</ele><time>2026-05-03T16:17:08.593Z</time></trkpt><trkpt lat="43.7332634" lon="11.3784176"><ele>345.0</ele><time>2026-05-03T16:17:09.594Z</time></trkpt><trkpt lat="43.7333224" lon="11.3783075"><ele>345.0</ele><time>2026-05-03T16:17:10.594Z</time></trkpt><trkpt lat="43.7333848" lon="11.3782015"><ele>345.0</ele><time>2026-05-03T16:17:11.594Z</time></trkpt><trkpt lat="43.7334585" lon="11.3781032"><ele>345.0</ele><time>2026-05-03T16:17:12.594Z</time></trkpt><trkpt lat="43.733536" lon="11.3780153"><ele>345.0</ele><time>2026-05-03T16:17:13.594Z</time></trkpt><trkpt lat="43.7336178" lon="11.3779328"><ele>345.0</ele><time>2026-05-03T16:17:14.594Z</time></trkpt><trkpt lat="43.7337005" lon="11.3778462"><ele>344.8</ele><time>2026-05-03T16:17:15.593Z</time></trkpt><trkpt lat="43.7337838" lon="11.3777594"><ele>344.6</ele><time>2026-05-03T16:17:16.594Z</time></trkpt><trkpt lat="43.7338629" lon="11.3776682"><ele>344.4</ele><time>2026-05-03T16:17:17.594Z</time></trkpt><trkpt lat="43.733934" lon="11.3775627"><ele>344.2</ele><time>2026-05-03T16:17:18.594Z</time></trkpt><trkpt lat="43.7339968" lon="11.3774434"><ele>344.0</ele><time>2026-05-03T16:17:19.593Z</time></trkpt><trkpt lat="43.7340494" lon="11.3773195"><ele>344.0</ele><time>2026-05-03T16:17:20.594Z</time></trkpt><trkpt lat="43.7341" lon="11.3771927"><ele>344.0</ele><time>2026-05-03T16:17:21.594Z</time></trkpt><trkpt lat="43.7341487" lon="11.3770628"><ele>344.0</ele><time>2026-05-03T16:17:22.594Z</time></trkpt><trkpt lat="43.7341977" lon="11.3769323"><ele>344.0</ele><time>2026-05-03T16:17:23.594Z</time></trkpt><trkpt lat="43.7342435" lon="11.3768085"><ele>344.0</ele><time>2026-05-03T16:17:24.594Z</time></trkpt><trkpt lat="43.7342878" lon="11.3766836"><ele>345.0</ele><time>2026-05-03T16:17:25.594Z</time></trkpt><trkpt lat="43.7343363" lon="11.3765662"><ele>346.0</ele><time>2026-05-03T16:17:26.593Z</time></trkpt><trkpt lat="43.73439" lon="11.3764498"><ele>347.0</ele><time>2026-05-03T16:17:27.594Z</time></trkpt><trkpt lat="43.7344474" lon="11.3763365"><ele>348.0</ele><time>2026-05-03T16:17:28.594Z</time></trkpt><trkpt lat="43.7345099" lon="11.3762208"><ele>349.0</ele><time>2026-05-03T16:17:29.594Z</time></trkpt><trkpt lat="43.7345727" lon="11.3761093"><ele>346.79999999999995</ele><time>2026-05-03T16:17:30.594Z</time></trkpt><trkpt lat="43.7346408" lon="11.3759905"><ele>344.59999999999997</ele><time>2026-05-03T16:17:31.594Z</time></trkpt><trkpt lat="43.7347068" lon="11.3758861"><ele>342.4</ele><time>2026-05-03T16:17:32.593Z</time></trkpt><trkpt lat="43.7347693" lon="11.3757738"><ele>340.2</ele><time>2026-05-03T16:17:33.593Z</time></trkpt><trkpt lat="43.7348246" lon="11.3756605"><ele>338.0</ele><time>2026-05-03T16:17:34.594Z</time></trkpt><trkpt lat="43.7348729" lon="11.3755369"><ele>337.79999999999995</ele><time>2026-05-03T16:17:35.594Z</time></trkpt><trkpt lat="43.7349038" lon="11.3754093"><ele>337.6</ele><time>2026-05-03T16:17:36.594Z</time></trkpt><trkpt lat="43.7349196" lon="11.3752774"><ele>337.4</ele><time>2026-05-03T16:17:37.594Z</time></trkpt><trkpt lat="43.7349048" lon="11.3751428"><ele>337.20000000000005</ele><time>2026-05-03T16:17:38.594Z</time></trkpt><trkpt lat="43.7348646" lon="11.3750236"><ele>337.0</ele><time>2026-05-03T16:17:39.594Z</time></trkpt><trkpt lat="43.7347985" lon="11.3749272"><ele>337.0</ele><time>2026-05-03T16:17:40.594Z</time></trkpt><trkpt lat="43.7347204" lon="11.3748534"><ele>337.0</ele><time>2026-05-03T16:17:41.594Z</time></trkpt><trkpt lat="43.7346407" lon="11.3747772"><ele>337.0</ele><time>2026-05-03T16:17:42.594Z</time></trkpt><trkpt lat="43.7345657" lon="11.3746828"><ele>337.0</ele><time>2026-05-03T16:17:43.593Z</time></trkpt><trkpt lat="43.7344838" lon="11.3745859"><ele>337.0</ele><time>2026-05-03T16:17:44.593Z</time></trkpt><trkpt lat="43.7344013" lon="11.3744798"><ele>333.75</ele><time>2026-05-03T16:17:45.594Z</time></trkpt><trkpt lat="43.7343203" lon="11.3743649"><ele>330.5</ele><time>2026-05-03T16:17:46.593Z</time></trkpt><trkpt lat="43.7342438" lon="11.3742399"><ele>327.25</ele><time>2026-05-03T16:17:47.594Z</time></trkpt><trkpt lat="43.734181" lon="11.3741055"><ele>324.0</ele><time>2026-05-03T16:17:48.594Z</time></trkpt><trkpt lat="43.7341214" lon="11.3739615"><ele>324.2</ele><time>2026-05-03T16:17:49.594Z</time></trkpt><trkpt lat="43.7340711" lon="11.3738271"><ele>324.4</ele><time>2026-05-03T16:17:50.593Z</time></trkpt><trkpt lat="43.7340207" lon="11.3736842"><ele>324.6</ele><time>2026-05-03T16:17:51.594Z</time></trkpt><trkpt lat="43.7339605" lon="11.3735534"><ele>324.8</ele><time>2026-05-03T16:17:52.594Z</time></trkpt><trkpt lat="43.7338876" lon="11.3734352"><ele>325.0</ele><time>2026-05-03T16:17:53.594Z</time></trkpt><trkpt lat="43.733811" lon="11.3733187"><ele>325.0</ele><time>2026-05-03T16:17:54.594Z</time></trkpt><trkpt lat="43.7337308" lon="11.3732249"><ele>325.0</ele><time>2026-05-03T16:17:55.594Z</time></trkpt><trkpt lat="43.7336514" lon="11.3731222"><ele>325.0</ele><time>2026-05-03T16:17:56.594Z</time></trkpt><trkpt lat="43.7335731" lon="11.3730237"><ele>325.0</ele><time>2026-05-03T16:17:57.594Z</time></trkpt><trkpt lat="43.7334992" lon="11.3729238"><ele>325.0</ele><time>2026-05-03T16:17:58.593Z</time></trkpt><trkpt lat="43.7334293" lon="11.372813"><ele>323.4</ele><time>2026-05-03T16:17:59.593Z</time></trkpt><trkpt lat="43.7333738" lon="11.3726883"><ele>321.8</ele><time>2026-05-03T16:18:00.594Z</time></trkpt><trkpt lat="43.7333312" lon="11.3725539"><ele>320.2</ele><time>2026-05-03T16:18:01.594Z</time></trkpt><trkpt lat="43.7333023" lon="11.3724123"><ele>318.6</ele><time>2026-05-03T16:18:02.593Z</time></trkpt><trkpt lat="43.7332795" lon="11.37226"><ele>317.0</ele><time>2026-05-03T16:18:03.594Z</time></trkpt><trkpt lat="43.7332597" lon="11.3721009"><ele>317.0</ele><time>2026-05-03T16:18:04.594Z</time></trkpt><trkpt lat="43.7332404" lon="11.371946"><ele>317.0</ele><time>2026-05-03T16:18:05.594Z</time></trkpt><trkpt lat="43.7332164" lon="11.3717935"><ele>317.0</ele><time>2026-05-03T16:18:06.594Z</time></trkpt><trkpt lat="43.7331811" lon="11.3716732"><ele>317.0</ele><time>2026-05-03T16:18:07.594Z</time></trkpt><trkpt lat="43.7331375" lon="11.3715341"><ele>317.0</ele><time>2026-05-03T16:18:08.593Z</time></trkpt><trkpt lat="43.7330868" lon="11.3713942"><ele>318.0</ele><time>2026-05-03T16:18:09.593Z</time></trkpt><trkpt lat="43.7330422" lon="11.3712488"><ele>319.0</ele><time>2026-05-03T16:18:10.594Z</time></trkpt><trkpt lat="43.733002" lon="11.3710954"><ele>320.0</ele><time>2026-05-03T16:18:11.594Z</time></trkpt><trkpt lat="43.7329687" lon="11.3709365"><ele>321.0</ele><time>2026-05-03T16:18:12.594Z</time></trkpt><trkpt lat="43.7329376" lon="11.3707748"><ele>321.0</ele><time>2026-05-03T16:18:13.594Z</time></trkpt><trkpt lat="43.732906" lon="11.3706092"><ele>321.0</ele><time>2026-05-03T16:18:14.593Z</time></trkpt><trkpt lat="43.7328789" lon="11.3704452"><ele>321.0</ele><time>2026-05-03T16:18:15.593Z</time></trkpt><trkpt lat="43.7328526" lon="11.370279"><ele>321.0</ele><time>2026-05-03T16:18:16.593Z</time></trkpt><trkpt lat="43.7328309" lon="11.3701112"><ele>322.0</ele><time>2026-05-03T16:18:17.594Z</time></trkpt><trkpt lat="43.7328104" lon="11.3699409"><ele>323.0</ele><time>2026-05-03T16:18:18.594Z</time></trkpt><trkpt lat="43.7327903" lon="11.369772"><ele>324.0</ele><time>2026-05-03T16:18:19.594Z</time></trkpt><trkpt lat="43.7327714" lon="11.3696012"><ele>325.0</ele><time>2026-05-03T16:18:20.593Z</time></trkpt><trkpt lat="43.7327559" lon="11.3694234"><ele>325.0</ele><time>2026-05-03T16:18:21.593Z</time></trkpt><trkpt lat="43.732738" lon="11.3692562"><ele>325.0</ele><time>2026-05-03T16:18:22.594Z</time></trkpt><trkpt lat="43.7327242" lon="11.3690902"><ele>325.0</ele><time>2026-05-03T16:18:23.593Z</time></trkpt><trkpt lat="43.7327127" lon="11.3689186"><ele>325.0</ele><time>2026-05-03T16:18:24.593Z</time></trkpt><trkpt lat="43.7327027" lon="11.3687543"><ele>321.2</ele><time>2026-05-03T16:18:25.593Z</time></trkpt><trkpt lat="43.7326957" lon="11.3685985"><ele>317.4</ele><time>2026-05-03T16:18:26.593Z</time></trkpt><trkpt lat="43.7326875" lon="11.3684553"><ele>313.6</ele><time>2026-05-03T16:18:27.594Z</time></trkpt><trkpt lat="43.73267" lon="11.3683144"><ele>309.8</ele><time>2026-05-03T16:18:28.594Z</time></trkpt><trkpt lat="43.7326422" lon="11.368175"><ele>306.0</ele><time>2026-05-03T16:18:29.594Z</time></trkpt><trkpt lat="43.7325978" lon="11.3680382"><ele>306.6</ele><time>2026-05-03T16:18:30.593Z</time></trkpt><trkpt lat="43.7325543" lon="11.367912"><ele>307.20000000000005</ele><time>2026-05-03T16:18:31.594Z</time></trkpt><trkpt lat="43.7325062" lon="11.3677842"><ele>307.79999999999995</ele><time>2026-05-03T16:18:32.594Z</time></trkpt><trkpt lat="43.7324559" lon="11.367655"><ele>308.4</ele><time>2026-05-03T16:18:33.593Z</time></trkpt><trkpt lat="43.7324018" lon="11.367532"><ele>309.0</ele><time>2026-05-03T16:18:34.593Z</time></trkpt><trkpt lat="43.7323488" lon="11.3674068"><ele>309.0</ele><time>2026-05-03T16:18:35.594Z</time></trkpt><trkpt lat="43.7323059" lon="11.3672747"><ele>309.0</ele><time>2026-05-03T16:18:36.593Z</time></trkpt><trkpt lat="43.732269" lon="11.3671327"><ele>309.0</ele><time>2026-05-03T16:18:37.593Z</time></trkpt><trkpt lat="43.7322468" lon="11.3669836"><ele>309.0</ele><time>2026-05-03T16:18:38.594Z</time></trkpt><trkpt lat="43.7322342" lon="11.3668313"><ele>309.0</ele><time>2026-05-03T16:18:39.594Z</time></trkpt><trkpt lat="43.7322256" lon="11.3666777"><ele>310.0</ele><time>2026-05-03T16:18:40.594Z</time></trkpt><trkpt lat="43.73221" lon="11.3665188"><ele>311.0</ele><time>2026-05-03T16:18:41.594Z</time></trkpt><trkpt lat="43.7321841" lon="11.3663568"><ele>312.0</ele><time>2026-05-03T16:18:42.594Z</time></trkpt><trkpt lat="43.7321476" lon="11.3662072"><ele>313.0</ele><time>2026-05-03T16:18:43.594Z</time></trkpt><trkpt lat="43.732109" lon="11.3660721"><ele>313.0</ele><time>2026-05-03T16:18:44.594Z</time></trkpt><trkpt lat="43.7320582" lon="11.3659602"><ele>313.0</ele><time>2026-05-03T16:18:45.594Z</time></trkpt><trkpt lat="43.7320074" lon="11.3658338"><ele>313.0</ele><time>2026-05-03T16:18:46.594Z</time></trkpt><trkpt lat="43.7319516" lon="11.3657188"><ele>313.0</ele><time>2026-05-03T16:18:47.593Z</time></trkpt><trkpt lat="43.731899" lon="11.3655908"><ele>313.0</ele><time>2026-05-03T16:18:48.593Z</time></trkpt><trkpt lat="43.731843" lon="11.36546"><ele>307.5</ele><time>2026-05-03T16:18:49.594Z</time></trkpt><trkpt lat="43.7317797" lon="11.3653195"><ele>302.0</ele><time>2026-05-03T16:18:50.594Z</time></trkpt><trkpt lat="43.7317118" lon="11.3651642"><ele>296.5</ele><time>2026-05-03T16:18:51.593Z</time></trkpt><trkpt lat="43.7316337" lon="11.3649819"><ele>291.0</ele><time>2026-05-03T16:18:52.594Z</time></trkpt><trkpt lat="43.731561" lon="11.3647896"><ele>291.3333333333333</ele><time>2026-05-03T16:18:53.594Z</time></trkpt><trkpt lat="43.7314867" lon="11.364573"><ele>291.66666666666663</ele><time>2026-05-03T16:18:54.594Z</time></trkpt><trkpt lat="43.7314111" lon="11.3643474"><ele>292.0</ele><time>2026-05-03T16:18:55.593Z</time></trkpt><trkpt lat="43.7313335" lon="11.3641373"><ele>292.0</ele><time>2026-05-03T16:18:56.594Z</time></trkpt><trkpt lat="43.7312541" lon="11.3639364"><ele>292.0</ele><time>2026-05-03T16:18:57.593Z</time></trkpt><trkpt lat="43.7311865" lon="11.3637384"><ele>292.0</ele><time>2026-05-03T16:18:58.594Z</time></trkpt><trkpt lat="43.7311332" lon="11.3635405"><ele>291.75</ele><time>2026-05-03T16:18:59.594Z</time></trkpt><trkpt lat="43.7310968" lon="11.3633413"><ele>291.5</ele><time>2026-05-03T16:19:00.594Z</time></trkpt><trkpt lat="43.7310707" lon="11.3631478"><ele>291.25</ele><time>2026-05-03T16:19:01.594Z</time></trkpt><trkpt lat="43.731043" lon="11.3629665"><ele>291.0</ele><time>2026-05-03T16:19:02.594Z</time></trkpt><trkpt lat="43.7309983" lon="11.3627977"><ele>287.5</ele><time>2026-05-03T16:19:03.594Z</time></trkpt><trkpt lat="43.730932" lon="11.3626423"><ele>284.0</ele><time>2026-05-03T16:19:04.593Z</time></trkpt><trkpt lat="43.7308579" lon="11.3624959"><ele>280.5</ele><time>2026-05-03T16:19:05.594Z</time></trkpt><trkpt lat="43.7307856" lon="11.3623651"><ele>277.0</ele><time>2026-05-03T16:19:06.594Z</time></trkpt><trkpt lat="43.7307313" lon="11.3622277"><ele>278.25</ele><time>2026-05-03T16:19:07.594Z</time></trkpt><trkpt lat="43.7307101" lon="11.3620797"><ele>279.5</ele><time>2026-05-03T16:19:08.594Z</time></trkpt><trkpt lat="43.7307088" lon="11.3619239"><ele>280.75</ele><time>2026-05-03T16:19:09.594Z</time></trkpt><trkpt lat="43.7306964" lon="11.3617693"><ele>282.0</ele><time>2026-05-03T16:19:10.593Z</time></trkpt><trkpt lat="43.7306584" lon="11.3616132"><ele>282.0</ele><time>2026-05-03T16:19:11.593Z</time></trkpt><trkpt lat="43.7305916" lon="11.3614721"><ele>282.0</ele><time>2026-05-03T16:19:12.594Z</time></trkpt><trkpt lat="43.7305185" lon="11.3613498"><ele>282.0</ele><time>2026-05-03T16:19:13.594Z</time></trkpt><trkpt lat="43.7304597" lon="11.3612277"><ele>282.0</ele><time>2026-05-03T16:19:14.594Z</time></trkpt><trkpt lat="43.7304219" lon="11.3610974"><ele>282.0</ele><time>2026-05-03T16:19:15.593Z</time></trkpt><trkpt lat="43.7304142" lon="11.3609633"><ele>281.75</ele><time>2026-05-03T16:19:16.594Z</time></trkpt><trkpt lat="43.7304265" lon="11.3608239"><ele>281.5</ele><time>2026-05-03T16:19:17.594Z</time></trkpt><trkpt lat="43.7304486" lon="11.3606698"><ele>281.25</ele><time>2026-05-03T16:19:18.594Z</time></trkpt><trkpt lat="43.7304885" lon="11.3605101"><ele>281.0</ele><time>2026-05-03T16:19:19.594Z</time></trkpt><trkpt lat="43.7305445" lon="11.3603507"><ele>277.5</ele><time>2026-05-03T16:19:20.593Z</time></trkpt><trkpt lat="43.7306084" lon="11.3601967"><ele>274.0</ele><time>2026-05-03T16:19:21.594Z</time></trkpt><trkpt lat="43.7306973" lon="11.3601256"><ele>270.5</ele><time>2026-05-03T16:19:22.594Z</time></trkpt><trkpt lat="43.7307929" lon="11.3600353"><ele>267.0</ele><time>2026-05-03T16:19:23.594Z</time></trkpt><trkpt lat="43.7309011" lon="11.3599784"><ele>267.0</ele><time>2026-05-03T16:19:24.594Z</time></trkpt><trkpt lat="43.7309889" lon="11.359905"><ele>267.0</ele><time>2026-05-03T16:19:25.593Z</time></trkpt><trkpt lat="43.731063" lon="11.3597961"><ele>267.0</ele><time>2026-05-03T16:19:26.593Z</time></trkpt><trkpt lat="43.7311186" lon="11.3596673"><ele>267.0</ele><time>2026-05-03T16:19:27.594Z</time></trkpt><trkpt lat="43.7311667" lon="11.359519"><ele>267.0</ele><time>2026-05-03T16:19:28.593Z</time></trkpt><trkpt lat="43.7312021" lon="11.3593721"><ele>270.0</ele><time>2026-05-03T16:19:29.594Z</time></trkpt><trkpt lat="43.731236" lon="11.3592274"><ele>273.0</ele><time>2026-05-03T16:19:30.594Z</time></trkpt><trkpt lat="43.7312641" lon="11.3590766"><ele>276.0</ele><time>2026-05-03T16:19:31.594Z</time></trkpt><trkpt lat="43.7312791" lon="11.3589197"><ele>279.0</ele><time>2026-05-03T16:19:32.594Z</time></trkpt><trkpt lat="43.7312851" lon="11.3587587"><ele>279.75</ele><time>2026-05-03T16:19:33.594Z</time></trkpt><trkpt lat="43.7312764" lon="11.3585929"><ele>280.5</ele><time>2026-05-03T16:19:34.594Z</time></trkpt><trkpt lat="43.7312563" lon="11.3584274"><ele>281.25</ele><time>2026-05-03T16:19:35.594Z</time></trkpt><trkpt lat="43.7312139" lon="11.3582675"><ele>282.0</ele><time>2026-05-03T16:19:36.594Z</time></trkpt><trkpt lat="43.731149" lon="11.3581078"><ele>284.0</ele><time>2026-05-03T16:19:37.594Z</time></trkpt><trkpt lat="43.7310784" lon="11.3579648"><ele>286.0</ele><time>2026-05-03T16:19:38.594Z</time></trkpt><trkpt lat="43.7309934" lon="11.3578344"><ele>288.0</ele><time>2026-05-03T16:19:39.593Z</time></trkpt><trkpt lat="43.7309164" lon="11.357713"><ele>290.0</ele><time>2026-05-03T16:19:40.594Z</time></trkpt><trkpt lat="43.7308464" lon="11.3575893"><ele>284.0</ele><time>2026-05-03T16:19:41.594Z</time></trkpt><trkpt lat="43.730799" lon="11.3574471"><ele>278.0</ele><time>2026-05-03T16:19:42.594Z</time></trkpt><trkpt lat="43.7307734" lon="11.3572875"><ele>272.0</ele><time>2026-05-03T16:19:43.593Z</time></trkpt><trkpt lat="43.7307616" lon="11.3571189"><ele>266.0</ele><time>2026-05-03T16:19:44.593Z</time></trkpt><trkpt lat="43.7307606" lon="11.3569462"><ele>266.0</ele><time>2026-05-03T16:19:45.594Z</time></trkpt><trkpt lat="43.7307736" lon="11.3567823"><ele>266.0</ele><time>2026-05-03T16:19:46.594Z</time></trkpt><trkpt lat="43.7307702" lon="11.3566132"><ele>266.0</ele><time>2026-05-03T16:19:47.594Z</time></trkpt><trkpt lat="43.7307418" lon="11.3564525"><ele>266.0</ele><time>2026-05-03T16:19:48.593Z</time></trkpt><trkpt lat="43.7306743" lon="11.3563115"><ele>267.25</ele><time>2026-05-03T16:19:49.594Z</time></trkpt><trkpt lat="43.7305856" lon="11.3562009"><ele>268.5</ele><time>2026-05-03T16:19:50.593Z</time></trkpt><trkpt lat="43.7304804" lon="11.3561117"><ele>269.75</ele><time>2026-05-03T16:19:51.594Z</time></trkpt><trkpt lat="43.7303658" lon="11.3560432"><ele>271.0</ele><time>2026-05-03T16:19:52.594Z</time></trkpt><trkpt lat="43.7302501" lon="11.3560152"><ele>266.40000000000003</ele><time>2026-05-03T16:19:53.594Z</time></trkpt><trkpt lat="43.7301347" lon="11.3560162"><ele>261.8</ele><time>2026-05-03T16:19:54.594Z</time></trkpt><trkpt lat="43.7300371" lon="11.3560214"><ele>257.20000000000005</ele><time>2026-05-03T16:19:55.594Z</time></trkpt><trkpt lat="43.7299515" lon="11.3560125"><ele>252.60000000000002</ele><time>2026-05-03T16:19:56.594Z</time></trkpt><trkpt lat="43.7298873" lon="11.3559685"><ele>248.0</ele><time>2026-05-03T16:19:57.594Z</time></trkpt><trkpt lat="43.7298515" lon="11.3557878"><ele>248.0</ele><time>2026-05-03T16:19:59.594Z</time></trkpt><trkpt lat="43.7298711" lon="11.3556591"><ele>248.0</ele><time>2026-05-03T16:20:00.594Z</time></trkpt><trkpt lat="43.7298841" lon="11.355496"><ele>248.0</ele><time>2026-05-03T16:20:01.594Z</time></trkpt><trkpt lat="43.7298907" lon="11.3553307"><ele>248.0</ele><time>2026-05-03T16:20:02.594Z</time></trkpt><trkpt lat="43.7298847" lon="11.3551507"><ele>247.75</ele><time>2026-05-03T16:20:03.594Z</time></trkpt><trkpt lat="43.7298734" lon="11.3549596"><ele>247.5</ele><time>2026-05-03T16:20:04.594Z</time></trkpt><trkpt lat="43.7298524" lon="11.3547676"><ele>247.25</ele><time>2026-05-03T16:20:05.594Z</time></trkpt><trkpt lat="43.7298285" lon="11.3545774"><ele>247.0</ele><time>2026-05-03T16:20:06.594Z</time></trkpt><trkpt lat="43.7298066" lon="11.3544046"><ele>247.0</ele><time>2026-05-03T16:20:07.594Z</time></trkpt><trkpt lat="43.7297951" lon="11.3542443"><ele>247.0</ele><time>2026-05-03T16:20:08.594Z</time></trkpt><trkpt lat="43.7298062" lon="11.3540926"><ele>247.0</ele><time>2026-05-03T16:20:09.594Z</time></trkpt><trkpt lat="43.7298428" lon="11.3539637"><ele>247.0</ele><time>2026-05-03T16:20:10.593Z</time></trkpt><trkpt lat="43.729882" lon="11.3538151"><ele>247.0</ele><time>2026-05-03T16:20:11.594Z</time></trkpt><trkpt lat="43.7298882" lon="11.353648"><ele>246.5</ele><time>2026-05-03T16:20:12.593Z</time></trkpt><trkpt lat="43.7298677" lon="11.3534811"><ele>246.0</ele><time>2026-05-03T16:20:13.594Z</time></trkpt><trkpt lat="43.7298211" lon="11.3533156"><ele>245.5</ele><time>2026-05-03T16:20:14.594Z</time></trkpt><trkpt lat="43.7297533" lon="11.3531519"><ele>245.0</ele><time>2026-05-03T16:20:15.593Z</time></trkpt><trkpt lat="43.7296729" lon="11.3530016"><ele>247.5</ele><time>2026-05-03T16:20:16.594Z</time></trkpt><trkpt lat="43.7295917" lon="11.3528616"><ele>250.0</ele><time>2026-05-03T16:20:17.594Z</time></trkpt><trkpt lat="43.7295026" lon="11.3527317"><ele>252.5</ele><time>2026-05-03T16:20:18.594Z</time></trkpt><trkpt lat="43.7294234" lon="11.3526003"><ele>255.0</ele><time>2026-05-03T16:20:19.594Z</time></trkpt><trkpt lat="43.7293628" lon="11.3524438"><ele>249.0</ele><time>2026-05-03T16:20:20.594Z</time></trkpt><trkpt lat="43.7293059" lon="11.3522861"><ele>243.0</ele><time>2026-05-03T16:20:21.594Z</time></trkpt><trkpt lat="43.7292581" lon="11.3521228"><ele>237.0</ele><time>2026-05-03T16:20:22.594Z</time></trkpt><trkpt lat="43.7292213" lon="11.3519539"><ele>231.0</ele><time>2026-05-03T16:20:23.594Z</time></trkpt><trkpt lat="43.7291968" lon="11.3517872"><ele>231.0</ele><time>2026-05-03T16:20:24.593Z</time></trkpt><trkpt lat="43.7291956" lon="11.3516132"><ele>231.0</ele><time>2026-05-03T16:20:25.594Z</time></trkpt><trkpt lat="43.7291997" lon="11.3514357"><ele>231.0</ele><time>2026-05-03T16:20:26.594Z</time></trkpt><trkpt lat="43.7291918" lon="11.351254"><ele>231.0</ele><time>2026-05-03T16:20:27.593Z</time></trkpt><trkpt lat="43.7291605" lon="11.3510779"><ele>231.0</ele><time>2026-05-03T16:20:28.594Z</time></trkpt><trkpt lat="43.7291262" lon="11.350905"><ele>231.0</ele><time>2026-05-03T16:20:29.594Z</time></trkpt><trkpt lat="43.7290609" lon="11.3507179"><ele>231.0</ele><time>2026-05-03T16:20:30.594Z</time></trkpt><trkpt lat="43.7290108" lon="11.3505233"><ele>231.0</ele><time>2026-05-03T16:20:31.593Z</time></trkpt><trkpt lat="43.7289693" lon="11.3503245"><ele>231.25</ele><time>2026-05-03T16:20:32.594Z</time></trkpt><trkpt lat="43.7289459" lon="11.3501177"><ele>231.5</ele><time>2026-05-03T16:20:33.594Z</time></trkpt><trkpt lat="43.7289355" lon="11.3499135"><ele>231.75</ele><time>2026-05-03T16:20:34.594Z</time></trkpt><trkpt lat="43.7289193" lon="11.3497152"><ele>232.0</ele><time>2026-05-03T16:20:35.594Z</time></trkpt><trkpt lat="43.72889" lon="11.3495222"><ele>232.0</ele><time>2026-05-03T16:20:36.594Z</time></trkpt><trkpt lat="43.7288446" lon="11.3493459"><ele>232.0</ele><time>2026-05-03T16:20:37.593Z</time></trkpt><trkpt lat="43.7287854" lon="11.3491867"><ele>232.0</ele><time>2026-05-03T16:20:38.594Z</time></trkpt><trkpt lat="43.7287388" lon="11.3490365"><ele>232.0</ele><time>2026-05-03T16:20:39.594Z</time></trkpt><trkpt lat="43.7287092" lon="11.3488947"><ele>231.8</ele><time>2026-05-03T16:20:40.594Z</time></trkpt><trkpt lat="43.7287001" lon="11.3487542"><ele>231.6</ele><time>2026-05-03T16:20:41.594Z</time></trkpt><trkpt lat="43.7287171" lon="11.3486206"><ele>231.40000000000003</ele><time>2026-05-03T16:20:42.593Z</time></trkpt><trkpt lat="43.7287477" lon="11.3484808"><ele>231.20000000000002</ele><time>2026-05-03T16:20:43.594Z</time></trkpt><trkpt lat="43.728792" lon="11.3483468"><ele>231.0</ele><time>2026-05-03T16:20:44.594Z</time></trkpt><trkpt lat="43.7288363" lon="11.3482033"><ele>231.0</ele><time>2026-05-03T16:20:45.594Z</time></trkpt><trkpt lat="43.7288845" lon="11.3480496"><ele>231.0</ele><time>2026-05-03T16:20:46.594Z</time></trkpt><trkpt lat="43.7289358" lon="11.3478883"><ele>231.0</ele><time>2026-05-03T16:20:47.594Z</time></trkpt><trkpt lat="43.7289927" lon="11.3477153"><ele>231.0</ele><time>2026-05-03T16:20:48.594Z</time></trkpt><trkpt lat="43.7290464" lon="11.3475573"><ele>230.20000000000002</ele><time>2026-05-03T16:20:49.594Z</time></trkpt><trkpt lat="43.7290977" lon="11.3474039"><ele>229.40000000000003</ele><time>2026-05-03T16:20:50.594Z</time></trkpt><trkpt lat="43.7291456" lon="11.3472587"><ele>228.6</ele><time>2026-05-03T16:20:51.594Z</time></trkpt><trkpt lat="43.7291935" lon="11.3471257"><ele>227.8</ele><time>2026-05-03T16:20:52.594Z</time></trkpt><trkpt lat="43.7292322" lon="11.3470087"><ele>227.0</ele><time>2026-05-03T16:20:53.593Z</time></trkpt><trkpt lat="43.7292723" lon="11.3468995"><ele>226.0</ele><time>2026-05-03T16:20:54.594Z</time></trkpt><trkpt lat="43.7293099" lon="11.3467967"><ele>225.0</ele><time>2026-05-03T16:20:55.594Z</time></trkpt><trkpt lat="43.7293361" lon="11.3467115"><ele>224.0</ele><time>2026-05-03T16:20:56.594Z</time></trkpt><trkpt lat="43.7293275" lon="11.3465208"><ele>223.0</ele><time>2026-05-03T16:20:58.593Z</time></trkpt><trkpt lat="43.7292817" lon="11.3464271"><ele>222.0</ele><time>2026-05-03T16:20:59.593Z</time></trkpt><trkpt lat="43.7292242" lon="11.3463243"><ele>221.25</ele><time>2026-05-03T16:21:00.594Z</time></trkpt><trkpt lat="43.7291612" lon="11.3462033"><ele>220.5</ele><time>2026-05-03T16:21:01.594Z</time></trkpt><trkpt lat="43.7290885" lon="11.3460784"><ele>219.75</ele><time>2026-05-03T16:21:02.594Z</time></trkpt><trkpt lat="43.7290166" lon="11.3459336"><ele>219.0</ele><time>2026-05-03T16:21:03.594Z</time></trkpt><trkpt lat="43.7289307" lon="11.3457875"><ele>219.0</ele><time>2026-05-03T16:21:04.593Z</time></trkpt><trkpt lat="43.7288479" lon="11.3456318"><ele>219.0</ele><time>2026-05-03T16:21:05.594Z</time></trkpt><trkpt lat="43.7287585" lon="11.3454835"><ele>219.0</ele><time>2026-05-03T16:21:06.594Z</time></trkpt><trkpt lat="43.7286673" lon="11.3453366"><ele>219.0</ele><time>2026-05-03T16:21:07.593Z</time></trkpt><trkpt lat="43.7285795" lon="11.3451929"><ele>216.5</ele><time>2026-05-03T16:21:08.593Z</time></trkpt><trkpt lat="43.7284973" lon="11.3450416"><ele>214.0</ele><time>2026-05-03T16:21:09.594Z</time></trkpt><trkpt lat="43.7284335" lon="11.3448769"><ele>211.5</ele><time>2026-05-03T16:21:10.594Z</time></trkpt><trkpt lat="43.7283874" lon="11.3447051"><ele>209.0</ele><time>2026-05-03T16:21:11.594Z</time></trkpt><trkpt lat="43.7283681" lon="11.3445236"><ele>207.75</ele><time>2026-05-03T16:21:12.594Z</time></trkpt><trkpt lat="43.7283748" lon="11.3443386"><ele>206.5</ele><time>2026-05-03T16:21:13.594Z</time></trkpt><trkpt lat="43.7283919" lon="11.3441692"><ele>205.25</ele><time>2026-05-03T16:21:14.594Z</time></trkpt><trkpt lat="43.7283984" lon="11.3440107"><ele>204.0</ele><time>2026-05-03T16:21:15.593Z</time></trkpt><trkpt lat="43.7283858" lon="11.3438468"><ele>203.25</ele><time>2026-05-03T16:21:16.594Z</time></trkpt><trkpt lat="43.7283841" lon="11.3436744"><ele>202.5</ele><time>2026-05-03T16:21:17.594Z</time></trkpt><trkpt lat="43.7284003" lon="11.3435065"><ele>201.75</ele><time>2026-05-03T16:21:18.594Z</time></trkpt><trkpt lat="43.7284279" lon="11.343335"><ele>201.0</ele><time>2026-05-03T16:21:19.594Z</time></trkpt><trkpt lat="43.7284627" lon="11.3431674"><ele>201.0</ele><time>2026-05-03T16:21:20.593Z</time></trkpt><trkpt lat="43.7284968" lon="11.3430191"><ele>201.0</ele><time>2026-05-03T16:21:21.593Z</time></trkpt><trkpt lat="43.7285289" lon="11.3428748"><ele>201.0</ele><time>2026-05-03T16:21:22.594Z</time></trkpt><trkpt lat="43.7285583" lon="11.3427327"><ele>201.0</ele><time>2026-05-03T16:21:23.594Z</time></trkpt><trkpt lat="43.7285876" lon="11.3425925"><ele>201.0</ele><time>2026-05-03T16:21:24.593Z</time></trkpt><trkpt lat="43.7286155" lon="11.3424521"><ele>201.0</ele><time>2026-05-03T16:21:25.594Z</time></trkpt><trkpt lat="43.7286438" lon="11.3423094"><ele>201.0</ele><time>2026-05-03T16:21:26.593Z</time></trkpt><trkpt lat="43.728668" lon="11.3421672"><ele>201.0</ele><time>2026-05-03T16:21:27.594Z</time></trkpt><trkpt lat="43.7286956" lon="11.3420378"><ele>201.0</ele><time>2026-05-03T16:21:28.594Z</time></trkpt><trkpt lat="43.7287095" lon="11.3419181"><ele>201.0</ele><time>2026-05-03T16:21:29.594Z</time></trkpt><trkpt lat="43.7286978" lon="11.3418046"><ele>200.5</ele><time>2026-05-03T16:21:30.594Z</time></trkpt><trkpt lat="43.7286585" lon="11.3417058"><ele>200.0</ele><time>2026-05-03T16:21:31.593Z</time></trkpt><trkpt lat="43.7285912" lon="11.3416285"><ele>199.5</ele><time>2026-05-03T16:21:32.594Z</time></trkpt><trkpt lat="43.728509" lon="11.3415788"><ele>199.0</ele><time>2026-05-03T16:21:33.594Z</time></trkpt><trkpt lat="43.7284265" lon="11.3415412"><ele>198.5</ele><time>2026-05-03T16:21:34.593Z</time></trkpt><trkpt lat="43.728354" lon="11.3415073"><ele>198.0</ele><time>2026-05-03T16:21:35.594Z</time></trkpt><trkpt lat="43.7282876" lon="11.3414725"><ele>198.0</ele><time>2026-05-03T16:21:36.593Z</time></trkpt><trkpt lat="43.7282207" lon="11.3414409"><ele>198.0</ele><time>2026-05-03T16:21:37.593Z</time></trkpt><trkpt lat="43.7281472" lon="11.3414106"><ele>198.0</ele><time>2026-05-03T16:21:38.594Z</time></trkpt><trkpt lat="43.7280714" lon="11.3413775"><ele>198.0</ele><time>2026-05-03T16:21:39.594Z</time></trkpt><trkpt lat="43.7279946" lon="11.3413411"><ele>198.0</ele><time>2026-05-03T16:21:40.594Z</time></trkpt><trkpt lat="43.7279235" lon="11.3413033"><ele>198.0</ele><time>2026-05-03T16:21:41.593Z</time></trkpt><trkpt lat="43.7278544" lon="11.3412565"><ele>197.5</ele><time>2026-05-03T16:21:42.594Z</time></trkpt><trkpt lat="43.7277958" lon="11.3411884"><ele>197.0</ele><time>2026-05-03T16:21:43.594Z</time></trkpt><trkpt lat="43.7277561" lon="11.3411001"><ele>196.5</ele><time>2026-05-03T16:21:44.594Z</time></trkpt><trkpt lat="43.7277511" lon="11.340995"><ele>196.0</ele><time>2026-05-03T16:21:45.594Z</time></trkpt><trkpt lat="43.7277625" lon="11.3408889"><ele>195.5</ele><time>2026-05-03T16:21:46.593Z</time></trkpt><trkpt lat="43.7277822" lon="11.3407806"><ele>195.0</ele><time>2026-05-03T16:21:47.594Z</time></trkpt><trkpt lat="43.7278001" lon="11.3406594"><ele>194.2</ele><time>2026-05-03T16:21:48.594Z</time></trkpt><trkpt lat="43.7278215" lon="11.3405322"><ele>193.4</ele><time>2026-05-03T16:21:49.594Z</time></trkpt><trkpt lat="43.727846" lon="11.3403977"><ele>192.60000000000002</ele><time>2026-05-03T16:21:50.594Z</time></trkpt><trkpt lat="43.7278707" lon="11.3402507"><ele>191.8</ele><time>2026-05-03T16:21:51.594Z</time></trkpt><trkpt lat="43.7278956" lon="11.3400962"><ele>191.0</ele><time>2026-05-03T16:21:52.593Z</time></trkpt><trkpt lat="43.727924" lon="11.3399348"><ele>191.0</ele><time>2026-05-03T16:21:53.594Z</time></trkpt><trkpt lat="43.7279538" lon="11.3397663"><ele>191.0</ele><time>2026-05-03T16:21:54.594Z</time></trkpt><trkpt lat="43.7279836" lon="11.3395891"><ele>191.0</ele><time>2026-05-03T16:21:55.594Z</time></trkpt><trkpt lat="43.7280149" lon="11.3394111"><ele>191.0</ele><time>2026-05-03T16:21:56.594Z</time></trkpt><trkpt lat="43.7280444" lon="11.3392303"><ele>190.0</ele><time>2026-05-03T16:21:57.594Z</time></trkpt><trkpt lat="43.728078" lon="11.3390497"><ele>189.0</ele><time>2026-05-03T16:21:58.594Z</time></trkpt><trkpt lat="43.7281139" lon="11.338877"><ele>188.0</ele><time>2026-05-03T16:21:59.594Z</time></trkpt><trkpt lat="43.728154" lon="11.3387052"><ele>187.0</ele><time>2026-05-03T16:22:00.594Z</time></trkpt><trkpt lat="43.7282009" lon="11.3385379"><ele>186.5</ele><time>2026-05-03T16:22:01.594Z</time></trkpt><trkpt lat="43.7282444" lon="11.3383689"><ele>186.0</ele><time>2026-05-03T16:22:02.594Z</time></trkpt><trkpt lat="43.7282899" lon="11.3382033"><ele>185.5</ele><time>2026-05-03T16:22:03.593Z</time></trkpt><trkpt lat="43.7283359" lon="11.3380361"><ele>185.0</ele><time>2026-05-03T16:22:04.593Z</time></trkpt><trkpt lat="43.7283788" lon="11.33787"><ele>185.0</ele><time>2026-05-03T16:22:05.593Z</time></trkpt><trkpt lat="43.728419" lon="11.3377059"><ele>185.0</ele><time>2026-05-03T16:22:06.594Z</time></trkpt><trkpt lat="43.7284607" lon="11.3375322"><ele>185.0</ele><time>2026-05-03T16:22:07.594Z</time></trkpt><trkpt lat="43.7285024" lon="11.3373684"><ele>185.0</ele><time>2026-05-03T16:22:08.594Z</time></trkpt><trkpt lat="43.7285529" lon="11.3371969"><ele>182.75</ele><time>2026-05-03T16:22:09.594Z</time></trkpt><trkpt lat="43.7285987" lon="11.3370224"><ele>180.5</ele><time>2026-05-03T16:22:10.594Z</time></trkpt><trkpt lat="43.7286464" lon="11.3368487"><ele>178.25</ele><time>2026-05-03T16:22:11.594Z</time></trkpt><trkpt lat="43.7286917" lon="11.3366746"><ele>176.0</ele><time>2026-05-03T16:22:12.594Z</time></trkpt><trkpt lat="43.7287376" lon="11.3365013"><ele>176.5</ele><time>2026-05-03T16:22:13.594Z</time></trkpt><trkpt lat="43.7287862" lon="11.3363253"><ele>177.0</ele><time>2026-05-03T16:22:14.594Z</time></trkpt><trkpt lat="43.7288316" lon="11.3361493"><ele>177.5</ele><time>2026-05-03T16:22:15.594Z</time></trkpt><trkpt lat="43.7288744" lon="11.3359746"><ele>178.0</ele><time>2026-05-03T16:22:16.594Z</time></trkpt><trkpt lat="43.7289071" lon="11.3357942"><ele>178.0</ele><time>2026-05-03T16:22:17.594Z</time></trkpt><trkpt lat="43.7289285" lon="11.3356113"><ele>178.0</ele><time>2026-05-03T16:22:18.593Z</time></trkpt><trkpt lat="43.728932" lon="11.3354251"><ele>178.0</ele><time>2026-05-03T16:22:19.594Z</time></trkpt><trkpt lat="43.7289243" lon="11.3352374"><ele>178.0</ele><time>2026-05-03T16:22:20.593Z</time></trkpt><trkpt lat="43.7289077" lon="11.3350491"><ele>177.75</ele><time>2026-05-03T16:22:21.594Z</time></trkpt><trkpt lat="43.7288866" lon="11.3348574"><ele>177.5</ele><time>2026-05-03T16:22:22.594Z</time></trkpt><trkpt lat="43.728869" lon="11.3346653"><ele>177.25</ele><time>2026-05-03T16:22:23.594Z</time></trkpt><trkpt lat="43.728852" lon="11.334473"><ele>177.0</ele><time>2026-05-03T16:22:24.594Z</time></trkpt><trkpt lat="43.7288359" lon="11.334283"><ele>175.5</ele><time>2026-05-03T16:22:25.593Z</time></trkpt><trkpt lat="43.7288197" lon="11.3340965"><ele>174.0</ele><time>2026-05-03T16:22:26.593Z</time></trkpt><trkpt lat="43.7288019" lon="11.3339133"><ele>172.5</ele><time>2026-05-03T16:22:27.594Z</time></trkpt><trkpt lat="43.7287844" lon="11.3337378"><ele>171.0</ele><time>2026-05-03T16:22:28.594Z</time></trkpt><trkpt lat="43.7287683" lon="11.3335643"><ele>170.5</ele><time>2026-05-03T16:22:29.594Z</time></trkpt><trkpt lat="43.7287516" lon="11.3333965"><ele>170.0</ele><time>2026-05-03T16:22:30.594Z</time></trkpt><trkpt lat="43.7287404" lon="11.3332242"><ele>169.5</ele><time>2026-05-03T16:22:31.594Z</time></trkpt><trkpt lat="43.728737" lon="11.3330548"><ele>169.0</ele><time>2026-05-03T16:22:32.594Z</time></trkpt><trkpt lat="43.7287429" lon="11.3328869"><ele>168.0</ele><time>2026-05-03T16:22:33.594Z</time></trkpt><trkpt lat="43.7287543" lon="11.3327187"><ele>167.0</ele><time>2026-05-03T16:22:34.594Z</time></trkpt><trkpt lat="43.7287651" lon="11.3325522"><ele>166.0</ele><time>2026-05-03T16:22:35.594Z</time></trkpt><trkpt lat="43.7287689" lon="11.3323862"><ele>165.0</ele><time>2026-05-03T16:22:36.593Z</time></trkpt><trkpt lat="43.7287523" lon="11.3322263"><ele>164.25</ele><time>2026-05-03T16:22:37.594Z</time></trkpt><trkpt lat="43.7287322" lon="11.3320644"><ele>163.5</ele><time>2026-05-03T16:22:38.594Z</time></trkpt><trkpt lat="43.728713" lon="11.3318999"><ele>162.75</ele><time>2026-05-03T16:22:39.594Z</time></trkpt><trkpt lat="43.7286886" lon="11.3317396"><ele>162.0</ele><time>2026-05-03T16:22:40.594Z</time></trkpt><trkpt lat="43.7286622" lon="11.3315815"><ele>162.0</ele><time>2026-05-03T16:22:41.594Z</time></trkpt><trkpt lat="43.728637" lon="11.3314194"><ele>162.0</ele><time>2026-05-03T16:22:42.593Z</time></trkpt><trkpt lat="43.7286161" lon="11.3312561"><ele>162.0</ele><time>2026-05-03T16:22:43.594Z</time></trkpt><trkpt lat="43.7285995" lon="11.3310976"><ele>162.0</ele><time>2026-05-03T16:22:44.594Z</time></trkpt><trkpt lat="43.7285895" lon="11.3309509"><ele>161.0</ele><time>2026-05-03T16:22:45.593Z</time></trkpt><trkpt lat="43.7285864" lon="11.3308087"><ele>160.0</ele><time>2026-05-03T16:22:46.594Z</time></trkpt><trkpt lat="43.7285903" lon="11.3306708"><ele>159.0</ele><time>2026-05-03T16:22:47.594Z</time></trkpt><trkpt lat="43.7285976" lon="11.3305329"><ele>158.0</ele><time>2026-05-03T16:22:48.594Z</time></trkpt><trkpt lat="43.7286091" lon="11.3303963"><ele>157.0</ele><time>2026-05-03T16:22:49.594Z</time></trkpt><trkpt lat="43.7286198" lon="11.3302751"><ele>156.83333333333334</ele><time>2026-05-03T16:22:50.594Z</time></trkpt><trkpt lat="43.7286337" lon="11.3301478"><ele>156.66666666666669</ele><time>2026-05-03T16:22:51.594Z</time></trkpt><trkpt lat="43.7286527" lon="11.3300209"><ele>156.5</ele><time>2026-05-03T16:22:52.594Z</time></trkpt><trkpt lat="43.7286713" lon="11.3299053"><ele>156.33333333333334</ele><time>2026-05-03T16:22:53.594Z</time></trkpt><trkpt lat="43.7286891" lon="11.3297964"><ele>156.16666666666666</ele><time>2026-05-03T16:22:54.594Z</time></trkpt><trkpt lat="43.7287079" lon="11.3296837"><ele>156.0</ele><time>2026-05-03T16:22:55.594Z</time></trkpt><trkpt lat="43.7287262" lon="11.3295664"><ele>155.8</ele><time>2026-05-03T16:22:56.594Z</time></trkpt><trkpt lat="43.7287467" lon="11.3294442"><ele>155.6</ele><time>2026-05-03T16:22:57.594Z</time></trkpt><trkpt lat="43.7287663" lon="11.329312"><ele>155.4</ele><time>2026-05-03T16:22:58.594Z</time></trkpt><trkpt lat="43.7287858" lon="11.3291777"><ele>155.2</ele><time>2026-05-03T16:22:59.594Z</time></trkpt><trkpt lat="43.7288055" lon="11.3290436"><ele>155.0</ele><time>2026-05-03T16:23:00.594Z</time></trkpt><trkpt lat="43.7288262" lon="11.3289044"><ele>154.6</ele><time>2026-05-03T16:23:01.593Z</time></trkpt><trkpt lat="43.728852" lon="11.3287589"><ele>154.2</ele><time>2026-05-03T16:23:02.594Z</time></trkpt><trkpt lat="43.7288766" lon="11.3286131"><ele>153.8</ele><time>2026-05-03T16:23:03.594Z</time></trkpt><trkpt lat="43.7289003" lon="11.3284649"><ele>153.4</ele><time>2026-05-03T16:23:04.593Z</time></trkpt><trkpt lat="43.7289179" lon="11.328318"><ele>153.0</ele><time>2026-05-03T16:23:05.594Z</time></trkpt><trkpt lat="43.7289378" lon="11.3281677"><ele>152.0</ele><time>2026-05-03T16:23:06.594Z</time></trkpt><trkpt lat="43.7289512" lon="11.3280213"><ele>151.0</ele><time>2026-05-03T16:23:07.594Z</time></trkpt><trkpt lat="43.728963" lon="11.3278774"><ele>150.0</ele><time>2026-05-03T16:23:08.594Z</time></trkpt><trkpt lat="43.728968" lon="11.3277362"><ele>149.0</ele><time>2026-05-03T16:23:09.594Z</time></trkpt><trkpt lat="43.7289686" lon="11.3275976"><ele>148.0</ele><time>2026-05-03T16:23:10.594Z</time></trkpt><trkpt lat="43.728967" lon="11.3274629"><ele>148.0</ele><time>2026-05-03T16:23:11.594Z</time></trkpt><trkpt lat="43.7289567" lon="11.3273329"><ele>148.0</ele><time>2026-05-03T16:23:12.594Z</time></trkpt><trkpt lat="43.7289468" lon="11.3272124"><ele>148.0</ele><time>2026-05-03T16:23:13.594Z</time></trkpt><trkpt lat="43.7289354" lon="11.3270927"><ele>148.0</ele><time>2026-05-03T16:23:14.594Z</time></trkpt><trkpt lat="43.7289173" lon="11.3269735"><ele>148.0</ele><time>2026-05-03T16:23:15.594Z</time></trkpt><trkpt lat="43.7288964" lon="11.3268581"><ele>148.0</ele><time>2026-05-03T16:23:16.594Z</time></trkpt><trkpt lat="43.7288769" lon="11.3267464"><ele>147.0</ele><time>2026-05-03T16:23:17.594Z</time></trkpt><trkpt lat="43.728857" lon="11.3266346"><ele>146.0</ele><time>2026-05-03T16:23:18.594Z</time></trkpt><trkpt lat="43.7288326" lon="11.326536"><ele>145.0</ele><time>2026-05-03T16:23:19.594Z</time></trkpt><trkpt lat="43.7288088" lon="11.3264474"><ele>144.0</ele><time>2026-05-03T16:23:20.594Z</time></trkpt><trkpt lat="43.7287865" lon="11.3263647"><ele>143.0</ele><time>2026-05-03T16:23:21.594Z</time></trkpt><trkpt lat="43.7287405" lon="11.3262255"><ele>142.0</ele><time>2026-05-03T16:23:23.594Z</time></trkpt><trkpt lat="43.7286807" lon="11.3260728"><ele>141.5</ele><time>2026-05-03T16:23:25.594Z</time></trkpt><trkpt lat="43.7286468" lon="11.3259887"><ele>141.0</ele><time>2026-05-03T16:23:26.594Z</time></trkpt><trkpt lat="43.7286059" lon="11.3259058"><ele>140.5</ele><time>2026-05-03T16:23:27.594Z</time></trkpt><trkpt lat="43.7285634" lon="11.3258243"><ele>140.0</ele><time>2026-05-03T16:23:28.594Z</time></trkpt><trkpt lat="43.7285133" lon="11.3257344"><ele>139.5</ele><time>2026-05-03T16:23:29.593Z</time></trkpt><trkpt lat="43.7284628" lon="11.3256417"><ele>139.0</ele><time>2026-05-03T16:23:30.593Z</time></trkpt><trkpt lat="43.7284099" lon="11.3255426"><ele>137.2</ele><time>2026-05-03T16:23:31.594Z</time></trkpt><trkpt lat="43.7283527" lon="11.3254363"><ele>135.4</ele><time>2026-05-03T16:23:32.594Z</time></trkpt><trkpt lat="43.7282961" lon="11.3253377"><ele>133.6</ele><time>2026-05-03T16:23:33.594Z</time></trkpt><trkpt lat="43.7282415" lon="11.3252354"><ele>131.8</ele><time>2026-05-03T16:23:34.594Z</time></trkpt><trkpt lat="43.7281834" lon="11.3251334"><ele>130.0</ele><time>2026-05-03T16:23:35.594Z</time></trkpt><trkpt lat="43.7281301" lon="11.3250322"><ele>130.0</ele><time>2026-05-03T16:23:36.594Z</time></trkpt><trkpt lat="43.7280788" lon="11.3249402"><ele>130.0</ele><time>2026-05-03T16:23:37.594Z</time></trkpt><trkpt lat="43.7280293" lon="11.3248541"><ele>130.0</ele><time>2026-05-03T16:23:38.593Z</time></trkpt><trkpt lat="43.7279876" lon="11.3247759"><ele>130.0</ele><time>2026-05-03T16:23:39.594Z</time></trkpt><trkpt lat="43.7279526" lon="11.3246988"><ele>130.0</ele><time>2026-05-03T16:23:40.594Z</time></trkpt><trkpt lat="43.7278826" lon="11.3245732"><ele>130.0</ele><time>2026-05-03T16:23:42.593Z</time></trkpt><trkpt lat="43.7278177" lon="11.3244641"><ele>130.0</ele><time>2026-05-03T16:23:44.593Z</time></trkpt><trkpt lat="43.7277354" lon="11.3243374"><ele>130.0</ele><time>2026-05-03T16:23:46.594Z</time></trkpt><trkpt lat="43.7276873" lon="11.3242613"><ele>130.0</ele><time>2026-05-03T16:23:47.594Z</time></trkpt><trkpt lat="43.7276402" lon="11.3241968"><ele>130.0</ele><time>2026-05-03T16:23:48.593Z</time></trkpt><trkpt lat="43.7275848" lon="11.3241093"><ele>130.0</ele><time>2026-05-03T16:23:49.593Z</time></trkpt><trkpt lat="43.7275287" lon="11.3240293"><ele>130.0</ele><time>2026-05-03T16:23:50.594Z</time></trkpt><trkpt lat="43.7274758" lon="11.3239474"><ele>128.66666666666669</ele><time>2026-05-03T16:23:51.594Z</time></trkpt><trkpt lat="43.7274182" lon="11.3238585"><ele>127.33333333333334</ele><time>2026-05-03T16:23:52.594Z</time></trkpt><trkpt lat="43.7273611" lon="11.3237667"><ele>126.0</ele><time>2026-05-03T16:23:53.594Z</time></trkpt><trkpt lat="43.7273041" lon="11.3236807"><ele>124.66666666666666</ele><time>2026-05-03T16:23:54.593Z</time></trkpt><trkpt lat="43.727259" lon="11.3236069"><ele>123.33333333333333</ele><time>2026-05-03T16:23:55.594Z</time></trkpt><trkpt lat="43.727213" lon="11.323534"><ele>122.0</ele><time>2026-05-03T16:23:56.594Z</time></trkpt><trkpt lat="43.7271334" lon="11.3234224"><ele>121.99999999999999</ele><time>2026-05-03T16:23:58.593Z</time></trkpt><trkpt lat="43.7270562" lon="11.323323"><ele>122.0</ele><time>2026-05-03T16:24:00.594Z</time></trkpt><trkpt lat="43.7270146" lon="11.3232149"><ele>122.0</ele><time>2026-05-03T16:24:02.594Z</time></trkpt><trkpt lat="43.7270108" lon="11.3231168"><ele>122.0</ele><time>2026-05-03T16:24:04.593Z</time></trkpt><trkpt lat="43.7270269" lon="11.3230059"><ele>121.99999999999999</ele><time>2026-05-03T16:24:06.594Z</time></trkpt><trkpt lat="43.7270504" lon="11.322872"><ele>122.0</ele><time>2026-05-03T16:24:08.594Z</time></trkpt><trkpt lat="43.7270798" lon="11.3227241"><ele>121.83333333333333</ele><time>2026-05-03T16:24:10.594Z</time></trkpt><trkpt lat="43.7271123" lon="11.3225488"><ele>121.66666666666666</ele><time>2026-05-03T16:24:12.594Z</time></trkpt><trkpt lat="43.7271368" lon="11.3224589"><ele>121.5</ele><time>2026-05-03T16:24:13.594Z</time></trkpt><trkpt lat="43.7271667" lon="11.3223676"><ele>121.33333333333334</ele><time>2026-05-03T16:24:14.594Z</time></trkpt><trkpt lat="43.7271963" lon="11.3222797"><ele>121.16666666666667</ele><time>2026-05-03T16:24:15.594Z</time></trkpt><trkpt lat="43.7272284" lon="11.322202"><ele>121.0</ele><time>2026-05-03T16:24:16.594Z</time></trkpt><trkpt lat="43.7272589" lon="11.3221213"><ele>120.16666666666667</ele><time>2026-05-03T16:24:17.594Z</time></trkpt><trkpt lat="43.7272891" lon="11.3220416"><ele>119.33333333333334</ele><time>2026-05-03T16:24:18.594Z</time></trkpt><trkpt lat="43.7273227" lon="11.3219599"><ele>118.5</ele><time>2026-05-03T16:24:19.594Z</time></trkpt><trkpt lat="43.7273848" lon="11.3217828"><ele>117.66666666666666</ele><time>2026-05-03T16:24:21.594Z</time></trkpt><trkpt lat="43.7274175" lon="11.3216882"><ele>116.83333333333333</ele><time>2026-05-03T16:24:22.594Z</time></trkpt><trkpt lat="43.7274548" lon="11.3215858"><ele>116.0</ele><time>2026-05-03T16:24:23.594Z</time></trkpt><trkpt lat="43.7274923" lon="11.321485"><ele>115.4</ele><time>2026-05-03T16:24:24.594Z</time></trkpt><trkpt lat="43.7275314" lon="11.3213882"><ele>114.8</ele><time>2026-05-03T16:24:25.594Z</time></trkpt><trkpt lat="43.7275709" lon="11.3212734"><ele>114.20000000000002</ele><time>2026-05-03T16:24:26.594Z</time></trkpt><trkpt lat="43.7276121" lon="11.3211554"><ele>113.60000000000001</ele><time>2026-05-03T16:24:27.594Z</time></trkpt><trkpt lat="43.7276519" lon="11.321039"><ele>113.0</ele><time>2026-05-03T16:24:28.594Z</time></trkpt><trkpt lat="43.727699" lon="11.3209234"><ele>112.80000000000001</ele><time>2026-05-03T16:24:29.594Z</time></trkpt><trkpt lat="43.7277452" lon="11.3208113"><ele>112.60000000000001</ele><time>2026-05-03T16:24:30.593Z</time></trkpt><trkpt lat="43.7277981" lon="11.3207012"><ele>112.39999999999999</ele><time>2026-05-03T16:24:31.594Z</time></trkpt><trkpt lat="43.7278519" lon="11.3205956"><ele>112.19999999999999</ele><time>2026-05-03T16:24:32.594Z</time></trkpt><trkpt lat="43.7279028" lon="11.3204974"><ele>112.0</ele><time>2026-05-03T16:24:33.594Z</time></trkpt><trkpt lat="43.7279666" lon="11.3203911"><ele>112.0</ele><time>2026-05-03T16:24:34.594Z</time></trkpt><trkpt lat="43.7280254" lon="11.3202944"><ele>111.99999999999999</ele><time>2026-05-03T16:24:35.594Z</time></trkpt><trkpt lat="43.7280816" lon="11.3201867"><ele>111.99999999999999</ele><time>2026-05-03T16:24:36.594Z</time></trkpt><trkpt lat="43.7281455" lon="11.3200963"><ele>112.0</ele><time>2026-05-03T16:24:37.594Z</time></trkpt><trkpt lat="43.7282049" lon="11.3199956"><ele>112.0</ele><time>2026-05-03T16:24:38.593Z</time></trkpt><trkpt lat="43.7282631" lon="11.3199024"><ele>112.0</ele><time>2026-05-03T16:24:39.594Z</time></trkpt><trkpt lat="43.7283235" lon="11.3197976"><ele>111.99999999999999</ele><time>2026-05-03T16:24:40.593Z</time></trkpt><trkpt lat="43.728373" lon="11.3196954"><ele>111.99999999999999</ele><time>2026-05-03T16:24:41.593Z</time></trkpt><trkpt lat="43.7284278" lon="11.3195862"><ele>112.0</ele><time>2026-05-03T16:24:42.594Z</time></trkpt><trkpt lat="43.7284867" lon="11.3194743"><ele>112.0</ele><time>2026-05-03T16:24:43.594Z</time></trkpt><trkpt lat="43.728545" lon="11.3193621"><ele>112.0</ele><time>2026-05-03T16:24:44.594Z</time></trkpt><trkpt lat="43.7286063" lon="11.3192467"><ele>111.99999999999999</ele><time>2026-05-03T16:24:45.594Z</time></trkpt><trkpt lat="43.7286615" lon="11.3191236"><ele>111.99999999999999</ele><time>2026-05-03T16:24:46.594Z</time></trkpt><trkpt lat="43.7287189" lon="11.3190125"><ele>112.0</ele><time>2026-05-03T16:24:47.594Z</time></trkpt><trkpt lat="43.7287759" lon="11.3188962"><ele>112.0</ele><time>2026-05-03T16:24:48.594Z</time></trkpt><trkpt lat="43.7288341" lon="11.3187777"><ele>111.19999999999999</ele><time>2026-05-03T16:24:49.594Z</time></trkpt><trkpt lat="43.7288996" lon="11.3186525"><ele>110.39999999999999</ele><time>2026-05-03T16:24:50.594Z</time></trkpt><trkpt lat="43.7289647" lon="11.3185384"><ele>109.60000000000001</ele><time>2026-05-03T16:24:51.594Z</time></trkpt><trkpt lat="43.7290189" lon="11.3184199"><ele>108.80000000000001</ele><time>2026-05-03T16:24:52.594Z</time></trkpt><trkpt lat="43.7290827" lon="11.318306"><ele>108.0</ele><time>2026-05-03T16:24:53.594Z</time></trkpt><trkpt lat="43.7291432" lon="11.3181798"><ele>108.0</ele><time>2026-05-03T16:24:54.594Z</time></trkpt><trkpt lat="43.7292052" lon="11.3180526"><ele>108.00000000000001</ele><time>2026-05-03T16:24:55.594Z</time></trkpt><trkpt lat="43.7292628" lon="11.3179217"><ele>108.00000000000001</ele><time>2026-05-03T16:24:56.594Z</time></trkpt><trkpt lat="43.7293121" lon="11.3178022"><ele>108.0</ele><time>2026-05-03T16:24:57.593Z</time></trkpt><trkpt lat="43.7293588" lon="11.3176903"><ele>108.0</ele><time>2026-05-03T16:24:58.594Z</time></trkpt><trkpt lat="43.7294012" lon="11.3175838"><ele>108.0</ele><time>2026-05-03T16:24:59.594Z</time></trkpt><trkpt lat="43.7294382" lon="11.3174753"><ele>108.00000000000001</ele><time>2026-05-03T16:25:00.594Z</time></trkpt><trkpt lat="43.7294813" lon="11.3173628"><ele>108.00000000000001</ele><time>2026-05-03T16:25:01.593Z</time></trkpt><trkpt lat="43.7295227" lon="11.3172437"><ele>108.0</ele><time>2026-05-03T16:25:02.594Z</time></trkpt><trkpt lat="43.7295625" lon="11.3171212"><ele>108.0</ele><time>2026-05-03T16:25:03.594Z</time></trkpt><trkpt lat="43.729604" lon="11.3169966"><ele>107.4</ele><time>2026-05-03T16:25:04.593Z</time></trkpt><trkpt lat="43.7296495" lon="11.31687"><ele>106.80000000000001</ele><time>2026-05-03T16:25:05.594Z</time></trkpt><trkpt lat="43.7296954" lon="11.3167476"><ele>106.2</ele><time>2026-05-03T16:25:06.593Z</time></trkpt><trkpt lat="43.7297436" lon="11.3166203"><ele>105.6</ele><time>2026-05-03T16:25:07.594Z</time></trkpt><trkpt lat="43.7297909" lon="11.3164901"><ele>105.0</ele><time>2026-05-03T16:25:08.594Z</time></trkpt><trkpt lat="43.729834" lon="11.3163596"><ele>104.5</ele><time>2026-05-03T16:25:09.594Z</time></trkpt><trkpt lat="43.7298774" lon="11.3162302"><ele>104.0</ele><time>2026-05-03T16:25:10.594Z</time></trkpt><trkpt lat="43.7299224" lon="11.3161083"><ele>103.5</ele><time>2026-05-03T16:25:11.594Z</time></trkpt><trkpt lat="43.7299562" lon="11.3159977"><ele>103.0</ele><time>2026-05-03T16:25:12.594Z</time></trkpt><trkpt lat="43.7299924" lon="11.3159012"><ele>102.5</ele><time>2026-05-03T16:25:13.594Z</time></trkpt><trkpt lat="43.7300233" lon="11.315823"><ele>102.0</ele><time>2026-05-03T16:25:14.594Z</time></trkpt><trkpt lat="43.7301107" lon="11.3157564"><ele>102.0</ele><time>2026-05-03T16:25:16.593Z</time></trkpt><trkpt lat="43.7302057" lon="11.3158322"><ele>102.0</ele><time>2026-05-03T16:25:18.593Z</time></trkpt><trkpt lat="43.7302597" lon="11.3158975"><ele>102.0</ele><time>2026-05-03T16:25:19.594Z</time></trkpt><trkpt lat="43.7303115" lon="11.3159624"><ele>102.0</ele><time>2026-05-03T16:25:20.594Z</time></trkpt><trkpt lat="43.7303634" lon="11.3160314"><ele>102.0</ele><time>2026-05-03T16:25:21.594Z</time></trkpt><trkpt lat="43.7304227" lon="11.3161044"><ele>102.0</ele><time>2026-05-03T16:25:22.594Z</time></trkpt><trkpt lat="43.7304819" lon="11.3161794"><ele>102.83333333333333</ele><time>2026-05-03T16:25:23.594Z</time></trkpt><trkpt lat="43.730537" lon="11.3162549"><ele>103.66666666666666</ele><time>2026-05-03T16:25:24.594Z</time></trkpt><trkpt lat="43.7305925" lon="11.3163302"><ele>104.5</ele><time>2026-05-03T16:25:25.593Z</time></trkpt><trkpt lat="43.7306489" lon="11.3164015"><ele>105.33333333333333</ele><time>2026-05-03T16:25:26.593Z</time></trkpt><trkpt lat="43.7307014" lon="11.316473"><ele>106.16666666666666</ele><time>2026-05-03T16:25:27.593Z</time></trkpt><trkpt lat="43.7307564" lon="11.3165449"><ele>107.0</ele><time>2026-05-03T16:25:28.594Z</time></trkpt><trkpt lat="43.7308097" lon="11.3166109"><ele>107.83333333333333</ele><time>2026-05-03T16:25:29.594Z</time></trkpt><trkpt lat="43.7308608" lon="11.3166767"><ele>108.66666666666666</ele><time>2026-05-03T16:25:30.594Z</time></trkpt><trkpt lat="43.7309091" lon="11.3167398"><ele>109.5</ele><time>2026-05-03T16:25:31.593Z</time></trkpt><trkpt lat="43.7309547" lon="11.3168004"><ele>110.33333333333334</ele><time>2026-05-03T16:25:32.594Z</time></trkpt><trkpt lat="43.7310021" lon="11.316866"><ele>111.16666666666667</ele><time>2026-05-03T16:25:33.594Z</time></trkpt><trkpt lat="43.731087" lon="11.3169838"><ele>112.0</ele><time>2026-05-03T16:25:35.594Z</time></trkpt><trkpt lat="43.731158" lon="11.317069"><ele>113.16666666666667</ele><time>2026-05-03T16:25:37.593Z</time></trkpt><trkpt lat="43.7312574" lon="11.3170786"><ele>114.33333333333334</ele><time>2026-05-03T16:25:48.593Z</time></trkpt><trkpt lat="43.7313301" lon="11.3170258"><ele>115.5</ele><time>2026-05-03T16:25:50.594Z</time></trkpt><trkpt lat="43.7314184" lon="11.3169669"><ele>116.66666666666666</ele><time>2026-05-03T16:25:52.594Z</time></trkpt><trkpt lat="43.7314859" lon="11.3169093"><ele>117.83333333333333</ele><time>2026-05-03T16:25:54.594Z</time></trkpt><trkpt lat="43.7315565" lon="11.316861"><ele>119.0</ele><time>2026-05-03T16:25:56.594Z</time></trkpt><trkpt lat="43.7316405" lon="11.3168156"><ele>119.0</ele><time>2026-05-03T16:25:58.594Z</time></trkpt><trkpt lat="43.7317255" lon="11.316786"><ele>119.0</ele><time>2026-05-03T16:26:00.594Z</time></trkpt><trkpt lat="43.7317912" lon="11.3167379"><ele>119.0</ele><time>2026-05-03T16:26:02.593Z</time></trkpt><trkpt lat="43.7318498" lon="11.3166282"><ele>119.0</ele><time>2026-05-03T16:26:04.594Z</time></trkpt><trkpt lat="43.7318942" lon="11.3165012"><ele>119.0</ele><time>2026-05-03T16:26:06.594Z</time></trkpt><trkpt lat="43.7319361" lon="11.3163794"><ele>121.2</ele><time>2026-05-03T16:26:08.594Z</time></trkpt><trkpt lat="43.7319895" lon="11.3162567"><ele>123.4</ele><time>2026-05-03T16:26:10.593Z</time></trkpt><trkpt lat="43.7320323" lon="11.3161375"><ele>125.6</ele><time>2026-05-03T16:26:12.593Z</time></trkpt><trkpt lat="43.7320896" lon="11.3160119"><ele>127.8</ele><time>2026-05-03T16:26:14.594Z</time></trkpt><trkpt lat="43.7321441" lon="11.3158818"><ele>130.0</ele><time>2026-05-03T16:26:16.593Z</time></trkpt><trkpt lat="43.7321931" lon="11.3157334"><ele>130.0</ele><time>2026-05-03T16:26:18.593Z</time></trkpt><trkpt lat="43.7322508" lon="11.3155879"><ele>130.0</ele><time>2026-05-03T16:26:20.594Z</time></trkpt><trkpt lat="43.7323136" lon="11.3154437"><ele>130.0</ele><time>2026-05-03T16:26:22.594Z</time></trkpt><trkpt lat="43.7323747" lon="11.3153092"><ele>130.0</ele><time>2026-05-03T16:26:24.593Z</time></trkpt><trkpt lat="43.7324286" lon="11.3151728"><ele>129.8</ele><time>2026-05-03T16:26:26.594Z</time></trkpt><trkpt lat="43.7324879" lon="11.3150371"><ele>129.6</ele><time>2026-05-03T16:26:28.594Z</time></trkpt><trkpt lat="43.7325459" lon="11.3149109"><ele>129.4</ele><time>2026-05-03T16:26:30.593Z</time></trkpt><trkpt lat="43.7325975" lon="11.3147837"><ele>129.2</ele><time>2026-05-03T16:26:32.594Z</time></trkpt><trkpt lat="43.7326246" lon="11.314637"><ele>129.0</ele><time>2026-05-03T16:26:34.593Z</time></trkpt><trkpt lat="43.7326222" lon="11.3145434"><ele>129.0</ele><time>2026-05-03T16:26:36.594Z</time></trkpt><trkpt lat="43.7326136" lon="11.3144244"><ele>129.0</ele><time>2026-05-03T16:26:39.594Z</time></trkpt><trkpt lat="43.7326144" lon="11.3142987"><ele>129.0</ele><time>2026-05-03T16:26:42.593Z</time></trkpt><trkpt lat="43.7326155" lon="11.3141762"><ele>129.0</ele><time>2026-05-03T16:26:45.594Z</time></trkpt><trkpt lat="43.7326143" lon="11.3140654"><ele>129.0</ele><time>2026-05-03T16:26:47.594Z</time></trkpt><trkpt lat="43.7326113" lon="11.3139331"><ele>129.0</ele><time>2026-05-03T16:26:49.593Z</time></trkpt><trkpt lat="43.7326135" lon="11.313814"><ele>129.66666666666666</ele><time>2026-05-03T16:26:51.593Z</time></trkpt><trkpt lat="43.7326249" lon="11.313706"><ele>130.33333333333334</ele><time>2026-05-03T16:26:53.594Z</time></trkpt><trkpt lat="43.7326425" lon="11.3135902"><ele>131.0</ele><time>2026-05-03T16:26:55.593Z</time></trkpt><trkpt lat="43.7326655" lon="11.3134747"><ele>131.66666666666669</ele><time>2026-05-03T16:26:57.593Z</time></trkpt><trkpt lat="43.7326938" lon="11.3133806"><ele>132.33333333333334</ele><time>2026-05-03T16:26:59.594Z</time></trkpt><trkpt lat="43.7327372" lon="11.3133053"><ele>133.0</ele><time>2026-05-03T16:27:01.594Z</time></trkpt><trkpt lat="43.7328039" lon="11.3132654"><ele>134.33333333333334</ele><time>2026-05-03T16:27:03.594Z</time></trkpt><trkpt lat="43.7328751" lon="11.3132414"><ele>135.66666666666669</ele><time>2026-05-03T16:27:05.593Z</time></trkpt><trkpt lat="43.7329566" lon="11.3132361"><ele>137.0</ele><time>2026-05-03T16:27:08.594Z</time></trkpt><trkpt lat="43.7330362" lon="11.3132579"><ele>138.33333333333334</ele><time>2026-05-03T16:27:11.594Z</time></trkpt><trkpt lat="43.7331163" lon="11.3133057"><ele>139.66666666666666</ele><time>2026-05-03T16:27:14.593Z</time></trkpt><trkpt lat="43.7331985" lon="11.3133545"><ele>141.0</ele><time>2026-05-03T16:27:17.593Z</time></trkpt><trkpt lat="43.733268" lon="11.3134046"><ele>141.0</ele><time>2026-05-03T16:27:20.594Z</time></trkpt><trkpt lat="43.7333397" lon="11.3134501"><ele>141.0</ele><time>2026-05-03T16:27:23.594Z</time></trkpt><trkpt lat="43.7334119" lon="11.3134994"><ele>141.0</ele><time>2026-05-03T16:27:26.594Z</time></trkpt><trkpt lat="43.7335002" lon="11.3135471"><ele>141.0</ele><time>2026-05-03T16:27:29.594Z</time></trkpt><trkpt lat="43.7335705" lon="11.3135703"><ele>141.0</ele><time>2026-05-03T16:27:31.594Z</time></trkpt><trkpt lat="43.7336469" lon="11.3135772"><ele>141.0</ele><time>2026-05-03T16:27:33.594Z</time></trkpt><trkpt lat="43.733735" lon="11.3135937"><ele>141.14285714285714</ele><time>2026-05-03T16:27:36.594Z</time></trkpt><trkpt lat="43.7337992" lon="11.3136025"><ele>141.28571428571428</ele><time>2026-05-03T16:27:38.594Z</time></trkpt><trkpt lat="43.7338696" lon="11.3135977"><ele>141.42857142857142</ele><time>2026-05-03T16:27:40.594Z</time></trkpt><trkpt lat="43.7339444" lon="11.3135745"><ele>141.57142857142856</ele><time>2026-05-03T16:27:42.594Z</time></trkpt><trkpt lat="43.7340192" lon="11.3135538"><ele>141.7142857142857</ele><time>2026-05-03T16:27:44.594Z</time></trkpt><trkpt lat="43.7340923" lon="11.3135337"><ele>141.85714285714286</ele><time>2026-05-03T16:27:46.593Z</time></trkpt><trkpt lat="43.7341605" lon="11.3135018"><ele>142.0</ele><time>2026-05-03T16:27:48.594Z</time></trkpt><trkpt lat="43.7342281" lon="11.3134621"><ele>142.0</ele><time>2026-05-03T16:27:50.593Z</time></trkpt><trkpt lat="43.7342841" lon="11.3134138"><ele>142.0</ele><time>2026-05-03T16:27:52.594Z</time></trkpt><trkpt lat="43.7343667" lon="11.3133606"><ele>142.0</ele><time>2026-05-03T16:27:55.593Z</time></trkpt><trkpt lat="43.7344403" lon="11.3132781"><ele>142.0</ele><time>2026-05-03T16:27:58.594Z</time></trkpt><trkpt lat="43.7344791" lon="11.3131919"><ele>142.0</ele><time>2026-05-03T16:28:00.594Z</time></trkpt><trkpt lat="43.7345113" lon="11.313112"><ele>142.0</ele><time>2026-05-03T16:28:02.594Z</time></trkpt><trkpt lat="43.7345578" lon="11.3130161"><ele>140.66666666666669</ele><time>2026-05-03T16:28:05.594Z</time></trkpt><trkpt lat="43.7346074" lon="11.3129274"><ele>139.33333333333334</ele><time>2026-05-03T16:28:08.594Z</time></trkpt><trkpt lat="43.7346514" lon="11.3128149"><ele>138.0</ele><time>2026-05-03T16:28:11.594Z</time></trkpt><trkpt lat="43.7346948" lon="11.3127263"><ele>136.66666666666666</ele><time>2026-05-03T16:28:14.594Z</time></trkpt><trkpt lat="43.7347282" lon="11.3126436"><ele>135.33333333333331</ele><time>2026-05-03T16:28:17.594Z</time></trkpt><trkpt lat="43.7347601" lon="11.3125457"><ele>134.0</ele><time>2026-05-03T16:28:20.594Z</time></trkpt><trkpt lat="43.7347987" lon="11.3124488"><ele>134.0</ele><time>2026-05-03T16:28:23.594Z</time></trkpt><trkpt lat="43.7348357" lon="11.312337"><ele>134.0</ele><time>2026-05-03T16:28:26.594Z</time></trkpt><trkpt lat="43.7348601" lon="11.3122542"><ele>134.0</ele><time>2026-05-03T16:28:28.594Z</time></trkpt><trkpt lat="43.7348764" lon="11.3121656"><ele>134.0</ele><time>2026-05-03T16:28:30.594Z</time></trkpt><trkpt lat="43.734894" lon="11.3120437"><ele>134.0</ele><time>2026-05-03T16:28:33.594Z</time></trkpt><trkpt lat="43.7349108" lon="11.3119358"><ele>134.0</ele><time>2026-05-03T16:28:36.594Z</time></trkpt><trkpt lat="43.7349294" lon="11.31183"><ele>134.0</ele><time>2026-05-03T16:28:40.594Z</time></trkpt><trkpt lat="43.7349518" lon="11.3117268"><ele>134.0</ele><time>2026-05-03T16:28:43.594Z</time></trkpt><trkpt lat="43.7349733" lon="11.311616"><ele>134.0</ele><time>2026-05-03T16:28:46.594Z</time></trkpt><trkpt lat="43.7349902" lon="11.3115047"><ele>134.0</ele><time>2026-05-03T16:28:49.594Z</time></trkpt><trkpt lat="43.7350104" lon="11.311402"><ele>134.0</ele><time>2026-05-03T16:28:52.593Z</time></trkpt><trkpt lat="43.7350298" lon="11.3113049"><ele>134.0</ele><time>2026-05-03T16:28:55.594Z</time></trkpt><trkpt lat="43.7350502" lon="11.3112"><ele>133.85714285714286</ele><time>2026-05-03T16:28:58.593Z</time></trkpt><trkpt lat="43.7350646" lon="11.3110943"><ele>133.71428571428572</ele><time>2026-05-03T16:29:01.594Z</time></trkpt><trkpt lat="43.7350191" lon="11.3110284"><ele>133.57142857142856</ele><time>2026-05-03T16:29:05.594Z</time></trkpt><trkpt lat="43.7349551" lon="11.3110003"><ele>133.42857142857144</ele><time>2026-05-03T16:29:09.594Z</time></trkpt><trkpt lat="43.734884" lon="11.3109707"><ele>133.28571428571428</ele><time>2026-05-03T16:29:13.594Z</time></trkpt><trkpt lat="43.7348182" lon="11.3109507"><ele>133.14285714285714</ele><time>2026-05-03T16:29:16.593Z</time></trkpt><trkpt lat="43.7347336" lon="11.3109111"><ele>133.0</ele><time>2026-05-03T16:29:20.594Z</time></trkpt><trkpt lat="43.7346661" lon="11.3108854"><ele>133.0</ele><time>2026-05-03T16:29:23.594Z</time></trkpt><trkpt lat="43.7346034" lon="11.3108347"><ele>133.0</ele><time>2026-05-03T16:29:27.594Z</time></trkpt><trkpt lat="43.734601" lon="11.3107422"><ele>133.0</ele><time>2026-05-03T16:29:31.594Z</time></trkpt><trkpt lat="43.7346208" lon="11.3106425"><ele>133.0</ele><time>2026-05-03T16:29:34.593Z</time></trkpt><trkpt lat="43.7346562" lon="11.3105406"><ele>133.0</ele><time>2026-05-03T16:29:37.594Z</time></trkpt><trkpt lat="43.7346805" lon="11.3104348"><ele>133.0</ele><time>2026-05-03T16:29:40.594Z</time></trkpt><trkpt lat="43.7347097" lon="11.310326"><ele>133.0</ele><time>2026-05-03T16:29:43.593Z</time></trkpt><trkpt lat="43.7347352" lon="11.3102354"><ele>133.0</ele><time>2026-05-03T16:29:46.594Z</time></trkpt><trkpt lat="43.7347581" lon="11.3101366"><ele>133.0</ele><time>2026-05-03T16:29:49.594Z</time></trkpt><trkpt lat="43.7347759" lon="11.3100421"><ele>133.0</ele><time>2026-05-03T16:29:52.594Z</time></trkpt><trkpt lat="43.7348012" lon="11.3099432"><ele>133.0</ele><time>2026-05-03T16:29:55.594Z</time></trkpt><trkpt lat="43.7348242" lon="11.3098338"><ele>133.0</ele><time>2026-05-03T16:29:58.593Z</time></trkpt><trkpt lat="43.7348429" lon="11.309738"><ele>133.0</ele><time>2026-05-03T16:30:01.594Z</time></trkpt><trkpt lat="43.7348659" lon="11.3096513"><ele>133.0</ele><time>2026-05-03T16:30:04.594Z</time></trkpt><trkpt lat="43.7348853" lon="11.3095575"><ele>133.0</ele><time>2026-05-03T16:30:07.593Z</time></trkpt><trkpt lat="43.7349025" lon="11.3094635"><ele>133.0</ele><time>2026-05-03T16:30:10.594Z</time></trkpt><trkpt lat="43.7349259" lon="11.3093747"><ele>133.0</ele><time>2026-05-03T16:30:13.594Z</time></trkpt><trkpt lat="43.7349456" lon="11.3092879"><ele>133.0</ele><time>2026-05-03T16:30:16.594Z</time></trkpt><trkpt lat="43.7349699" lon="11.3091969"><ele>133.0</ele><time>2026-05-03T16:30:19.593Z</time></trkpt><trkpt lat="43.7349921" lon="11.3091064"><ele>133.0</ele><time>2026-05-03T16:30:22.594Z</time></trkpt><trkpt lat="43.7350172" lon="11.308994"><ele>132.0</ele><time>2026-05-03T16:30:25.594Z</time></trkpt><trkpt lat="43.7350465" lon="11.308878"><ele>131.0</ele><time>2026-05-03T16:30:28.594Z</time></trkpt><trkpt lat="43.7350751" lon="11.3087672"><ele>130.0</ele><time>2026-05-03T16:30:31.593Z</time></trkpt><trkpt lat="43.7351038" lon="11.3086448"><ele>129.0</ele><time>2026-05-03T16:30:34.593Z</time></trkpt><trkpt lat="43.7351262" lon="11.3085618"><ele>128.0</ele><time>2026-05-03T16:30:36.593Z</time></trkpt><trkpt lat="43.7351533" lon="11.3084787"><ele>127.0</ele><time>2026-05-03T16:30:38.593Z</time></trkpt><trkpt lat="43.73518" lon="11.3083953"><ele>127.00000000000001</ele><time>2026-05-03T16:30:40.594Z</time></trkpt><trkpt lat="43.7352042" lon="11.3083103"><ele>127.0</ele><time>2026-05-03T16:30:42.594Z</time></trkpt><trkpt lat="43.7352298" lon="11.3082253"><ele>127.0</ele><time>2026-05-03T16:30:44.594Z</time></trkpt><trkpt lat="43.7352564" lon="11.3081441"><ele>127.0</ele><time>2026-05-03T16:30:46.594Z</time></trkpt><trkpt lat="43.7352919" lon="11.3080278"><ele>127.00000000000001</ele><time>2026-05-03T16:30:49.593Z</time></trkpt><trkpt lat="43.7353176" lon="11.3079095"><ele>127.0</ele><time>2026-05-03T16:30:52.594Z</time></trkpt><trkpt lat="43.7353371" lon="11.3077979"><ele>127.33333333333334</ele><time>2026-05-03T16:30:55.594Z</time></trkpt><trkpt lat="43.7353612" lon="11.3076871"><ele>127.66666666666667</ele><time>2026-05-03T16:30:58.594Z</time></trkpt><trkpt lat="43.7353867" lon="11.3075702"><ele>128.0</ele><time>2026-05-03T16:31:01.594Z</time></trkpt><trkpt lat="43.7354153" lon="11.3074568"><ele>128.33333333333334</ele><time>2026-05-03T16:31:04.594Z</time></trkpt><trkpt lat="43.7354448" lon="11.3073533"><ele>128.66666666666666</ele><time>2026-05-03T16:31:07.594Z</time></trkpt><trkpt lat="43.7354816" lon="11.3072591"><ele>129.0</ele><time>2026-05-03T16:31:10.594Z</time></trkpt><trkpt lat="43.7355086" lon="11.3071458"><ele>129.0</ele><time>2026-05-03T16:31:13.594Z</time></trkpt><trkpt lat="43.7355341" lon="11.3070364"><ele>129.0</ele><time>2026-05-03T16:31:16.594Z</time></trkpt><trkpt lat="43.7355611" lon="11.3069254"><ele>129.0</ele><time>2026-05-03T16:31:19.593Z</time></trkpt><trkpt lat="43.7355941" lon="11.3068049"><ele>129.0</ele><time>2026-05-03T16:31:22.593Z</time></trkpt><trkpt lat="43.7356176" lon="11.3067193"><ele>129.0</ele><time>2026-05-03T16:31:24.593Z</time></trkpt><trkpt lat="43.735643" lon="11.3066359"><ele>129.0</ele><time>2026-05-03T16:31:26.594Z</time></trkpt><trkpt lat="43.7356737" lon="11.3065288"><ele>129.0</ele><time>2026-05-03T16:31:29.594Z</time></trkpt><trkpt lat="43.7357498" lon="11.3064975"><ele>129.0</ele><time>2026-05-03T16:31:33.594Z</time></trkpt><trkpt lat="43.7358118" lon="11.3064348"><ele>129.0</ele><time>2026-05-03T16:31:36.594Z</time></trkpt><trkpt lat="43.7358373" lon="11.3063375"><ele>129.0</ele><time>2026-05-03T16:31:38.594Z</time></trkpt><trkpt lat="43.7358671" lon="11.3062402"><ele>129.0</ele><time>2026-05-03T16:31:40.594Z</time></trkpt><trkpt lat="43.7358946" lon="11.3061435"><ele>129.0</ele><time>2026-05-03T16:31:42.593Z</time></trkpt><trkpt lat="43.7359197" lon="11.3060475"><ele>128.85714285714283</ele><time>2026-05-03T16:31:44.593Z</time></trkpt><trkpt lat="43.7359443" lon="11.3059548"><ele>128.71428571428572</ele><time>2026-05-03T16:31:46.594Z</time></trkpt><trkpt lat="43.735966" lon="11.3058608"><ele>128.57142857142856</ele><time>2026-05-03T16:31:48.593Z</time></trkpt><trkpt lat="43.735983" lon="11.305759"><ele>128.42857142857142</ele><time>2026-05-03T16:31:50.593Z</time></trkpt><trkpt lat="43.736005" lon="11.3056647"><ele>128.28571428571428</ele><time>2026-05-03T16:31:52.594Z</time></trkpt><trkpt lat="43.7360255" lon="11.3055711"><ele>128.14285714285714</ele><time>2026-05-03T16:31:54.594Z</time></trkpt><trkpt lat="43.7360483" lon="11.3054797"><ele>128.0</ele><time>2026-05-03T16:31:56.594Z</time></trkpt><trkpt lat="43.7360716" lon="11.3053817"><ele>128.0</ele><time>2026-05-03T16:31:58.594Z</time></trkpt><trkpt lat="43.7360939" lon="11.3052828"><ele>127.99999999999999</ele><time>2026-05-03T16:32:00.594Z</time></trkpt><trkpt lat="43.7361149" lon="11.3051852"><ele>128.0</ele><time>2026-05-03T16:32:02.593Z</time></trkpt><trkpt lat="43.73614" lon="11.3050885"><ele>128.0</ele><time>2026-05-03T16:32:04.594Z</time></trkpt><trkpt lat="43.7361637" lon="11.3050013"><ele>127.99999999999999</ele><time>2026-05-03T16:32:06.594Z</time></trkpt><trkpt lat="43.7361721" lon="11.3049061"><ele>128.0</ele><time>2026-05-03T16:32:08.594Z</time></trkpt><trkpt lat="43.7361723" lon="11.3047994"><ele>128.0</ele><time>2026-05-03T16:32:10.593Z</time></trkpt><trkpt lat="43.7361761" lon="11.3046848"><ele>127.66666666666666</ele><time>2026-05-03T16:32:12.594Z</time></trkpt><trkpt lat="43.736184" lon="11.3045675"><ele>127.33333333333333</ele><time>2026-05-03T16:32:14.594Z</time></trkpt><trkpt lat="43.7361919" lon="11.3044468"><ele>127.0</ele><time>2026-05-03T16:32:16.593Z</time></trkpt><trkpt lat="43.7361993" lon="11.3043237"><ele>126.66666666666666</ele><time>2026-05-03T16:32:18.594Z</time></trkpt><trkpt lat="43.7362086" lon="11.3042031"><ele>126.33333333333333</ele><time>2026-05-03T16:32:20.593Z</time></trkpt><trkpt lat="43.7362206" lon="11.3040841"><ele>126.0</ele><time>2026-05-03T16:32:22.594Z</time></trkpt><trkpt lat="43.7362425" lon="11.303961"><ele>126.5</ele><time>2026-05-03T16:32:24.593Z</time></trkpt><trkpt lat="43.7362602" lon="11.3038542"><ele>127.0</ele><time>2026-05-03T16:32:26.594Z</time></trkpt><trkpt lat="43.7362924" lon="11.3037479"><ele>127.5</ele><time>2026-05-03T16:32:28.594Z</time></trkpt><trkpt lat="43.7363509" lon="11.3036683"><ele>128.0</ele><time>2026-05-03T16:32:30.594Z</time></trkpt><trkpt lat="43.7364305" lon="11.3036066"><ele>128.5</ele><time>2026-05-03T16:32:32.593Z</time></trkpt><trkpt lat="43.7365108" lon="11.30356"><ele>129.0</ele><time>2026-05-03T16:32:34.593Z</time></trkpt><trkpt lat="43.7365955" lon="11.3035051"><ele>129.0</ele><time>2026-05-03T16:32:36.594Z</time></trkpt><trkpt lat="43.7366702" lon="11.3034381"><ele>129.0</ele><time>2026-05-03T16:32:38.594Z</time></trkpt><trkpt lat="43.7367325" lon="11.3033634"><ele>129.0</ele><time>2026-05-03T16:32:40.594Z</time></trkpt><trkpt lat="43.7367862" lon="11.303271"><ele>129.0</ele><time>2026-05-03T16:32:42.594Z</time></trkpt><trkpt lat="43.7368164" lon="11.3031541"><ele>129.0</ele><time>2026-05-03T16:32:44.594Z</time></trkpt><trkpt lat="43.736839" lon="11.3030237"><ele>129.0</ele><time>2026-05-03T16:32:46.594Z</time></trkpt><trkpt lat="43.7368522" lon="11.3028948"><ele>128.66666666666666</ele><time>2026-05-03T16:32:48.594Z</time></trkpt><trkpt lat="43.7368548" lon="11.3027628"><ele>128.33333333333334</ele><time>2026-05-03T16:32:50.594Z</time></trkpt><trkpt lat="43.7368472" lon="11.3026338"><ele>128.0</ele><time>2026-05-03T16:32:52.594Z</time></trkpt><trkpt lat="43.7368324" lon="11.3025073"><ele>127.66666666666667</ele><time>2026-05-03T16:32:54.594Z</time></trkpt><trkpt lat="43.73684" lon="11.3024182"><ele>127.33333333333334</ele><time>2026-05-03T16:32:56.594Z</time></trkpt><trkpt lat="43.7369118" lon="11.3023746"><ele>127.0</ele><time>2026-05-03T16:33:02.594Z</time></trkpt><trkpt lat="43.7369779" lon="11.3023238"><ele>126.71428571428572</ele><time>2026-05-03T16:33:05.593Z</time></trkpt><trkpt lat="43.7370438" lon="11.3022996"><ele>126.42857142857142</ele><time>2026-05-03T16:33:08.594Z</time></trkpt><trkpt lat="43.7371096" lon="11.3022587"><ele>126.14285714285714</ele><time>2026-05-03T16:33:11.594Z</time></trkpt><trkpt lat="43.737159" lon="11.3021781"><ele>125.85714285714286</ele><time>2026-05-03T16:33:14.594Z</time></trkpt><trkpt lat="43.7371967" lon="11.3020804"><ele>125.57142857142858</ele><time>2026-05-03T16:33:17.594Z</time></trkpt><trkpt lat="43.7372234" lon="11.3019948"><ele>125.28571428571428</ele><time>2026-05-03T16:33:20.594Z</time></trkpt><trkpt lat="43.7371958" lon="11.3019145"><ele>125.0</ele><time>2026-05-03T16:33:24.594Z</time></trkpt><trkpt lat="43.7371356" lon="11.3018423"><ele>124.42857142857142</ele><time>2026-05-03T16:33:28.594Z</time></trkpt><trkpt lat="43.7370852" lon="11.301785"><ele>123.85714285714286</ele><time>2026-05-03T16:33:32.594Z</time></trkpt><trkpt lat="43.7370898" lon="11.3016875"><ele>123.28571428571428</ele><time>2026-05-03T16:33:37.594Z</time></trkpt><trkpt lat="43.7370962" lon="11.3015942"><ele>122.71428571428571</ele><time>2026-05-03T16:33:42.593Z</time></trkpt><trkpt lat="43.73713" lon="11.3014985"><ele>122.14285714285714</ele><time>2026-05-03T16:33:47.594Z</time></trkpt><trkpt lat="43.7371533" lon="11.301408"><ele>121.57142857142857</ele><time>2026-05-03T16:33:51.594Z</time></trkpt><trkpt lat="43.7371906" lon="11.3013171"><ele>121.0</ele><time>2026-05-03T16:33:55.594Z</time></trkpt><trkpt lat="43.7372289" lon="11.3012289"><ele>119.42857142857142</ele><time>2026-05-03T16:33:59.593Z</time></trkpt><trkpt lat="43.7372674" lon="11.3011409"><ele>117.85714285714285</ele><time>2026-05-03T16:34:03.594Z</time></trkpt><trkpt lat="43.7372998" lon="11.3010533"><ele>116.28571428571428</ele><time>2026-05-03T16:34:06.594Z</time></trkpt><trkpt lat="43.7373272" lon="11.3009556"><ele>114.71428571428571</ele><time>2026-05-03T16:34:10.594Z</time></trkpt><trkpt lat="43.7373421" lon="11.3008688"><ele>113.14285714285714</ele><time>2026-05-03T16:34:15.594Z</time></trkpt><trkpt lat="43.7373773" lon="11.3007779"><ele>111.57142857142856</ele><time>2026-05-03T16:34:20.594Z</time></trkpt><trkpt lat="43.7374329" lon="11.3007052"><ele>110.0</ele><time>2026-05-03T16:34:25.594Z</time></trkpt><trkpt lat="43.737503" lon="11.3007197"><ele>109.99999999999999</ele><time>2026-05-03T16:34:30.594Z</time></trkpt><trkpt lat="43.737556" lon="11.3007896"><ele>110.0</ele><time>2026-05-03T16:34:35.594Z</time></trkpt><trkpt lat="43.737587" lon="11.3008681"><ele>110.0</ele><time>2026-05-03T16:34:39.594Z</time></trkpt><trkpt lat="43.7376526" lon="11.300867"><ele>110.0</ele><time>2026-05-03T16:34:43.594Z</time></trkpt><trkpt lat="43.7377115" lon="11.3008013"><ele>110.0</ele><time>2026-05-03T16:34:48.594Z</time></trkpt><trkpt lat="43.7377382" lon="11.3006891"><ele>109.99999999999999</ele><time>2026-05-03T16:34:52.594Z</time></trkpt><trkpt lat="43.7377432" lon="11.3005781"><ele>110.0</ele><time>2026-05-03T16:34:55.594Z</time></trkpt><trkpt lat="43.7377593" lon="11.3004886"><ele>106.33333333333333</ele><time>2026-05-03T16:34:58.594Z</time></trkpt><trkpt lat="43.7377718" lon="11.3003701"><ele>102.66666666666666</ele><time>2026-05-03T16:35:01.593Z</time></trkpt><trkpt lat="43.7377879" lon="11.3002501"><ele>99.0</ele><time>2026-05-03T16:35:04.594Z</time></trkpt><trkpt lat="43.7377965" lon="11.3001403"><ele>95.33333333333333</ele><time>2026-05-03T16:35:07.593Z</time></trkpt><trkpt lat="43.7377984" lon="11.3000297"><ele>91.66666666666666</ele><time>2026-05-03T16:35:10.594Z</time></trkpt><trkpt lat="43.7377965" lon="11.2999416"><ele>88.0</ele><time>2026-05-03T16:35:13.594Z</time></trkpt><trkpt lat="43.7377901" lon="11.2998489"><ele>88.0</ele><time>2026-05-03T16:35:16.594Z</time></trkpt><trkpt lat="43.7377443" lon="11.2997753"><ele>88.0</ele><time>2026-05-03T16:35:19.594Z</time></trkpt><trkpt lat="43.7376846" lon="11.2997039"><ele>88.0</ele><time>2026-05-03T16:35:23.594Z</time></trkpt><trkpt lat="43.7376699" lon="11.2995998"><ele>88.0</ele><time>2026-05-03T16:35:28.594Z</time></trkpt><trkpt lat="43.7376637" lon="11.2994907"><ele>88.0</ele><time>2026-05-03T16:35:32.594Z</time></trkpt><trkpt lat="43.7376307" lon="11.2993959"><ele>88.0</ele><time>2026-05-03T16:35:35.594Z</time></trkpt><trkpt lat="43.7376358" lon="11.2992964"><ele>88.0</ele><time>2026-05-03T16:35:38.593Z</time></trkpt><trkpt lat="43.7376353" lon="11.2991781"><ele>88.0</ele><time>2026-05-03T16:35:41.594Z</time></trkpt><trkpt lat="43.7376273" lon="11.2990907"><ele>88.0</ele><time>2026-05-03T16:35:43.594Z</time></trkpt><trkpt lat="43.7376228" lon="11.2989931"><ele>88.0</ele><time>2026-05-03T16:35:45.593Z</time></trkpt><trkpt lat="43.7376083" lon="11.2988968"><ele>88.0</ele><time>2026-05-03T16:35:47.593Z</time></trkpt><trkpt lat="43.7375903" lon="11.2988094"><ele>88.0</ele><time>2026-05-03T16:35:49.594Z</time></trkpt><trkpt lat="43.737562" lon="11.2986957"><ele>88.0</ele><time>2026-05-03T16:35:52.594Z</time></trkpt><trkpt lat="43.7375255" lon="11.2985935"><ele>88.0</ele><time>2026-05-03T16:35:55.594Z</time></trkpt><trkpt lat="43.737488" lon="11.2984926"><ele>88.0</ele><time>2026-05-03T16:35:58.594Z</time></trkpt><trkpt lat="43.7374983" lon="11.2984024"><ele>88.0</ele><time>2026-05-03T16:36:01.593Z</time></trkpt><trkpt lat="43.7375368" lon="11.298321"><ele>88.0</ele><time>2026-05-03T16:36:03.594Z</time></trkpt><trkpt lat="43.7375724" lon="11.2982464"><ele>88.0</ele><time>2026-05-03T16:36:05.594Z</time></trkpt><trkpt lat="43.7376183" lon="11.2981537"><ele>88.0</ele><time>2026-05-03T16:36:08.594Z</time></trkpt><trkpt lat="43.7376572" lon="11.2980755"><ele>88.0</ele><time>2026-05-03T16:36:11.594Z</time></trkpt><trkpt lat="43.7377119" lon="11.2980029"><ele>87.33333333333333</ele><time>2026-05-03T16:36:14.594Z</time></trkpt><trkpt lat="43.7377876" lon="11.2979973"><ele>86.66666666666666</ele><time>2026-05-03T16:36:17.594Z</time></trkpt><trkpt lat="43.7378572" lon="11.2980001"><ele>86.0</ele><time>2026-05-03T16:36:20.594Z</time></trkpt><trkpt lat="43.7379105" lon="11.2979365"><ele>85.33333333333333</ele><time>2026-05-03T16:36:23.594Z</time></trkpt><trkpt lat="43.7379524" lon="11.2978108"><ele>84.66666666666667</ele><time>2026-05-03T16:36:26.593Z</time></trkpt><trkpt lat="43.7379817" lon="11.2977121"><ele>84.0</ele><time>2026-05-03T16:36:29.593Z</time></trkpt><trkpt lat="43.7380532" lon="11.2976519"><ele>84.0</ele><time>2026-05-03T16:36:40.594Z</time></trkpt><trkpt lat="43.7381568" lon="11.2977172"><ele>84.0</ele><time>2026-05-03T16:36:42.594Z</time></trkpt><trkpt lat="43.7382182" lon="11.2977485"><ele>84.0</ele><time>2026-05-03T16:36:43.594Z</time></trkpt><trkpt lat="43.7382753" lon="11.2977866"><ele>84.0</ele><time>2026-05-03T16:36:44.594Z</time></trkpt><trkpt lat="43.7383466" lon="11.2978382"><ele>84.0</ele><time>2026-05-03T16:36:45.593Z</time></trkpt><trkpt lat="43.7384208" lon="11.2978813"><ele>84.0</ele><time>2026-05-03T16:36:46.594Z</time></trkpt><trkpt lat="43.7385014" lon="11.2979168"><ele>84.0</ele><time>2026-05-03T16:36:47.594Z</time></trkpt><trkpt lat="43.7385819" lon="11.2979603"><ele>84.0</ele><time>2026-05-03T16:36:48.594Z</time></trkpt><trkpt lat="43.7386628" lon="11.2980024"><ele>84.0</ele><time>2026-05-03T16:36:49.594Z</time></trkpt><trkpt lat="43.7387562" lon="11.298014"><ele>84.0</ele><time>2026-05-03T16:36:50.594Z</time></trkpt><trkpt lat="43.7388551" lon="11.2980272"><ele>84.0</ele><time>2026-05-03T16:36:51.594Z</time></trkpt><trkpt lat="43.7389497" lon="11.2980268"><ele>84.0</ele><time>2026-05-03T16:36:52.594Z</time></trkpt><trkpt lat="43.7390408" lon="11.2980309"><ele>84.0</ele><time>2026-05-03T16:36:53.594Z</time></trkpt><trkpt lat="43.7391347" lon="11.2980002"><ele>84.0</ele><time>2026-05-03T16:36:54.594Z</time></trkpt><trkpt lat="43.739225" lon="11.2979949"><ele>84.0</ele><time>2026-05-03T16:36:55.593Z</time></trkpt><trkpt lat="43.7393242" lon="11.2979817"><ele>84.0</ele><time>2026-05-03T16:36:56.594Z</time></trkpt><trkpt lat="43.7394068" lon="11.2979711"><ele>83.66666666666667</ele><time>2026-05-03T16:36:57.594Z</time></trkpt><trkpt lat="43.7394836" lon="11.2979656"><ele>83.33333333333333</ele><time>2026-05-03T16:36:58.594Z</time></trkpt><trkpt lat="43.7395715" lon="11.2979481"><ele>83.0</ele><time>2026-05-03T16:36:59.594Z</time></trkpt><trkpt lat="43.7396446" lon="11.2979428"><ele>82.66666666666666</ele><time>2026-05-03T16:37:00.593Z</time></trkpt><trkpt lat="43.7397089" lon="11.2979395"><ele>82.33333333333333</ele><time>2026-05-03T16:37:01.594Z</time></trkpt><trkpt lat="43.7397767" lon="11.2979238"><ele>82.0</ele><time>2026-05-03T16:37:02.594Z</time></trkpt><trkpt lat="43.7398789" lon="11.297902"><ele>82.0</ele><time>2026-05-03T16:37:04.594Z</time></trkpt><trkpt lat="43.7399461" lon="11.2979507"><ele>82.0</ele><time>2026-05-03T16:37:06.594Z</time></trkpt><trkpt lat="43.73997" lon="11.2980477"><ele>82.0</ele><time>2026-05-03T16:37:08.594Z</time></trkpt><trkpt lat="43.7399476" lon="11.2981832"><ele>82.0</ele><time>2026-05-03T16:37:10.593Z</time></trkpt><trkpt lat="43.7399274" lon="11.2982703"><ele>82.0</ele><time>2026-05-03T16:37:11.594Z</time></trkpt><trkpt lat="43.7398866" lon="11.2984223"><ele>82.0</ele><time>2026-05-03T16:37:13.593Z</time></trkpt><trkpt lat="43.7398646" lon="11.2985149"><ele>82.28571428571428</ele><time>2026-05-03T16:37:14.593Z</time></trkpt><trkpt lat="43.7398429" lon="11.29861"><ele>82.57142857142857</ele><time>2026-05-03T16:37:15.594Z</time></trkpt><trkpt lat="43.7398241" lon="11.298702"><ele>82.85714285714286</ele><time>2026-05-03T16:37:16.594Z</time></trkpt><trkpt lat="43.7398019" lon="11.2988008"><ele>83.14285714285714</ele><time>2026-05-03T16:37:17.593Z</time></trkpt><trkpt lat="43.739782" lon="11.2988985"><ele>83.42857142857143</ele><time>2026-05-03T16:37:18.594Z</time></trkpt><trkpt lat="43.7397668" lon="11.2989888"><ele>83.71428571428571</ele><time>2026-05-03T16:37:19.594Z</time></trkpt><trkpt lat="43.7397527" lon="11.2990855"><ele>84.0</ele><time>2026-05-03T16:37:20.594Z</time></trkpt><trkpt lat="43.739747" lon="11.2991789"><ele>85.28571428571429</ele><time>2026-05-03T16:37:21.593Z</time></trkpt><trkpt lat="43.7397417" lon="11.2992706"><ele>86.57142857142857</ele><time>2026-05-03T16:37:22.594Z</time></trkpt><trkpt lat="43.7397395" lon="11.2993712"><ele>87.85714285714286</ele><time>2026-05-03T16:37:23.594Z</time></trkpt><trkpt lat="43.7397395" lon="11.299474"><ele>89.14285714285714</ele><time>2026-05-03T16:37:24.594Z</time></trkpt><trkpt lat="43.7397457" lon="11.2995778"><ele>90.42857142857143</ele><time>2026-05-03T16:37:25.594Z</time></trkpt><trkpt lat="43.739751" lon="11.2996821"><ele>91.71428571428572</ele><time>2026-05-03T16:37:26.594Z</time></trkpt><trkpt lat="43.7397531" lon="11.2997903"><ele>93.0</ele><time>2026-05-03T16:37:27.594Z</time></trkpt><trkpt lat="43.7397547" lon="11.2998899"><ele>93.66666666666667</ele><time>2026-05-03T16:37:28.594Z</time></trkpt><trkpt lat="43.7397582" lon="11.3000284"><ele>94.33333333333334</ele><time>2026-05-03T16:37:30.594Z</time></trkpt><trkpt lat="43.7397537" lon="11.3001377"><ele>95.0</ele><time>2026-05-03T16:37:34.594Z</time></trkpt><trkpt lat="43.7397402" lon="11.3002706"><ele>95.66666666666667</ele><time>2026-05-03T16:37:37.594Z</time></trkpt><trkpt lat="43.73974" lon="11.3004121"><ele>96.33333333333334</ele><time>2026-05-03T16:37:39.593Z</time></trkpt><trkpt lat="43.7397328" lon="11.3005036"><ele>97.0</ele><time>2026-05-03T16:37:40.593Z</time></trkpt><trkpt lat="43.7397264" lon="11.3005964"><ele>97.00000000000001</ele><time>2026-05-03T16:37:41.594Z</time></trkpt><trkpt lat="43.7397242" lon="11.3006985"><ele>97.0</ele><time>2026-05-03T16:37:42.594Z</time></trkpt><trkpt lat="43.7397232" lon="11.3008035"><ele>97.0</ele><time>2026-05-03T16:37:43.594Z</time></trkpt><trkpt lat="43.7397211" lon="11.3009149"><ele>97.0</ele><time>2026-05-03T16:37:44.594Z</time></trkpt><trkpt lat="43.7397146" lon="11.3010328"><ele>97.00000000000001</ele><time>2026-05-03T16:37:45.594Z</time></trkpt><trkpt lat="43.7397109" lon="11.3011437"><ele>97.0</ele><time>2026-05-03T16:37:46.594Z</time></trkpt><trkpt lat="43.7397076" lon="11.3012687"><ele>97.0</ele><time>2026-05-03T16:37:47.594Z</time></trkpt><trkpt lat="43.7397019" lon="11.3013945"><ele>97.0</ele><time>2026-05-03T16:37:48.593Z</time></trkpt><trkpt lat="43.739695" lon="11.3015206"><ele>97.0</ele><time>2026-05-03T16:37:49.594Z</time></trkpt><trkpt lat="43.7396876" lon="11.3016435"><ele>97.0</ele><time>2026-05-03T16:37:50.594Z</time></trkpt><trkpt lat="43.7396794" lon="11.3017719"><ele>97.0</ele><time>2026-05-03T16:37:51.594Z</time></trkpt><trkpt lat="43.7396741" lon="11.3018949"><ele>97.00000000000001</ele><time>2026-05-03T16:37:52.594Z</time></trkpt><trkpt lat="43.7396692" lon="11.3020128"><ele>97.0</ele><time>2026-05-03T16:37:53.594Z</time></trkpt><trkpt lat="43.7396632" lon="11.3021285"><ele>97.0</ele><time>2026-05-03T16:37:54.594Z</time></trkpt><trkpt lat="43.7396569" lon="11.3022394"><ele>97.0</ele><time>2026-05-03T16:37:55.593Z</time></trkpt><trkpt lat="43.7396505" lon="11.3023566"><ele>97.00000000000001</ele><time>2026-05-03T16:37:56.593Z</time></trkpt><trkpt lat="43.7396455" lon="11.3024571"><ele>97.0</ele><time>2026-05-03T16:37:57.593Z</time></trkpt><trkpt lat="43.739637" lon="11.3025616"><ele>97.00000000000001</ele><time>2026-05-03T16:37:58.593Z</time></trkpt><trkpt lat="43.7396371" lon="11.3026726"><ele>97.0</ele><time>2026-05-03T16:37:59.594Z</time></trkpt><trkpt lat="43.7396406" lon="11.3027848"><ele>97.0</ele><time>2026-05-03T16:38:00.594Z</time></trkpt><trkpt lat="43.7396406" lon="11.3028969"><ele>97.0</ele><time>2026-05-03T16:38:01.593Z</time></trkpt><trkpt lat="43.7396443" lon="11.303008"><ele>97.00000000000001</ele><time>2026-05-03T16:38:02.594Z</time></trkpt><trkpt lat="43.7396487" lon="11.303116"><ele>97.0</ele><time>2026-05-03T16:38:03.593Z</time></trkpt><trkpt lat="43.7396596" lon="11.3032263"><ele>97.50000000000001</ele><time>2026-05-03T16:38:04.593Z</time></trkpt><trkpt lat="43.7396656" lon="11.3033358"><ele>98.0</ele><time>2026-05-03T16:38:05.594Z</time></trkpt><trkpt lat="43.7396661" lon="11.303447"><ele>98.5</ele><time>2026-05-03T16:38:06.594Z</time></trkpt><trkpt lat="43.7396627" lon="11.3035619"><ele>99.0</ele><time>2026-05-03T16:38:07.594Z</time></trkpt><trkpt lat="43.7396525" lon="11.3036673"><ele>99.50000000000001</ele><time>2026-05-03T16:38:08.594Z</time></trkpt><trkpt lat="43.7396474" lon="11.303783"><ele>100.0</ele><time>2026-05-03T16:38:09.594Z</time></trkpt><trkpt lat="43.7396423" lon="11.3038901"><ele>101.00000000000001</ele><time>2026-05-03T16:38:10.594Z</time></trkpt><trkpt lat="43.7396392" lon="11.3040037"><ele>102.0</ele><time>2026-05-03T16:38:11.594Z</time></trkpt><trkpt lat="43.7396297" lon="11.3041157"><ele>103.0</ele><time>2026-05-03T16:38:12.593Z</time></trkpt><trkpt lat="43.7396259" lon="11.3042245"><ele>104.0</ele><time>2026-05-03T16:38:13.593Z</time></trkpt><trkpt lat="43.7396186" lon="11.3043355"><ele>105.00000000000001</ele><time>2026-05-03T16:38:14.593Z</time></trkpt><trkpt lat="43.7396064" lon="11.304444"><ele>106.0</ele><time>2026-05-03T16:38:15.594Z</time></trkpt><trkpt lat="43.7395864" lon="11.3045406"><ele>106.0</ele><time>2026-05-03T16:38:16.594Z</time></trkpt><trkpt lat="43.7395636" lon="11.304635"><ele>106.0</ele><time>2026-05-03T16:38:17.594Z</time></trkpt><trkpt lat="43.7395423" lon="11.3047299"><ele>106.0</ele><time>2026-05-03T16:38:18.594Z</time></trkpt><trkpt lat="43.7395213" lon="11.3048277"><ele>106.0</ele><time>2026-05-03T16:38:19.593Z</time></trkpt><trkpt lat="43.7395002" lon="11.3049215"><ele>106.0</ele><time>2026-05-03T16:38:20.594Z</time></trkpt><trkpt lat="43.7394801" lon="11.3050187"><ele>106.0</ele><time>2026-05-03T16:38:21.594Z</time></trkpt><trkpt lat="43.7394611" lon="11.305115"><ele>106.0</ele><time>2026-05-03T16:38:22.594Z</time></trkpt><trkpt lat="43.7394453" lon="11.3052052"><ele>106.14285714285715</ele><time>2026-05-03T16:38:23.594Z</time></trkpt><trkpt lat="43.7394252" lon="11.3053043"><ele>106.28571428571428</ele><time>2026-05-03T16:38:24.594Z</time></trkpt><trkpt lat="43.7394024" lon="11.3054032"><ele>106.42857142857143</ele><time>2026-05-03T16:38:25.594Z</time></trkpt><trkpt lat="43.7393873" lon="11.3054962"><ele>106.57142857142858</ele><time>2026-05-03T16:38:26.594Z</time></trkpt><trkpt lat="43.7393773" lon="11.3055991"><ele>106.71428571428572</ele><time>2026-05-03T16:38:27.594Z</time></trkpt><trkpt lat="43.7393623" lon="11.3057038"><ele>106.85714285714286</ele><time>2026-05-03T16:38:28.594Z</time></trkpt><trkpt lat="43.7393464" lon="11.3058051"><ele>107.0</ele><time>2026-05-03T16:38:29.594Z</time></trkpt><trkpt lat="43.7393267" lon="11.3059075"><ele>105.66666666666666</ele><time>2026-05-03T16:38:30.593Z</time></trkpt><trkpt lat="43.7393032" lon="11.3060073"><ele>104.33333333333333</ele><time>2026-05-03T16:38:31.594Z</time></trkpt><trkpt lat="43.7392738" lon="11.306106"><ele>103.0</ele><time>2026-05-03T16:38:32.594Z</time></trkpt><trkpt lat="43.7392402" lon="11.3061993"><ele>101.66666666666666</ele><time>2026-05-03T16:38:33.594Z</time></trkpt><trkpt lat="43.7392073" lon="11.306293"><ele>100.33333333333333</ele><time>2026-05-03T16:38:34.594Z</time></trkpt><trkpt lat="43.7391715" lon="11.3063858"><ele>99.0</ele><time>2026-05-03T16:38:35.593Z</time></trkpt><trkpt lat="43.7391328" lon="11.3064817"><ele>99.0</ele><time>2026-05-03T16:38:36.594Z</time></trkpt><trkpt lat="43.7390925" lon="11.3065752"><ele>99.0</ele><time>2026-05-03T16:38:37.594Z</time></trkpt><trkpt lat="43.7390533" lon="11.306676"><ele>99.0</ele><time>2026-05-03T16:38:38.594Z</time></trkpt><trkpt lat="43.7390142" lon="11.3067765"><ele>99.0</ele><time>2026-05-03T16:38:39.594Z</time></trkpt><trkpt lat="43.7389778" lon="11.3068761"><ele>99.0</ele><time>2026-05-03T16:38:40.594Z</time></trkpt><trkpt lat="43.7389369" lon="11.306975"><ele>99.0</ele><time>2026-05-03T16:38:41.593Z</time></trkpt><trkpt lat="43.7389006" lon="11.3070786"><ele>99.0</ele><time>2026-05-03T16:38:42.594Z</time></trkpt><trkpt lat="43.7388624" lon="11.3071839"><ele>99.0</ele><time>2026-05-03T16:38:43.594Z</time></trkpt><trkpt lat="43.7388317" lon="11.3073035"><ele>99.0</ele><time>2026-05-03T16:38:44.594Z</time></trkpt><trkpt lat="43.7387976" lon="11.3074098"><ele>99.0</ele><time>2026-05-03T16:38:45.594Z</time></trkpt><trkpt lat="43.7387643" lon="11.3075139"><ele>99.0</ele><time>2026-05-03T16:38:46.594Z</time></trkpt><trkpt lat="43.7387289" lon="11.3076249"><ele>99.0</ele><time>2026-05-03T16:38:47.594Z</time></trkpt><trkpt lat="43.7386957" lon="11.3077359"><ele>98.83333333333333</ele><time>2026-05-03T16:38:48.594Z</time></trkpt><trkpt lat="43.738663" lon="11.3078462"><ele>98.66666666666666</ele><time>2026-05-03T16:38:49.594Z</time></trkpt><trkpt lat="43.7386261" lon="11.3079573"><ele>98.5</ele><time>2026-05-03T16:38:50.594Z</time></trkpt><trkpt lat="43.7385912" lon="11.308067"><ele>98.33333333333333</ele><time>2026-05-03T16:38:51.594Z</time></trkpt><trkpt lat="43.738555" lon="11.308177"><ele>98.16666666666666</ele><time>2026-05-03T16:38:52.594Z</time></trkpt><trkpt lat="43.7385223" lon="11.308287"><ele>98.0</ele><time>2026-05-03T16:38:53.594Z</time></trkpt><trkpt lat="43.7384881" lon="11.3083989"><ele>97.99999999999999</ele><time>2026-05-03T16:38:54.594Z</time></trkpt><trkpt lat="43.7384515" lon="11.3085072"><ele>98.0</ele><time>2026-05-03T16:38:55.594Z</time></trkpt><trkpt lat="43.7384227" lon="11.3086152"><ele>98.0</ele><time>2026-05-03T16:38:56.594Z</time></trkpt><trkpt lat="43.7383965" lon="11.308727"><ele>98.0</ele><time>2026-05-03T16:38:57.594Z</time></trkpt><trkpt lat="43.7383773" lon="11.3088309"><ele>97.99999999999999</ele><time>2026-05-03T16:38:58.594Z</time></trkpt><trkpt lat="43.7383576" lon="11.3089389"><ele>98.0</ele><time>2026-05-03T16:38:59.593Z</time></trkpt><trkpt lat="43.7383403" lon="11.3090447"><ele>97.83333333333333</ele><time>2026-05-03T16:39:00.594Z</time></trkpt><trkpt lat="43.7383243" lon="11.3091479"><ele>97.66666666666666</ele><time>2026-05-03T16:39:01.593Z</time></trkpt><trkpt lat="43.7383189" lon="11.3092503"><ele>97.5</ele><time>2026-05-03T16:39:02.594Z</time></trkpt><trkpt lat="43.7383212" lon="11.3093552"><ele>97.33333333333334</ele><time>2026-05-03T16:39:03.594Z</time></trkpt><trkpt lat="43.7383364" lon="11.3094556"><ele>97.16666666666667</ele><time>2026-05-03T16:39:04.593Z</time></trkpt><trkpt lat="43.7383586" lon="11.3095558"><ele>97.0</ele><time>2026-05-03T16:39:05.594Z</time></trkpt><trkpt lat="43.738387" lon="11.3096561"><ele>97.33333333333334</ele><time>2026-05-03T16:39:06.594Z</time></trkpt><trkpt lat="43.7384192" lon="11.309747"><ele>97.66666666666667</ele><time>2026-05-03T16:39:07.594Z</time></trkpt><trkpt lat="43.7384482" lon="11.3098447"><ele>98.0</ele><time>2026-05-03T16:39:08.594Z</time></trkpt><trkpt lat="43.7384814" lon="11.3099374"><ele>98.33333333333334</ele><time>2026-05-03T16:39:09.594Z</time></trkpt><trkpt lat="43.7385091" lon="11.3100449"><ele>98.66666666666667</ele><time>2026-05-03T16:39:10.593Z</time></trkpt><trkpt lat="43.7385378" lon="11.3101441"><ele>99.0</ele><time>2026-05-03T16:39:11.594Z</time></trkpt><trkpt lat="43.7385602" lon="11.3102519"><ele>100.0</ele><time>2026-05-03T16:39:12.593Z</time></trkpt><trkpt lat="43.7385779" lon="11.3103659"><ele>101.0</ele><time>2026-05-03T16:39:13.593Z</time></trkpt><trkpt lat="43.7385947" lon="11.3104713"><ele>102.0</ele><time>2026-05-03T16:39:14.594Z</time></trkpt><trkpt lat="43.7386122" lon="11.3105898"><ele>103.0</ele><time>2026-05-03T16:39:15.594Z</time></trkpt><trkpt lat="43.7386167" lon="11.310713"><ele>104.0</ele><time>2026-05-03T16:39:16.594Z</time></trkpt><trkpt lat="43.7386305" lon="11.3108284"><ele>105.0</ele><time>2026-05-03T16:39:17.594Z</time></trkpt><trkpt lat="43.7386355" lon="11.3109633"><ele>106.33333333333333</ele><time>2026-05-03T16:39:18.593Z</time></trkpt><trkpt lat="43.7386456" lon="11.3110865"><ele>107.66666666666666</ele><time>2026-05-03T16:39:19.594Z</time></trkpt><trkpt lat="43.7386532" lon="11.3112042"><ele>109.0</ele><time>2026-05-03T16:39:20.594Z</time></trkpt><trkpt lat="43.7386656" lon="11.3113102"><ele>110.33333333333333</ele><time>2026-05-03T16:39:21.594Z</time></trkpt><trkpt lat="43.7386775" lon="11.3114369"><ele>111.66666666666666</ele><time>2026-05-03T16:39:22.594Z</time></trkpt><trkpt lat="43.7386908" lon="11.3115351"><ele>113.0</ele><time>2026-05-03T16:39:23.594Z</time></trkpt><trkpt lat="43.7386959" lon="11.311662"><ele>113.80000000000001</ele><time>2026-05-03T16:39:24.593Z</time></trkpt><trkpt lat="43.7387001" lon="11.3117937"><ele>114.60000000000001</ele><time>2026-05-03T16:39:25.594Z</time></trkpt><trkpt lat="43.7387089" lon="11.3119231"><ele>115.39999999999999</ele><time>2026-05-03T16:39:26.594Z</time></trkpt><trkpt lat="43.738716" lon="11.3120718"><ele>116.19999999999999</ele><time>2026-05-03T16:39:27.594Z</time></trkpt><trkpt lat="43.7387208" lon="11.3121927"><ele>117.0</ele><time>2026-05-03T16:39:28.593Z</time></trkpt><trkpt lat="43.7387261" lon="11.3123414"><ele>117.33333333333333</ele><time>2026-05-03T16:39:29.593Z</time></trkpt><trkpt lat="43.7387302" lon="11.3124682"><ele>117.66666666666666</ele><time>2026-05-03T16:39:30.593Z</time></trkpt><trkpt lat="43.7387412" lon="11.3125847"><ele>118.0</ele><time>2026-05-03T16:39:31.593Z</time></trkpt><trkpt lat="43.7387434" lon="11.3127145"><ele>118.33333333333333</ele><time>2026-05-03T16:39:32.594Z</time></trkpt><trkpt lat="43.7387519" lon="11.3128285"><ele>118.66666666666666</ele><time>2026-05-03T16:39:33.594Z</time></trkpt><trkpt lat="43.7387511" lon="11.3129489"><ele>119.0</ele><time>2026-05-03T16:39:34.594Z</time></trkpt><trkpt lat="43.7387512" lon="11.3130695"><ele>119.99999999999999</ele><time>2026-05-03T16:39:35.593Z</time></trkpt><trkpt lat="43.7387525" lon="11.3131794"><ele>121.0</ele><time>2026-05-03T16:39:36.593Z</time></trkpt><trkpt lat="43.7387536" lon="11.3132906"><ele>122.0</ele><time>2026-05-03T16:39:37.594Z</time></trkpt><trkpt lat="43.7387578" lon="11.3134036"><ele>123.0</ele><time>2026-05-03T16:39:38.594Z</time></trkpt><trkpt lat="43.7387523" lon="11.3135298"><ele>123.99999999999999</ele><time>2026-05-03T16:39:39.594Z</time></trkpt><trkpt lat="43.7387421" lon="11.3136501"><ele>125.0</ele><time>2026-05-03T16:39:40.594Z</time></trkpt><trkpt lat="43.738732" lon="11.3137529"><ele>124.99999999999999</ele><time>2026-05-03T16:39:41.594Z</time></trkpt><trkpt lat="43.7387198" lon="11.3138594"><ele>125.0</ele><time>2026-05-03T16:39:42.594Z</time></trkpt><trkpt lat="43.7387051" lon="11.3139823"><ele>125.0</ele><time>2026-05-03T16:39:43.594Z</time></trkpt><trkpt lat="43.7387003" lon="11.3140897"><ele>125.0</ele><time>2026-05-03T16:39:44.593Z</time></trkpt><trkpt lat="43.7386924" lon="11.3141869"><ele>124.99999999999999</ele><time>2026-05-03T16:39:45.594Z</time></trkpt><trkpt lat="43.7386914" lon="11.3142914"><ele>125.0</ele><time>2026-05-03T16:39:46.593Z</time></trkpt><trkpt lat="43.7386886" lon="11.3143963"><ele>125.42857142857142</ele><time>2026-05-03T16:39:47.594Z</time></trkpt><trkpt lat="43.7386843" lon="11.3144971"><ele>125.85714285714286</ele><time>2026-05-03T16:39:48.594Z</time></trkpt><trkpt lat="43.7386908" lon="11.3146002"><ele>126.28571428571428</ele><time>2026-05-03T16:39:49.594Z</time></trkpt><trkpt lat="43.7386904" lon="11.3147087"><ele>126.71428571428571</ele><time>2026-05-03T16:39:50.594Z</time></trkpt><trkpt lat="43.7386905" lon="11.3148109"><ele>127.14285714285714</ele><time>2026-05-03T16:39:51.594Z</time></trkpt><trkpt lat="43.7386927" lon="11.3149052"><ele>127.57142857142857</ele><time>2026-05-03T16:39:52.593Z</time></trkpt><trkpt lat="43.7386915" lon="11.3149961"><ele>128.0</ele><time>2026-05-03T16:39:53.594Z</time></trkpt><trkpt lat="43.7386811" lon="11.3150906"><ele>128.4</ele><time>2026-05-03T16:39:54.593Z</time></trkpt><trkpt lat="43.7386855" lon="11.3151789"><ele>128.8</ele><time>2026-05-03T16:39:55.594Z</time></trkpt><trkpt lat="43.7386833" lon="11.3153272"><ele>129.2</ele><time>2026-05-03T16:39:57.594Z</time></trkpt><trkpt lat="43.7386737" lon="11.3154809"><ele>129.6</ele><time>2026-05-03T16:39:59.594Z</time></trkpt><trkpt lat="43.7386715" lon="11.3156231"><ele>130.0</ele><time>2026-05-03T16:40:01.594Z</time></trkpt><trkpt lat="43.7386732" lon="11.3157515"><ele>130.33333333333334</ele><time>2026-05-03T16:40:03.594Z</time></trkpt><trkpt lat="43.7386809" lon="11.3158896"><ele>130.66666666666669</ele><time>2026-05-03T16:40:05.594Z</time></trkpt><trkpt lat="43.7386997" lon="11.3160222"><ele>131.0</ele><time>2026-05-03T16:40:07.594Z</time></trkpt><trkpt lat="43.7387401" lon="11.3161157"><ele>131.33333333333334</ele><time>2026-05-03T16:40:10.594Z</time></trkpt><trkpt lat="43.7388067" lon="11.3161605"><ele>131.66666666666666</ele><time>2026-05-03T16:40:13.594Z</time></trkpt><trkpt lat="43.7388883" lon="11.316175"><ele>132.0</ele><time>2026-05-03T16:40:16.593Z</time></trkpt><trkpt lat="43.7389694" lon="11.3161784"><ele>132.0</ele><time>2026-05-03T16:40:19.593Z</time></trkpt><trkpt lat="43.7390666" lon="11.3161831"><ele>132.0</ele><time>2026-05-03T16:40:22.593Z</time></trkpt><trkpt lat="43.7391598" lon="11.316172"><ele>132.0</ele><time>2026-05-03T16:40:25.594Z</time></trkpt><trkpt lat="43.7392172" lon="11.3161083"><ele>132.0</ele><time>2026-05-03T16:40:27.593Z</time></trkpt><trkpt lat="43.7392836" lon="11.316038"><ele>132.0</ele><time>2026-05-03T16:40:29.594Z</time></trkpt><trkpt lat="43.7393743" lon="11.3159894"><ele>132.0</ele><time>2026-05-03T16:40:31.594Z</time></trkpt><trkpt lat="43.7394626" lon="11.3159357"><ele>122.0</ele><time>2026-05-03T16:40:33.594Z</time></trkpt><trkpt lat="43.7395586" lon="11.3158935"><ele>122.0</ele><time>2026-05-03T16:40:35.594Z</time></trkpt><trkpt lat="43.7396454" lon="11.3158498"><ele>122.0</ele><time>2026-05-03T16:40:37.594Z</time></trkpt><trkpt lat="43.7397071" lon="11.3158279"><ele>122.0</ele><time>2026-05-03T16:40:39.593Z</time></trkpt><trkpt lat="43.7397021" lon="11.315917"><ele>122.0</ele><time>2026-05-03T16:41:27.6Z</time></trkpt></trkseg></trk></gpx>